<?xml version='1.0' encoding='UTF-8'?><gpx version="1.1" creator="JPX - https://github.com/jenetics/jpx" xmlns="http://www.topografix.com/GPX/1/1"><trk><trkseg><trkpt lat="43.1520532" lon="11.6492503"><ele>336.0</ele><time>2026-04-19T14:40:15.058Z</time></trkpt><trkpt lat="43.1519554" lon="11.6491913"><ele>336.0</ele><time>2026-04-19T14:40:17.057Z</time></trkpt><trkpt lat="43.1518504" lon="11.6491492"><ele>336.0</ele><time>2026-04-19T14:40:19.057Z</time></trkpt><trkpt lat="43.1517448" lon="11.6491345"><ele>336.0</ele><time>2026-04-19T14:40:21.057Z</time></trkpt><trkpt lat="43.1516335" lon="11.6491551"><ele>336.0</ele><time>2026-04-19T14:40:23.057Z</time></trkpt><trkpt lat="43.1515241" lon="11.6492141"><ele>334.3333333333333</ele><time>2026-04-19T14:40:25.057Z</time></trkpt><trkpt lat="43.1514278" lon="11.6493246"><ele>332.6666666666667</ele><time>2026-04-19T14:40:27.057Z</time></trkpt><trkpt lat="43.1513828" lon="11.6493924"><ele>331.0</ele><time>2026-04-19T14:40:28.057Z</time></trkpt><trkpt lat="43.1513421" lon="11.6494664"><ele>329.33333333333337</ele><time>2026-04-19T14:40:29.057Z</time></trkpt><trkpt lat="43.151301" lon="11.6495482"><ele>327.6666666666667</ele><time>2026-04-19T14:40:30.057Z</time></trkpt><trkpt lat="43.1512575" lon="11.6496286"><ele>326.0</ele><time>2026-04-19T14:40:31.057Z</time></trkpt><trkpt lat="43.1512111" lon="11.6497213"><ele>326.0</ele><time>2026-04-19T14:40:32.058Z</time></trkpt><trkpt lat="43.1511507" lon="11.6498228"><ele>326.0</ele><time>2026-04-19T14:40:33.058Z</time></trkpt><trkpt lat="43.1510808" lon="11.6499411"><ele>326.0</ele><time>2026-04-19T14:40:34.058Z</time></trkpt><trkpt lat="43.1510099" lon="11.6500657"><ele>326.0</ele><time>2026-04-19T14:40:35.057Z</time></trkpt><trkpt lat="43.1509422" lon="11.6501914"><ele>326.0</ele><time>2026-04-19T14:40:36.057Z</time></trkpt><trkpt lat="43.1508858" lon="11.6503469"><ele>327.0</ele><time>2026-04-19T14:40:37.057Z</time></trkpt><trkpt lat="43.1508387" lon="11.6505182"><ele>328.0</ele><time>2026-04-19T14:40:38.057Z</time></trkpt><trkpt lat="43.1508093" lon="11.6507017"><ele>329.0</ele><time>2026-04-19T14:40:39.057Z</time></trkpt><trkpt lat="43.1507955" lon="11.6508859"><ele>330.0</ele><time>2026-04-19T14:40:40.057Z</time></trkpt><trkpt lat="43.1507984" lon="11.6510741"><ele>328.75</ele><time>2026-04-19T14:40:41.057Z</time></trkpt><trkpt lat="43.1508155" lon="11.6512666"><ele>327.5</ele><time>2026-04-19T14:40:42.057Z</time></trkpt><trkpt lat="43.1508471" lon="11.6514558"><ele>326.25</ele><time>2026-04-19T14:40:43.057Z</time></trkpt><trkpt lat="43.1508804" lon="11.6516309"><ele>325.0</ele><time>2026-04-19T14:40:44.057Z</time></trkpt><trkpt lat="43.1509111" lon="11.6518011"><ele>324.2</ele><time>2026-04-19T14:40:45.057Z</time></trkpt><trkpt lat="43.1509395" lon="11.6519617"><ele>323.4</ele><time>2026-04-19T14:40:46.057Z</time></trkpt><trkpt lat="43.1509583" lon="11.6521087"><ele>322.6</ele><time>2026-04-19T14:40:47.057Z</time></trkpt><trkpt lat="43.1509674" lon="11.6522547"><ele>321.8</ele><time>2026-04-19T14:40:48.057Z</time></trkpt><trkpt lat="43.1509576" lon="11.6523993"><ele>321.0</ele><time>2026-04-19T14:40:49.057Z</time></trkpt><trkpt lat="43.1509277" lon="11.6525433"><ele>321.0</ele><time>2026-04-19T14:40:50.058Z</time></trkpt><trkpt lat="43.1508749" lon="11.6526796"><ele>321.0</ele><time>2026-04-19T14:40:51.058Z</time></trkpt><trkpt lat="43.1508008" lon="11.6528046"><ele>321.0</ele><time>2026-04-19T14:40:52.058Z</time></trkpt><trkpt lat="43.150716" lon="11.6529195"><ele>321.0</ele><time>2026-04-19T14:40:53.057Z</time></trkpt><trkpt lat="43.1506288" lon="11.6530241"><ele>322.6</ele><time>2026-04-19T14:40:54.057Z</time></trkpt><trkpt lat="43.1505406" lon="11.6531224"><ele>324.20000000000005</ele><time>2026-04-19T14:40:55.057Z</time></trkpt><trkpt lat="43.1504508" lon="11.6532074"><ele>325.79999999999995</ele><time>2026-04-19T14:40:56.057Z</time></trkpt><trkpt lat="43.150365" lon="11.6532599"><ele>327.4</ele><time>2026-04-19T14:40:57.057Z</time></trkpt><trkpt lat="43.1502642" lon="11.6532668"><ele>329.0</ele><time>2026-04-19T14:40:58.057Z</time></trkpt><trkpt lat="43.150176" lon="11.6532694"><ele>329.0</ele><time>2026-04-19T14:40:59.057Z</time></trkpt><trkpt lat="43.150096" lon="11.6531554"><ele>329.0</ele><time>2026-04-19T14:41:00.057Z</time></trkpt><trkpt lat="43.1500079" lon="11.6531067"><ele>329.0</ele><time>2026-04-19T14:41:01.058Z</time></trkpt><trkpt lat="43.1499245" lon="11.6530803"><ele>329.0</ele><time>2026-04-19T14:41:02.058Z</time></trkpt><trkpt lat="43.1498404" lon="11.6530963"><ele>329.0</ele><time>2026-04-19T14:41:03.057Z</time></trkpt><trkpt lat="43.1497673" lon="11.6531503"><ele>332.6666666666667</ele><time>2026-04-19T14:41:04.057Z</time></trkpt><trkpt lat="43.1497023" lon="11.6532385"><ele>336.33333333333337</ele><time>2026-04-19T14:41:05.057Z</time></trkpt><trkpt lat="43.1496397" lon="11.6533369"><ele>340.0</ele><time>2026-04-19T14:41:06.057Z</time></trkpt><trkpt lat="43.1495793" lon="11.6534208"><ele>343.6666666666667</ele><time>2026-04-19T14:41:07.057Z</time></trkpt><trkpt lat="43.1494843" lon="11.6534693"><ele>347.3333333333333</ele><time>2026-04-19T14:41:09.058Z</time></trkpt><trkpt lat="43.1494431" lon="11.6533967"><ele>351.0</ele><time>2026-04-19T14:41:11.057Z</time></trkpt><trkpt lat="43.149462" lon="11.6532644"><ele>351.0</ele><time>2026-04-19T14:41:13.058Z</time></trkpt><trkpt lat="43.1495056" lon="11.6531877"><ele>351.0</ele><time>2026-04-19T14:41:14.057Z</time></trkpt><trkpt lat="43.1495326" lon="11.6530935"><ele>351.0</ele><time>2026-04-19T14:41:15.057Z</time></trkpt><trkpt lat="43.1495408" lon="11.65298"><ele>351.0</ele><time>2026-04-19T14:41:16.058Z</time></trkpt><trkpt lat="43.1495348" lon="11.6528646"><ele>351.0</ele><time>2026-04-19T14:41:17.057Z</time></trkpt><trkpt lat="43.1495086" lon="11.6527422"><ele>351.0</ele><time>2026-04-19T14:41:18.057Z</time></trkpt><trkpt lat="43.1494752" lon="11.6526212"><ele>352.20000000000005</ele><time>2026-04-19T14:41:19.057Z</time></trkpt><trkpt lat="43.1494336" lon="11.6525154"><ele>353.40000000000003</ele><time>2026-04-19T14:41:20.058Z</time></trkpt><trkpt lat="43.1493859" lon="11.6524005"><ele>354.6</ele><time>2026-04-19T14:41:21.058Z</time></trkpt><trkpt lat="43.1493595" lon="11.6522778"><ele>355.8</ele><time>2026-04-19T14:41:22.058Z</time></trkpt><trkpt lat="43.1493462" lon="11.6521485"><ele>357.0</ele><time>2026-04-19T14:41:23.057Z</time></trkpt><trkpt lat="43.1493353" lon="11.6520284"><ele>357.0</ele><time>2026-04-19T14:41:24.057Z</time></trkpt><trkpt lat="43.1493097" lon="11.6519282"><ele>357.0</ele><time>2026-04-19T14:41:25.057Z</time></trkpt><trkpt lat="43.1492698" lon="11.6518606"><ele>357.0</ele><time>2026-04-19T14:41:26.057Z</time></trkpt><trkpt lat="43.1491603" lon="11.6518414"><ele>357.0</ele><time>2026-04-19T14:41:28.057Z</time></trkpt><trkpt lat="43.1490982" lon="11.6519776"><ele>357.0</ele><time>2026-04-19T14:41:30.057Z</time></trkpt><trkpt lat="43.1490919" lon="11.6520738"><ele>357.0</ele><time>2026-04-19T14:41:31.057Z</time></trkpt><trkpt lat="43.1490939" lon="11.6521787"><ele>357.0</ele><time>2026-04-19T14:41:32.057Z</time></trkpt><trkpt lat="43.1491087" lon="11.6522972"><ele>357.0</ele><time>2026-04-19T14:41:33.057Z</time></trkpt><trkpt lat="43.1491196" lon="11.6524295"><ele>357.0</ele><time>2026-04-19T14:41:34.057Z</time></trkpt><trkpt lat="43.149122" lon="11.6525473"><ele>357.0</ele><time>2026-04-19T14:41:35.057Z</time></trkpt><trkpt lat="43.1491191" lon="11.6526676"><ele>357.0</ele><time>2026-04-19T14:41:36.057Z</time></trkpt><trkpt lat="43.1491009" lon="11.6527844"><ele>357.0</ele><time>2026-04-19T14:41:37.057Z</time></trkpt><trkpt lat="43.1490588" lon="11.6528825"><ele>359.20000000000005</ele><time>2026-04-19T14:41:38.057Z</time></trkpt><trkpt lat="43.1490037" lon="11.6529626"><ele>361.4</ele><time>2026-04-19T14:41:39.057Z</time></trkpt><trkpt lat="43.1489387" lon="11.6530222"><ele>363.6</ele><time>2026-04-19T14:41:40.057Z</time></trkpt><trkpt lat="43.1488473" lon="11.6530645"><ele>365.79999999999995</ele><time>2026-04-19T14:41:41.057Z</time></trkpt><trkpt lat="43.1487592" lon="11.653104"><ele>368.0</ele><time>2026-04-19T14:41:42.057Z</time></trkpt><trkpt lat="43.1486566" lon="11.6531416"><ele>368.0</ele><time>2026-04-19T14:41:43.058Z</time></trkpt><trkpt lat="43.1485531" lon="11.6531534"><ele>368.0</ele><time>2026-04-19T14:41:44.058Z</time></trkpt><trkpt lat="43.1484411" lon="11.6531672"><ele>368.0</ele><time>2026-04-19T14:41:45.057Z</time></trkpt><trkpt lat="43.1483271" lon="11.6531312"><ele>368.0</ele><time>2026-04-19T14:41:46.057Z</time></trkpt><trkpt lat="43.1482154" lon="11.6531073"><ele>368.0</ele><time>2026-04-19T14:41:47.057Z</time></trkpt><trkpt lat="43.1480918" lon="11.6530946"><ele>370.5</ele><time>2026-04-19T14:41:48.057Z</time></trkpt><trkpt lat="43.1479752" lon="11.6530725"><ele>373.0</ele><time>2026-04-19T14:41:49.057Z</time></trkpt><trkpt lat="43.1478465" lon="11.6530721"><ele>375.5</ele><time>2026-04-19T14:41:50.058Z</time></trkpt><trkpt lat="43.1477169" lon="11.653084"><ele>378.0</ele><time>2026-04-19T14:41:51.057Z</time></trkpt><trkpt lat="43.1475968" lon="11.6530932"><ele>378.0</ele><time>2026-04-19T14:41:52.057Z</time></trkpt><trkpt lat="43.1474733" lon="11.6531049"><ele>378.0</ele><time>2026-04-19T14:41:53.057Z</time></trkpt><trkpt lat="43.1473432" lon="11.6531139"><ele>378.0</ele><time>2026-04-19T14:41:54.057Z</time></trkpt><trkpt lat="43.1472297" lon="11.6531237"><ele>378.0</ele><time>2026-04-19T14:41:55.057Z</time></trkpt><trkpt lat="43.1471256" lon="11.6531363"><ele>379.8333333333333</ele><time>2026-04-19T14:41:56.058Z</time></trkpt><trkpt lat="43.1470326" lon="11.6531763"><ele>381.66666666666663</ele><time>2026-04-19T14:41:57.058Z</time></trkpt><trkpt lat="43.1469551" lon="11.6532434"><ele>383.5</ele><time>2026-04-19T14:41:58.057Z</time></trkpt><trkpt lat="43.1469035" lon="11.6533417"><ele>385.3333333333333</ele><time>2026-04-19T14:41:59.057Z</time></trkpt><trkpt lat="43.1469005" lon="11.6534497"><ele>387.16666666666663</ele><time>2026-04-19T14:42:00.058Z</time></trkpt><trkpt lat="43.1469226" lon="11.6535594"><ele>389.0</ele><time>2026-04-19T14:42:01.058Z</time></trkpt><trkpt lat="43.1469509" lon="11.653658"><ele>390.2</ele><time>2026-04-19T14:42:02.057Z</time></trkpt><trkpt lat="43.147024" lon="11.6537435"><ele>391.4</ele><time>2026-04-19T14:42:03.057Z</time></trkpt><trkpt lat="43.1470965" lon="11.6538347"><ele>392.6</ele><time>2026-04-19T14:42:04.057Z</time></trkpt><trkpt lat="43.1471719" lon="11.653929"><ele>393.8</ele><time>2026-04-19T14:42:05.058Z</time></trkpt><trkpt lat="43.1472489" lon="11.6540095"><ele>395.0</ele><time>2026-04-19T14:42:06.057Z</time></trkpt><trkpt lat="43.1472961" lon="11.6541233"><ele>394.99999999999994</ele><time>2026-04-19T14:42:07.058Z</time></trkpt><trkpt lat="43.1473182" lon="11.654239"><ele>395.0</ele><time>2026-04-19T14:42:08.057Z</time></trkpt><trkpt lat="43.1473068" lon="11.6543524"><ele>395.0</ele><time>2026-04-19T14:42:09.057Z</time></trkpt><trkpt lat="43.1472691" lon="11.6544423"><ele>395.0</ele><time>2026-04-19T14:42:10.057Z</time></trkpt><trkpt lat="43.1472138" lon="11.6545172"><ele>394.99999999999994</ele><time>2026-04-19T14:42:11.057Z</time></trkpt><trkpt lat="43.1471287" lon="11.6545547"><ele>395.0</ele><time>2026-04-19T14:42:12.057Z</time></trkpt><trkpt lat="43.1470423" lon="11.6545868"><ele>394.4</ele><time>2026-04-19T14:42:13.058Z</time></trkpt><trkpt lat="43.146934" lon="11.6546303"><ele>393.8</ele><time>2026-04-19T14:42:14.057Z</time></trkpt><trkpt lat="43.1468253" lon="11.6546781"><ele>393.20000000000005</ele><time>2026-04-19T14:42:15.057Z</time></trkpt><trkpt lat="43.1467287" lon="11.6547447"><ele>392.6</ele><time>2026-04-19T14:42:16.057Z</time></trkpt><trkpt lat="43.1466551" lon="11.6548371"><ele>392.0</ele><time>2026-04-19T14:42:17.057Z</time></trkpt><trkpt lat="43.1466114" lon="11.6549529"><ele>392.0</ele><time>2026-04-19T14:42:18.057Z</time></trkpt><trkpt lat="43.1466014" lon="11.6550762"><ele>392.0</ele><time>2026-04-19T14:42:19.058Z</time></trkpt><trkpt lat="43.1466238" lon="11.6552085"><ele>392.0</ele><time>2026-04-19T14:42:20.057Z</time></trkpt><trkpt lat="43.1466712" lon="11.6553253"><ele>392.0</ele><time>2026-04-19T14:42:21.057Z</time></trkpt><trkpt lat="43.1467338" lon="11.6554492"><ele>392.0</ele><time>2026-04-19T14:42:22.057Z</time></trkpt><trkpt lat="43.1467932" lon="11.655579"><ele>392.8</ele><time>2026-04-19T14:42:23.057Z</time></trkpt><trkpt lat="43.146856" lon="11.6557134"><ele>393.6</ele><time>2026-04-19T14:42:24.057Z</time></trkpt><trkpt lat="43.1469106" lon="11.6558246"><ele>394.40000000000003</ele><time>2026-04-19T14:42:25.057Z</time></trkpt><trkpt lat="43.1469345" lon="11.6559412"><ele>395.20000000000005</ele><time>2026-04-19T14:42:26.058Z</time></trkpt><trkpt lat="43.1469401" lon="11.6560503"><ele>396.0</ele><time>2026-04-19T14:42:27.057Z</time></trkpt><trkpt lat="43.146915" lon="11.6561554"><ele>394.4</ele><time>2026-04-19T14:42:28.057Z</time></trkpt><trkpt lat="43.1468618" lon="11.6562386"><ele>392.8</ele><time>2026-04-19T14:42:29.057Z</time></trkpt><trkpt lat="43.1467873" lon="11.6562941"><ele>391.2</ele><time>2026-04-19T14:42:30.057Z</time></trkpt><trkpt lat="43.1466997" lon="11.6563175"><ele>389.59999999999997</ele><time>2026-04-19T14:42:31.057Z</time></trkpt><trkpt lat="43.1466014" lon="11.6563022"><ele>388.0</ele><time>2026-04-19T14:42:32.057Z</time></trkpt><trkpt lat="43.1464962" lon="11.6562611"><ele>388.0</ele><time>2026-04-19T14:42:33.057Z</time></trkpt><trkpt lat="43.1463843" lon="11.6562119"><ele>388.0</ele><time>2026-04-19T14:42:34.057Z</time></trkpt><trkpt lat="43.146263" lon="11.6561566"><ele>388.0</ele><time>2026-04-19T14:42:35.057Z</time></trkpt><trkpt lat="43.1461358" lon="11.6560988"><ele>388.0</ele><time>2026-04-19T14:42:36.057Z</time></trkpt><trkpt lat="43.1460145" lon="11.6560433"><ele>391.75</ele><time>2026-04-19T14:42:37.057Z</time></trkpt><trkpt lat="43.1458872" lon="11.6559892"><ele>395.5</ele><time>2026-04-19T14:42:38.057Z</time></trkpt><trkpt lat="43.1457554" lon="11.6559348"><ele>399.25</ele><time>2026-04-19T14:42:39.057Z</time></trkpt><trkpt lat="43.1456229" lon="11.6558824"><ele>403.0</ele><time>2026-04-19T14:42:40.057Z</time></trkpt><trkpt lat="43.1455003" lon="11.6558466"><ele>405.25</ele><time>2026-04-19T14:42:41.057Z</time></trkpt><trkpt lat="43.1453827" lon="11.6558498"><ele>407.5</ele><time>2026-04-19T14:42:42.058Z</time></trkpt><trkpt lat="43.1452727" lon="11.6559028"><ele>409.75</ele><time>2026-04-19T14:42:43.057Z</time></trkpt><trkpt lat="43.145173" lon="11.6559828"><ele>412.0</ele><time>2026-04-19T14:42:44.057Z</time></trkpt><trkpt lat="43.1450974" lon="11.6560997"><ele>412.25</ele><time>2026-04-19T14:42:45.058Z</time></trkpt><trkpt lat="43.1450321" lon="11.6562296"><ele>412.5</ele><time>2026-04-19T14:42:46.057Z</time></trkpt><trkpt lat="43.1449602" lon="11.6563557"><ele>412.75</ele><time>2026-04-19T14:42:47.057Z</time></trkpt><trkpt lat="43.1448737" lon="11.6564614"><ele>413.0</ele><time>2026-04-19T14:42:48.057Z</time></trkpt><trkpt lat="43.1447706" lon="11.6565427"><ele>413.0</ele><time>2026-04-19T14:42:49.057Z</time></trkpt><trkpt lat="43.1446536" lon="11.6565851"><ele>413.0</ele><time>2026-04-19T14:42:50.057Z</time></trkpt><trkpt lat="43.1445308" lon="11.6566083"><ele>413.0</ele><time>2026-04-19T14:42:51.057Z</time></trkpt><trkpt lat="43.1444026" lon="11.6566508"><ele>413.0</ele><time>2026-04-19T14:42:52.057Z</time></trkpt><trkpt lat="43.1442865" lon="11.6567209"><ele>413.0</ele><time>2026-04-19T14:42:53.057Z</time></trkpt><trkpt lat="43.1441744" lon="11.6568115"><ele>413.0</ele><time>2026-04-19T14:42:54.057Z</time></trkpt><trkpt lat="43.1440595" lon="11.6568963"><ele>413.0</ele><time>2026-04-19T14:42:55.057Z</time></trkpt><trkpt lat="43.1439427" lon="11.6569706"><ele>413.0</ele><time>2026-04-19T14:42:56.057Z</time></trkpt><trkpt lat="43.1438194" lon="11.6570211"><ele>412.0</ele><time>2026-04-19T14:42:57.057Z</time></trkpt><trkpt lat="43.1436917" lon="11.6570577"><ele>411.0</ele><time>2026-04-19T14:42:58.057Z</time></trkpt><trkpt lat="43.1435623" lon="11.6570709"><ele>410.0</ele><time>2026-04-19T14:42:59.058Z</time></trkpt><trkpt lat="43.1434457" lon="11.6570712"><ele>409.0</ele><time>2026-04-19T14:43:00.058Z</time></trkpt><trkpt lat="43.1433394" lon="11.6570731"><ele>409.0</ele><time>2026-04-19T14:43:01.058Z</time></trkpt><trkpt lat="43.1432392" lon="11.6570964"><ele>409.0</ele><time>2026-04-19T14:43:02.057Z</time></trkpt><trkpt lat="43.1431556" lon="11.6571495"><ele>409.0</ele><time>2026-04-19T14:43:03.057Z</time></trkpt><trkpt lat="43.1430778" lon="11.6572317"><ele>409.0</ele><time>2026-04-19T14:43:04.058Z</time></trkpt><trkpt lat="43.1430156" lon="11.6573474"><ele>409.0</ele><time>2026-04-19T14:43:05.057Z</time></trkpt><trkpt lat="43.1429568" lon="11.6574807"><ele>410.75</ele><time>2026-04-19T14:43:06.057Z</time></trkpt><trkpt lat="43.1428998" lon="11.6576282"><ele>412.5</ele><time>2026-04-19T14:43:07.057Z</time></trkpt><trkpt lat="43.1428555" lon="11.657765"><ele>414.25</ele><time>2026-04-19T14:43:08.057Z</time></trkpt><trkpt lat="43.1428147" lon="11.6579105"><ele>416.0</ele><time>2026-04-19T14:43:09.057Z</time></trkpt><trkpt lat="43.1427765" lon="11.6580671"><ele>417.75</ele><time>2026-04-19T14:43:10.057Z</time></trkpt><trkpt lat="43.1427514" lon="11.6582314"><ele>419.5</ele><time>2026-04-19T14:43:11.057Z</time></trkpt><trkpt lat="43.1427419" lon="11.6584034"><ele>421.25</ele><time>2026-04-19T14:43:12.058Z</time></trkpt><trkpt lat="43.1427394" lon="11.658582"><ele>423.0</ele><time>2026-04-19T14:43:13.057Z</time></trkpt><trkpt lat="43.1427242" lon="11.6587606"><ele>424.0</ele><time>2026-04-19T14:43:14.058Z</time></trkpt><trkpt lat="43.1427189" lon="11.6589411"><ele>425.0</ele><time>2026-04-19T14:43:15.057Z</time></trkpt><trkpt lat="43.1427044" lon="11.6591158"><ele>426.0</ele><time>2026-04-19T14:43:16.057Z</time></trkpt><trkpt lat="43.1426812" lon="11.6592876"><ele>427.0</ele><time>2026-04-19T14:43:17.057Z</time></trkpt><trkpt lat="43.1426546" lon="11.6594633"><ele>427.0</ele><time>2026-04-19T14:43:18.058Z</time></trkpt><trkpt lat="43.1426101" lon="11.6596266"><ele>427.0</ele><time>2026-04-19T14:43:19.058Z</time></trkpt><trkpt lat="43.1425647" lon="11.6597826"><ele>427.0</ele><time>2026-04-19T14:43:20.057Z</time></trkpt><trkpt lat="43.1425175" lon="11.6599253"><ele>427.0</ele><time>2026-04-19T14:43:21.057Z</time></trkpt><trkpt lat="43.1424388" lon="11.6600686"><ele>429.0</ele><time>2026-04-19T14:43:22.057Z</time></trkpt><trkpt lat="43.142377" lon="11.6602155"><ele>431.0</ele><time>2026-04-19T14:43:23.058Z</time></trkpt><trkpt lat="43.1423193" lon="11.6603687"><ele>433.0</ele><time>2026-04-19T14:43:24.058Z</time></trkpt><trkpt lat="43.1422695" lon="11.6605245"><ele>435.0</ele><time>2026-04-19T14:43:25.057Z</time></trkpt><trkpt lat="43.1422466" lon="11.6606915"><ele>435.0</ele><time>2026-04-19T14:43:26.058Z</time></trkpt><trkpt lat="43.1422345" lon="11.6608561"><ele>435.0</ele><time>2026-04-19T14:43:27.057Z</time></trkpt><trkpt lat="43.1422107" lon="11.6610186"><ele>435.0</ele><time>2026-04-19T14:43:28.057Z</time></trkpt><trkpt lat="43.1421978" lon="11.6611622"><ele>435.0</ele><time>2026-04-19T14:43:29.058Z</time></trkpt><trkpt lat="43.1421894" lon="11.6612914"><ele>435.0</ele><time>2026-04-19T14:43:30.057Z</time></trkpt><trkpt lat="43.1421853" lon="11.6614144"><ele>435.3333333333333</ele><time>2026-04-19T14:43:31.058Z</time></trkpt><trkpt lat="43.1421772" lon="11.6615378"><ele>435.66666666666663</ele><time>2026-04-19T14:43:32.057Z</time></trkpt><trkpt lat="43.1421611" lon="11.6616551"><ele>436.0</ele><time>2026-04-19T14:43:33.057Z</time></trkpt><trkpt lat="43.1421423" lon="11.6617683"><ele>436.3333333333333</ele><time>2026-04-19T14:43:34.057Z</time></trkpt><trkpt lat="43.1421201" lon="11.6618712"><ele>436.66666666666663</ele><time>2026-04-19T14:43:35.057Z</time></trkpt><trkpt lat="43.1421024" lon="11.6619595"><ele>437.0</ele><time>2026-04-19T14:43:36.057Z</time></trkpt><trkpt lat="43.1420638" lon="11.662124"><ele>437.1428571428571</ele><time>2026-04-19T14:43:38.057Z</time></trkpt><trkpt lat="43.1420376" lon="11.6622179"><ele>437.28571428571433</ele><time>2026-04-19T14:43:39.058Z</time></trkpt><trkpt lat="43.1420077" lon="11.6623081"><ele>437.42857142857144</ele><time>2026-04-19T14:43:40.057Z</time></trkpt><trkpt lat="43.1419718" lon="11.6623997"><ele>437.57142857142856</ele><time>2026-04-19T14:43:41.057Z</time></trkpt><trkpt lat="43.1419399" lon="11.6624818"><ele>437.71428571428567</ele><time>2026-04-19T14:43:42.057Z</time></trkpt><trkpt lat="43.1419022" lon="11.6625643"><ele>437.8571428571429</ele><time>2026-04-19T14:43:43.057Z</time></trkpt><trkpt lat="43.1418557" lon="11.6626397"><ele>438.0</ele><time>2026-04-19T14:43:44.058Z</time></trkpt><trkpt lat="43.1418052" lon="11.6627252"><ele>437.3333333333333</ele><time>2026-04-19T14:43:45.057Z</time></trkpt><trkpt lat="43.1417622" lon="11.6628124"><ele>436.66666666666663</ele><time>2026-04-19T14:43:46.058Z</time></trkpt><trkpt lat="43.141715" lon="11.6628932"><ele>436.0</ele><time>2026-04-19T14:43:47.057Z</time></trkpt><trkpt lat="43.1416679" lon="11.6629833"><ele>435.3333333333333</ele><time>2026-04-19T14:43:48.057Z</time></trkpt><trkpt lat="43.14162" lon="11.6630651"><ele>434.66666666666663</ele><time>2026-04-19T14:43:49.057Z</time></trkpt><trkpt lat="43.141575" lon="11.6631372"><ele>434.0</ele><time>2026-04-19T14:43:50.057Z</time></trkpt><trkpt lat="43.1415333" lon="11.6632157"><ele>433.6</ele><time>2026-04-19T14:43:51.058Z</time></trkpt><trkpt lat="43.1414666" lon="11.6633519"><ele>433.2</ele><time>2026-04-19T14:43:53.057Z</time></trkpt><trkpt lat="43.1414082" lon="11.6634677"><ele>432.80000000000007</ele><time>2026-04-19T14:43:55.057Z</time></trkpt><trkpt lat="43.1413603" lon="11.6635851"><ele>432.40000000000003</ele><time>2026-04-19T14:43:57.057Z</time></trkpt><trkpt lat="43.1413184" lon="11.6637103"><ele>432.0</ele><time>2026-04-19T14:43:59.057Z</time></trkpt><trkpt lat="43.1412793" lon="11.6638233"><ele>432.0</ele><time>2026-04-19T14:44:01.057Z</time></trkpt><trkpt lat="43.1412321" lon="11.663886"><ele>432.00000000000006</ele><time>2026-04-19T14:44:03.057Z</time></trkpt><trkpt lat="43.1411657" lon="11.6638646"><ele>432.00000000000006</ele><time>2026-04-19T14:44:05.057Z</time></trkpt><trkpt lat="43.1410763" lon="11.6637861"><ele>432.0</ele><time>2026-04-19T14:44:07.058Z</time></trkpt><trkpt lat="43.1409956" lon="11.6636916"><ele>432.0</ele><time>2026-04-19T14:44:09.058Z</time></trkpt><trkpt lat="43.1409703" lon="11.6635493"><ele>432.0</ele><time>2026-04-19T14:44:11.058Z</time></trkpt><trkpt lat="43.1409893" lon="11.6633785"><ele>432.0</ele><time>2026-04-19T14:44:13.058Z</time></trkpt><trkpt lat="43.1409968" lon="11.663291"><ele>432.0</ele><time>2026-04-19T14:44:14.057Z</time></trkpt><trkpt lat="43.1410005" lon="11.6631931"><ele>432.0</ele><time>2026-04-19T14:44:15.057Z</time></trkpt><trkpt lat="43.1409604" lon="11.6631076"><ele>432.0</ele><time>2026-04-19T14:44:16.058Z</time></trkpt><trkpt lat="43.1409275" lon="11.6630187"><ele>432.0</ele><time>2026-04-19T14:44:17.057Z</time></trkpt><trkpt lat="43.1408896" lon="11.6629193"><ele>432.0</ele><time>2026-04-19T14:44:18.058Z</time></trkpt><trkpt lat="43.1408467" lon="11.6628182"><ele>432.00000000000006</ele><time>2026-04-19T14:44:19.057Z</time></trkpt><trkpt lat="43.1408057" lon="11.6627066"><ele>432.00000000000006</ele><time>2026-04-19T14:44:20.057Z</time></trkpt><trkpt lat="43.1407598" lon="11.6625882"><ele>432.0</ele><time>2026-04-19T14:44:21.057Z</time></trkpt><trkpt lat="43.1407067" lon="11.6624694"><ele>432.0</ele><time>2026-04-19T14:44:22.058Z</time></trkpt><trkpt lat="43.1406494" lon="11.6623477"><ele>426.0</ele><time>2026-04-19T14:44:23.057Z</time></trkpt><trkpt lat="43.1405938" lon="11.662224"><ele>420.00000000000006</ele><time>2026-04-19T14:44:24.057Z</time></trkpt><trkpt lat="43.1405328" lon="11.6620926"><ele>414.0</ele><time>2026-04-19T14:44:25.058Z</time></trkpt><trkpt lat="43.1404722" lon="11.6619665"><ele>408.0</ele><time>2026-04-19T14:44:26.057Z</time></trkpt><trkpt lat="43.140418" lon="11.6618518"><ele>402.0</ele><time>2026-04-19T14:44:27.058Z</time></trkpt><trkpt lat="43.1403728" lon="11.6617372"><ele>401.3333333333333</ele><time>2026-04-19T14:44:28.057Z</time></trkpt><trkpt lat="43.1403397" lon="11.661616"><ele>400.66666666666663</ele><time>2026-04-19T14:44:29.058Z</time></trkpt><trkpt lat="43.1403373" lon="11.6614949"><ele>400.0</ele><time>2026-04-19T14:44:30.058Z</time></trkpt><trkpt lat="43.1403485" lon="11.6613883"><ele>399.3333333333333</ele><time>2026-04-19T14:44:31.058Z</time></trkpt><trkpt lat="43.1403628" lon="11.6612775"><ele>398.66666666666663</ele><time>2026-04-19T14:44:32.058Z</time></trkpt><trkpt lat="43.1403776" lon="11.6611768"><ele>398.0</ele><time>2026-04-19T14:44:33.058Z</time></trkpt><trkpt lat="43.1403827" lon="11.661088"><ele>397.16666666666663</ele><time>2026-04-19T14:44:34.058Z</time></trkpt><trkpt lat="43.1403392" lon="11.6609404"><ele>396.3333333333333</ele><time>2026-04-19T14:44:36.058Z</time></trkpt><trkpt lat="43.1402808" lon="11.6608861"><ele>395.5</ele><time>2026-04-19T14:44:37.057Z</time></trkpt><trkpt lat="43.140211" lon="11.6608414"><ele>394.66666666666663</ele><time>2026-04-19T14:44:38.057Z</time></trkpt><trkpt lat="43.1401429" lon="11.6607981"><ele>393.8333333333333</ele><time>2026-04-19T14:44:39.057Z</time></trkpt><trkpt lat="43.1400598" lon="11.6607565"><ele>393.0</ele><time>2026-04-19T14:44:40.057Z</time></trkpt><trkpt lat="43.1399682" lon="11.6607145"><ele>393.0</ele><time>2026-04-19T14:44:41.057Z</time></trkpt><trkpt lat="43.1398855" lon="11.6606746"><ele>393.0</ele><time>2026-04-19T14:44:42.057Z</time></trkpt><trkpt lat="43.1397978" lon="11.6606378"><ele>393.0</ele><time>2026-04-19T14:44:43.057Z</time></trkpt><trkpt lat="43.1397176" lon="11.6605991"><ele>393.0</ele><time>2026-04-19T14:44:44.058Z</time></trkpt><trkpt lat="43.1396482" lon="11.660562"><ele>393.0</ele><time>2026-04-19T14:44:45.057Z</time></trkpt><trkpt lat="43.1395872" lon="11.6605353"><ele>393.0</ele><time>2026-04-19T14:44:46.057Z</time></trkpt><trkpt lat="43.1395145" lon="11.6604911"><ele>390.1666666666667</ele><time>2026-04-19T14:44:48.057Z</time></trkpt><trkpt lat="43.1394684" lon="11.6603765"><ele>387.3333333333333</ele><time>2026-04-19T14:44:51.057Z</time></trkpt><trkpt lat="43.1394616" lon="11.6602891"><ele>384.5</ele><time>2026-04-19T14:44:52.057Z</time></trkpt><trkpt lat="43.1394609" lon="11.6602008"><ele>381.66666666666663</ele><time>2026-04-19T14:44:53.058Z</time></trkpt><trkpt lat="43.1394666" lon="11.6600763"><ele>378.8333333333333</ele><time>2026-04-19T14:44:54.057Z</time></trkpt><trkpt lat="43.1394716" lon="11.6599504"><ele>376.0</ele><time>2026-04-19T14:44:55.057Z</time></trkpt><trkpt lat="43.1394737" lon="11.6598209"><ele>375.6</ele><time>2026-04-19T14:44:56.057Z</time></trkpt><trkpt lat="43.1394645" lon="11.659675"><ele>375.20000000000005</ele><time>2026-04-19T14:44:57.057Z</time></trkpt><trkpt lat="43.1394365" lon="11.6595217"><ele>374.79999999999995</ele><time>2026-04-19T14:44:58.058Z</time></trkpt><trkpt lat="43.139397" lon="11.6593765"><ele>374.4</ele><time>2026-04-19T14:44:59.057Z</time></trkpt><trkpt lat="43.1393451" lon="11.6592421"><ele>374.0</ele><time>2026-04-19T14:45:00.057Z</time></trkpt><trkpt lat="43.1392724" lon="11.659122"><ele>373.75</ele><time>2026-04-19T14:45:01.058Z</time></trkpt><trkpt lat="43.1391795" lon="11.6590225"><ele>373.5</ele><time>2026-04-19T14:45:02.057Z</time></trkpt><trkpt lat="43.1390733" lon="11.658934"><ele>373.25</ele><time>2026-04-19T14:45:03.058Z</time></trkpt><trkpt lat="43.1389594" lon="11.658848"><ele>373.0</ele><time>2026-04-19T14:45:04.057Z</time></trkpt><trkpt lat="43.1388408" lon="11.6587687"><ele>371.0</ele><time>2026-04-19T14:45:05.057Z</time></trkpt><trkpt lat="43.1387188" lon="11.6586949"><ele>369.0</ele><time>2026-04-19T14:45:06.057Z</time></trkpt><trkpt lat="43.1386025" lon="11.6586261"><ele>367.0</ele><time>2026-04-19T14:45:07.057Z</time></trkpt><trkpt lat="43.1384896" lon="11.6585582"><ele>365.0</ele><time>2026-04-19T14:45:08.058Z</time></trkpt><trkpt lat="43.138382" lon="11.6584865"><ele>365.0</ele><time>2026-04-19T14:45:09.057Z</time></trkpt><trkpt lat="43.1382757" lon="11.6584239"><ele>365.0</ele><time>2026-04-19T14:45:10.058Z</time></trkpt><trkpt lat="43.13818" lon="11.6583634"><ele>365.0</ele><time>2026-04-19T14:45:11.057Z</time></trkpt><trkpt lat="43.1380927" lon="11.6583004"><ele>365.0</ele><time>2026-04-19T14:45:12.058Z</time></trkpt><trkpt lat="43.1380168" lon="11.6582113"><ele>365.0</ele><time>2026-04-19T14:45:13.057Z</time></trkpt><trkpt lat="43.137972" lon="11.6580976"><ele>360.8</ele><time>2026-04-19T14:45:14.057Z</time></trkpt><trkpt lat="43.1379616" lon="11.6579757"><ele>356.6</ele><time>2026-04-19T14:45:15.057Z</time></trkpt><trkpt lat="43.1379831" lon="11.6578659"><ele>352.4</ele><time>2026-04-19T14:45:16.058Z</time></trkpt><trkpt lat="43.1380342" lon="11.6577636"><ele>348.2</ele><time>2026-04-19T14:45:17.057Z</time></trkpt><trkpt lat="43.1380799" lon="11.657651"><ele>344.0</ele><time>2026-04-19T14:45:18.057Z</time></trkpt><trkpt lat="43.1381026" lon="11.6575264"><ele>344.0</ele><time>2026-04-19T14:45:19.057Z</time></trkpt><trkpt lat="43.1381009" lon="11.6573953"><ele>344.0</ele><time>2026-04-19T14:45:20.057Z</time></trkpt><trkpt lat="43.1380743" lon="11.6572599"><ele>344.0</ele><time>2026-04-19T14:45:21.057Z</time></trkpt><trkpt lat="43.1380266" lon="11.6571302"><ele>344.0</ele><time>2026-04-19T14:45:22.057Z</time></trkpt><trkpt lat="43.1379589" lon="11.6570143"><ele>344.0</ele><time>2026-04-19T14:45:23.057Z</time></trkpt><trkpt lat="43.1378907" lon="11.6568978"><ele>344.4</ele><time>2026-04-19T14:45:24.058Z</time></trkpt><trkpt lat="43.1378196" lon="11.6567819"><ele>344.79999999999995</ele><time>2026-04-19T14:45:25.057Z</time></trkpt><trkpt lat="43.1377484" lon="11.6566667"><ele>345.20000000000005</ele><time>2026-04-19T14:45:26.057Z</time></trkpt><trkpt lat="43.1376961" lon="11.6565419"><ele>345.6</ele><time>2026-04-19T14:45:27.057Z</time></trkpt><trkpt lat="43.1376681" lon="11.6564006"><ele>346.0</ele><time>2026-04-19T14:45:28.057Z</time></trkpt><trkpt lat="43.1376659" lon="11.6562546"><ele>345.0</ele><time>2026-04-19T14:45:29.057Z</time></trkpt><trkpt lat="43.1376837" lon="11.6561133"><ele>344.0</ele><time>2026-04-19T14:45:30.057Z</time></trkpt><trkpt lat="43.1377218" lon="11.6559715"><ele>343.0</ele><time>2026-04-19T14:45:31.057Z</time></trkpt><trkpt lat="43.1377601" lon="11.6558279"><ele>342.0</ele><time>2026-04-19T14:45:32.057Z</time></trkpt><trkpt lat="43.1377997" lon="11.6556825"><ele>341.0</ele><time>2026-04-19T14:45:33.057Z</time></trkpt><trkpt lat="43.1378413" lon="11.6555388"><ele>341.0</ele><time>2026-04-19T14:45:34.057Z</time></trkpt><trkpt lat="43.1378767" lon="11.6553987"><ele>341.0</ele><time>2026-04-19T14:45:35.057Z</time></trkpt><trkpt lat="43.1379016" lon="11.6552705"><ele>341.0</ele><time>2026-04-19T14:45:36.057Z</time></trkpt><trkpt lat="43.1379019" lon="11.6551564"><ele>341.0</ele><time>2026-04-19T14:45:37.057Z</time></trkpt><trkpt lat="43.1378735" lon="11.6550528"><ele>341.0</ele><time>2026-04-19T14:45:38.057Z</time></trkpt><trkpt lat="43.1378195" lon="11.6549711"><ele>341.0</ele><time>2026-04-19T14:45:39.057Z</time></trkpt><trkpt lat="43.1377436" lon="11.6549244"><ele>339.6</ele><time>2026-04-19T14:45:40.057Z</time></trkpt><trkpt lat="43.1376601" lon="11.6549169"><ele>338.20000000000005</ele><time>2026-04-19T14:45:41.057Z</time></trkpt><trkpt lat="43.1375714" lon="11.6549484"><ele>336.79999999999995</ele><time>2026-04-19T14:45:42.057Z</time></trkpt><trkpt lat="43.137487" lon="11.6550099"><ele>335.4</ele><time>2026-04-19T14:45:43.057Z</time></trkpt><trkpt lat="43.137407" lon="11.6550949"><ele>334.0</ele><time>2026-04-19T14:45:44.057Z</time></trkpt><trkpt lat="43.1373214" lon="11.6551833"><ele>332.79999999999995</ele><time>2026-04-19T14:45:45.057Z</time></trkpt><trkpt lat="43.1372311" lon="11.6552668"><ele>331.59999999999997</ele><time>2026-04-19T14:45:46.057Z</time></trkpt><trkpt lat="43.1371392" lon="11.6553504"><ele>330.4</ele><time>2026-04-19T14:45:47.057Z</time></trkpt><trkpt lat="43.1370429" lon="11.6554317"><ele>329.2</ele><time>2026-04-19T14:45:48.058Z</time></trkpt><trkpt lat="43.1369477" lon="11.6555052"><ele>328.0</ele><time>2026-04-19T14:45:49.057Z</time></trkpt><trkpt lat="43.1368603" lon="11.655565"><ele>328.0</ele><time>2026-04-19T14:45:50.057Z</time></trkpt><trkpt lat="43.136768" lon="11.6556047"><ele>328.0</ele><time>2026-04-19T14:45:51.057Z</time></trkpt><trkpt lat="43.1366732" lon="11.6556031"><ele>328.0</ele><time>2026-04-19T14:45:52.057Z</time></trkpt><trkpt lat="43.1365878" lon="11.6555538"><ele>328.0</ele><time>2026-04-19T14:45:53.058Z</time></trkpt><trkpt lat="43.1365174" lon="11.6554689"><ele>328.0</ele><time>2026-04-19T14:45:54.057Z</time></trkpt><trkpt lat="43.136459" lon="11.65535"><ele>325.25</ele><time>2026-04-19T14:45:55.057Z</time></trkpt><trkpt lat="43.1364173" lon="11.6552082"><ele>322.5</ele><time>2026-04-19T14:45:56.057Z</time></trkpt><trkpt lat="43.1363802" lon="11.6550566"><ele>319.75</ele><time>2026-04-19T14:45:57.058Z</time></trkpt><trkpt lat="43.1363441" lon="11.6549027"><ele>317.0</ele><time>2026-04-19T14:45:58.057Z</time></trkpt><trkpt lat="43.1362956" lon="11.6547598"><ele>317.0</ele><time>2026-04-19T14:45:59.058Z</time></trkpt><trkpt lat="43.136235" lon="11.6546388"><ele>317.0</ele><time>2026-04-19T14:46:00.058Z</time></trkpt><trkpt lat="43.1361519" lon="11.6545354"><ele>317.0</ele><time>2026-04-19T14:46:01.057Z</time></trkpt><trkpt lat="43.1360576" lon="11.6544601"><ele>317.0</ele><time>2026-04-19T14:46:02.057Z</time></trkpt><trkpt lat="43.1359497" lon="11.6544264"><ele>317.0</ele><time>2026-04-19T14:46:03.057Z</time></trkpt><trkpt lat="43.1358219" lon="11.6544217"><ele>314.5</ele><time>2026-04-19T14:46:04.057Z</time></trkpt><trkpt lat="43.1356888" lon="11.6544449"><ele>312.0</ele><time>2026-04-19T14:46:05.057Z</time></trkpt><trkpt lat="43.1355535" lon="11.6544888"><ele>309.5</ele><time>2026-04-19T14:46:06.057Z</time></trkpt><trkpt lat="43.1354165" lon="11.6545434"><ele>307.0</ele><time>2026-04-19T14:46:07.058Z</time></trkpt><trkpt lat="43.1352805" lon="11.6546016"><ele>307.0</ele><time>2026-04-19T14:46:08.057Z</time></trkpt><trkpt lat="43.1351503" lon="11.6546589"><ele>307.0</ele><time>2026-04-19T14:46:09.057Z</time></trkpt><trkpt lat="43.1350205" lon="11.6547224"><ele>307.0</ele><time>2026-04-19T14:46:10.057Z</time></trkpt><trkpt lat="43.1348914" lon="11.6547883"><ele>307.0</ele><time>2026-04-19T14:46:11.057Z</time></trkpt><trkpt lat="43.1347706" lon="11.6548508"><ele>307.5</ele><time>2026-04-19T14:46:12.057Z</time></trkpt><trkpt lat="43.134659" lon="11.6549227"><ele>308.0</ele><time>2026-04-19T14:46:13.057Z</time></trkpt><trkpt lat="43.1345665" lon="11.6550266"><ele>308.5</ele><time>2026-04-19T14:46:14.058Z</time></trkpt><trkpt lat="43.1344991" lon="11.6551455"><ele>309.0</ele><time>2026-04-19T14:46:15.058Z</time></trkpt><trkpt lat="43.1344463" lon="11.6552854"><ele>309.0</ele><time>2026-04-19T14:46:16.057Z</time></trkpt><trkpt lat="43.134388" lon="11.6554219"><ele>309.0</ele><time>2026-04-19T14:46:17.057Z</time></trkpt><trkpt lat="43.1343133" lon="11.6555277"><ele>309.0</ele><time>2026-04-19T14:46:18.057Z</time></trkpt><trkpt lat="43.1342177" lon="11.6556027"><ele>309.0</ele><time>2026-04-19T14:46:19.057Z</time></trkpt><trkpt lat="43.1341124" lon="11.6556374"><ele>309.0</ele><time>2026-04-19T14:46:20.057Z</time></trkpt><trkpt lat="43.1340061" lon="11.6556409"><ele>310.0</ele><time>2026-04-19T14:46:21.057Z</time></trkpt><trkpt lat="43.1338885" lon="11.6556166"><ele>311.0</ele><time>2026-04-19T14:46:22.057Z</time></trkpt><trkpt lat="43.1337652" lon="11.6555799"><ele>312.0</ele><time>2026-04-19T14:46:23.058Z</time></trkpt><trkpt lat="43.1336438" lon="11.6555348"><ele>313.0</ele><time>2026-04-19T14:46:24.057Z</time></trkpt><trkpt lat="43.1335155" lon="11.6554965"><ele>313.0</ele><time>2026-04-19T14:46:25.058Z</time></trkpt><trkpt lat="43.1333855" lon="11.6554703"><ele>313.0</ele><time>2026-04-19T14:46:26.057Z</time></trkpt><trkpt lat="43.1332551" lon="11.6554647"><ele>313.0</ele><time>2026-04-19T14:46:27.058Z</time></trkpt><trkpt lat="43.1331234" lon="11.655494"><ele>313.0</ele><time>2026-04-19T14:46:28.057Z</time></trkpt><trkpt lat="43.1329922" lon="11.6555343"><ele>316.5</ele><time>2026-04-19T14:46:29.057Z</time></trkpt><trkpt lat="43.1328628" lon="11.6555747"><ele>320.0</ele><time>2026-04-19T14:46:30.057Z</time></trkpt><trkpt lat="43.1327323" lon="11.6556143"><ele>323.5</ele><time>2026-04-19T14:46:31.058Z</time></trkpt><trkpt lat="43.1325998" lon="11.6556449"><ele>327.0</ele><time>2026-04-19T14:46:32.057Z</time></trkpt><trkpt lat="43.1324633" lon="11.6556652"><ele>330.0</ele><time>2026-04-19T14:46:33.057Z</time></trkpt><trkpt lat="43.1323279" lon="11.6556837"><ele>333.0</ele><time>2026-04-19T14:46:34.058Z</time></trkpt><trkpt lat="43.1321839" lon="11.6557123"><ele>336.0</ele><time>2026-04-19T14:46:35.057Z</time></trkpt><trkpt lat="43.1320382" lon="11.655731"><ele>339.0</ele><time>2026-04-19T14:46:36.057Z</time></trkpt><trkpt lat="43.1318888" lon="11.6557536"><ele>339.0</ele><time>2026-04-19T14:46:37.058Z</time></trkpt><trkpt lat="43.1317359" lon="11.6557653"><ele>339.0</ele><time>2026-04-19T14:46:38.057Z</time></trkpt><trkpt lat="43.1315835" lon="11.6557834"><ele>339.0</ele><time>2026-04-19T14:46:39.057Z</time></trkpt><trkpt lat="43.1314338" lon="11.655796"><ele>342.6666666666667</ele><time>2026-04-19T14:46:40.058Z</time></trkpt><trkpt lat="43.1313035" lon="11.6557931"><ele>346.33333333333337</ele><time>2026-04-19T14:46:41.058Z</time></trkpt><trkpt lat="43.1311842" lon="11.655768"><ele>350.0</ele><time>2026-04-19T14:46:42.057Z</time></trkpt><trkpt lat="43.1309854" lon="11.655593"><ele>350.0</ele><time>2026-04-19T14:46:44.057Z</time></trkpt><trkpt lat="43.1309185" lon="11.6554582"><ele>350.0</ele><time>2026-04-19T14:46:45.057Z</time></trkpt><trkpt lat="43.130875" lon="11.6553013"><ele>350.0</ele><time>2026-04-19T14:46:46.057Z</time></trkpt><trkpt lat="43.1308515" lon="11.6551258"><ele>350.0</ele><time>2026-04-19T14:46:47.058Z</time></trkpt><trkpt lat="43.1308321" lon="11.6549452"><ele>349.75</ele><time>2026-04-19T14:46:48.057Z</time></trkpt><trkpt lat="43.1308091" lon="11.6547558"><ele>349.5</ele><time>2026-04-19T14:46:49.058Z</time></trkpt><trkpt lat="43.1307849" lon="11.6545626"><ele>349.25</ele><time>2026-04-19T14:46:50.058Z</time></trkpt><trkpt lat="43.1307661" lon="11.654365"><ele>349.0</ele><time>2026-04-19T14:46:51.057Z</time></trkpt><trkpt lat="43.1307428" lon="11.6541706"><ele>352.5</ele><time>2026-04-19T14:46:52.058Z</time></trkpt><trkpt lat="43.1307174" lon="11.6539763"><ele>356.0</ele><time>2026-04-19T14:46:53.057Z</time></trkpt><trkpt lat="43.1306902" lon="11.6537962"><ele>359.5</ele><time>2026-04-19T14:46:54.057Z</time></trkpt><trkpt lat="43.1306522" lon="11.6536257"><ele>363.0</ele><time>2026-04-19T14:46:55.057Z</time></trkpt><trkpt lat="43.1305961" lon="11.6534665"><ele>363.0</ele><time>2026-04-19T14:46:56.057Z</time></trkpt><trkpt lat="43.1305213" lon="11.6533249"><ele>363.0</ele><time>2026-04-19T14:46:57.057Z</time></trkpt><trkpt lat="43.1304283" lon="11.6532083"><ele>363.0</ele><time>2026-04-19T14:46:58.058Z</time></trkpt><trkpt lat="43.1303196" lon="11.6531204"><ele>363.0</ele><time>2026-04-19T14:46:59.058Z</time></trkpt><trkpt lat="43.1302031" lon="11.6530532"><ele>363.0</ele><time>2026-04-19T14:47:00.057Z</time></trkpt><trkpt lat="43.1300786" lon="11.6530124"><ele>363.0</ele><time>2026-04-19T14:47:01.058Z</time></trkpt><trkpt lat="43.129951" lon="11.6530013"><ele>363.0</ele><time>2026-04-19T14:47:02.057Z</time></trkpt><trkpt lat="43.1298258" lon="11.6530256"><ele>363.0</ele><time>2026-04-19T14:47:03.057Z</time></trkpt><trkpt lat="43.1297024" lon="11.6530815"><ele>367.0</ele><time>2026-04-19T14:47:04.058Z</time></trkpt><trkpt lat="43.1295879" lon="11.6531655"><ele>371.0</ele><time>2026-04-19T14:47:05.057Z</time></trkpt><trkpt lat="43.1294852" lon="11.6532785"><ele>375.0</ele><time>2026-04-19T14:47:06.057Z</time></trkpt><trkpt lat="43.1293834" lon="11.653404"><ele>379.0</ele><time>2026-04-19T14:47:07.057Z</time></trkpt><trkpt lat="43.1292805" lon="11.6535214"><ele>379.75</ele><time>2026-04-19T14:47:08.057Z</time></trkpt><trkpt lat="43.1291737" lon="11.6536269"><ele>380.5</ele><time>2026-04-19T14:47:09.057Z</time></trkpt><trkpt lat="43.1290604" lon="11.6537148"><ele>381.25</ele><time>2026-04-19T14:47:10.057Z</time></trkpt><trkpt lat="43.1289391" lon="11.6537893"><ele>382.0</ele><time>2026-04-19T14:47:11.057Z</time></trkpt><trkpt lat="43.1288101" lon="11.6538488"><ele>382.0</ele><time>2026-04-19T14:47:12.057Z</time></trkpt><trkpt lat="43.1286751" lon="11.6539024"><ele>382.0</ele><time>2026-04-19T14:47:13.058Z</time></trkpt><trkpt lat="43.1285355" lon="11.6539497"><ele>382.0</ele><time>2026-04-19T14:47:14.057Z</time></trkpt><trkpt lat="43.1283945" lon="11.6539928"><ele>382.0</ele><time>2026-04-19T14:47:15.057Z</time></trkpt><trkpt lat="43.1282528" lon="11.6540414"><ele>384.25</ele><time>2026-04-19T14:47:16.057Z</time></trkpt><trkpt lat="43.1281141" lon="11.6540939"><ele>386.5</ele><time>2026-04-19T14:47:17.057Z</time></trkpt><trkpt lat="43.1279751" lon="11.6541484"><ele>388.75</ele><time>2026-04-19T14:47:18.057Z</time></trkpt><trkpt lat="43.1278408" lon="11.6542083"><ele>391.0</ele><time>2026-04-19T14:47:19.057Z</time></trkpt><trkpt lat="43.1277069" lon="11.6542753"><ele>391.0</ele><time>2026-04-19T14:47:20.057Z</time></trkpt><trkpt lat="43.127574" lon="11.6543516"><ele>391.0</ele><time>2026-04-19T14:47:21.057Z</time></trkpt><trkpt lat="43.1274428" lon="11.6544268"><ele>391.0</ele><time>2026-04-19T14:47:22.057Z</time></trkpt><trkpt lat="43.1273132" lon="11.6545079"><ele>391.0</ele><time>2026-04-19T14:47:23.057Z</time></trkpt><trkpt lat="43.1271851" lon="11.6545978"><ele>392.5</ele><time>2026-04-19T14:47:24.058Z</time></trkpt><trkpt lat="43.1270622" lon="11.6546847"><ele>394.0</ele><time>2026-04-19T14:47:25.058Z</time></trkpt><trkpt lat="43.1269381" lon="11.6547663"><ele>395.5</ele><time>2026-04-19T14:47:26.058Z</time></trkpt><trkpt lat="43.1268223" lon="11.6548419"><ele>397.0</ele><time>2026-04-19T14:47:27.057Z</time></trkpt><trkpt lat="43.1267133" lon="11.6549152"><ele>397.0</ele><time>2026-04-19T14:47:28.057Z</time></trkpt><trkpt lat="43.1266006" lon="11.6549786"><ele>397.0</ele><time>2026-04-19T14:47:29.057Z</time></trkpt><trkpt lat="43.1264936" lon="11.6550459"><ele>397.0</ele><time>2026-04-19T14:47:30.057Z</time></trkpt><trkpt lat="43.1263942" lon="11.6551363"><ele>397.0</ele><time>2026-04-19T14:47:31.058Z</time></trkpt><trkpt lat="43.1263123" lon="11.6552602"><ele>398.5</ele><time>2026-04-19T14:47:32.057Z</time></trkpt><trkpt lat="43.1262287" lon="11.655393"><ele>400.0</ele><time>2026-04-19T14:47:33.057Z</time></trkpt><trkpt lat="43.12614" lon="11.6555374"><ele>401.5</ele><time>2026-04-19T14:47:34.058Z</time></trkpt><trkpt lat="43.126058" lon="11.6556897"><ele>403.0</ele><time>2026-04-19T14:47:35.057Z</time></trkpt><trkpt lat="43.1259777" lon="11.6558411"><ele>403.0</ele><time>2026-04-19T14:47:36.057Z</time></trkpt><trkpt lat="43.1258898" lon="11.6559908"><ele>403.0</ele><time>2026-04-19T14:47:37.057Z</time></trkpt><trkpt lat="43.1258055" lon="11.6561355"><ele>403.0</ele><time>2026-04-19T14:47:38.058Z</time></trkpt><trkpt lat="43.1257125" lon="11.6562669"><ele>403.0</ele><time>2026-04-19T14:47:39.057Z</time></trkpt><trkpt lat="43.1256205" lon="11.6563899"><ele>404.5</ele><time>2026-04-19T14:47:40.057Z</time></trkpt><trkpt lat="43.1255253" lon="11.6564998"><ele>406.0</ele><time>2026-04-19T14:47:41.057Z</time></trkpt><trkpt lat="43.1254221" lon="11.6566032"><ele>407.5</ele><time>2026-04-19T14:47:42.057Z</time></trkpt><trkpt lat="43.1253178" lon="11.6567164"><ele>409.0</ele><time>2026-04-19T14:47:43.057Z</time></trkpt><trkpt lat="43.1252121" lon="11.65682"><ele>409.0</ele><time>2026-04-19T14:47:44.057Z</time></trkpt><trkpt lat="43.1251025" lon="11.656912"><ele>409.0</ele><time>2026-04-19T14:47:45.057Z</time></trkpt><trkpt lat="43.1249864" lon="11.6569889"><ele>409.0</ele><time>2026-04-19T14:47:46.057Z</time></trkpt><trkpt lat="43.1248616" lon="11.6570532"><ele>409.0</ele><time>2026-04-19T14:47:47.057Z</time></trkpt><trkpt lat="43.1247402" lon="11.657102"><ele>407.25</ele><time>2026-04-19T14:47:48.057Z</time></trkpt><trkpt lat="43.1246114" lon="11.6571403"><ele>405.5</ele><time>2026-04-19T14:47:49.057Z</time></trkpt><trkpt lat="43.1244841" lon="11.6571656"><ele>403.75</ele><time>2026-04-19T14:47:50.058Z</time></trkpt><trkpt lat="43.1243563" lon="11.6571883"><ele>402.0</ele><time>2026-04-19T14:47:51.057Z</time></trkpt><trkpt lat="43.1242288" lon="11.6572022"><ele>402.0</ele><time>2026-04-19T14:47:52.057Z</time></trkpt><trkpt lat="43.1240928" lon="11.6572111"><ele>402.0</ele><time>2026-04-19T14:47:53.057Z</time></trkpt><trkpt lat="43.1239541" lon="11.6572083"><ele>402.0</ele><time>2026-04-19T14:47:54.057Z</time></trkpt><trkpt lat="43.1238103" lon="11.6572091"><ele>402.0</ele><time>2026-04-19T14:47:55.057Z</time></trkpt><trkpt lat="43.1236655" lon="11.6571945"><ele>402.66666666666663</ele><time>2026-04-19T14:47:56.057Z</time></trkpt><trkpt lat="43.1235158" lon="11.6571759"><ele>403.3333333333333</ele><time>2026-04-19T14:47:57.058Z</time></trkpt><trkpt lat="43.1233651" lon="11.6571457"><ele>404.0</ele><time>2026-04-19T14:47:58.057Z</time></trkpt><trkpt lat="43.1232196" lon="11.6571004"><ele>404.0</ele><time>2026-04-19T14:47:59.058Z</time></trkpt><trkpt lat="43.1230736" lon="11.6570378"><ele>404.0</ele><time>2026-04-19T14:48:00.057Z</time></trkpt><trkpt lat="43.1229272" lon="11.6569713"><ele>404.0</ele><time>2026-04-19T14:48:01.057Z</time></trkpt><trkpt lat="43.1227894" lon="11.6569059"><ele>405.5</ele><time>2026-04-19T14:48:02.057Z</time></trkpt><trkpt lat="43.1226572" lon="11.6568432"><ele>407.0</ele><time>2026-04-19T14:48:03.057Z</time></trkpt><trkpt lat="43.1225364" lon="11.656786"><ele>408.5</ele><time>2026-04-19T14:48:04.058Z</time></trkpt><trkpt lat="43.1224144" lon="11.6567434"><ele>410.0</ele><time>2026-04-19T14:48:05.058Z</time></trkpt><trkpt lat="43.1222916" lon="11.6567082"><ele>410.75</ele><time>2026-04-19T14:48:06.057Z</time></trkpt><trkpt lat="43.1221616" lon="11.6566904"><ele>411.5</ele><time>2026-04-19T14:48:07.057Z</time></trkpt><trkpt lat="43.1220327" lon="11.6566726"><ele>412.25</ele><time>2026-04-19T14:48:08.057Z</time></trkpt><trkpt lat="43.1218963" lon="11.6566735"><ele>413.0</ele><time>2026-04-19T14:48:09.058Z</time></trkpt><trkpt lat="43.1217671" lon="11.6566846"><ele>413.0</ele><time>2026-04-19T14:48:10.057Z</time></trkpt><trkpt lat="43.1216366" lon="11.6567186"><ele>413.0</ele><time>2026-04-19T14:48:11.057Z</time></trkpt><trkpt lat="43.1215078" lon="11.6567493"><ele>413.0</ele><time>2026-04-19T14:48:12.057Z</time></trkpt><trkpt lat="43.1214072" lon="11.6568025"><ele>413.0</ele><time>2026-04-19T14:48:13.057Z</time></trkpt><trkpt lat="43.1213026" lon="11.6568512"><ele>412.59999999999997</ele><time>2026-04-19T14:48:14.058Z</time></trkpt><trkpt lat="43.1212131" lon="11.6568904"><ele>412.2</ele><time>2026-04-19T14:48:15.057Z</time></trkpt><trkpt lat="43.1211426" lon="11.6569156"><ele>411.8</ele><time>2026-04-19T14:48:16.057Z</time></trkpt><trkpt lat="43.1210303" lon="11.656912"><ele>411.4</ele><time>2026-04-19T14:48:18.057Z</time></trkpt><trkpt lat="43.1209458" lon="11.6568077"><ele>411.0</ele><time>2026-04-19T14:48:20.057Z</time></trkpt><trkpt lat="43.1209033" lon="11.6567271"><ele>411.0</ele><time>2026-04-19T14:48:21.057Z</time></trkpt><trkpt lat="43.1208524" lon="11.656635"><ele>411.0</ele><time>2026-04-19T14:48:22.057Z</time></trkpt><trkpt lat="43.1207974" lon="11.6565337"><ele>411.0</ele><time>2026-04-19T14:48:23.058Z</time></trkpt><trkpt lat="43.1207437" lon="11.6564354"><ele>411.0</ele><time>2026-04-19T14:48:24.057Z</time></trkpt><trkpt lat="43.1206833" lon="11.6563305"><ele>411.0</ele><time>2026-04-19T14:48:25.058Z</time></trkpt><trkpt lat="43.1206222" lon="11.6562217"><ele>411.0</ele><time>2026-04-19T14:48:26.057Z</time></trkpt><trkpt lat="43.1205676" lon="11.6561203"><ele>411.0</ele><time>2026-04-19T14:48:27.057Z</time></trkpt><trkpt lat="43.1205154" lon="11.6560184"><ele>411.0</ele><time>2026-04-19T14:48:28.057Z</time></trkpt><trkpt lat="43.1204722" lon="11.6559141"><ele>411.0</ele><time>2026-04-19T14:48:29.057Z</time></trkpt><trkpt lat="43.1204329" lon="11.6558023"><ele>411.0</ele><time>2026-04-19T14:48:30.057Z</time></trkpt><trkpt lat="43.1204075" lon="11.6557003"><ele>411.0</ele><time>2026-04-19T14:48:31.057Z</time></trkpt><trkpt lat="43.1203985" lon="11.6556027"><ele>410.8</ele><time>2026-04-19T14:48:32.058Z</time></trkpt><trkpt lat="43.1204125" lon="11.6554981"><ele>410.6</ele><time>2026-04-19T14:48:33.057Z</time></trkpt><trkpt lat="43.120434" lon="11.6553909"><ele>410.4</ele><time>2026-04-19T14:48:34.057Z</time></trkpt><trkpt lat="43.1204941" lon="11.6552884"><ele>410.2</ele><time>2026-04-19T14:48:35.057Z</time></trkpt><trkpt lat="43.1205617" lon="11.6551748"><ele>410.0</ele><time>2026-04-19T14:48:36.057Z</time></trkpt><trkpt lat="43.1206334" lon="11.6550678"><ele>410.0</ele><time>2026-04-19T14:48:37.057Z</time></trkpt><trkpt lat="43.1206978" lon="11.6549541"><ele>410.0</ele><time>2026-04-19T14:48:38.057Z</time></trkpt><trkpt lat="43.120749" lon="11.6548254"><ele>410.0</ele><time>2026-04-19T14:48:39.057Z</time></trkpt><trkpt lat="43.1207919" lon="11.6547016"><ele>410.0</ele><time>2026-04-19T14:48:40.057Z</time></trkpt><trkpt lat="43.120824" lon="11.6545657"><ele>410.0</ele><time>2026-04-19T14:48:41.057Z</time></trkpt><trkpt lat="43.1208443" lon="11.6544241"><ele>410.8</ele><time>2026-04-19T14:48:42.057Z</time></trkpt><trkpt lat="43.1208501" lon="11.6542832"><ele>411.6</ele><time>2026-04-19T14:48:43.058Z</time></trkpt><trkpt lat="43.1208399" lon="11.6541417"><ele>412.4</ele><time>2026-04-19T14:48:44.057Z</time></trkpt><trkpt lat="43.1208191" lon="11.6539978"><ele>413.2</ele><time>2026-04-19T14:48:45.057Z</time></trkpt><trkpt lat="43.1207959" lon="11.6538532"><ele>414.0</ele><time>2026-04-19T14:48:46.057Z</time></trkpt><trkpt lat="43.1207703" lon="11.6537135"><ele>414.4</ele><time>2026-04-19T14:48:47.057Z</time></trkpt><trkpt lat="43.1207399" lon="11.6535776"><ele>414.79999999999995</ele><time>2026-04-19T14:48:48.057Z</time></trkpt><trkpt lat="43.1207002" lon="11.6534465"><ele>415.20000000000005</ele><time>2026-04-19T14:48:49.058Z</time></trkpt><trkpt lat="43.1206489" lon="11.6533265"><ele>415.6</ele><time>2026-04-19T14:48:50.057Z</time></trkpt><trkpt lat="43.1205826" lon="11.6532083"><ele>416.0</ele><time>2026-04-19T14:48:51.057Z</time></trkpt><trkpt lat="43.1205116" lon="11.6530955"><ele>415.8</ele><time>2026-04-19T14:48:52.058Z</time></trkpt><trkpt lat="43.1204325" lon="11.6529823"><ele>415.6</ele><time>2026-04-19T14:48:53.058Z</time></trkpt><trkpt lat="43.1203528" lon="11.6528737"><ele>415.4</ele><time>2026-04-19T14:48:54.057Z</time></trkpt><trkpt lat="43.1202792" lon="11.6527599"><ele>415.2</ele><time>2026-04-19T14:48:55.057Z</time></trkpt><trkpt lat="43.1202076" lon="11.6526464"><ele>415.0</ele><time>2026-04-19T14:48:56.057Z</time></trkpt><trkpt lat="43.1201327" lon="11.6525314"><ele>415.0</ele><time>2026-04-19T14:48:57.057Z</time></trkpt><trkpt lat="43.1200622" lon="11.652416"><ele>415.0</ele><time>2026-04-19T14:48:58.057Z</time></trkpt><trkpt lat="43.1199978" lon="11.6523097"><ele>415.0</ele><time>2026-04-19T14:48:59.057Z</time></trkpt><trkpt lat="43.1199346" lon="11.6521959"><ele>415.0</ele><time>2026-04-19T14:49:00.057Z</time></trkpt><trkpt lat="43.1198829" lon="11.6520745"><ele>415.0</ele><time>2026-04-19T14:49:01.057Z</time></trkpt><trkpt lat="43.1198364" lon="11.6519488"><ele>413.2</ele><time>2026-04-19T14:49:02.058Z</time></trkpt><trkpt lat="43.1198059" lon="11.6518162"><ele>411.4</ele><time>2026-04-19T14:49:03.058Z</time></trkpt><trkpt lat="43.119788" lon="11.6516661"><ele>409.6</ele><time>2026-04-19T14:49:04.057Z</time></trkpt><trkpt lat="43.1197806" lon="11.6515119"><ele>407.8</ele><time>2026-04-19T14:49:05.057Z</time></trkpt><trkpt lat="43.1197855" lon="11.6513544"><ele>406.0</ele><time>2026-04-19T14:49:06.057Z</time></trkpt><trkpt lat="43.1197871" lon="11.6511906"><ele>405.75</ele><time>2026-04-19T14:49:07.058Z</time></trkpt><trkpt lat="43.1197933" lon="11.6510237"><ele>405.5</ele><time>2026-04-19T14:49:08.057Z</time></trkpt><trkpt lat="43.1198023" lon="11.6508561"><ele>405.25</ele><time>2026-04-19T14:49:09.058Z</time></trkpt><trkpt lat="43.1198222" lon="11.650693"><ele>405.0</ele><time>2026-04-19T14:49:10.057Z</time></trkpt><trkpt lat="43.1198454" lon="11.6505288"><ele>405.0</ele><time>2026-04-19T14:49:11.057Z</time></trkpt><trkpt lat="43.1198706" lon="11.6503695"><ele>405.0</ele><time>2026-04-19T14:49:12.057Z</time></trkpt><trkpt lat="43.1199012" lon="11.6502101"><ele>405.0</ele><time>2026-04-19T14:49:13.057Z</time></trkpt><trkpt lat="43.1199303" lon="11.6500601"><ele>405.0</ele><time>2026-04-19T14:49:14.057Z</time></trkpt><trkpt lat="43.1199587" lon="11.6499145"><ele>405.25</ele><time>2026-04-19T14:49:15.057Z</time></trkpt><trkpt lat="43.1199904" lon="11.6497585"><ele>405.5</ele><time>2026-04-19T14:49:16.057Z</time></trkpt><trkpt lat="43.1200251" lon="11.6496028"><ele>405.75</ele><time>2026-04-19T14:49:17.058Z</time></trkpt><trkpt lat="43.1200611" lon="11.6494604"><ele>406.0</ele><time>2026-04-19T14:49:18.057Z</time></trkpt><trkpt lat="43.1200991" lon="11.6493253"><ele>406.0</ele><time>2026-04-19T14:49:19.057Z</time></trkpt><trkpt lat="43.12015" lon="11.6492078"><ele>406.0</ele><time>2026-04-19T14:49:20.058Z</time></trkpt><trkpt lat="43.1202064" lon="11.6490956"><ele>406.0</ele><time>2026-04-19T14:49:21.057Z</time></trkpt><trkpt lat="43.1202827" lon="11.6489732"><ele>406.0</ele><time>2026-04-19T14:49:22.057Z</time></trkpt><trkpt lat="43.1203694" lon="11.6488594"><ele>406.0</ele><time>2026-04-19T14:49:23.057Z</time></trkpt><trkpt lat="43.1204581" lon="11.6487479"><ele>406.0</ele><time>2026-04-19T14:49:24.058Z</time></trkpt><trkpt lat="43.1205553" lon="11.648628"><ele>406.0</ele><time>2026-04-19T14:49:25.057Z</time></trkpt><trkpt lat="43.1206462" lon="11.6485077"><ele>406.0</ele><time>2026-04-19T14:49:26.057Z</time></trkpt><trkpt lat="43.1207349" lon="11.6483991"><ele>406.0</ele><time>2026-04-19T14:49:27.057Z</time></trkpt><trkpt lat="43.1208129" lon="11.6482817"><ele>406.4</ele><time>2026-04-19T14:49:28.057Z</time></trkpt><trkpt lat="43.1208762" lon="11.6481654"><ele>406.8</ele><time>2026-04-19T14:49:29.057Z</time></trkpt><trkpt lat="43.1209209" lon="11.6480363"><ele>407.2</ele><time>2026-04-19T14:49:30.057Z</time></trkpt><trkpt lat="43.1209456" lon="11.6478925"><ele>407.59999999999997</ele><time>2026-04-19T14:49:31.057Z</time></trkpt><trkpt lat="43.1209493" lon="11.6477606"><ele>408.0</ele><time>2026-04-19T14:49:32.057Z</time></trkpt><trkpt lat="43.1209358" lon="11.64764"><ele>407.1666666666667</ele><time>2026-04-19T14:49:33.058Z</time></trkpt><trkpt lat="43.1209062" lon="11.6475201"><ele>406.33333333333337</ele><time>2026-04-19T14:49:34.057Z</time></trkpt><trkpt lat="43.1208403" lon="11.6474634"><ele>405.5</ele><time>2026-04-19T14:49:35.057Z</time></trkpt><trkpt lat="43.1207721" lon="11.6474016"><ele>404.6666666666667</ele><time>2026-04-19T14:49:36.057Z</time></trkpt><trkpt lat="43.1206925" lon="11.647355"><ele>403.83333333333337</ele><time>2026-04-19T14:49:37.057Z</time></trkpt><trkpt lat="43.1205968" lon="11.6473166"><ele>403.0</ele><time>2026-04-19T14:49:38.057Z</time></trkpt><trkpt lat="43.1204954" lon="11.6472863"><ele>401.0</ele><time>2026-04-19T14:49:39.057Z</time></trkpt><trkpt lat="43.1203997" lon="11.6472708"><ele>399.0</ele><time>2026-04-19T14:49:40.057Z</time></trkpt><trkpt lat="43.1203098" lon="11.64725"><ele>397.0</ele><time>2026-04-19T14:49:41.057Z</time></trkpt><trkpt lat="43.1202181" lon="11.647229"><ele>395.0</ele><time>2026-04-19T14:49:42.058Z</time></trkpt><trkpt lat="43.1201278" lon="11.6472059"><ele>393.0</ele><time>2026-04-19T14:49:43.057Z</time></trkpt><trkpt lat="43.120048" lon="11.6471659"><ele>393.0</ele><time>2026-04-19T14:49:44.058Z</time></trkpt><trkpt lat="43.1199726" lon="11.6471033"><ele>393.0</ele><time>2026-04-19T14:49:45.057Z</time></trkpt><trkpt lat="43.1199029" lon="11.647023"><ele>393.0</ele><time>2026-04-19T14:49:46.057Z</time></trkpt><trkpt lat="43.1198372" lon="11.6469406"><ele>393.0</ele><time>2026-04-19T14:49:47.057Z</time></trkpt><trkpt lat="43.1197774" lon="11.6468518"><ele>393.0</ele><time>2026-04-19T14:49:48.057Z</time></trkpt><trkpt lat="43.1197219" lon="11.6467539"><ele>393.0</ele><time>2026-04-19T14:49:49.057Z</time></trkpt><trkpt lat="43.1196744" lon="11.6466521"><ele>391.0</ele><time>2026-04-19T14:49:50.058Z</time></trkpt><trkpt lat="43.1196349" lon="11.646547"><ele>389.0</ele><time>2026-04-19T14:49:51.057Z</time></trkpt><trkpt lat="43.1196059" lon="11.6464307"><ele>387.0</ele><time>2026-04-19T14:49:52.057Z</time></trkpt><trkpt lat="43.119584" lon="11.6463059"><ele>385.0</ele><time>2026-04-19T14:49:53.058Z</time></trkpt><trkpt lat="43.1195854" lon="11.6461839"><ele>383.0</ele><time>2026-04-19T14:49:54.057Z</time></trkpt><trkpt lat="43.1195885" lon="11.6460591"><ele>382.2</ele><time>2026-04-19T14:49:55.057Z</time></trkpt><trkpt lat="43.1196038" lon="11.6459253"><ele>381.4</ele><time>2026-04-19T14:49:56.057Z</time></trkpt><trkpt lat="43.1196235" lon="11.645777"><ele>380.59999999999997</ele><time>2026-04-19T14:49:57.057Z</time></trkpt><trkpt lat="43.1196461" lon="11.6456376"><ele>379.79999999999995</ele><time>2026-04-19T14:49:58.058Z</time></trkpt><trkpt lat="43.1196692" lon="11.645484"><ele>379.0</ele><time>2026-04-19T14:49:59.057Z</time></trkpt><trkpt lat="43.1196955" lon="11.6453383"><ele>376.75</ele><time>2026-04-19T14:50:00.058Z</time></trkpt><trkpt lat="43.1197217" lon="11.645195"><ele>374.5</ele><time>2026-04-19T14:50:01.057Z</time></trkpt><trkpt lat="43.1197512" lon="11.6450419"><ele>372.25</ele><time>2026-04-19T14:50:02.058Z</time></trkpt><trkpt lat="43.1197847" lon="11.6448867"><ele>370.0</ele><time>2026-04-19T14:50:03.058Z</time></trkpt><trkpt lat="43.119816" lon="11.6447319"><ele>370.0</ele><time>2026-04-19T14:50:04.057Z</time></trkpt><trkpt lat="43.1198513" lon="11.6445786"><ele>370.0</ele><time>2026-04-19T14:50:05.057Z</time></trkpt><trkpt lat="43.1198799" lon="11.644425"><ele>370.0</ele><time>2026-04-19T14:50:06.058Z</time></trkpt><trkpt lat="43.1199005" lon="11.6442807"><ele>370.0</ele><time>2026-04-19T14:50:07.057Z</time></trkpt><trkpt lat="43.1199206" lon="11.6441393"><ele>370.0</ele><time>2026-04-19T14:50:08.058Z</time></trkpt><trkpt lat="43.1199392" lon="11.644003"><ele>371.6</ele><time>2026-04-19T14:50:09.057Z</time></trkpt><trkpt lat="43.1199619" lon="11.6438662"><ele>373.2</ele><time>2026-04-19T14:50:10.057Z</time></trkpt><trkpt lat="43.1199793" lon="11.6437223"><ele>374.79999999999995</ele><time>2026-04-19T14:50:11.057Z</time></trkpt><trkpt lat="43.1199955" lon="11.6435716"><ele>376.4</ele><time>2026-04-19T14:50:12.057Z</time></trkpt><trkpt lat="43.120005" lon="11.6434196"><ele>378.0</ele><time>2026-04-19T14:50:13.057Z</time></trkpt><trkpt lat="43.1200111" lon="11.6432634"><ele>378.0</ele><time>2026-04-19T14:50:14.057Z</time></trkpt><trkpt lat="43.1200166" lon="11.6431065"><ele>378.0</ele><time>2026-04-19T14:50:15.057Z</time></trkpt><trkpt lat="43.1200304" lon="11.6429575"><ele>378.0</ele><time>2026-04-19T14:50:16.058Z</time></trkpt><trkpt lat="43.1200581" lon="11.6428195"><ele>378.0</ele><time>2026-04-19T14:50:17.057Z</time></trkpt><trkpt lat="43.1201049" lon="11.6426871"><ele>378.0</ele><time>2026-04-19T14:50:18.058Z</time></trkpt><trkpt lat="43.1201689" lon="11.6425588"><ele>377.0</ele><time>2026-04-19T14:50:19.057Z</time></trkpt><trkpt lat="43.1202435" lon="11.6424297"><ele>376.0</ele><time>2026-04-19T14:50:20.058Z</time></trkpt><trkpt lat="43.1203093" lon="11.6422904"><ele>375.0</ele><time>2026-04-19T14:50:21.057Z</time></trkpt><trkpt lat="43.1203595" lon="11.6421421"><ele>374.0</ele><time>2026-04-19T14:50:22.057Z</time></trkpt><trkpt lat="43.1203954" lon="11.6419957"><ele>372.4</ele><time>2026-04-19T14:50:23.057Z</time></trkpt><trkpt lat="43.1204214" lon="11.6418463"><ele>370.79999999999995</ele><time>2026-04-19T14:50:24.057Z</time></trkpt><trkpt lat="43.1204477" lon="11.6417062"><ele>369.20000000000005</ele><time>2026-04-19T14:50:25.057Z</time></trkpt><trkpt lat="43.1204798" lon="11.6415658"><ele>367.6</ele><time>2026-04-19T14:50:26.057Z</time></trkpt><trkpt lat="43.1205278" lon="11.6414327"><ele>366.0</ele><time>2026-04-19T14:50:27.057Z</time></trkpt><trkpt lat="43.1205786" lon="11.6413001"><ele>366.0</ele><time>2026-04-19T14:50:28.057Z</time></trkpt><trkpt lat="43.1206615" lon="11.641188"><ele>366.0</ele><time>2026-04-19T14:50:29.058Z</time></trkpt><trkpt lat="43.1207538" lon="11.6410799"><ele>366.0</ele><time>2026-04-19T14:50:30.057Z</time></trkpt><trkpt lat="43.1208369" lon="11.6409694"><ele>366.0</ele><time>2026-04-19T14:50:31.057Z</time></trkpt><trkpt lat="43.1209183" lon="11.640866"><ele>366.6</ele><time>2026-04-19T14:50:32.058Z</time></trkpt><trkpt lat="43.1209952" lon="11.6407567"><ele>367.20000000000005</ele><time>2026-04-19T14:50:33.058Z</time></trkpt><trkpt lat="43.1210687" lon="11.640654"><ele>367.79999999999995</ele><time>2026-04-19T14:50:34.057Z</time></trkpt><trkpt lat="43.1211285" lon="11.6405486"><ele>368.4</ele><time>2026-04-19T14:50:35.057Z</time></trkpt><trkpt lat="43.1211684" lon="11.6404401"><ele>369.0</ele><time>2026-04-19T14:50:36.057Z</time></trkpt><trkpt lat="43.1211993" lon="11.640324"><ele>367.2</ele><time>2026-04-19T14:50:37.057Z</time></trkpt><trkpt lat="43.1212177" lon="11.6401903"><ele>365.4</ele><time>2026-04-19T14:50:38.057Z</time></trkpt><trkpt lat="43.1212221" lon="11.6400408"><ele>363.6</ele><time>2026-04-19T14:50:39.057Z</time></trkpt><trkpt lat="43.1212061" lon="11.6398867"><ele>361.8</ele><time>2026-04-19T14:50:40.058Z</time></trkpt><trkpt lat="43.121191" lon="11.6397295"><ele>360.0</ele><time>2026-04-19T14:50:41.057Z</time></trkpt><trkpt lat="43.121174" lon="11.6395654"><ele>358.5</ele><time>2026-04-19T14:50:42.058Z</time></trkpt><trkpt lat="43.1211522" lon="11.639395"><ele>357.0</ele><time>2026-04-19T14:50:43.058Z</time></trkpt><trkpt lat="43.1211341" lon="11.6392233"><ele>355.5</ele><time>2026-04-19T14:50:44.057Z</time></trkpt><trkpt lat="43.121114" lon="11.639059"><ele>354.0</ele><time>2026-04-19T14:50:45.057Z</time></trkpt><trkpt lat="43.1210955" lon="11.6389091"><ele>354.0</ele><time>2026-04-19T14:50:46.058Z</time></trkpt><trkpt lat="43.1210669" lon="11.6387567"><ele>354.0</ele><time>2026-04-19T14:50:47.057Z</time></trkpt><trkpt lat="43.1210244" lon="11.6386053"><ele>354.0</ele><time>2026-04-19T14:50:48.057Z</time></trkpt><trkpt lat="43.1209718" lon="11.6384568"><ele>354.0</ele><time>2026-04-19T14:50:49.057Z</time></trkpt><trkpt lat="43.1209119" lon="11.6383051"><ele>354.0</ele><time>2026-04-19T14:50:50.057Z</time></trkpt><trkpt lat="43.120848" lon="11.6381588"><ele>354.0</ele><time>2026-04-19T14:50:51.057Z</time></trkpt><trkpt lat="43.1207832" lon="11.6380153"><ele>354.0</ele><time>2026-04-19T14:50:52.057Z</time></trkpt><trkpt lat="43.1207144" lon="11.6378732"><ele>354.0</ele><time>2026-04-19T14:50:53.057Z</time></trkpt><trkpt lat="43.1206433" lon="11.637738"><ele>353.0</ele><time>2026-04-19T14:50:54.057Z</time></trkpt><trkpt lat="43.1205795" lon="11.6376037"><ele>352.0</ele><time>2026-04-19T14:50:55.058Z</time></trkpt><trkpt lat="43.1205084" lon="11.6374674"><ele>351.0</ele><time>2026-04-19T14:50:56.057Z</time></trkpt><trkpt lat="43.1204357" lon="11.6373382"><ele>350.0</ele><time>2026-04-19T14:50:57.057Z</time></trkpt><trkpt lat="43.1203663" lon="11.6372217"><ele>350.0</ele><time>2026-04-19T14:50:58.057Z</time></trkpt><trkpt lat="43.1202926" lon="11.6371171"><ele>350.0</ele><time>2026-04-19T14:50:59.057Z</time></trkpt><trkpt lat="43.120206" lon="11.6370271"><ele>350.0</ele><time>2026-04-19T14:51:00.057Z</time></trkpt><trkpt lat="43.1201083" lon="11.6369471"><ele>350.0</ele><time>2026-04-19T14:51:01.057Z</time></trkpt><trkpt lat="43.1200049" lon="11.6368686"><ele>350.0</ele><time>2026-04-19T14:51:02.057Z</time></trkpt><trkpt lat="43.1198888" lon="11.6368038"><ele>350.75</ele><time>2026-04-19T14:51:03.057Z</time></trkpt><trkpt lat="43.1197656" lon="11.6367505"><ele>351.5</ele><time>2026-04-19T14:51:04.057Z</time></trkpt><trkpt lat="43.1196428" lon="11.6367002"><ele>352.25</ele><time>2026-04-19T14:51:05.057Z</time></trkpt><trkpt lat="43.1195205" lon="11.6366494"><ele>353.0</ele><time>2026-04-19T14:51:06.057Z</time></trkpt><trkpt lat="43.1193989" lon="11.6365857"><ele>353.0</ele><time>2026-04-19T14:51:07.058Z</time></trkpt><trkpt lat="43.1192856" lon="11.6365094"><ele>353.0</ele><time>2026-04-19T14:51:08.058Z</time></trkpt><trkpt lat="43.1191779" lon="11.6364189"><ele>353.0</ele><time>2026-04-19T14:51:09.058Z</time></trkpt><trkpt lat="43.1190777" lon="11.6363203"><ele>353.0</ele><time>2026-04-19T14:51:10.057Z</time></trkpt><trkpt lat="43.1189872" lon="11.6362217"><ele>353.4</ele><time>2026-04-19T14:51:11.057Z</time></trkpt><trkpt lat="43.1188975" lon="11.6361312"><ele>353.79999999999995</ele><time>2026-04-19T14:51:12.057Z</time></trkpt><trkpt lat="43.1188041" lon="11.6360584"><ele>354.2</ele><time>2026-04-19T14:51:13.057Z</time></trkpt><trkpt lat="43.1187015" lon="11.6359981"><ele>354.6</ele><time>2026-04-19T14:51:14.057Z</time></trkpt><trkpt lat="43.1185953" lon="11.6359487"><ele>355.0</ele><time>2026-04-19T14:51:15.058Z</time></trkpt><trkpt lat="43.1184731" lon="11.6359111"><ele>355.0</ele><time>2026-04-19T14:51:16.058Z</time></trkpt><trkpt lat="43.1183488" lon="11.6358888"><ele>355.0</ele><time>2026-04-19T14:51:17.057Z</time></trkpt><trkpt lat="43.1182258" lon="11.6358739"><ele>355.0</ele><time>2026-04-19T14:51:18.057Z</time></trkpt><trkpt lat="43.1180992" lon="11.6358631"><ele>355.0</ele><time>2026-04-19T14:51:19.057Z</time></trkpt><trkpt lat="43.1179719" lon="11.6358499"><ele>355.5</ele><time>2026-04-19T14:51:20.057Z</time></trkpt><trkpt lat="43.1178456" lon="11.6358335"><ele>356.0</ele><time>2026-04-19T14:51:21.057Z</time></trkpt><trkpt lat="43.1177171" lon="11.6358138"><ele>356.5</ele><time>2026-04-19T14:51:22.057Z</time></trkpt><trkpt lat="43.1175883" lon="11.6357937"><ele>357.0</ele><time>2026-04-19T14:51:23.057Z</time></trkpt><trkpt lat="43.1174585" lon="11.635773"><ele>356.75</ele><time>2026-04-19T14:51:24.057Z</time></trkpt><trkpt lat="43.1173317" lon="11.6357517"><ele>356.5</ele><time>2026-04-19T14:51:25.057Z</time></trkpt><trkpt lat="43.1172123" lon="11.635726"><ele>356.25</ele><time>2026-04-19T14:51:26.057Z</time></trkpt><trkpt lat="43.1171099" lon="11.6356839"><ele>356.0</ele><time>2026-04-19T14:51:27.057Z</time></trkpt><trkpt lat="43.1170239" lon="11.6356223"><ele>356.0</ele><time>2026-04-19T14:51:28.057Z</time></trkpt><trkpt lat="43.1169517" lon="11.6355364"><ele>356.0</ele><time>2026-04-19T14:51:29.057Z</time></trkpt><trkpt lat="43.1169042" lon="11.6354362"><ele>356.0</ele><time>2026-04-19T14:51:30.057Z</time></trkpt><trkpt lat="43.1168693" lon="11.6353174"><ele>356.0</ele><time>2026-04-19T14:51:31.057Z</time></trkpt><trkpt lat="43.1168535" lon="11.6351866"><ele>356.0</ele><time>2026-04-19T14:51:32.057Z</time></trkpt><trkpt lat="43.1168516" lon="11.6350457"><ele>357.20000000000005</ele><time>2026-04-19T14:51:33.058Z</time></trkpt><trkpt lat="43.1168448" lon="11.6348916"><ele>358.40000000000003</ele><time>2026-04-19T14:51:34.057Z</time></trkpt><trkpt lat="43.1168238" lon="11.6347531"><ele>359.6</ele><time>2026-04-19T14:51:35.058Z</time></trkpt><trkpt lat="43.1167885" lon="11.6346251"><ele>360.8</ele><time>2026-04-19T14:51:36.057Z</time></trkpt><trkpt lat="43.1167335" lon="11.6344982"><ele>362.0</ele><time>2026-04-19T14:51:37.057Z</time></trkpt><trkpt lat="43.1166679" lon="11.6343778"><ele>362.20000000000005</ele><time>2026-04-19T14:51:38.057Z</time></trkpt><trkpt lat="43.1166001" lon="11.6342648"><ele>362.4</ele><time>2026-04-19T14:51:39.058Z</time></trkpt><trkpt lat="43.1165313" lon="11.6341478"><ele>362.6</ele><time>2026-04-19T14:51:40.057Z</time></trkpt><trkpt lat="43.1164767" lon="11.6340284"><ele>362.79999999999995</ele><time>2026-04-19T14:51:41.057Z</time></trkpt><trkpt lat="43.1164356" lon="11.6338903"><ele>363.0</ele><time>2026-04-19T14:51:42.057Z</time></trkpt><trkpt lat="43.1163992" lon="11.6337459"><ele>364.4</ele><time>2026-04-19T14:51:43.057Z</time></trkpt><trkpt lat="43.1163662" lon="11.6336102"><ele>365.79999999999995</ele><time>2026-04-19T14:51:44.058Z</time></trkpt><trkpt lat="43.1163371" lon="11.6334812"><ele>367.2</ele><time>2026-04-19T14:51:45.057Z</time></trkpt><trkpt lat="43.1163114" lon="11.6333664"><ele>368.6</ele><time>2026-04-19T14:51:46.058Z</time></trkpt><trkpt lat="43.1162888" lon="11.6332619"><ele>370.0</ele><time>2026-04-19T14:51:47.057Z</time></trkpt><trkpt lat="43.1162669" lon="11.6331201"><ele>370.0</ele><time>2026-04-19T14:51:49.057Z</time></trkpt><trkpt lat="43.1162644" lon="11.633025"><ele>370.0</ele><time>2026-04-19T14:52:35.057Z</time></trkpt><trkpt lat="43.1162251" lon="11.6329029"><ele>370.0</ele><time>2026-04-19T14:52:38.057Z</time></trkpt><trkpt lat="43.1161979" lon="11.6328002"><ele>370.0</ele><time>2026-04-19T14:52:40.058Z</time></trkpt><trkpt lat="43.1161647" lon="11.6326784"><ele>370.0</ele><time>2026-04-19T14:52:42.057Z</time></trkpt><trkpt lat="43.1161152" lon="11.6325581"><ele>370.0</ele><time>2026-04-19T14:52:44.057Z</time></trkpt><trkpt lat="43.116056" lon="11.6324629"><ele>370.2</ele><time>2026-04-19T14:52:46.057Z</time></trkpt><trkpt lat="43.1159961" lon="11.6323781"><ele>370.4</ele><time>2026-04-19T14:52:48.057Z</time></trkpt><trkpt lat="43.1159486" lon="11.6323034"><ele>370.6</ele><time>2026-04-19T14:52:51.057Z</time></trkpt><trkpt lat="43.1158827" lon="11.63222"><ele>370.8</ele><time>2026-04-19T14:54:26.058Z</time></trkpt><trkpt lat="43.1157879" lon="11.6321467"><ele>371.0</ele><time>2026-04-19T14:54:28.057Z</time></trkpt><trkpt lat="43.1156818" lon="11.6320532"><ele>371.6666666666667</ele><time>2026-04-19T14:54:30.057Z</time></trkpt><trkpt lat="43.1156155" lon="11.6319965"><ele>372.33333333333337</ele><time>2026-04-19T14:54:31.057Z</time></trkpt><trkpt lat="43.1155438" lon="11.6319379"><ele>373.0</ele><time>2026-04-19T14:54:32.057Z</time></trkpt><trkpt lat="43.1154696" lon="11.6318725"><ele>373.6666666666667</ele><time>2026-04-19T14:54:33.057Z</time></trkpt><trkpt lat="43.1153972" lon="11.6318169"><ele>374.3333333333333</ele><time>2026-04-19T14:54:34.057Z</time></trkpt><trkpt lat="43.115322" lon="11.6317463"><ele>375.0</ele><time>2026-04-19T14:54:35.057Z</time></trkpt><trkpt lat="43.1152484" lon="11.6316673"><ele>375.0</ele><time>2026-04-19T14:54:36.058Z</time></trkpt><trkpt lat="43.1151769" lon="11.6315795"><ele>375.0</ele><time>2026-04-19T14:54:37.057Z</time></trkpt><trkpt lat="43.1151094" lon="11.6314855"><ele>375.0</ele><time>2026-04-19T14:54:38.057Z</time></trkpt><trkpt lat="43.1150429" lon="11.6313855"><ele>375.0</ele><time>2026-04-19T14:54:39.058Z</time></trkpt><trkpt lat="43.1149821" lon="11.6312595"><ele>375.0</ele><time>2026-04-19T14:54:40.057Z</time></trkpt><trkpt lat="43.1149204" lon="11.6311282"><ele>376.0</ele><time>2026-04-19T14:54:41.057Z</time></trkpt><trkpt lat="43.1148595" lon="11.630989"><ele>377.0</ele><time>2026-04-19T14:54:42.057Z</time></trkpt><trkpt lat="43.1148031" lon="11.6308549"><ele>378.0</ele><time>2026-04-19T14:54:43.057Z</time></trkpt><trkpt lat="43.1147495" lon="11.630713"><ele>379.0</ele><time>2026-04-19T14:54:44.057Z</time></trkpt><trkpt lat="43.1147007" lon="11.6305594"><ele>379.0</ele><time>2026-04-19T14:54:45.058Z</time></trkpt><trkpt lat="43.1146602" lon="11.6303992"><ele>379.0</ele><time>2026-04-19T14:54:46.057Z</time></trkpt><trkpt lat="43.1146259" lon="11.6302372"><ele>379.0</ele><time>2026-04-19T14:54:47.058Z</time></trkpt><trkpt lat="43.1145943" lon="11.6300688"><ele>379.0</ele><time>2026-04-19T14:54:48.057Z</time></trkpt><trkpt lat="43.1145628" lon="11.6299026"><ele>379.25</ele><time>2026-04-19T14:54:49.057Z</time></trkpt><trkpt lat="43.1145359" lon="11.6297312"><ele>379.5</ele><time>2026-04-19T14:54:50.058Z</time></trkpt><trkpt lat="43.1145122" lon="11.629562"><ele>379.75</ele><time>2026-04-19T14:54:51.058Z</time></trkpt><trkpt lat="43.1144915" lon="11.6293925"><ele>380.0</ele><time>2026-04-19T14:54:52.057Z</time></trkpt><trkpt lat="43.1144655" lon="11.6292236"><ele>380.0</ele><time>2026-04-19T14:54:53.057Z</time></trkpt><trkpt lat="43.1144433" lon="11.6290707"><ele>380.0</ele><time>2026-04-19T14:54:54.058Z</time></trkpt><trkpt lat="43.1144189" lon="11.6289132"><ele>380.0</ele><time>2026-04-19T14:54:55.058Z</time></trkpt><trkpt lat="43.1143995" lon="11.6287615"><ele>380.0</ele><time>2026-04-19T14:54:56.058Z</time></trkpt><trkpt lat="43.1143856" lon="11.6286092"><ele>379.5</ele><time>2026-04-19T14:54:57.058Z</time></trkpt><trkpt lat="43.1143682" lon="11.6284548"><ele>379.0</ele><time>2026-04-19T14:54:58.058Z</time></trkpt><trkpt lat="43.1143532" lon="11.6282978"><ele>378.5</ele><time>2026-04-19T14:54:59.057Z</time></trkpt><trkpt lat="43.1143394" lon="11.6281354"><ele>378.0</ele><time>2026-04-19T14:55:00.057Z</time></trkpt><trkpt lat="43.1143278" lon="11.6279703"><ele>377.25</ele><time>2026-04-19T14:55:01.057Z</time></trkpt><trkpt lat="43.1143321" lon="11.6278017"><ele>376.5</ele><time>2026-04-19T14:55:02.057Z</time></trkpt><trkpt lat="43.1143457" lon="11.6276325"><ele>375.75</ele><time>2026-04-19T14:55:03.057Z</time></trkpt><trkpt lat="43.1143746" lon="11.6274632"><ele>375.0</ele><time>2026-04-19T14:55:04.058Z</time></trkpt><trkpt lat="43.1144114" lon="11.6272939"><ele>375.0</ele><time>2026-04-19T14:55:05.057Z</time></trkpt><trkpt lat="43.1144548" lon="11.6271213"><ele>375.0</ele><time>2026-04-19T14:55:06.057Z</time></trkpt><trkpt lat="43.1145014" lon="11.6269571"><ele>375.0</ele><time>2026-04-19T14:55:07.058Z</time></trkpt><trkpt lat="43.1145456" lon="11.6267966"><ele>375.0</ele><time>2026-04-19T14:55:08.058Z</time></trkpt><trkpt lat="43.1145928" lon="11.626632"><ele>374.0</ele><time>2026-04-19T14:55:09.058Z</time></trkpt><trkpt lat="43.1146379" lon="11.6264799"><ele>373.0</ele><time>2026-04-19T14:55:10.057Z</time></trkpt><trkpt lat="43.1146804" lon="11.626323"><ele>372.0</ele><time>2026-04-19T14:55:11.058Z</time></trkpt><trkpt lat="43.1147195" lon="11.6261648"><ele>371.0</ele><time>2026-04-19T14:55:12.057Z</time></trkpt><trkpt lat="43.1147462" lon="11.6260273"><ele>370.6</ele><time>2026-04-19T14:55:13.057Z</time></trkpt><trkpt lat="43.1147643" lon="11.6258841"><ele>370.20000000000005</ele><time>2026-04-19T14:55:14.057Z</time></trkpt><trkpt lat="43.1147664" lon="11.6257374"><ele>369.79999999999995</ele><time>2026-04-19T14:55:15.058Z</time></trkpt><trkpt lat="43.1147551" lon="11.6255798"><ele>369.4</ele><time>2026-04-19T14:55:16.058Z</time></trkpt><trkpt lat="43.1147381" lon="11.6254193"><ele>369.0</ele><time>2026-04-19T14:55:17.058Z</time></trkpt><trkpt lat="43.114712" lon="11.6252623"><ele>369.0</ele><time>2026-04-19T14:55:18.058Z</time></trkpt><trkpt lat="43.1146858" lon="11.6250962"><ele>369.0</ele><time>2026-04-19T14:55:19.058Z</time></trkpt><trkpt lat="43.1146503" lon="11.6249291"><ele>369.0</ele><time>2026-04-19T14:55:20.057Z</time></trkpt><trkpt lat="43.1146165" lon="11.6247602"><ele>369.0</ele><time>2026-04-19T14:55:21.057Z</time></trkpt><trkpt lat="43.1145828" lon="11.6245892"><ele>369.75</ele><time>2026-04-19T14:55:22.057Z</time></trkpt><trkpt lat="43.114548" lon="11.624415"><ele>370.5</ele><time>2026-04-19T14:55:23.058Z</time></trkpt><trkpt lat="43.1145198" lon="11.6242438"><ele>371.25</ele><time>2026-04-19T14:55:24.057Z</time></trkpt><trkpt lat="43.1144951" lon="11.6240713"><ele>372.0</ele><time>2026-04-19T14:55:25.057Z</time></trkpt><trkpt lat="43.1144754" lon="11.6238902"><ele>372.0</ele><time>2026-04-19T14:55:26.057Z</time></trkpt><trkpt lat="43.1144687" lon="11.6237125"><ele>372.0</ele><time>2026-04-19T14:55:27.057Z</time></trkpt><trkpt lat="43.114468" lon="11.6235303"><ele>372.0</ele><time>2026-04-19T14:55:28.058Z</time></trkpt><trkpt lat="43.1144717" lon="11.6233473"><ele>372.0</ele><time>2026-04-19T14:55:29.057Z</time></trkpt><trkpt lat="43.1144818" lon="11.623167"><ele>372.25</ele><time>2026-04-19T14:55:30.057Z</time></trkpt><trkpt lat="43.1144979" lon="11.6229908"><ele>372.5</ele><time>2026-04-19T14:55:31.057Z</time></trkpt><trkpt lat="43.1145079" lon="11.6228158"><ele>372.75</ele><time>2026-04-19T14:55:32.057Z</time></trkpt><trkpt lat="43.1145264" lon="11.6226446"><ele>373.0</ele><time>2026-04-19T14:55:33.057Z</time></trkpt><trkpt lat="43.1145459" lon="11.6224659"><ele>373.5</ele><time>2026-04-19T14:55:34.057Z</time></trkpt><trkpt lat="43.1145601" lon="11.6222954"><ele>374.0</ele><time>2026-04-19T14:55:35.057Z</time></trkpt><trkpt lat="43.1145726" lon="11.6221169"><ele>374.5</ele><time>2026-04-19T14:55:36.057Z</time></trkpt><trkpt lat="43.1145853" lon="11.6219331"><ele>375.0</ele><time>2026-04-19T14:55:37.057Z</time></trkpt><trkpt lat="43.1146045" lon="11.6217507"><ele>376.75</ele><time>2026-04-19T14:55:38.057Z</time></trkpt><trkpt lat="43.1146177" lon="11.6215695"><ele>378.5</ele><time>2026-04-19T14:55:39.058Z</time></trkpt><trkpt lat="43.1146287" lon="11.6213921"><ele>380.25</ele><time>2026-04-19T14:55:40.058Z</time></trkpt><trkpt lat="43.1146419" lon="11.6212091"><ele>382.0</ele><time>2026-04-19T14:55:41.057Z</time></trkpt><trkpt lat="43.1146631" lon="11.6210258"><ele>383.5</ele><time>2026-04-19T14:55:42.057Z</time></trkpt><trkpt lat="43.1146834" lon="11.6208443"><ele>385.0</ele><time>2026-04-19T14:55:43.057Z</time></trkpt><trkpt lat="43.1147098" lon="11.6206667"><ele>386.5</ele><time>2026-04-19T14:55:44.057Z</time></trkpt><trkpt lat="43.1147385" lon="11.6204915"><ele>388.0</ele><time>2026-04-19T14:55:45.057Z</time></trkpt><trkpt lat="43.1147742" lon="11.6203103"><ele>386.75</ele><time>2026-04-19T14:55:46.058Z</time></trkpt><trkpt lat="43.1148119" lon="11.6201357"><ele>385.5</ele><time>2026-04-19T14:55:47.057Z</time></trkpt><trkpt lat="43.1148527" lon="11.619959"><ele>384.25</ele><time>2026-04-19T14:55:48.058Z</time></trkpt><trkpt lat="43.1148902" lon="11.6197835"><ele>383.0</ele><time>2026-04-19T14:55:49.058Z</time></trkpt><trkpt lat="43.1149267" lon="11.619608"><ele>384.0</ele><time>2026-04-19T14:55:50.058Z</time></trkpt><trkpt lat="43.1149615" lon="11.6194344"><ele>385.0</ele><time>2026-04-19T14:55:51.057Z</time></trkpt><trkpt lat="43.1149966" lon="11.6192565"><ele>386.0</ele><time>2026-04-19T14:55:52.057Z</time></trkpt><trkpt lat="43.1150263" lon="11.6190911"><ele>387.0</ele><time>2026-04-19T14:55:53.057Z</time></trkpt><trkpt lat="43.1150582" lon="11.6189397"><ele>387.0</ele><time>2026-04-19T14:55:54.058Z</time></trkpt><trkpt lat="43.1150849" lon="11.6188036"><ele>387.0</ele><time>2026-04-19T14:55:55.058Z</time></trkpt><trkpt lat="43.1151044" lon="11.6186932"><ele>387.0</ele><time>2026-04-19T14:55:56.057Z</time></trkpt><trkpt lat="43.1151263" lon="11.6186043"><ele>387.0</ele><time>2026-04-19T14:55:57.057Z</time></trkpt><trkpt lat="43.1152087" lon="11.618512"><ele>387.0</ele><time>2026-04-19T14:55:59.057Z</time></trkpt><trkpt lat="43.1153271" lon="11.6185088"><ele>386.8333333333333</ele><time>2026-04-19T14:56:01.057Z</time></trkpt><trkpt lat="43.1153942" lon="11.6185404"><ele>386.66666666666663</ele><time>2026-04-19T14:56:02.057Z</time></trkpt><trkpt lat="43.1154643" lon="11.618568"><ele>386.5</ele><time>2026-04-19T14:56:03.058Z</time></trkpt><trkpt lat="43.1155513" lon="11.6185939"><ele>386.3333333333333</ele><time>2026-04-19T14:56:04.057Z</time></trkpt><trkpt lat="43.1156386" lon="11.6186114"><ele>386.16666666666663</ele><time>2026-04-19T14:56:05.057Z</time></trkpt><trkpt lat="43.1157269" lon="11.6186281"><ele>386.0</ele><time>2026-04-19T14:56:06.057Z</time></trkpt><trkpt lat="43.1158186" lon="11.6186428"><ele>385.99999999999994</ele><time>2026-04-19T14:56:07.057Z</time></trkpt><trkpt lat="43.1159047" lon="11.6186456"><ele>386.0</ele><time>2026-04-19T14:56:08.057Z</time></trkpt><trkpt lat="43.1159819" lon="11.6186496"><ele>386.0</ele><time>2026-04-19T14:56:09.057Z</time></trkpt><trkpt lat="43.1160575" lon="11.6186384"><ele>386.0</ele><time>2026-04-19T14:56:10.057Z</time></trkpt><trkpt lat="43.1161331" lon="11.6186146"><ele>385.99999999999994</ele><time>2026-04-19T14:56:11.057Z</time></trkpt><trkpt lat="43.116217" lon="11.6185848"><ele>386.0</ele><time>2026-04-19T14:56:12.058Z</time></trkpt><trkpt lat="43.1163081" lon="11.6185547"><ele>386.0</ele><time>2026-04-19T14:56:13.057Z</time></trkpt><trkpt lat="43.1163971" lon="11.6185211"><ele>386.0</ele><time>2026-04-19T14:56:14.057Z</time></trkpt><trkpt lat="43.1164852" lon="11.6184945"><ele>386.0</ele><time>2026-04-19T14:56:15.057Z</time></trkpt><trkpt lat="43.1165865" lon="11.6184706"><ele>386.0</ele><time>2026-04-19T14:56:16.058Z</time></trkpt><trkpt lat="43.116688" lon="11.6184632"><ele>386.0</ele><time>2026-04-19T14:56:17.057Z</time></trkpt><trkpt lat="43.1167981" lon="11.6184658"><ele>384.4</ele><time>2026-04-19T14:56:18.057Z</time></trkpt><trkpt lat="43.1169042" lon="11.6184745"><ele>382.8</ele><time>2026-04-19T14:56:19.057Z</time></trkpt><trkpt lat="43.1170075" lon="11.6184888"><ele>381.2</ele><time>2026-04-19T14:56:20.057Z</time></trkpt><trkpt lat="43.1171034" lon="11.6185033"><ele>379.59999999999997</ele><time>2026-04-19T14:56:21.057Z</time></trkpt><trkpt lat="43.1172157" lon="11.6185141"><ele>378.0</ele><time>2026-04-19T14:56:22.057Z</time></trkpt><trkpt lat="43.1173279" lon="11.6185193"><ele>377.0</ele><time>2026-04-19T14:56:23.057Z</time></trkpt><trkpt lat="43.1174394" lon="11.6185308"><ele>376.0</ele><time>2026-04-19T14:56:24.057Z</time></trkpt><trkpt lat="43.1175452" lon="11.6185393"><ele>375.0</ele><time>2026-04-19T14:56:25.058Z</time></trkpt><trkpt lat="43.117657" lon="11.6185516"><ele>374.0</ele><time>2026-04-19T14:56:26.057Z</time></trkpt><trkpt lat="43.1177757" lon="11.6185563"><ele>373.0</ele><time>2026-04-19T14:56:27.057Z</time></trkpt><trkpt lat="43.1178878" lon="11.618554"><ele>373.0</ele><time>2026-04-19T14:56:28.057Z</time></trkpt><trkpt lat="43.1180083" lon="11.6185519"><ele>373.0</ele><time>2026-04-19T14:56:29.057Z</time></trkpt><trkpt lat="43.1181203" lon="11.6185513"><ele>373.0</ele><time>2026-04-19T14:56:30.057Z</time></trkpt><trkpt lat="43.1182363" lon="11.6185525"><ele>373.0</ele><time>2026-04-19T14:56:31.057Z</time></trkpt><trkpt lat="43.1183606" lon="11.6185593"><ele>372.5</ele><time>2026-04-19T14:56:32.057Z</time></trkpt><trkpt lat="43.1184863" lon="11.618561"><ele>372.0</ele><time>2026-04-19T14:56:33.057Z</time></trkpt><trkpt lat="43.1186131" lon="11.6185703"><ele>371.5</ele><time>2026-04-19T14:56:34.058Z</time></trkpt><trkpt lat="43.118745" lon="11.6185852"><ele>371.0</ele><time>2026-04-19T14:56:35.057Z</time></trkpt><trkpt lat="43.1188819" lon="11.6185946"><ele>371.0</ele><time>2026-04-19T14:56:36.057Z</time></trkpt><trkpt lat="43.1190138" lon="11.6186144"><ele>371.0</ele><time>2026-04-19T14:56:37.058Z</time></trkpt><trkpt lat="43.1191467" lon="11.6186324"><ele>371.0</ele><time>2026-04-19T14:56:38.057Z</time></trkpt><trkpt lat="43.1192767" lon="11.6186554"><ele>371.0</ele><time>2026-04-19T14:56:39.057Z</time></trkpt><trkpt lat="43.1194083" lon="11.6186748"><ele>370.5</ele><time>2026-04-19T14:56:40.057Z</time></trkpt><trkpt lat="43.1195409" lon="11.6186883"><ele>370.0</ele><time>2026-04-19T14:56:41.057Z</time></trkpt><trkpt lat="43.1196721" lon="11.6186984"><ele>369.5</ele><time>2026-04-19T14:56:42.057Z</time></trkpt><trkpt lat="43.1198038" lon="11.6187082"><ele>369.0</ele><time>2026-04-19T14:56:43.057Z</time></trkpt><trkpt lat="43.1199355" lon="11.6187159"><ele>370.2</ele><time>2026-04-19T14:56:44.058Z</time></trkpt><trkpt lat="43.1200625" lon="11.6187243"><ele>371.4</ele><time>2026-04-19T14:56:45.057Z</time></trkpt><trkpt lat="43.1201789" lon="11.6187331"><ele>372.6</ele><time>2026-04-19T14:56:46.057Z</time></trkpt><trkpt lat="43.1202861" lon="11.6187414"><ele>373.8</ele><time>2026-04-19T14:56:47.057Z</time></trkpt><trkpt lat="43.1203827" lon="11.6187518"><ele>375.0</ele><time>2026-04-19T14:56:48.058Z</time></trkpt><trkpt lat="43.1204722" lon="11.6187546"><ele>375.0</ele><time>2026-04-19T14:56:49.058Z</time></trkpt><trkpt lat="43.1205586" lon="11.6187505"><ele>375.0</ele><time>2026-04-19T14:56:50.058Z</time></trkpt><trkpt lat="43.1206529" lon="11.6187314"><ele>375.0</ele><time>2026-04-19T14:56:51.057Z</time></trkpt><trkpt lat="43.1207455" lon="11.6186969"><ele>375.0</ele><time>2026-04-19T14:56:52.057Z</time></trkpt><trkpt lat="43.1208347" lon="11.6186432"><ele>375.0</ele><time>2026-04-19T14:56:53.058Z</time></trkpt><trkpt lat="43.1209247" lon="11.6185719"><ele>376.0</ele><time>2026-04-19T14:56:54.057Z</time></trkpt><trkpt lat="43.1210128" lon="11.6184932"><ele>377.0</ele><time>2026-04-19T14:56:55.057Z</time></trkpt><trkpt lat="43.1211005" lon="11.6184056"><ele>378.0</ele><time>2026-04-19T14:56:56.057Z</time></trkpt><trkpt lat="43.1211881" lon="11.618317"><ele>379.0</ele><time>2026-04-19T14:56:57.057Z</time></trkpt><trkpt lat="43.1212789" lon="11.6182308"><ele>380.0</ele><time>2026-04-19T14:56:58.057Z</time></trkpt><trkpt lat="43.1213653" lon="11.6181377"><ele>380.0</ele><time>2026-04-19T14:56:59.057Z</time></trkpt><trkpt lat="43.1214538" lon="11.618049"><ele>380.0</ele><time>2026-04-19T14:57:00.057Z</time></trkpt><trkpt lat="43.1215332" lon="11.617961"><ele>380.0</ele><time>2026-04-19T14:57:01.057Z</time></trkpt><trkpt lat="43.1216043" lon="11.6178783"><ele>380.0</ele><time>2026-04-19T14:57:02.057Z</time></trkpt><trkpt lat="43.1216796" lon="11.6177971"><ele>380.0</ele><time>2026-04-19T14:57:03.057Z</time></trkpt><trkpt lat="43.1217642" lon="11.6177064"><ele>380.75</ele><time>2026-04-19T14:57:04.057Z</time></trkpt><trkpt lat="43.1218611" lon="11.6176115"><ele>381.5</ele><time>2026-04-19T14:57:05.057Z</time></trkpt><trkpt lat="43.1219579" lon="11.6175106"><ele>382.25</ele><time>2026-04-19T14:57:06.057Z</time></trkpt><trkpt lat="43.1220541" lon="11.6174131"><ele>383.0</ele><time>2026-04-19T14:57:07.057Z</time></trkpt><trkpt lat="43.1221576" lon="11.6173088"><ele>383.0</ele><time>2026-04-19T14:57:08.057Z</time></trkpt><trkpt lat="43.122261" lon="11.6172044"><ele>383.0</ele><time>2026-04-19T14:57:09.057Z</time></trkpt><trkpt lat="43.1223589" lon="11.6170999"><ele>383.0</ele><time>2026-04-19T14:57:10.057Z</time></trkpt><trkpt lat="43.1224539" lon="11.6169855"><ele>383.0</ele><time>2026-04-19T14:57:11.058Z</time></trkpt><trkpt lat="43.1225492" lon="11.6168659"><ele>380.75</ele><time>2026-04-19T14:57:12.058Z</time></trkpt><trkpt lat="43.1226379" lon="11.6167339"><ele>378.5</ele><time>2026-04-19T14:57:13.057Z</time></trkpt><trkpt lat="43.1227249" lon="11.6166009"><ele>376.25</ele><time>2026-04-19T14:57:14.058Z</time></trkpt><trkpt lat="43.1228064" lon="11.6164621"><ele>374.0</ele><time>2026-04-19T14:57:15.057Z</time></trkpt><trkpt lat="43.1228852" lon="11.6163129"><ele>374.0</ele><time>2026-04-19T14:57:16.057Z</time></trkpt><trkpt lat="43.122958" lon="11.6161627"><ele>374.0</ele><time>2026-04-19T14:57:17.057Z</time></trkpt><trkpt lat="43.1230203" lon="11.6160091"><ele>374.0</ele><time>2026-04-19T14:57:18.057Z</time></trkpt><trkpt lat="43.1230846" lon="11.6158651"><ele>374.0</ele><time>2026-04-19T14:57:19.057Z</time></trkpt><trkpt lat="43.1231518" lon="11.6157134"><ele>374.25</ele><time>2026-04-19T14:57:20.057Z</time></trkpt><trkpt lat="43.1232254" lon="11.6155635"><ele>374.5</ele><time>2026-04-19T14:57:21.057Z</time></trkpt><trkpt lat="43.1233024" lon="11.6154142"><ele>374.75</ele><time>2026-04-19T14:57:22.058Z</time></trkpt><trkpt lat="43.1233788" lon="11.6152696"><ele>375.0</ele><time>2026-04-19T14:57:23.057Z</time></trkpt><trkpt lat="43.1234564" lon="11.6151336"><ele>376.75</ele><time>2026-04-19T14:57:24.057Z</time></trkpt><trkpt lat="43.1235376" lon="11.6150005"><ele>378.5</ele><time>2026-04-19T14:57:25.057Z</time></trkpt><trkpt lat="43.1236159" lon="11.6148717"><ele>380.25</ele><time>2026-04-19T14:57:26.057Z</time></trkpt><trkpt lat="43.1237042" lon="11.6147543"><ele>382.0</ele><time>2026-04-19T14:57:27.057Z</time></trkpt><trkpt lat="43.1238003" lon="11.614648"><ele>382.0</ele><time>2026-04-19T14:57:28.058Z</time></trkpt><trkpt lat="43.1239028" lon="11.6145553"><ele>382.0</ele><time>2026-04-19T14:57:29.057Z</time></trkpt><trkpt lat="43.1240039" lon="11.6144765"><ele>382.0</ele><time>2026-04-19T14:57:30.057Z</time></trkpt><trkpt lat="43.1241083" lon="11.6144157"><ele>382.0</ele><time>2026-04-19T14:57:31.057Z</time></trkpt><trkpt lat="43.1242163" lon="11.6143652"><ele>383.75</ele><time>2026-04-19T14:57:32.058Z</time></trkpt><trkpt lat="43.1243322" lon="11.6143267"><ele>385.5</ele><time>2026-04-19T14:57:33.057Z</time></trkpt><trkpt lat="43.1244531" lon="11.6142984"><ele>387.25</ele><time>2026-04-19T14:57:34.058Z</time></trkpt><trkpt lat="43.1245698" lon="11.6142736"><ele>389.0</ele><time>2026-04-19T14:57:35.057Z</time></trkpt><trkpt lat="43.124687" lon="11.614247"><ele>389.0</ele><time>2026-04-19T14:57:36.057Z</time></trkpt><trkpt lat="43.1248105" lon="11.6142375"><ele>389.0</ele><time>2026-04-19T14:57:37.058Z</time></trkpt><trkpt lat="43.124925" lon="11.6142505"><ele>389.0</ele><time>2026-04-19T14:57:38.057Z</time></trkpt><trkpt lat="43.1250482" lon="11.6142816"><ele>389.0</ele><time>2026-04-19T14:57:39.057Z</time></trkpt><trkpt lat="43.1251736" lon="11.6143289"><ele>387.25</ele><time>2026-04-19T14:57:40.057Z</time></trkpt><trkpt lat="43.1252998" lon="11.6143943"><ele>385.5</ele><time>2026-04-19T14:57:41.057Z</time></trkpt><trkpt lat="43.1254202" lon="11.6144562"><ele>383.75</ele><time>2026-04-19T14:57:42.057Z</time></trkpt><trkpt lat="43.1255333" lon="11.6145028"><ele>382.0</ele><time>2026-04-19T14:57:43.057Z</time></trkpt><trkpt lat="43.125652" lon="11.6145317"><ele>380.75</ele><time>2026-04-19T14:57:44.057Z</time></trkpt><trkpt lat="43.1257703" lon="11.6145363"><ele>379.5</ele><time>2026-04-19T14:57:45.058Z</time></trkpt><trkpt lat="43.1258935" lon="11.6145292"><ele>378.25</ele><time>2026-04-19T14:57:46.057Z</time></trkpt><trkpt lat="43.1260162" lon="11.6145127"><ele>377.0</ele><time>2026-04-19T14:57:47.058Z</time></trkpt><trkpt lat="43.1261437" lon="11.6144895"><ele>377.25</ele><time>2026-04-19T14:57:48.058Z</time></trkpt><trkpt lat="43.1262713" lon="11.6144703"><ele>377.5</ele><time>2026-04-19T14:57:49.057Z</time></trkpt><trkpt lat="43.1263959" lon="11.6144541"><ele>377.75</ele><time>2026-04-19T14:57:50.057Z</time></trkpt><trkpt lat="43.1265148" lon="11.6144417"><ele>378.0</ele><time>2026-04-19T14:57:51.057Z</time></trkpt><trkpt lat="43.126636" lon="11.6144334"><ele>378.0</ele><time>2026-04-19T14:57:52.058Z</time></trkpt><trkpt lat="43.1267596" lon="11.6144216"><ele>378.0</ele><time>2026-04-19T14:57:53.057Z</time></trkpt><trkpt lat="43.1268772" lon="11.6144128"><ele>378.0</ele><time>2026-04-19T14:57:54.058Z</time></trkpt><trkpt lat="43.1269898" lon="11.6144053"><ele>378.0</ele><time>2026-04-19T14:57:55.058Z</time></trkpt><trkpt lat="43.1270959" lon="11.6143859"><ele>378.0</ele><time>2026-04-19T14:57:56.058Z</time></trkpt><trkpt lat="43.1271882" lon="11.6143596"><ele>378.0</ele><time>2026-04-19T14:57:57.058Z</time></trkpt><trkpt lat="43.1272726" lon="11.6143132"><ele>378.0</ele><time>2026-04-19T14:57:58.057Z</time></trkpt><trkpt lat="43.1273493" lon="11.6142572"><ele>378.0</ele><time>2026-04-19T14:57:59.058Z</time></trkpt><trkpt lat="43.1274205" lon="11.6141825"><ele>378.0</ele><time>2026-04-19T14:58:00.057Z</time></trkpt><trkpt lat="43.1274871" lon="11.6141018"><ele>377.4</ele><time>2026-04-19T14:58:01.057Z</time></trkpt><trkpt lat="43.1275465" lon="11.6140157"><ele>376.79999999999995</ele><time>2026-04-19T14:58:02.057Z</time></trkpt><trkpt lat="43.1276068" lon="11.6139253"><ele>376.2</ele><time>2026-04-19T14:58:03.057Z</time></trkpt><trkpt lat="43.12767" lon="11.613833"><ele>375.6</ele><time>2026-04-19T14:58:04.057Z</time></trkpt><trkpt lat="43.1277372" lon="11.6137456"><ele>375.0</ele><time>2026-04-19T14:58:05.058Z</time></trkpt><trkpt lat="43.1278004" lon="11.6136604"><ele>374.0</ele><time>2026-04-19T14:58:06.057Z</time></trkpt><trkpt lat="43.1278664" lon="11.613577"><ele>373.0</ele><time>2026-04-19T14:58:07.057Z</time></trkpt><trkpt lat="43.1279426" lon="11.6134936"><ele>372.0</ele><time>2026-04-19T14:58:08.057Z</time></trkpt><trkpt lat="43.1280278" lon="11.6134191"><ele>371.0</ele><time>2026-04-19T14:58:09.057Z</time></trkpt><trkpt lat="43.1281145" lon="11.613349"><ele>370.0</ele><time>2026-04-19T14:58:10.057Z</time></trkpt><trkpt lat="43.1281994" lon="11.6132781"><ele>369.6</ele><time>2026-04-19T14:58:11.058Z</time></trkpt><trkpt lat="43.1282842" lon="11.6132164"><ele>369.2</ele><time>2026-04-19T14:58:12.057Z</time></trkpt><trkpt lat="43.1283712" lon="11.6131587"><ele>368.79999999999995</ele><time>2026-04-19T14:58:13.057Z</time></trkpt><trkpt lat="43.1284533" lon="11.6131002"><ele>368.4</ele><time>2026-04-19T14:58:14.058Z</time></trkpt><trkpt lat="43.1285313" lon="11.6130441"><ele>368.0</ele><time>2026-04-19T14:58:15.058Z</time></trkpt><trkpt lat="43.1286106" lon="11.612993"><ele>368.0</ele><time>2026-04-19T14:58:16.057Z</time></trkpt><trkpt lat="43.1286849" lon="11.6129399"><ele>368.0</ele><time>2026-04-19T14:58:17.057Z</time></trkpt><trkpt lat="43.1287412" lon="11.6128718"><ele>368.0</ele><time>2026-04-19T14:58:18.058Z</time></trkpt><trkpt lat="43.1287824" lon="11.6127871"><ele>368.0</ele><time>2026-04-19T14:58:19.058Z</time></trkpt><trkpt lat="43.1288122" lon="11.6126836"><ele>368.0</ele><time>2026-04-19T14:58:20.057Z</time></trkpt><trkpt lat="43.1288193" lon="11.612565"><ele>368.0</ele><time>2026-04-19T14:58:21.057Z</time></trkpt><trkpt lat="43.1288236" lon="11.6124304"><ele>366.25</ele><time>2026-04-19T14:58:22.057Z</time></trkpt><trkpt lat="43.1288292" lon="11.6122774"><ele>364.5</ele><time>2026-04-19T14:58:23.058Z</time></trkpt><trkpt lat="43.1288348" lon="11.6121124"><ele>362.75</ele><time>2026-04-19T14:58:24.057Z</time></trkpt><trkpt lat="43.1288386" lon="11.6119462"><ele>361.0</ele><time>2026-04-19T14:58:25.058Z</time></trkpt><trkpt lat="43.1288439" lon="11.6117745"><ele>359.25</ele><time>2026-04-19T14:58:26.058Z</time></trkpt><trkpt lat="43.1288534" lon="11.6116021"><ele>357.5</ele><time>2026-04-19T14:58:27.057Z</time></trkpt><trkpt lat="43.128863" lon="11.6114198"><ele>355.75</ele><time>2026-04-19T14:58:28.058Z</time></trkpt><trkpt lat="43.128872" lon="11.6112412"><ele>354.0</ele><time>2026-04-19T14:58:29.058Z</time></trkpt><trkpt lat="43.1288832" lon="11.6110644"><ele>353.5</ele><time>2026-04-19T14:58:30.058Z</time></trkpt><trkpt lat="43.1288909" lon="11.6108904"><ele>353.0</ele><time>2026-04-19T14:58:31.058Z</time></trkpt><trkpt lat="43.1288985" lon="11.6107162"><ele>352.5</ele><time>2026-04-19T14:58:32.057Z</time></trkpt><trkpt lat="43.1288993" lon="11.6105458"><ele>352.0</ele><time>2026-04-19T14:58:33.057Z</time></trkpt><trkpt lat="43.128886" lon="11.610377"><ele>353.75</ele><time>2026-04-19T14:58:34.057Z</time></trkpt><trkpt lat="43.1288537" lon="11.610213"><ele>355.5</ele><time>2026-04-19T14:58:35.057Z</time></trkpt><trkpt lat="43.1288198" lon="11.6100449"><ele>357.25</ele><time>2026-04-19T14:58:36.057Z</time></trkpt><trkpt lat="43.1287807" lon="11.609885"><ele>359.0</ele><time>2026-04-19T14:58:37.057Z</time></trkpt><trkpt lat="43.1287254" lon="11.6097199"><ele>359.0</ele><time>2026-04-19T14:58:38.057Z</time></trkpt><trkpt lat="43.1286625" lon="11.6095705"><ele>359.0</ele><time>2026-04-19T14:58:39.057Z</time></trkpt><trkpt lat="43.1285959" lon="11.6094287"><ele>359.0</ele><time>2026-04-19T14:58:40.058Z</time></trkpt><trkpt lat="43.1285326" lon="11.6092867"><ele>359.0</ele><time>2026-04-19T14:58:41.057Z</time></trkpt><trkpt lat="43.1284727" lon="11.6091465"><ele>361.5</ele><time>2026-04-19T14:58:42.057Z</time></trkpt><trkpt lat="43.1284202" lon="11.6090059"><ele>364.0</ele><time>2026-04-19T14:58:43.057Z</time></trkpt><trkpt lat="43.1283723" lon="11.6088597"><ele>366.5</ele><time>2026-04-19T14:58:44.057Z</time></trkpt><trkpt lat="43.1283163" lon="11.6087128"><ele>369.0</ele><time>2026-04-19T14:58:45.057Z</time></trkpt><trkpt lat="43.1282551" lon="11.6085677"><ele>367.0</ele><time>2026-04-19T14:58:46.057Z</time></trkpt><trkpt lat="43.1281902" lon="11.6084292"><ele>365.0</ele><time>2026-04-19T14:58:47.058Z</time></trkpt><trkpt lat="43.1281193" lon="11.608293"><ele>363.0</ele><time>2026-04-19T14:58:48.058Z</time></trkpt><trkpt lat="43.1280373" lon="11.6081607"><ele>361.0</ele><time>2026-04-19T14:58:49.057Z</time></trkpt><trkpt lat="43.1279545" lon="11.6080299"><ele>361.0</ele><time>2026-04-19T14:58:50.057Z</time></trkpt><trkpt lat="43.1278679" lon="11.6078989"><ele>361.0</ele><time>2026-04-19T14:58:51.057Z</time></trkpt><trkpt lat="43.1277928" lon="11.6077629"><ele>361.0</ele><time>2026-04-19T14:58:52.058Z</time></trkpt><trkpt lat="43.1277317" lon="11.6076194"><ele>361.0</ele><time>2026-04-19T14:58:53.057Z</time></trkpt><trkpt lat="43.1276718" lon="11.6074687"><ele>362.8</ele><time>2026-04-19T14:58:54.058Z</time></trkpt><trkpt lat="43.1276261" lon="11.6073316"><ele>364.6</ele><time>2026-04-19T14:58:55.057Z</time></trkpt><trkpt lat="43.1275834" lon="11.6072023"><ele>366.4</ele><time>2026-04-19T14:58:56.057Z</time></trkpt><trkpt lat="43.1275444" lon="11.6070879"><ele>368.2</ele><time>2026-04-19T14:58:57.057Z</time></trkpt><trkpt lat="43.1275057" lon="11.6069663"><ele>370.0</ele><time>2026-04-19T14:58:58.057Z</time></trkpt><trkpt lat="43.1274707" lon="11.6068411"><ele>370.4</ele><time>2026-04-19T14:58:59.058Z</time></trkpt><trkpt lat="43.1274406" lon="11.6067167"><ele>370.8</ele><time>2026-04-19T14:59:00.057Z</time></trkpt><trkpt lat="43.1274093" lon="11.6065776"><ele>371.20000000000005</ele><time>2026-04-19T14:59:01.057Z</time></trkpt><trkpt lat="43.1273845" lon="11.6064412"><ele>371.6</ele><time>2026-04-19T14:59:02.057Z</time></trkpt><trkpt lat="43.1273571" lon="11.6063013"><ele>372.0</ele><time>2026-04-19T14:59:03.058Z</time></trkpt><trkpt lat="43.127322" lon="11.6061671"><ele>369.5</ele><time>2026-04-19T14:59:04.057Z</time></trkpt><trkpt lat="43.1272833" lon="11.6060369"><ele>367.0</ele><time>2026-04-19T14:59:05.057Z</time></trkpt><trkpt lat="43.1272311" lon="11.6058972"><ele>364.5</ele><time>2026-04-19T14:59:06.057Z</time></trkpt><trkpt lat="43.1271597" lon="11.6057623"><ele>362.0</ele><time>2026-04-19T14:59:07.057Z</time></trkpt><trkpt lat="43.1270723" lon="11.6056419"><ele>362.0</ele><time>2026-04-19T14:59:08.057Z</time></trkpt><trkpt lat="43.126977" lon="11.6055346"><ele>362.0</ele><time>2026-04-19T14:59:09.057Z</time></trkpt><trkpt lat="43.1268707" lon="11.6054338"><ele>362.0</ele><time>2026-04-19T14:59:10.058Z</time></trkpt><trkpt lat="43.1267691" lon="11.6053311"><ele>362.0</ele><time>2026-04-19T14:59:11.058Z</time></trkpt><trkpt lat="43.1266711" lon="11.6052277"><ele>362.25</ele><time>2026-04-19T14:59:12.057Z</time></trkpt><trkpt lat="43.1265713" lon="11.6051167"><ele>362.5</ele><time>2026-04-19T14:59:13.057Z</time></trkpt><trkpt lat="43.1264832" lon="11.6049929"><ele>362.75</ele><time>2026-04-19T14:59:14.057Z</time></trkpt><trkpt lat="43.1264034" lon="11.604857"><ele>363.0</ele><time>2026-04-19T14:59:15.057Z</time></trkpt><trkpt lat="43.1263355" lon="11.6047037"><ele>362.5</ele><time>2026-04-19T14:59:16.058Z</time></trkpt><trkpt lat="43.1262698" lon="11.6045513"><ele>362.0</ele><time>2026-04-19T14:59:17.058Z</time></trkpt><trkpt lat="43.1262038" lon="11.6044011"><ele>361.5</ele><time>2026-04-19T14:59:18.057Z</time></trkpt><trkpt lat="43.126139" lon="11.6042496"><ele>361.0</ele><time>2026-04-19T14:59:19.057Z</time></trkpt><trkpt lat="43.1260762" lon="11.6040926"><ele>362.0</ele><time>2026-04-19T14:59:20.057Z</time></trkpt><trkpt lat="43.1260133" lon="11.6039342"><ele>363.0</ele><time>2026-04-19T14:59:21.058Z</time></trkpt><trkpt lat="43.1259468" lon="11.6037801"><ele>364.0</ele><time>2026-04-19T14:59:22.057Z</time></trkpt><trkpt lat="43.1258801" lon="11.6036193"><ele>365.0</ele><time>2026-04-19T14:59:23.058Z</time></trkpt><trkpt lat="43.125813" lon="11.603453"><ele>365.0</ele><time>2026-04-19T14:59:24.057Z</time></trkpt><trkpt lat="43.1257427" lon="11.6032916"><ele>365.0</ele><time>2026-04-19T14:59:25.058Z</time></trkpt><trkpt lat="43.1256791" lon="11.6031255"><ele>365.0</ele><time>2026-04-19T14:59:26.057Z</time></trkpt><trkpt lat="43.1256141" lon="11.6029644"><ele>365.0</ele><time>2026-04-19T14:59:27.057Z</time></trkpt><trkpt lat="43.1255466" lon="11.6028078"><ele>364.25</ele><time>2026-04-19T14:59:28.057Z</time></trkpt><trkpt lat="43.12548" lon="11.6026474"><ele>363.5</ele><time>2026-04-19T14:59:29.057Z</time></trkpt><trkpt lat="43.1254119" lon="11.6024901"><ele>362.75</ele><time>2026-04-19T14:59:30.057Z</time></trkpt><trkpt lat="43.1253497" lon="11.6023337"><ele>362.0</ele><time>2026-04-19T14:59:31.057Z</time></trkpt><trkpt lat="43.1252859" lon="11.6021809"><ele>362.0</ele><time>2026-04-19T14:59:32.058Z</time></trkpt><trkpt lat="43.1252209" lon="11.6020227"><ele>362.0</ele><time>2026-04-19T14:59:33.057Z</time></trkpt><trkpt lat="43.1251591" lon="11.6018638"><ele>362.0</ele><time>2026-04-19T14:59:34.057Z</time></trkpt><trkpt lat="43.1251036" lon="11.6017049"><ele>362.0</ele><time>2026-04-19T14:59:35.057Z</time></trkpt><trkpt lat="43.125047" lon="11.601549"><ele>362.25</ele><time>2026-04-19T14:59:36.057Z</time></trkpt><trkpt lat="43.1249953" lon="11.601392"><ele>362.5</ele><time>2026-04-19T14:59:37.057Z</time></trkpt><trkpt lat="43.124941" lon="11.601236"><ele>362.75</ele><time>2026-04-19T14:59:38.057Z</time></trkpt><trkpt lat="43.1248884" lon="11.6010744"><ele>363.0</ele><time>2026-04-19T14:59:39.057Z</time></trkpt><trkpt lat="43.1248351" lon="11.6009116"><ele>363.0</ele><time>2026-04-19T14:59:40.058Z</time></trkpt><trkpt lat="43.12478" lon="11.6007525"><ele>363.0</ele><time>2026-04-19T14:59:41.057Z</time></trkpt><trkpt lat="43.1247127" lon="11.6005987"><ele>363.0</ele><time>2026-04-19T14:59:42.057Z</time></trkpt><trkpt lat="43.1246426" lon="11.6004458"><ele>363.0</ele><time>2026-04-19T14:59:43.057Z</time></trkpt><trkpt lat="43.1245663" lon="11.6002969"><ele>365.0</ele><time>2026-04-19T14:59:44.057Z</time></trkpt><trkpt lat="43.1244859" lon="11.6001489"><ele>367.0</ele><time>2026-04-19T14:59:45.057Z</time></trkpt><trkpt lat="43.1244067" lon="11.6000048"><ele>369.0</ele><time>2026-04-19T14:59:46.057Z</time></trkpt><trkpt lat="43.1243287" lon="11.5998626"><ele>371.0</ele><time>2026-04-19T14:59:47.057Z</time></trkpt><trkpt lat="43.1242593" lon="11.5997319"><ele>371.0</ele><time>2026-04-19T14:59:48.057Z</time></trkpt><trkpt lat="43.124194" lon="11.5996087"><ele>371.0</ele><time>2026-04-19T14:59:49.057Z</time></trkpt><trkpt lat="43.124148" lon="11.5995089"><ele>371.0</ele><time>2026-04-19T14:59:50.057Z</time></trkpt><trkpt lat="43.1241031" lon="11.5994106"><ele>371.0</ele><time>2026-04-19T14:59:51.057Z</time></trkpt><trkpt lat="43.1240707" lon="11.5993044"><ele>371.0</ele><time>2026-04-19T14:59:52.057Z</time></trkpt><trkpt lat="43.1240541" lon="11.5991948"><ele>371.0</ele><time>2026-04-19T14:59:53.058Z</time></trkpt><trkpt lat="43.1240545" lon="11.5990836"><ele>371.6</ele><time>2026-04-19T14:59:54.057Z</time></trkpt><trkpt lat="43.1240693" lon="11.5989702"><ele>372.20000000000005</ele><time>2026-04-19T14:59:55.057Z</time></trkpt><trkpt lat="43.1241065" lon="11.5988592"><ele>372.79999999999995</ele><time>2026-04-19T14:59:56.057Z</time></trkpt><trkpt lat="43.1241507" lon="11.5987443"><ele>373.4</ele><time>2026-04-19T14:59:57.057Z</time></trkpt><trkpt lat="43.1241946" lon="11.5986191"><ele>374.0</ele><time>2026-04-19T14:59:58.058Z</time></trkpt><trkpt lat="43.1242411" lon="11.5984801"><ele>372.5</ele><time>2026-04-19T14:59:59.057Z</time></trkpt><trkpt lat="43.1242894" lon="11.5983307"><ele>371.0</ele><time>2026-04-19T15:00:00.057Z</time></trkpt><trkpt lat="43.124327" lon="11.5981887"><ele>369.5</ele><time>2026-04-19T15:00:01.057Z</time></trkpt><trkpt lat="43.1243501" lon="11.5980283"><ele>368.0</ele><time>2026-04-19T15:00:02.058Z</time></trkpt><trkpt lat="43.1243604" lon="11.5978685"><ele>367.59999999999997</ele><time>2026-04-19T15:00:03.058Z</time></trkpt><trkpt lat="43.1243653" lon="11.5977183"><ele>367.2</ele><time>2026-04-19T15:00:04.057Z</time></trkpt><trkpt lat="43.1243713" lon="11.597562"><ele>366.8</ele><time>2026-04-19T15:00:05.057Z</time></trkpt><trkpt lat="43.1243763" lon="11.5974064"><ele>366.4</ele><time>2026-04-19T15:00:06.057Z</time></trkpt><trkpt lat="43.1243821" lon="11.597261"><ele>366.0</ele><time>2026-04-19T15:00:07.057Z</time></trkpt><trkpt lat="43.1243897" lon="11.5971185"><ele>364.6</ele><time>2026-04-19T15:00:08.058Z</time></trkpt><trkpt lat="43.1243943" lon="11.5969802"><ele>363.20000000000005</ele><time>2026-04-19T15:00:09.057Z</time></trkpt><trkpt lat="43.1243996" lon="11.5968468"><ele>361.79999999999995</ele><time>2026-04-19T15:00:10.057Z</time></trkpt><trkpt lat="43.1244075" lon="11.5967085"><ele>360.4</ele><time>2026-04-19T15:00:11.057Z</time></trkpt><trkpt lat="43.1244149" lon="11.596557"><ele>359.0</ele><time>2026-04-19T15:00:12.057Z</time></trkpt><trkpt lat="43.1244336" lon="11.5964076"><ele>359.0</ele><time>2026-04-19T15:00:13.057Z</time></trkpt><trkpt lat="43.1244473" lon="11.5962452"><ele>359.0</ele><time>2026-04-19T15:00:14.057Z</time></trkpt><trkpt lat="43.1244671" lon="11.5960807"><ele>359.0</ele><time>2026-04-19T15:00:15.057Z</time></trkpt><trkpt lat="43.1244828" lon="11.5959145"><ele>359.0</ele><time>2026-04-19T15:00:16.057Z</time></trkpt><trkpt lat="43.1244863" lon="11.5957579"><ele>359.0</ele><time>2026-04-19T15:00:17.057Z</time></trkpt><trkpt lat="43.1244805" lon="11.5956098"><ele>359.0</ele><time>2026-04-19T15:00:18.057Z</time></trkpt><trkpt lat="43.1244633" lon="11.5954568"><ele>359.0</ele><time>2026-04-19T15:00:19.057Z</time></trkpt><trkpt lat="43.1244373" lon="11.5953"><ele>359.0</ele><time>2026-04-19T15:00:20.057Z</time></trkpt><trkpt lat="43.1243976" lon="11.5951449"><ele>360.25</ele><time>2026-04-19T15:00:21.057Z</time></trkpt><trkpt lat="43.124352" lon="11.5949878"><ele>361.5</ele><time>2026-04-19T15:00:22.057Z</time></trkpt><trkpt lat="43.1243092" lon="11.5948338"><ele>362.75</ele><time>2026-04-19T15:00:23.057Z</time></trkpt><trkpt lat="43.1242611" lon="11.5946955"><ele>364.0</ele><time>2026-04-19T15:00:24.057Z</time></trkpt><trkpt lat="43.1242193" lon="11.5945727"><ele>364.3333333333333</ele><time>2026-04-19T15:00:25.058Z</time></trkpt><trkpt lat="43.1241859" lon="11.5944642"><ele>364.66666666666663</ele><time>2026-04-19T15:00:26.057Z</time></trkpt><trkpt lat="43.1241551" lon="11.5943666"><ele>365.0</ele><time>2026-04-19T15:00:27.058Z</time></trkpt><trkpt lat="43.1241335" lon="11.5942623"><ele>365.3333333333333</ele><time>2026-04-19T15:00:28.057Z</time></trkpt><trkpt lat="43.1241146" lon="11.5941599"><ele>365.6666666666667</ele><time>2026-04-19T15:00:29.057Z</time></trkpt><trkpt lat="43.1241091" lon="11.5940497"><ele>366.0</ele><time>2026-04-19T15:00:30.057Z</time></trkpt><trkpt lat="43.1241127" lon="11.5939408"><ele>366.0</ele><time>2026-04-19T15:00:31.058Z</time></trkpt><trkpt lat="43.1241184" lon="11.5938433"><ele>366.0</ele><time>2026-04-19T15:00:32.057Z</time></trkpt><trkpt lat="43.1241212" lon="11.5937406"><ele>366.0</ele><time>2026-04-19T15:00:33.057Z</time></trkpt><trkpt lat="43.1241229" lon="11.5936512"><ele>366.0</ele><time>2026-04-19T15:00:34.057Z</time></trkpt><trkpt lat="43.1241239" lon="11.5935582"><ele>366.0</ele><time>2026-04-19T15:00:35.057Z</time></trkpt><trkpt lat="43.1241257" lon="11.5934715"><ele>366.0</ele><time>2026-04-19T15:00:36.057Z</time></trkpt><trkpt lat="43.1241433" lon="11.5933257"><ele>366.6</ele><time>2026-04-19T15:00:38.057Z</time></trkpt><trkpt lat="43.1241928" lon="11.5932329"><ele>367.20000000000005</ele><time>2026-04-19T15:00:40.057Z</time></trkpt><trkpt lat="43.1243056" lon="11.5931743"><ele>367.79999999999995</ele><time>2026-04-19T15:00:42.057Z</time></trkpt><trkpt lat="43.1243853" lon="11.5931458"><ele>368.4</ele><time>2026-04-19T15:00:43.058Z</time></trkpt><trkpt lat="43.1244622" lon="11.5931062"><ele>369.0</ele><time>2026-04-19T15:00:44.058Z</time></trkpt><trkpt lat="43.124547" lon="11.5930591"><ele>369.0</ele><time>2026-04-19T15:00:45.057Z</time></trkpt><trkpt lat="43.1246436" lon="11.5929999"><ele>369.0</ele><time>2026-04-19T15:00:46.057Z</time></trkpt><trkpt lat="43.1247524" lon="11.5929396"><ele>369.0</ele><time>2026-04-19T15:00:47.057Z</time></trkpt><trkpt lat="43.1248659" lon="11.5929045"><ele>369.0</ele><time>2026-04-19T15:00:48.058Z</time></trkpt><trkpt lat="43.1249676" lon="11.5928351"><ele>370.0</ele><time>2026-04-19T15:00:49.058Z</time></trkpt><trkpt lat="43.1250584" lon="11.5927789"><ele>371.0</ele><time>2026-04-19T15:00:50.057Z</time></trkpt><trkpt lat="43.1251503" lon="11.5927242"><ele>372.0</ele><time>2026-04-19T15:00:51.057Z</time></trkpt><trkpt lat="43.1252426" lon="11.5926743"><ele>373.0</ele><time>2026-04-19T15:00:52.057Z</time></trkpt><trkpt lat="43.1253336" lon="11.5926365"><ele>374.0</ele><time>2026-04-19T15:00:53.057Z</time></trkpt><trkpt lat="43.1254271" lon="11.5925977"><ele>374.0</ele><time>2026-04-19T15:00:54.058Z</time></trkpt><trkpt lat="43.1255051" lon="11.5925718"><ele>374.0</ele><time>2026-04-19T15:00:55.057Z</time></trkpt><trkpt lat="43.1255974" lon="11.592552"><ele>374.0</ele><time>2026-04-19T15:00:56.057Z</time></trkpt><trkpt lat="43.1256833" lon="11.5925287"><ele>374.0</ele><time>2026-04-19T15:00:57.058Z</time></trkpt><trkpt lat="43.1257682" lon="11.5925071"><ele>374.0</ele><time>2026-04-19T15:00:58.057Z</time></trkpt><trkpt lat="43.1258491" lon="11.5924804"><ele>374.0</ele><time>2026-04-19T15:00:59.057Z</time></trkpt><trkpt lat="43.1259258" lon="11.5924407"><ele>371.6</ele><time>2026-04-19T15:01:00.058Z</time></trkpt><trkpt lat="43.1259831" lon="11.5923722"><ele>369.2</ele><time>2026-04-19T15:01:01.058Z</time></trkpt><trkpt lat="43.126054" lon="11.5923049"><ele>366.8</ele><time>2026-04-19T15:01:02.057Z</time></trkpt><trkpt lat="43.1261122" lon="11.5921993"><ele>364.40000000000003</ele><time>2026-04-19T15:01:03.057Z</time></trkpt><trkpt lat="43.1261692" lon="11.5920952"><ele>362.0</ele><time>2026-04-19T15:01:04.057Z</time></trkpt><trkpt lat="43.1262274" lon="11.5919864"><ele>362.0</ele><time>2026-04-19T15:01:05.057Z</time></trkpt><trkpt lat="43.1262753" lon="11.591877"><ele>362.0</ele><time>2026-04-19T15:01:06.057Z</time></trkpt><trkpt lat="43.1263246" lon="11.5917669"><ele>362.0</ele><time>2026-04-19T15:01:07.058Z</time></trkpt><trkpt lat="43.1263745" lon="11.5916499"><ele>362.0</ele><time>2026-04-19T15:01:08.057Z</time></trkpt><trkpt lat="43.1264063" lon="11.5915422"><ele>362.0</ele><time>2026-04-19T15:01:09.058Z</time></trkpt><trkpt lat="43.1264432" lon="11.5914321"><ele>362.0</ele><time>2026-04-19T15:01:10.057Z</time></trkpt><trkpt lat="43.1264574" lon="11.5913349"><ele>362.0</ele><time>2026-04-19T15:01:11.058Z</time></trkpt><trkpt lat="43.1264536" lon="11.5912341"><ele>362.0</ele><time>2026-04-19T15:01:12.057Z</time></trkpt><trkpt lat="43.1264422" lon="11.5911255"><ele>362.0</ele><time>2026-04-19T15:01:13.057Z</time></trkpt><trkpt lat="43.1264201" lon="11.5910069"><ele>362.0</ele><time>2026-04-19T15:01:14.057Z</time></trkpt><trkpt lat="43.126388" lon="11.59089"><ele>362.0</ele><time>2026-04-19T15:01:15.057Z</time></trkpt><trkpt lat="43.1263702" lon="11.5907746"><ele>360.1666666666667</ele><time>2026-04-19T15:01:16.057Z</time></trkpt><trkpt lat="43.1263237" lon="11.5906766"><ele>358.33333333333337</ele><time>2026-04-19T15:01:17.057Z</time></trkpt><trkpt lat="43.1262828" lon="11.590578"><ele>356.5</ele><time>2026-04-19T15:01:18.057Z</time></trkpt><trkpt lat="43.1262731" lon="11.5904696"><ele>354.6666666666667</ele><time>2026-04-19T15:01:19.057Z</time></trkpt><trkpt lat="43.12628" lon="11.5903694"><ele>352.8333333333333</ele><time>2026-04-19T15:01:20.057Z</time></trkpt><trkpt lat="43.1262986" lon="11.5902628"><ele>351.0</ele><time>2026-04-19T15:01:21.057Z</time></trkpt><trkpt lat="43.1263234" lon="11.5901678"><ele>350.0</ele><time>2026-04-19T15:01:22.057Z</time></trkpt><trkpt lat="43.126368" lon="11.5900715"><ele>349.0</ele><time>2026-04-19T15:01:23.057Z</time></trkpt><trkpt lat="43.1264176" lon="11.5899828"><ele>348.0</ele><time>2026-04-19T15:01:24.057Z</time></trkpt><trkpt lat="43.1264653" lon="11.5898947"><ele>347.0</ele><time>2026-04-19T15:01:25.058Z</time></trkpt><trkpt lat="43.1265184" lon="11.5897956"><ele>346.0</ele><time>2026-04-19T15:01:26.057Z</time></trkpt><trkpt lat="43.1265778" lon="11.5897083"><ele>345.0</ele><time>2026-04-19T15:01:27.057Z</time></trkpt><trkpt lat="43.1266435" lon="11.5896212"><ele>345.0</ele><time>2026-04-19T15:01:28.058Z</time></trkpt><trkpt lat="43.1266959" lon="11.5895391"><ele>345.0</ele><time>2026-04-19T15:01:29.058Z</time></trkpt><trkpt lat="43.1267609" lon="11.5894631"><ele>345.0</ele><time>2026-04-19T15:01:30.057Z</time></trkpt><trkpt lat="43.1268264" lon="11.5893777"><ele>345.0</ele><time>2026-04-19T15:01:31.057Z</time></trkpt><trkpt lat="43.1268903" lon="11.5892935"><ele>345.0</ele><time>2026-04-19T15:01:32.057Z</time></trkpt><trkpt lat="43.1269515" lon="11.5891933"><ele>345.0</ele><time>2026-04-19T15:01:33.057Z</time></trkpt><trkpt lat="43.127017" lon="11.5891112"><ele>343.6</ele><time>2026-04-19T15:01:34.057Z</time></trkpt><trkpt lat="43.1270828" lon="11.5890224"><ele>342.2</ele><time>2026-04-19T15:01:35.058Z</time></trkpt><trkpt lat="43.1271492" lon="11.5889337"><ele>340.79999999999995</ele><time>2026-04-19T15:01:36.058Z</time></trkpt><trkpt lat="43.1272135" lon="11.5888444"><ele>339.4</ele><time>2026-04-19T15:01:37.058Z</time></trkpt><trkpt lat="43.1272761" lon="11.5887576"><ele>338.0</ele><time>2026-04-19T15:01:38.057Z</time></trkpt><trkpt lat="43.1273394" lon="11.588672"><ele>337.6666666666667</ele><time>2026-04-19T15:01:39.057Z</time></trkpt><trkpt lat="43.127399" lon="11.5885943"><ele>337.33333333333337</ele><time>2026-04-19T15:01:40.057Z</time></trkpt><trkpt lat="43.1274602" lon="11.5885162"><ele>337.0</ele><time>2026-04-19T15:01:41.057Z</time></trkpt><trkpt lat="43.1275157" lon="11.5884318"><ele>336.6666666666667</ele><time>2026-04-19T15:01:42.057Z</time></trkpt><trkpt lat="43.1275764" lon="11.5883486"><ele>336.3333333333333</ele><time>2026-04-19T15:01:43.057Z</time></trkpt><trkpt lat="43.1276328" lon="11.5882643"><ele>336.0</ele><time>2026-04-19T15:01:44.058Z</time></trkpt><trkpt lat="43.1276887" lon="11.5881795"><ele>336.0</ele><time>2026-04-19T15:01:45.057Z</time></trkpt><trkpt lat="43.1277408" lon="11.5880921"><ele>336.0</ele><time>2026-04-19T15:01:46.057Z</time></trkpt><trkpt lat="43.1277872" lon="11.5879982"><ele>336.0</ele><time>2026-04-19T15:01:47.057Z</time></trkpt><trkpt lat="43.1278235" lon="11.5878865"><ele>336.0</ele><time>2026-04-19T15:01:48.057Z</time></trkpt><trkpt lat="43.127863" lon="11.5877662"><ele>336.0</ele><time>2026-04-19T15:01:49.057Z</time></trkpt><trkpt lat="43.1278923" lon="11.5876321"><ele>335.6</ele><time>2026-04-19T15:01:50.058Z</time></trkpt><trkpt lat="43.1279173" lon="11.587489"><ele>335.20000000000005</ele><time>2026-04-19T15:01:51.057Z</time></trkpt><trkpt lat="43.1279471" lon="11.5873604"><ele>334.79999999999995</ele><time>2026-04-19T15:01:52.057Z</time></trkpt><trkpt lat="43.1279741" lon="11.5872233"><ele>334.4</ele><time>2026-04-19T15:01:53.057Z</time></trkpt><trkpt lat="43.1280003" lon="11.5870693"><ele>334.0</ele><time>2026-04-19T15:01:54.058Z</time></trkpt><trkpt lat="43.1280221" lon="11.5869156"><ele>333.4</ele><time>2026-04-19T15:01:55.057Z</time></trkpt><trkpt lat="43.1280538" lon="11.5867656"><ele>332.79999999999995</ele><time>2026-04-19T15:01:56.058Z</time></trkpt><trkpt lat="43.1280841" lon="11.5866234"><ele>332.20000000000005</ele><time>2026-04-19T15:01:57.057Z</time></trkpt><trkpt lat="43.1281176" lon="11.5864816"><ele>331.6</ele><time>2026-04-19T15:01:58.058Z</time></trkpt><trkpt lat="43.1281514" lon="11.5863384"><ele>331.0</ele><time>2026-04-19T15:01:59.058Z</time></trkpt><trkpt lat="43.1281829" lon="11.5861902"><ele>331.0</ele><time>2026-04-19T15:02:00.057Z</time></trkpt><trkpt lat="43.1282067" lon="11.5860514"><ele>331.0</ele><time>2026-04-19T15:02:01.057Z</time></trkpt><trkpt lat="43.128221" lon="11.5859189"><ele>331.0</ele><time>2026-04-19T15:02:02.058Z</time></trkpt><trkpt lat="43.1282357" lon="11.5857901"><ele>331.0</ele><time>2026-04-19T15:02:03.058Z</time></trkpt><trkpt lat="43.1282469" lon="11.5856647"><ele>331.0</ele><time>2026-04-19T15:02:04.057Z</time></trkpt><trkpt lat="43.1282613" lon="11.5855517"><ele>329.8333333333333</ele><time>2026-04-19T15:02:05.057Z</time></trkpt><trkpt lat="43.1282683" lon="11.5854365"><ele>328.66666666666663</ele><time>2026-04-19T15:02:06.057Z</time></trkpt><trkpt lat="43.1282762" lon="11.5853158"><ele>327.5</ele><time>2026-04-19T15:02:07.057Z</time></trkpt><trkpt lat="43.1282825" lon="11.5852017"><ele>326.3333333333333</ele><time>2026-04-19T15:02:08.057Z</time></trkpt><trkpt lat="43.1282911" lon="11.5850796"><ele>325.1666666666667</ele><time>2026-04-19T15:02:09.058Z</time></trkpt><trkpt lat="43.1282988" lon="11.5849535"><ele>324.0</ele><time>2026-04-19T15:02:10.058Z</time></trkpt><trkpt lat="43.1283167" lon="11.5848256"><ele>323.2</ele><time>2026-04-19T15:02:11.057Z</time></trkpt><trkpt lat="43.1283245" lon="11.5846983"><ele>322.4</ele><time>2026-04-19T15:02:12.057Z</time></trkpt><trkpt lat="43.128341" lon="11.584568"><ele>321.6</ele><time>2026-04-19T15:02:13.058Z</time></trkpt><trkpt lat="43.1283681" lon="11.5844417"><ele>320.8</ele><time>2026-04-19T15:02:14.057Z</time></trkpt><trkpt lat="43.1284015" lon="11.5843256"><ele>320.0</ele><time>2026-04-19T15:02:15.058Z</time></trkpt><trkpt lat="43.1284434" lon="11.5842191"><ele>318.6666666666667</ele><time>2026-04-19T15:02:16.057Z</time></trkpt><trkpt lat="43.1284884" lon="11.5841172"><ele>317.33333333333337</ele><time>2026-04-19T15:02:17.057Z</time></trkpt><trkpt lat="43.1285353" lon="11.5840139"><ele>316.0</ele><time>2026-04-19T15:02:18.057Z</time></trkpt><trkpt lat="43.1285948" lon="11.5839288"><ele>314.6666666666667</ele><time>2026-04-19T15:02:19.057Z</time></trkpt><trkpt lat="43.1286667" lon="11.5838578"><ele>313.3333333333333</ele><time>2026-04-19T15:02:20.057Z</time></trkpt><trkpt lat="43.1287441" lon="11.5838057"><ele>312.0</ele><time>2026-04-19T15:02:21.057Z</time></trkpt><trkpt lat="43.1288256" lon="11.5837649"><ele>312.0</ele><time>2026-04-19T15:02:22.057Z</time></trkpt><trkpt lat="43.1289042" lon="11.5837245"><ele>312.0</ele><time>2026-04-19T15:02:23.058Z</time></trkpt><trkpt lat="43.1289744" lon="11.5836765"><ele>312.0</ele><time>2026-04-19T15:02:24.057Z</time></trkpt><trkpt lat="43.1290403" lon="11.5836189"><ele>312.0</ele><time>2026-04-19T15:02:25.057Z</time></trkpt><trkpt lat="43.1290949" lon="11.5835373"><ele>312.0</ele><time>2026-04-19T15:02:26.057Z</time></trkpt><trkpt lat="43.1291402" lon="11.5834396"><ele>312.0</ele><time>2026-04-19T15:02:27.057Z</time></trkpt><trkpt lat="43.129183" lon="11.5833325"><ele>308.4</ele><time>2026-04-19T15:02:28.057Z</time></trkpt><trkpt lat="43.1292195" lon="11.5832136"><ele>304.79999999999995</ele><time>2026-04-19T15:02:29.057Z</time></trkpt><trkpt lat="43.1292538" lon="11.5830964"><ele>301.2</ele><time>2026-04-19T15:02:30.057Z</time></trkpt><trkpt lat="43.1292806" lon="11.5829799"><ele>297.59999999999997</ele><time>2026-04-19T15:02:31.057Z</time></trkpt><trkpt lat="43.1293089" lon="11.5828451"><ele>294.0</ele><time>2026-04-19T15:02:32.057Z</time></trkpt><trkpt lat="43.1293278" lon="11.5827092"><ele>291.8</ele><time>2026-04-19T15:02:33.057Z</time></trkpt><trkpt lat="43.129346" lon="11.5825734"><ele>289.59999999999997</ele><time>2026-04-19T15:02:34.057Z</time></trkpt><trkpt lat="43.1293648" lon="11.5824266"><ele>287.4</ele><time>2026-04-19T15:02:35.057Z</time></trkpt><trkpt lat="43.1293838" lon="11.5822721"><ele>285.2</ele><time>2026-04-19T15:02:36.057Z</time></trkpt><trkpt lat="43.1294058" lon="11.5821183"><ele>283.0</ele><time>2026-04-19T15:02:37.058Z</time></trkpt><trkpt lat="43.129426" lon="11.5819612"><ele>280.0</ele><time>2026-04-19T15:02:38.057Z</time></trkpt><trkpt lat="43.1294443" lon="11.581802"><ele>277.0</ele><time>2026-04-19T15:02:39.057Z</time></trkpt><trkpt lat="43.1294623" lon="11.5816458"><ele>274.0</ele><time>2026-04-19T15:02:40.057Z</time></trkpt><trkpt lat="43.129483" lon="11.5814895"><ele>271.0</ele><time>2026-04-19T15:02:41.058Z</time></trkpt><trkpt lat="43.1295025" lon="11.5813334"><ele>271.0</ele><time>2026-04-19T15:02:42.057Z</time></trkpt><trkpt lat="43.1295227" lon="11.5811849"><ele>271.0</ele><time>2026-04-19T15:02:43.057Z</time></trkpt><trkpt lat="43.1295444" lon="11.5810377"><ele>271.0</ele><time>2026-04-19T15:02:44.058Z</time></trkpt><trkpt lat="43.1295667" lon="11.5808911"><ele>271.0</ele><time>2026-04-19T15:02:45.057Z</time></trkpt><trkpt lat="43.1295832" lon="11.5807581"><ele>271.0</ele><time>2026-04-19T15:02:46.057Z</time></trkpt><trkpt lat="43.1296066" lon="11.5806251"><ele>269.6</ele><time>2026-04-19T15:02:47.057Z</time></trkpt><trkpt lat="43.129623" lon="11.5804959"><ele>268.20000000000005</ele><time>2026-04-19T15:02:48.057Z</time></trkpt><trkpt lat="43.1296394" lon="11.5803719"><ele>266.79999999999995</ele><time>2026-04-19T15:02:49.057Z</time></trkpt><trkpt lat="43.1296564" lon="11.5802481"><ele>265.4</ele><time>2026-04-19T15:02:50.057Z</time></trkpt><trkpt lat="43.1296677" lon="11.5801297"><ele>264.0</ele><time>2026-04-19T15:02:51.057Z</time></trkpt><trkpt lat="43.1296989" lon="11.5800003"><ele>263.5</ele><time>2026-04-19T15:02:52.058Z</time></trkpt><trkpt lat="43.1297379" lon="11.5798587"><ele>263.0</ele><time>2026-04-19T15:02:53.057Z</time></trkpt><trkpt lat="43.1297928" lon="11.5797164"><ele>262.5</ele><time>2026-04-19T15:02:54.058Z</time></trkpt><trkpt lat="43.1298492" lon="11.5795763"><ele>262.0</ele><time>2026-04-19T15:02:55.057Z</time></trkpt><trkpt lat="43.1299079" lon="11.5794426"><ele>262.0</ele><time>2026-04-19T15:02:56.057Z</time></trkpt><trkpt lat="43.1299717" lon="11.5793147"><ele>262.0</ele><time>2026-04-19T15:02:57.057Z</time></trkpt><trkpt lat="43.1300344" lon="11.5791827"><ele>262.0</ele><time>2026-04-19T15:02:58.058Z</time></trkpt><trkpt lat="43.1300863" lon="11.5790555"><ele>262.0</ele><time>2026-04-19T15:02:59.057Z</time></trkpt><trkpt lat="43.1301401" lon="11.5789361"><ele>262.0</ele><time>2026-04-19T15:03:00.057Z</time></trkpt><trkpt lat="43.13018" lon="11.5788134"><ele>262.0</ele><time>2026-04-19T15:03:01.058Z</time></trkpt><trkpt lat="43.1302117" lon="11.5786873"><ele>262.0</ele><time>2026-04-19T15:03:02.058Z</time></trkpt><trkpt lat="43.1302314" lon="11.5785577"><ele>262.0</ele><time>2026-04-19T15:03:03.057Z</time></trkpt><trkpt lat="43.1302425" lon="11.578425"><ele>262.0</ele><time>2026-04-19T15:03:04.058Z</time></trkpt><trkpt lat="43.1302413" lon="11.5783002"><ele>262.0</ele><time>2026-04-19T15:03:05.057Z</time></trkpt><trkpt lat="43.1302314" lon="11.5781818"><ele>261.6</ele><time>2026-04-19T15:03:06.057Z</time></trkpt><trkpt lat="43.1302117" lon="11.5780656"><ele>261.2</ele><time>2026-04-19T15:03:07.057Z</time></trkpt><trkpt lat="43.1301747" lon="11.5779542"><ele>260.8</ele><time>2026-04-19T15:03:08.057Z</time></trkpt><trkpt lat="43.1301272" lon="11.5778433"><ele>260.4</ele><time>2026-04-19T15:03:09.057Z</time></trkpt><trkpt lat="43.1300717" lon="11.5777332"><ele>260.0</ele><time>2026-04-19T15:03:10.058Z</time></trkpt><trkpt lat="43.1300143" lon="11.5776266"><ele>259.0</ele><time>2026-04-19T15:03:11.058Z</time></trkpt><trkpt lat="43.1299472" lon="11.5775226"><ele>258.0</ele><time>2026-04-19T15:03:12.057Z</time></trkpt><trkpt lat="43.1298744" lon="11.5774327"><ele>257.0</ele><time>2026-04-19T15:03:13.057Z</time></trkpt><trkpt lat="43.1297898" lon="11.5773658"><ele>256.0</ele><time>2026-04-19T15:03:14.057Z</time></trkpt><trkpt lat="43.1296974" lon="11.5773216"><ele>255.0</ele><time>2026-04-19T15:03:15.058Z</time></trkpt><trkpt lat="43.1295954" lon="11.5773077"><ele>254.66666666666666</ele><time>2026-04-19T15:03:16.057Z</time></trkpt><trkpt lat="43.1294913" lon="11.577297"><ele>254.33333333333331</ele><time>2026-04-19T15:03:17.057Z</time></trkpt><trkpt lat="43.1293989" lon="11.5772748"><ele>254.0</ele><time>2026-04-19T15:03:18.057Z</time></trkpt><trkpt lat="43.1293206" lon="11.5772345"><ele>253.66666666666666</ele><time>2026-04-19T15:03:19.057Z</time></trkpt><trkpt lat="43.1292494" lon="11.5771769"><ele>253.33333333333331</ele><time>2026-04-19T15:03:20.057Z</time></trkpt><trkpt lat="43.1291964" lon="11.5771001"><ele>253.0</ele><time>2026-04-19T15:03:21.057Z</time></trkpt><trkpt lat="43.1291522" lon="11.5770245"><ele>253.33333333333331</ele><time>2026-04-19T15:03:22.058Z</time></trkpt><trkpt lat="43.1291269" lon="11.5769228"><ele>253.66666666666666</ele><time>2026-04-19T15:03:23.058Z</time></trkpt><trkpt lat="43.1291137" lon="11.5768185"><ele>254.0</ele><time>2026-04-19T15:03:24.057Z</time></trkpt><trkpt lat="43.1291106" lon="11.5766996"><ele>254.33333333333331</ele><time>2026-04-19T15:03:25.057Z</time></trkpt><trkpt lat="43.1291151" lon="11.5765737"><ele>254.66666666666666</ele><time>2026-04-19T15:03:26.057Z</time></trkpt><trkpt lat="43.1291206" lon="11.5764403"><ele>255.0</ele><time>2026-04-19T15:03:27.057Z</time></trkpt><trkpt lat="43.1291234" lon="11.576302"><ele>255.6</ele><time>2026-04-19T15:03:28.058Z</time></trkpt><trkpt lat="43.129125" lon="11.5761655"><ele>256.2</ele><time>2026-04-19T15:03:29.057Z</time></trkpt><trkpt lat="43.1291278" lon="11.5760249"><ele>256.8</ele><time>2026-04-19T15:03:30.057Z</time></trkpt><trkpt lat="43.1291342" lon="11.5758838"><ele>257.4</ele><time>2026-04-19T15:03:31.058Z</time></trkpt><trkpt lat="43.1291412" lon="11.5757489"><ele>258.0</ele><time>2026-04-19T15:03:32.057Z</time></trkpt><trkpt lat="43.1291509" lon="11.5756052"><ele>258.0</ele><time>2026-04-19T15:03:33.057Z</time></trkpt><trkpt lat="43.1291602" lon="11.5754682"><ele>258.0</ele><time>2026-04-19T15:03:34.057Z</time></trkpt><trkpt lat="43.1291707" lon="11.5753484"><ele>258.0</ele><time>2026-04-19T15:03:35.057Z</time></trkpt><trkpt lat="43.1291871" lon="11.575244"><ele>258.0</ele><time>2026-04-19T15:03:36.058Z</time></trkpt><trkpt lat="43.1292089" lon="11.5751331"><ele>258.0</ele><time>2026-04-19T15:03:37.057Z</time></trkpt><trkpt lat="43.1292474" lon="11.5750322"><ele>258.0</ele><time>2026-04-19T15:03:38.057Z</time></trkpt><trkpt lat="43.129304" lon="11.5749563"><ele>258.4</ele><time>2026-04-19T15:03:39.057Z</time></trkpt><trkpt lat="43.1293781" lon="11.574913"><ele>258.8</ele><time>2026-04-19T15:03:40.057Z</time></trkpt><trkpt lat="43.1294546" lon="11.5748803"><ele>259.2</ele><time>2026-04-19T15:03:41.057Z</time></trkpt><trkpt lat="43.1295363" lon="11.5748552"><ele>259.6</ele><time>2026-04-19T15:03:42.057Z</time></trkpt><trkpt lat="43.1296358" lon="11.5748376"><ele>260.0</ele><time>2026-04-19T15:03:43.058Z</time></trkpt><trkpt lat="43.1297523" lon="11.5748516"><ele>260.0</ele><time>2026-04-19T15:03:44.057Z</time></trkpt><trkpt lat="43.1298833" lon="11.574875"><ele>260.0</ele><time>2026-04-19T15:03:45.057Z</time></trkpt><trkpt lat="43.1300053" lon="11.5749074"><ele>260.0</ele><time>2026-04-19T15:03:46.057Z</time></trkpt><trkpt lat="43.1301443" lon="11.5749458"><ele>260.0</ele><time>2026-04-19T15:03:47.057Z</time></trkpt><trkpt lat="43.1303022" lon="11.5749897"><ele>260.0</ele><time>2026-04-19T15:03:48.057Z</time></trkpt><trkpt lat="43.1304669" lon="11.5750371"><ele>260.0</ele><time>2026-04-19T15:03:49.058Z</time></trkpt><trkpt lat="43.1306268" lon="11.5750809"><ele>260.0</ele><time>2026-04-19T15:03:50.057Z</time></trkpt><trkpt lat="43.1307861" lon="11.575128"><ele>260.33333333333337</ele><time>2026-04-19T15:03:51.058Z</time></trkpt><trkpt lat="43.1309551" lon="11.5751734"><ele>260.6666666666667</ele><time>2026-04-19T15:03:52.057Z</time></trkpt><trkpt lat="43.1311299" lon="11.575222"><ele>261.0</ele><time>2026-04-19T15:03:53.057Z</time></trkpt><trkpt lat="43.1313136" lon="11.5752712"><ele>261.0</ele><time>2026-04-19T15:03:54.057Z</time></trkpt><trkpt lat="43.1315032" lon="11.5753215"><ele>261.0</ele><time>2026-04-19T15:03:55.057Z</time></trkpt><trkpt lat="43.1316898" lon="11.5753686"><ele>261.0</ele><time>2026-04-19T15:03:56.057Z</time></trkpt><trkpt lat="43.1318686" lon="11.5754204"><ele>261.6666666666667</ele><time>2026-04-19T15:03:57.057Z</time></trkpt><trkpt lat="43.1320517" lon="11.5754705"><ele>262.33333333333337</ele><time>2026-04-19T15:03:58.057Z</time></trkpt><trkpt lat="43.1322323" lon="11.5755206"><ele>263.0</ele><time>2026-04-19T15:03:59.057Z</time></trkpt><trkpt lat="43.1324101" lon="11.5755747"><ele>263.6666666666667</ele><time>2026-04-19T15:04:00.058Z</time></trkpt><trkpt lat="43.132587" lon="11.575629"><ele>264.3333333333333</ele><time>2026-04-19T15:04:01.057Z</time></trkpt><trkpt lat="43.1327661" lon="11.5756829"><ele>265.0</ele><time>2026-04-19T15:04:02.057Z</time></trkpt><trkpt lat="43.132947" lon="11.575741"><ele>265.0</ele><time>2026-04-19T15:04:03.057Z</time></trkpt><trkpt lat="43.133127" lon="11.575799"><ele>265.0</ele><time>2026-04-19T15:04:04.057Z</time></trkpt><trkpt lat="43.1333077" lon="11.5758602"><ele>265.0</ele><time>2026-04-19T15:04:05.057Z</time></trkpt><trkpt lat="43.1334912" lon="11.5759248"><ele>265.0</ele><time>2026-04-19T15:04:06.057Z</time></trkpt><trkpt lat="43.1336743" lon="11.5759826"><ele>265.0</ele><time>2026-04-19T15:04:07.058Z</time></trkpt><trkpt lat="43.1338592" lon="11.5760455"><ele>265.0</ele><time>2026-04-19T15:04:08.058Z</time></trkpt><trkpt lat="43.1340457" lon="11.5761053"><ele>265.3333333333333</ele><time>2026-04-19T15:04:09.058Z</time></trkpt><trkpt lat="43.1342348" lon="11.576165"><ele>265.6666666666667</ele><time>2026-04-19T15:04:10.057Z</time></trkpt><trkpt lat="43.1344184" lon="11.576227"><ele>266.0</ele><time>2026-04-19T15:04:11.057Z</time></trkpt><trkpt lat="43.1345998" lon="11.5762916"><ele>265.0</ele><time>2026-04-19T15:04:12.057Z</time></trkpt><trkpt lat="43.1347782" lon="11.5763632"><ele>264.0</ele><time>2026-04-19T15:04:13.057Z</time></trkpt><trkpt lat="43.1349477" lon="11.5764575"><ele>263.0</ele><time>2026-04-19T15:04:14.058Z</time></trkpt><trkpt lat="43.135114" lon="11.5765686"><ele>263.0</ele><time>2026-04-19T15:04:15.057Z</time></trkpt><trkpt lat="43.1352761" lon="11.5766985"><ele>263.0</ele><time>2026-04-19T15:04:16.057Z</time></trkpt><trkpt lat="43.1354353" lon="11.5768379"><ele>263.0</ele><time>2026-04-19T15:04:17.057Z</time></trkpt><trkpt lat="43.1355962" lon="11.5769807"><ele>262.6666666666667</ele><time>2026-04-19T15:04:18.057Z</time></trkpt><trkpt lat="43.1357575" lon="11.5771258"><ele>262.3333333333333</ele><time>2026-04-19T15:04:19.057Z</time></trkpt><trkpt lat="43.1359155" lon="11.5772695"><ele>262.0</ele><time>2026-04-19T15:04:20.057Z</time></trkpt><trkpt lat="43.1360734" lon="11.5774125"><ele>262.0</ele><time>2026-04-19T15:04:21.057Z</time></trkpt><trkpt lat="43.1362264" lon="11.5775503"><ele>262.0</ele><time>2026-04-19T15:04:22.057Z</time></trkpt><trkpt lat="43.1363762" lon="11.577679"><ele>262.0</ele><time>2026-04-19T15:04:23.057Z</time></trkpt><trkpt lat="43.1365095" lon="11.5778032"><ele>262.5</ele><time>2026-04-19T15:04:24.057Z</time></trkpt><trkpt lat="43.1366411" lon="11.5779241"><ele>263.0</ele><time>2026-04-19T15:04:25.057Z</time></trkpt><trkpt lat="43.1367624" lon="11.5780353"><ele>263.5</ele><time>2026-04-19T15:04:26.057Z</time></trkpt><trkpt lat="43.1368749" lon="11.5781376"><ele>264.0</ele><time>2026-04-19T15:04:27.058Z</time></trkpt><trkpt lat="43.1369869" lon="11.5782372"><ele>264.0</ele><time>2026-04-19T15:04:28.057Z</time></trkpt><trkpt lat="43.1370882" lon="11.5783291"><ele>264.0</ele><time>2026-04-19T15:04:29.057Z</time></trkpt><trkpt lat="43.1371871" lon="11.5784147"><ele>264.0</ele><time>2026-04-19T15:04:30.058Z</time></trkpt><trkpt lat="43.1372794" lon="11.5784989"><ele>264.0</ele><time>2026-04-19T15:04:31.057Z</time></trkpt><trkpt lat="43.1373669" lon="11.578576"><ele>264.1666666666667</ele><time>2026-04-19T15:04:32.058Z</time></trkpt><trkpt lat="43.1374428" lon="11.5786437"><ele>264.3333333333333</ele><time>2026-04-19T15:04:33.057Z</time></trkpt><trkpt lat="43.1375101" lon="11.5786901"><ele>264.5</ele><time>2026-04-19T15:04:34.057Z</time></trkpt><trkpt lat="43.1375742" lon="11.5786978"><ele>264.66666666666663</ele><time>2026-04-19T15:04:35.057Z</time></trkpt><trkpt lat="43.1376351" lon="11.5786742"><ele>264.8333333333333</ele><time>2026-04-19T15:04:36.057Z</time></trkpt><trkpt lat="43.1376935" lon="11.5786104"><ele>265.0</ele><time>2026-04-19T15:04:37.057Z</time></trkpt><trkpt lat="43.1377479" lon="11.5785231"><ele>265.6</ele><time>2026-04-19T15:04:38.058Z</time></trkpt><trkpt lat="43.1378021" lon="11.5784151"><ele>266.2</ele><time>2026-04-19T15:04:39.057Z</time></trkpt><trkpt lat="43.1378623" lon="11.5783013"><ele>266.8</ele><time>2026-04-19T15:04:40.057Z</time></trkpt><trkpt lat="43.1379325" lon="11.5781786"><ele>267.4</ele><time>2026-04-19T15:04:41.057Z</time></trkpt><trkpt lat="43.138009" lon="11.5780484"><ele>268.0</ele><time>2026-04-19T15:04:42.057Z</time></trkpt><trkpt lat="43.1380849" lon="11.5779134"><ele>267.5</ele><time>2026-04-19T15:04:43.057Z</time></trkpt><trkpt lat="43.1381557" lon="11.5777832"><ele>267.0</ele><time>2026-04-19T15:04:44.057Z</time></trkpt><trkpt lat="43.1382288" lon="11.5776521"><ele>266.5</ele><time>2026-04-19T15:04:45.057Z</time></trkpt><trkpt lat="43.138305" lon="11.5775274"><ele>266.0</ele><time>2026-04-19T15:04:46.057Z</time></trkpt><trkpt lat="43.1383816" lon="11.577405"><ele>268.25</ele><time>2026-04-19T15:04:47.057Z</time></trkpt><trkpt lat="43.1384536" lon="11.57728"><ele>270.5</ele><time>2026-04-19T15:04:48.058Z</time></trkpt><trkpt lat="43.1385282" lon="11.5771516"><ele>272.75</ele><time>2026-04-19T15:04:49.057Z</time></trkpt><trkpt lat="43.1386028" lon="11.5770208"><ele>275.0</ele><time>2026-04-19T15:04:50.057Z</time></trkpt><trkpt lat="43.1386673" lon="11.5768931"><ele>275.75</ele><time>2026-04-19T15:04:51.057Z</time></trkpt><trkpt lat="43.1387127" lon="11.5767515"><ele>276.5</ele><time>2026-04-19T15:04:52.057Z</time></trkpt><trkpt lat="43.138747" lon="11.5766046"><ele>277.25</ele><time>2026-04-19T15:04:53.058Z</time></trkpt><trkpt lat="43.1387662" lon="11.5764463"><ele>278.0</ele><time>2026-04-19T15:04:54.057Z</time></trkpt><trkpt lat="43.1387781" lon="11.5762878"><ele>279.75</ele><time>2026-04-19T15:04:55.057Z</time></trkpt><trkpt lat="43.1387804" lon="11.5761263"><ele>281.5</ele><time>2026-04-19T15:04:56.057Z</time></trkpt><trkpt lat="43.1387784" lon="11.5759624"><ele>283.25</ele><time>2026-04-19T15:04:57.057Z</time></trkpt><trkpt lat="43.1387732" lon="11.5758041"><ele>285.0</ele><time>2026-04-19T15:04:58.058Z</time></trkpt><trkpt lat="43.1387531" lon="11.5756452"><ele>285.0</ele><time>2026-04-19T15:04:59.057Z</time></trkpt><trkpt lat="43.1387166" lon="11.5754963"><ele>285.0</ele><time>2026-04-19T15:05:00.057Z</time></trkpt><trkpt lat="43.1386608" lon="11.5753561"><ele>285.0</ele><time>2026-04-19T15:05:01.057Z</time></trkpt><trkpt lat="43.1385854" lon="11.5752294"><ele>285.0</ele><time>2026-04-19T15:05:02.057Z</time></trkpt><trkpt lat="43.1384936" lon="11.5751182"><ele>288.25</ele><time>2026-04-19T15:05:03.057Z</time></trkpt><trkpt lat="43.1383931" lon="11.5750105"><ele>291.5</ele><time>2026-04-19T15:05:04.057Z</time></trkpt><trkpt lat="43.1382923" lon="11.5749004"><ele>294.75</ele><time>2026-04-19T15:05:05.057Z</time></trkpt><trkpt lat="43.1382031" lon="11.5747909"><ele>298.0</ele><time>2026-04-19T15:05:06.057Z</time></trkpt><trkpt lat="43.1381312" lon="11.5746852"><ele>298.6</ele><time>2026-04-19T15:05:07.057Z</time></trkpt><trkpt lat="43.1380718" lon="11.5745765"><ele>299.20000000000005</ele><time>2026-04-19T15:05:08.057Z</time></trkpt><trkpt lat="43.138028" lon="11.5744475"><ele>299.8</ele><time>2026-04-19T15:05:09.057Z</time></trkpt><trkpt lat="43.1380033" lon="11.5743098"><ele>300.40000000000003</ele><time>2026-04-19T15:05:10.057Z</time></trkpt><trkpt lat="43.137986" lon="11.5741664"><ele>301.0</ele><time>2026-04-19T15:05:11.057Z</time></trkpt><trkpt lat="43.1379779" lon="11.5740193"><ele>301.0</ele><time>2026-04-19T15:05:12.058Z</time></trkpt><trkpt lat="43.1379717" lon="11.573865"><ele>301.0</ele><time>2026-04-19T15:05:13.057Z</time></trkpt><trkpt lat="43.137967" lon="11.5736944"><ele>301.0</ele><time>2026-04-19T15:05:14.058Z</time></trkpt><trkpt lat="43.1379652" lon="11.5735225"><ele>301.0</ele><time>2026-04-19T15:05:15.057Z</time></trkpt><trkpt lat="43.1379594" lon="11.573356"><ele>300.25</ele><time>2026-04-19T15:05:16.057Z</time></trkpt><trkpt lat="43.137959" lon="11.573187"><ele>299.5</ele><time>2026-04-19T15:05:17.057Z</time></trkpt><trkpt lat="43.1379499" lon="11.5730145"><ele>298.75</ele><time>2026-04-19T15:05:18.057Z</time></trkpt><trkpt lat="43.1379421" lon="11.572839"><ele>298.0</ele><time>2026-04-19T15:05:19.057Z</time></trkpt><trkpt lat="43.1379361" lon="11.5726693"><ele>297.2</ele><time>2026-04-19T15:05:20.057Z</time></trkpt><trkpt lat="43.1379308" lon="11.572511"><ele>296.4</ele><time>2026-04-19T15:05:21.057Z</time></trkpt><trkpt lat="43.1379341" lon="11.5723641"><ele>295.59999999999997</ele><time>2026-04-19T15:05:22.057Z</time></trkpt><trkpt lat="43.1379509" lon="11.5722303"><ele>294.8</ele><time>2026-04-19T15:05:23.057Z</time></trkpt><trkpt lat="43.137982" lon="11.5721117"><ele>294.0</ele><time>2026-04-19T15:05:24.057Z</time></trkpt><trkpt lat="43.138033" lon="11.5720143"><ele>292.4</ele><time>2026-04-19T15:05:25.058Z</time></trkpt><trkpt lat="43.1380888" lon="11.571926"><ele>290.79999999999995</ele><time>2026-04-19T15:05:26.057Z</time></trkpt><trkpt lat="43.1381917" lon="11.5718791"><ele>289.20000000000005</ele><time>2026-04-19T15:05:27.057Z</time></trkpt><trkpt lat="43.1382863" lon="11.5718292"><ele>287.6</ele><time>2026-04-19T15:05:28.057Z</time></trkpt><trkpt lat="43.138389" lon="11.5717774"><ele>286.0</ele><time>2026-04-19T15:05:29.057Z</time></trkpt><trkpt lat="43.1384798" lon="11.5717093"><ele>288.8</ele><time>2026-04-19T15:05:30.057Z</time></trkpt><trkpt lat="43.1385565" lon="11.5716295"><ele>291.6</ele><time>2026-04-19T15:05:31.057Z</time></trkpt><trkpt lat="43.1386229" lon="11.5715227"><ele>294.4</ele><time>2026-04-19T15:05:32.057Z</time></trkpt><trkpt lat="43.1386708" lon="11.5713979"><ele>297.2</ele><time>2026-04-19T15:05:33.057Z</time></trkpt><trkpt lat="43.1386999" lon="11.5712606"><ele>300.0</ele><time>2026-04-19T15:05:34.057Z</time></trkpt><trkpt lat="43.1387099" lon="11.5711258"><ele>300.0</ele><time>2026-04-19T15:05:35.057Z</time></trkpt><trkpt lat="43.1386956" lon="11.5709977"><ele>300.0</ele><time>2026-04-19T15:05:36.057Z</time></trkpt><trkpt lat="43.1386614" lon="11.570881"><ele>300.0</ele><time>2026-04-19T15:05:37.058Z</time></trkpt><trkpt lat="43.1386044" lon="11.5707682"><ele>300.0</ele><time>2026-04-19T15:05:38.057Z</time></trkpt><trkpt lat="43.1385464" lon="11.5706639"><ele>300.0</ele><time>2026-04-19T15:05:39.057Z</time></trkpt><trkpt lat="43.1385009" lon="11.5705644"><ele>300.0</ele><time>2026-04-19T15:05:40.057Z</time></trkpt><trkpt lat="43.1384715" lon="11.5704555"><ele>300.0</ele><time>2026-04-19T15:05:41.057Z</time></trkpt><trkpt lat="43.1384546" lon="11.5703364"><ele>300.0</ele><time>2026-04-19T15:05:42.057Z</time></trkpt><trkpt lat="43.1384553" lon="11.5702098"><ele>300.0</ele><time>2026-04-19T15:05:43.057Z</time></trkpt><trkpt lat="43.1384731" lon="11.5700884"><ele>300.0</ele><time>2026-04-19T15:05:44.057Z</time></trkpt><trkpt lat="43.1384942" lon="11.5699569"><ele>301.0</ele><time>2026-04-19T15:05:45.057Z</time></trkpt><trkpt lat="43.1385127" lon="11.5698143"><ele>302.0</ele><time>2026-04-19T15:05:46.057Z</time></trkpt><trkpt lat="43.138525" lon="11.5696629"><ele>303.0</ele><time>2026-04-19T15:05:47.057Z</time></trkpt><trkpt lat="43.1385252" lon="11.5695102"><ele>304.0</ele><time>2026-04-19T15:05:48.058Z</time></trkpt><trkpt lat="43.1385193" lon="11.5693558"><ele>305.0</ele><time>2026-04-19T15:05:49.057Z</time></trkpt><trkpt lat="43.1385126" lon="11.5692025"><ele>305.2</ele><time>2026-04-19T15:05:50.057Z</time></trkpt><trkpt lat="43.1384952" lon="11.5690457"><ele>305.4</ele><time>2026-04-19T15:05:51.057Z</time></trkpt><trkpt lat="43.1384651" lon="11.568914"><ele>305.6</ele><time>2026-04-19T15:05:52.058Z</time></trkpt><trkpt lat="43.1384237" lon="11.5687829"><ele>305.8</ele><time>2026-04-19T15:05:53.058Z</time></trkpt><trkpt lat="43.1383661" lon="11.568654"><ele>306.0</ele><time>2026-04-19T15:05:54.057Z</time></trkpt><trkpt lat="43.1382935" lon="11.5685389"><ele>301.2</ele><time>2026-04-19T15:05:55.057Z</time></trkpt><trkpt lat="43.1382124" lon="11.5684296"><ele>296.40000000000003</ele><time>2026-04-19T15:05:56.057Z</time></trkpt><trkpt lat="43.1381305" lon="11.5683226"><ele>291.6</ele><time>2026-04-19T15:05:57.057Z</time></trkpt><trkpt lat="43.138046" lon="11.5682186"><ele>286.8</ele><time>2026-04-19T15:05:58.057Z</time></trkpt><trkpt lat="43.1379725" lon="11.5681157"><ele>282.0</ele><time>2026-04-19T15:05:59.058Z</time></trkpt><trkpt lat="43.137919" lon="11.5680003"><ele>282.0</ele><time>2026-04-19T15:06:00.057Z</time></trkpt><trkpt lat="43.1378846" lon="11.567873"><ele>282.0</ele><time>2026-04-19T15:06:01.057Z</time></trkpt><trkpt lat="43.1378677" lon="11.5677355"><ele>282.0</ele><time>2026-04-19T15:06:02.057Z</time></trkpt><trkpt lat="43.1378661" lon="11.567586"><ele>282.0</ele><time>2026-04-19T15:06:03.057Z</time></trkpt><trkpt lat="43.1378825" lon="11.5674322"><ele>282.0</ele><time>2026-04-19T15:06:04.057Z</time></trkpt><trkpt lat="43.1379085" lon="11.5672737"><ele>283.2</ele><time>2026-04-19T15:06:05.057Z</time></trkpt><trkpt lat="43.1379265" lon="11.567121"><ele>284.4</ele><time>2026-04-19T15:06:06.057Z</time></trkpt><trkpt lat="43.1379331" lon="11.56697"><ele>285.6</ele><time>2026-04-19T15:06:07.057Z</time></trkpt><trkpt lat="43.1379305" lon="11.5668231"><ele>286.8</ele><time>2026-04-19T15:06:08.057Z</time></trkpt><trkpt lat="43.1379215" lon="11.566666"><ele>288.0</ele><time>2026-04-19T15:06:09.057Z</time></trkpt><trkpt lat="43.1379154" lon="11.5665098"><ele>288.0</ele><time>2026-04-19T15:06:10.057Z</time></trkpt><trkpt lat="43.1379041" lon="11.5663598"><ele>288.0</ele><time>2026-04-19T15:06:11.058Z</time></trkpt><trkpt lat="43.1378946" lon="11.566214"><ele>288.0</ele><time>2026-04-19T15:06:12.057Z</time></trkpt><trkpt lat="43.137884" lon="11.5660695"><ele>288.0</ele><time>2026-04-19T15:06:13.057Z</time></trkpt><trkpt lat="43.1378744" lon="11.5659224"><ele>288.0</ele><time>2026-04-19T15:06:14.057Z</time></trkpt><trkpt lat="43.1378696" lon="11.5657845"><ele>288.0</ele><time>2026-04-19T15:06:15.057Z</time></trkpt><trkpt lat="43.1378634" lon="11.5656488"><ele>288.0</ele><time>2026-04-19T15:06:16.057Z</time></trkpt><trkpt lat="43.1378549" lon="11.5655139"><ele>288.0</ele><time>2026-04-19T15:06:17.058Z</time></trkpt><trkpt lat="43.1378466" lon="11.5653881"><ele>288.0</ele><time>2026-04-19T15:06:18.057Z</time></trkpt><trkpt lat="43.1378327" lon="11.56527"><ele>288.0</ele><time>2026-04-19T15:06:19.058Z</time></trkpt><trkpt lat="43.1378066" lon="11.5651571"><ele>288.0</ele><time>2026-04-19T15:06:20.058Z</time></trkpt><trkpt lat="43.1377726" lon="11.5650513"><ele>288.0</ele><time>2026-04-19T15:06:21.057Z</time></trkpt><trkpt lat="43.1377324" lon="11.5649579"><ele>288.0</ele><time>2026-04-19T15:06:22.058Z</time></trkpt><trkpt lat="43.1376928" lon="11.564865"><ele>288.0</ele><time>2026-04-19T15:06:23.057Z</time></trkpt><trkpt lat="43.1376512" lon="11.5647798"><ele>288.0</ele><time>2026-04-19T15:06:24.057Z</time></trkpt><trkpt lat="43.1376095" lon="11.5646904"><ele>288.0</ele><time>2026-04-19T15:06:25.057Z</time></trkpt><trkpt lat="43.1375676" lon="11.5646076"><ele>288.5714285714286</ele><time>2026-04-19T15:06:26.058Z</time></trkpt><trkpt lat="43.1375268" lon="11.5645283"><ele>289.14285714285717</ele><time>2026-04-19T15:06:27.058Z</time></trkpt><trkpt lat="43.1374843" lon="11.5644566"><ele>289.7142857142857</ele><time>2026-04-19T15:06:28.057Z</time></trkpt><trkpt lat="43.1374384" lon="11.5643907"><ele>290.28571428571433</ele><time>2026-04-19T15:06:29.057Z</time></trkpt><trkpt lat="43.1373802" lon="11.5643494"><ele>290.8571428571429</ele><time>2026-04-19T15:06:30.057Z</time></trkpt><trkpt lat="43.1373119" lon="11.5643347"><ele>291.42857142857144</ele><time>2026-04-19T15:06:31.057Z</time></trkpt><trkpt lat="43.1372355" lon="11.564344"><ele>292.0</ele><time>2026-04-19T15:06:32.057Z</time></trkpt><trkpt lat="43.137156" lon="11.5643814"><ele>288.16666666666663</ele><time>2026-04-19T15:06:33.058Z</time></trkpt><trkpt lat="43.1370875" lon="11.5644335"><ele>284.3333333333333</ele><time>2026-04-19T15:06:34.058Z</time></trkpt><trkpt lat="43.1370294" lon="11.5645142"><ele>280.5</ele><time>2026-04-19T15:06:35.058Z</time></trkpt><trkpt lat="43.1369886" lon="11.5646068"><ele>276.6666666666667</ele><time>2026-04-19T15:06:36.057Z</time></trkpt><trkpt lat="43.1369661" lon="11.5647112"><ele>272.83333333333337</ele><time>2026-04-19T15:06:37.057Z</time></trkpt><trkpt lat="43.1369644" lon="11.5648248"><ele>269.0</ele><time>2026-04-19T15:06:38.057Z</time></trkpt><trkpt lat="43.136983" lon="11.5649337"><ele>269.0</ele><time>2026-04-19T15:06:39.057Z</time></trkpt><trkpt lat="43.1370183" lon="11.5650452"><ele>269.0</ele><time>2026-04-19T15:06:40.058Z</time></trkpt><trkpt lat="43.1370677" lon="11.5651485"><ele>269.0</ele><time>2026-04-19T15:06:41.057Z</time></trkpt><trkpt lat="43.1371224" lon="11.5652587"><ele>269.0</ele><time>2026-04-19T15:06:42.057Z</time></trkpt><trkpt lat="43.1371687" lon="11.5653637"><ele>269.0</ele><time>2026-04-19T15:06:43.057Z</time></trkpt><trkpt lat="43.1372101" lon="11.5654682"><ele>268.6666666666667</ele><time>2026-04-19T15:06:44.057Z</time></trkpt><trkpt lat="43.1372363" lon="11.5655704"><ele>268.33333333333337</ele><time>2026-04-19T15:06:45.058Z</time></trkpt><trkpt lat="43.1372437" lon="11.5656843"><ele>268.0</ele><time>2026-04-19T15:06:46.057Z</time></trkpt><trkpt lat="43.13724" lon="11.5657967"><ele>267.6666666666667</ele><time>2026-04-19T15:06:47.058Z</time></trkpt><trkpt lat="43.1372212" lon="11.5659019"><ele>267.3333333333333</ele><time>2026-04-19T15:06:48.057Z</time></trkpt><trkpt lat="43.1371867" lon="11.5660033"><ele>267.0</ele><time>2026-04-19T15:06:49.057Z</time></trkpt><trkpt lat="43.1371425" lon="11.5660907"><ele>267.0</ele><time>2026-04-19T15:06:50.057Z</time></trkpt><trkpt lat="43.1370825" lon="11.5661757"><ele>267.0</ele><time>2026-04-19T15:06:51.057Z</time></trkpt><trkpt lat="43.1370069" lon="11.5662589"><ele>267.0</ele><time>2026-04-19T15:06:52.058Z</time></trkpt><trkpt lat="43.1369261" lon="11.5663172"><ele>267.0</ele><time>2026-04-19T15:06:53.057Z</time></trkpt><trkpt lat="43.1368323" lon="11.5663608"><ele>267.0</ele><time>2026-04-19T15:06:54.057Z</time></trkpt><trkpt lat="43.1367442" lon="11.5663989"><ele>267.6666666666667</ele><time>2026-04-19T15:06:55.057Z</time></trkpt><trkpt lat="43.136654" lon="11.5664296"><ele>268.3333333333333</ele><time>2026-04-19T15:06:56.057Z</time></trkpt><trkpt lat="43.1365705" lon="11.5664637"><ele>269.0</ele><time>2026-04-19T15:06:57.058Z</time></trkpt><trkpt lat="43.1364915" lon="11.5664976"><ele>269.66666666666663</ele><time>2026-04-19T15:06:58.057Z</time></trkpt><trkpt lat="43.1364155" lon="11.5665403"><ele>270.3333333333333</ele><time>2026-04-19T15:06:59.057Z</time></trkpt><trkpt lat="43.1363475" lon="11.5665793"><ele>271.0</ele><time>2026-04-19T15:07:00.057Z</time></trkpt><trkpt lat="43.1362858" lon="11.5666002"><ele>266.40000000000003</ele><time>2026-04-19T15:07:01.057Z</time></trkpt><trkpt lat="43.1362196" lon="11.566588"><ele>261.8</ele><time>2026-04-19T15:07:02.058Z</time></trkpt><trkpt lat="43.1361321" lon="11.5664859"><ele>257.20000000000005</ele><time>2026-04-19T15:07:04.057Z</time></trkpt><trkpt lat="43.1361172" lon="11.5663164"><ele>252.60000000000002</ele><time>2026-04-19T15:07:06.057Z</time></trkpt><trkpt lat="43.1361463" lon="11.5662256"><ele>248.0</ele><time>2026-04-19T15:07:07.057Z</time></trkpt><trkpt lat="43.1361929" lon="11.5661328"><ele>248.00000000000003</ele><time>2026-04-19T15:07:08.057Z</time></trkpt><trkpt lat="43.1362515" lon="11.5660416"><ele>248.0</ele><time>2026-04-19T15:07:09.058Z</time></trkpt><trkpt lat="43.1363059" lon="11.5659508"><ele>248.0</ele><time>2026-04-19T15:07:10.058Z</time></trkpt><trkpt lat="43.1363462" lon="11.5658442"><ele>248.0</ele><time>2026-04-19T15:07:11.058Z</time></trkpt><trkpt lat="43.1363654" lon="11.5657297"><ele>248.00000000000003</ele><time>2026-04-19T15:07:12.057Z</time></trkpt><trkpt lat="43.1363718" lon="11.5656098"><ele>248.0</ele><time>2026-04-19T15:07:13.057Z</time></trkpt><trkpt lat="43.1363252" lon="11.5655097"><ele>248.00000000000003</ele><time>2026-04-19T15:07:14.057Z</time></trkpt><trkpt lat="43.1362796" lon="11.5654144"><ele>248.0</ele><time>2026-04-19T15:07:15.057Z</time></trkpt><trkpt lat="43.1362236" lon="11.5653347"><ele>248.0</ele><time>2026-04-19T15:07:16.057Z</time></trkpt><trkpt lat="43.1361606" lon="11.5652616"><ele>248.0</ele><time>2026-04-19T15:07:17.057Z</time></trkpt><trkpt lat="43.1361075" lon="11.5651746"><ele>248.00000000000003</ele><time>2026-04-19T15:07:18.057Z</time></trkpt><trkpt lat="43.1360651" lon="11.5650783"><ele>248.0</ele><time>2026-04-19T15:07:19.057Z</time></trkpt><trkpt lat="43.1360482" lon="11.564966"><ele>247.4</ele><time>2026-04-19T15:07:20.057Z</time></trkpt><trkpt lat="43.1360417" lon="11.5648428"><ele>246.8</ele><time>2026-04-19T15:07:21.057Z</time></trkpt><trkpt lat="43.1360587" lon="11.5647209"><ele>246.2</ele><time>2026-04-19T15:07:22.057Z</time></trkpt><trkpt lat="43.1360875" lon="11.5645971"><ele>245.6</ele><time>2026-04-19T15:07:23.057Z</time></trkpt><trkpt lat="43.1361292" lon="11.5644823"><ele>245.0</ele><time>2026-04-19T15:07:24.057Z</time></trkpt><trkpt lat="43.1361777" lon="11.564375"><ele>244.33333333333334</ele><time>2026-04-19T15:07:25.058Z</time></trkpt><trkpt lat="43.1362257" lon="11.5642722"><ele>243.66666666666669</ele><time>2026-04-19T15:07:26.057Z</time></trkpt><trkpt lat="43.1362721" lon="11.5641739"><ele>243.0</ele><time>2026-04-19T15:07:27.057Z</time></trkpt><trkpt lat="43.136314" lon="11.5640671"><ele>242.33333333333331</ele><time>2026-04-19T15:07:28.057Z</time></trkpt><trkpt lat="43.1363414" lon="11.5639533"><ele>241.66666666666666</ele><time>2026-04-19T15:07:29.057Z</time></trkpt><trkpt lat="43.1363569" lon="11.5638234"><ele>241.0</ele><time>2026-04-19T15:07:30.057Z</time></trkpt><trkpt lat="43.1363597" lon="11.5636966"><ele>241.0</ele><time>2026-04-19T15:07:31.057Z</time></trkpt><trkpt lat="43.1363464" lon="11.5635743"><ele>241.00000000000003</ele><time>2026-04-19T15:07:32.057Z</time></trkpt><trkpt lat="43.1363169" lon="11.5634526"><ele>241.00000000000003</ele><time>2026-04-19T15:07:33.057Z</time></trkpt><trkpt lat="43.1362767" lon="11.5633358"><ele>241.0</ele><time>2026-04-19T15:07:34.057Z</time></trkpt><trkpt lat="43.1362149" lon="11.5632255"><ele>241.0</ele><time>2026-04-19T15:07:35.057Z</time></trkpt><trkpt lat="43.1361464" lon="11.5631285"><ele>241.0</ele><time>2026-04-19T15:07:36.057Z</time></trkpt><trkpt lat="43.1360683" lon="11.5630371"><ele>241.00000000000003</ele><time>2026-04-19T15:07:37.057Z</time></trkpt><trkpt lat="43.1359899" lon="11.5629363"><ele>241.00000000000003</ele><time>2026-04-19T15:07:38.057Z</time></trkpt><trkpt lat="43.1359104" lon="11.5628324"><ele>241.0</ele><time>2026-04-19T15:07:39.057Z</time></trkpt><trkpt lat="43.1358292" lon="11.5627282"><ele>241.0</ele><time>2026-04-19T15:07:40.057Z</time></trkpt><trkpt lat="43.1357464" lon="11.5626248"><ele>238.4</ele><time>2026-04-19T15:07:41.057Z</time></trkpt><trkpt lat="43.1356664" lon="11.562526"><ele>235.8</ele><time>2026-04-19T15:07:42.057Z</time></trkpt><trkpt lat="43.135586" lon="11.5624218"><ele>233.20000000000002</ele><time>2026-04-19T15:07:43.057Z</time></trkpt><trkpt lat="43.1355148" lon="11.5623136"><ele>230.60000000000002</ele><time>2026-04-19T15:07:44.058Z</time></trkpt><trkpt lat="43.1354471" lon="11.5622058"><ele>228.0</ele><time>2026-04-19T15:07:45.057Z</time></trkpt><trkpt lat="43.1353797" lon="11.5620923"><ele>229.0</ele><time>2026-04-19T15:07:46.057Z</time></trkpt><trkpt lat="43.1353131" lon="11.5619803"><ele>230.0</ele><time>2026-04-19T15:07:47.057Z</time></trkpt><trkpt lat="43.1352459" lon="11.5618657"><ele>231.0</ele><time>2026-04-19T15:07:48.057Z</time></trkpt><trkpt lat="43.1351804" lon="11.5617463"><ele>232.0</ele><time>2026-04-19T15:07:49.057Z</time></trkpt><trkpt lat="43.1351135" lon="11.5616193"><ele>233.0</ele><time>2026-04-19T15:07:50.057Z</time></trkpt><trkpt lat="43.1350481" lon="11.5614954"><ele>233.0</ele><time>2026-04-19T15:07:51.057Z</time></trkpt><trkpt lat="43.134983" lon="11.5613668"><ele>233.0</ele><time>2026-04-19T15:07:52.057Z</time></trkpt><trkpt lat="43.1349127" lon="11.5612339"><ele>233.0</ele><time>2026-04-19T15:07:53.057Z</time></trkpt><trkpt lat="43.1348485" lon="11.5611054"><ele>233.0</ele><time>2026-04-19T15:07:54.057Z</time></trkpt><trkpt lat="43.1347766" lon="11.5609753"><ele>227.75</ele><time>2026-04-19T15:07:55.057Z</time></trkpt><trkpt lat="43.134715" lon="11.5608481"><ele>222.5</ele><time>2026-04-19T15:07:56.057Z</time></trkpt><trkpt lat="43.1346464" lon="11.5607177"><ele>217.25</ele><time>2026-04-19T15:07:57.057Z</time></trkpt><trkpt lat="43.1345735" lon="11.5605869"><ele>212.0</ele><time>2026-04-19T15:07:58.057Z</time></trkpt><trkpt lat="43.1345018" lon="11.5604566"><ele>212.8</ele><time>2026-04-19T15:07:59.058Z</time></trkpt><trkpt lat="43.13443" lon="11.5603303"><ele>213.6</ele><time>2026-04-19T15:08:00.057Z</time></trkpt><trkpt lat="43.1343629" lon="11.5602089"><ele>214.40000000000003</ele><time>2026-04-19T15:08:01.057Z</time></trkpt><trkpt lat="43.1342955" lon="11.560092"><ele>215.20000000000002</ele><time>2026-04-19T15:08:02.058Z</time></trkpt><trkpt lat="43.1342286" lon="11.5599731"><ele>216.0</ele><time>2026-04-19T15:08:03.057Z</time></trkpt><trkpt lat="43.1341644" lon="11.5598494"><ele>216.0</ele><time>2026-04-19T15:08:04.057Z</time></trkpt><trkpt lat="43.1341052" lon="11.5597307"><ele>216.00000000000003</ele><time>2026-04-19T15:08:05.058Z</time></trkpt><trkpt lat="43.1340617" lon="11.5596008"><ele>216.00000000000003</ele><time>2026-04-19T15:08:06.057Z</time></trkpt><trkpt lat="43.1340262" lon="11.5594708"><ele>216.0</ele><time>2026-04-19T15:08:07.057Z</time></trkpt><trkpt lat="43.1340043" lon="11.5593392"><ele>216.0</ele><time>2026-04-19T15:08:08.057Z</time></trkpt><trkpt lat="43.1339932" lon="11.5592046"><ele>212.0</ele><time>2026-04-19T15:08:09.057Z</time></trkpt><trkpt lat="43.133985" lon="11.559056"><ele>208.0</ele><time>2026-04-19T15:08:10.057Z</time></trkpt><trkpt lat="43.1339856" lon="11.5588988"><ele>204.0</ele><time>2026-04-19T15:08:11.057Z</time></trkpt><trkpt lat="43.133992" lon="11.5587324"><ele>200.0</ele><time>2026-04-19T15:08:12.057Z</time></trkpt><trkpt lat="43.1339985" lon="11.5585691"><ele>200.0</ele><time>2026-04-19T15:08:13.058Z</time></trkpt><trkpt lat="43.1340072" lon="11.5584071"><ele>200.0</ele><time>2026-04-19T15:08:14.058Z</time></trkpt><trkpt lat="43.1340121" lon="11.5582466"><ele>200.0</ele><time>2026-04-19T15:08:15.057Z</time></trkpt><trkpt lat="43.1340152" lon="11.5580822"><ele>200.0</ele><time>2026-04-19T15:08:16.057Z</time></trkpt><trkpt lat="43.1340043" lon="11.5579194"><ele>200.0</ele><time>2026-04-19T15:08:17.057Z</time></trkpt><trkpt lat="43.1339866" lon="11.5577579"><ele>200.0</ele><time>2026-04-19T15:08:18.057Z</time></trkpt><trkpt lat="43.1339693" lon="11.5575926"><ele>200.0</ele><time>2026-04-19T15:08:19.057Z</time></trkpt><trkpt lat="43.1339464" lon="11.5574208"><ele>200.0</ele><time>2026-04-19T15:08:20.057Z</time></trkpt><trkpt lat="43.133922" lon="11.5572504"><ele>200.0</ele><time>2026-04-19T15:08:21.057Z</time></trkpt><trkpt lat="43.1338983" lon="11.5570733"><ele>200.0</ele><time>2026-04-19T15:08:22.057Z</time></trkpt><trkpt lat="43.1338708" lon="11.5569046"><ele>200.0</ele><time>2026-04-19T15:08:23.058Z</time></trkpt><trkpt lat="43.133839" lon="11.5567413"><ele>200.0</ele><time>2026-04-19T15:08:24.057Z</time></trkpt><trkpt lat="43.1338138" lon="11.5565871"><ele>201.0</ele><time>2026-04-19T15:08:25.057Z</time></trkpt><trkpt lat="43.133782" lon="11.5564467"><ele>202.0</ele><time>2026-04-19T15:08:26.057Z</time></trkpt><trkpt lat="43.1337534" lon="11.5563089"><ele>203.0</ele><time>2026-04-19T15:08:27.057Z</time></trkpt><trkpt lat="43.1337166" lon="11.5561978"><ele>204.0</ele><time>2026-04-19T15:08:28.057Z</time></trkpt><trkpt lat="43.133676" lon="11.5561013"><ele>205.0</ele><time>2026-04-19T15:08:29.057Z</time></trkpt><trkpt lat="43.1336209" lon="11.5560148"><ele>207.0</ele><time>2026-04-19T15:08:30.057Z</time></trkpt><trkpt lat="43.1335515" lon="11.5559427"><ele>209.0</ele><time>2026-04-19T15:08:31.057Z</time></trkpt><trkpt lat="43.133472" lon="11.5558855"><ele>211.0</ele><time>2026-04-19T15:08:32.057Z</time></trkpt><trkpt lat="43.13339" lon="11.5558517"><ele>213.0</ele><time>2026-04-19T15:08:33.057Z</time></trkpt><trkpt lat="43.1332973" lon="11.555843"><ele>215.0</ele><time>2026-04-19T15:08:34.057Z</time></trkpt><trkpt lat="43.1331998" lon="11.5558644"><ele>215.6</ele><time>2026-04-19T15:08:35.057Z</time></trkpt><trkpt lat="43.1331054" lon="11.5558983"><ele>216.2</ele><time>2026-04-19T15:08:36.058Z</time></trkpt><trkpt lat="43.1330203" lon="11.5559616"><ele>216.8</ele><time>2026-04-19T15:08:37.057Z</time></trkpt><trkpt lat="43.1329412" lon="11.55604"><ele>217.4</ele><time>2026-04-19T15:08:38.057Z</time></trkpt><trkpt lat="43.1328629" lon="11.5561342"><ele>218.0</ele><time>2026-04-19T15:08:39.057Z</time></trkpt><trkpt lat="43.1327841" lon="11.5562487"><ele>218.0</ele><time>2026-04-19T15:08:40.057Z</time></trkpt><trkpt lat="43.1327055" lon="11.5563654"><ele>218.0</ele><time>2026-04-19T15:08:41.057Z</time></trkpt><trkpt lat="43.1326239" lon="11.5564806"><ele>218.0</ele><time>2026-04-19T15:08:42.058Z</time></trkpt><trkpt lat="43.132545" lon="11.5565977"><ele>218.0</ele><time>2026-04-19T15:08:43.057Z</time></trkpt><trkpt lat="43.132469" lon="11.5567166"><ele>217.0</ele><time>2026-04-19T15:08:44.057Z</time></trkpt><trkpt lat="43.1323895" lon="11.5568254"><ele>216.0</ele><time>2026-04-19T15:08:45.058Z</time></trkpt><trkpt lat="43.1322992" lon="11.5569224"><ele>215.0</ele><time>2026-04-19T15:08:46.057Z</time></trkpt><trkpt lat="43.1322087" lon="11.5570089"><ele>214.0</ele><time>2026-04-19T15:08:47.057Z</time></trkpt><trkpt lat="43.1321102" lon="11.5570846"><ele>214.0</ele><time>2026-04-19T15:08:48.057Z</time></trkpt><trkpt lat="43.1320076" lon="11.5571496"><ele>213.99999999999997</ele><time>2026-04-19T15:08:49.057Z</time></trkpt><trkpt lat="43.1318986" lon="11.5571994"><ele>213.99999999999997</ele><time>2026-04-19T15:08:50.058Z</time></trkpt><trkpt lat="43.1318005" lon="11.5572431"><ele>214.0</ele><time>2026-04-19T15:08:51.057Z</time></trkpt><trkpt lat="43.131704" lon="11.5572839"><ele>214.0</ele><time>2026-04-19T15:08:52.057Z</time></trkpt><trkpt lat="43.131603" lon="11.5573239"><ele>213.66666666666666</ele><time>2026-04-19T15:08:53.057Z</time></trkpt><trkpt lat="43.1315085" lon="11.5573564"><ele>213.33333333333331</ele><time>2026-04-19T15:08:54.057Z</time></trkpt><trkpt lat="43.1314177" lon="11.5573736"><ele>213.0</ele><time>2026-04-19T15:08:55.057Z</time></trkpt><trkpt lat="43.1313312" lon="11.5573626"><ele>212.66666666666669</ele><time>2026-04-19T15:08:56.058Z</time></trkpt><trkpt lat="43.1312458" lon="11.5573204"><ele>212.33333333333334</ele><time>2026-04-19T15:08:57.057Z</time></trkpt><trkpt lat="43.1311742" lon="11.5572688"><ele>212.0</ele><time>2026-04-19T15:08:58.057Z</time></trkpt><trkpt lat="43.1311152" lon="11.5571971"><ele>212.00000000000003</ele><time>2026-04-19T15:08:59.057Z</time></trkpt><trkpt lat="43.1310751" lon="11.5571084"><ele>212.0</ele><time>2026-04-19T15:09:00.058Z</time></trkpt><trkpt lat="43.1310509" lon="11.5570053"><ele>212.0</ele><time>2026-04-19T15:09:01.057Z</time></trkpt><trkpt lat="43.131047" lon="11.5568972"><ele>212.0</ele><time>2026-04-19T15:09:02.057Z</time></trkpt><trkpt lat="43.1310637" lon="11.5567898"><ele>212.00000000000003</ele><time>2026-04-19T15:09:03.057Z</time></trkpt><trkpt lat="43.1310996" lon="11.5566892"><ele>212.0</ele><time>2026-04-19T15:09:04.058Z</time></trkpt><trkpt lat="43.1311563" lon="11.5566009"><ele>215.6</ele><time>2026-04-19T15:09:05.057Z</time></trkpt><trkpt lat="43.1312263" lon="11.5565336"><ele>219.2</ele><time>2026-04-19T15:09:06.057Z</time></trkpt><trkpt lat="43.1313092" lon="11.5564737"><ele>222.8</ele><time>2026-04-19T15:09:07.058Z</time></trkpt><trkpt lat="43.1314023" lon="11.5564149"><ele>226.4</ele><time>2026-04-19T15:09:08.057Z</time></trkpt><trkpt lat="43.1315016" lon="11.5563513"><ele>230.0</ele><time>2026-04-19T15:09:09.058Z</time></trkpt><trkpt lat="43.1316012" lon="11.5562774"><ele>233.25</ele><time>2026-04-19T15:09:10.058Z</time></trkpt><trkpt lat="43.1317028" lon="11.5561923"><ele>236.5</ele><time>2026-04-19T15:09:11.058Z</time></trkpt><trkpt lat="43.13181" lon="11.5561036"><ele>239.75</ele><time>2026-04-19T15:09:12.057Z</time></trkpt><trkpt lat="43.1319116" lon="11.5560119"><ele>243.0</ele><time>2026-04-19T15:09:13.058Z</time></trkpt><trkpt lat="43.1320159" lon="11.5559071"><ele>243.0</ele><time>2026-04-19T15:09:14.058Z</time></trkpt><trkpt lat="43.1321151" lon="11.5558086"><ele>243.0</ele><time>2026-04-19T15:09:15.057Z</time></trkpt><trkpt lat="43.1322196" lon="11.5557036"><ele>243.0</ele><time>2026-04-19T15:09:16.057Z</time></trkpt><trkpt lat="43.1323256" lon="11.5555938"><ele>243.0</ele><time>2026-04-19T15:09:17.057Z</time></trkpt><trkpt lat="43.1324359" lon="11.5554802"><ele>243.75</ele><time>2026-04-19T15:09:18.058Z</time></trkpt><trkpt lat="43.1325457" lon="11.5553653"><ele>244.5</ele><time>2026-04-19T15:09:19.057Z</time></trkpt><trkpt lat="43.1326449" lon="11.5552578"><ele>245.25</ele><time>2026-04-19T15:09:20.057Z</time></trkpt><trkpt lat="43.1327242" lon="11.5551531"><ele>246.0</ele><time>2026-04-19T15:09:21.057Z</time></trkpt><trkpt lat="43.1327928" lon="11.5550416"><ele>246.0</ele><time>2026-04-19T15:09:22.057Z</time></trkpt><trkpt lat="43.1328399" lon="11.5549268"><ele>246.00000000000003</ele><time>2026-04-19T15:09:23.057Z</time></trkpt><trkpt lat="43.1328621" lon="11.554807"><ele>246.00000000000003</ele><time>2026-04-19T15:09:24.057Z</time></trkpt><trkpt lat="43.1328762" lon="11.5546771"><ele>246.0</ele><time>2026-04-19T15:09:25.057Z</time></trkpt><trkpt lat="43.1328311" lon="11.5545576"><ele>246.0</ele><time>2026-04-19T15:09:26.057Z</time></trkpt><trkpt lat="43.1327878" lon="11.5544469"><ele>246.8</ele><time>2026-04-19T15:09:27.057Z</time></trkpt><trkpt lat="43.1327353" lon="11.554348"><ele>247.60000000000002</ele><time>2026-04-19T15:09:28.057Z</time></trkpt><trkpt lat="43.1326691" lon="11.5542565"><ele>248.4</ele><time>2026-04-19T15:09:29.057Z</time></trkpt><trkpt lat="43.1325953" lon="11.5541753"><ele>249.2</ele><time>2026-04-19T15:09:30.057Z</time></trkpt><trkpt lat="43.1325185" lon="11.5541108"><ele>250.0</ele><time>2026-04-19T15:09:31.057Z</time></trkpt><trkpt lat="43.1324394" lon="11.5540695"><ele>253.2</ele><time>2026-04-19T15:09:32.057Z</time></trkpt><trkpt lat="43.1323528" lon="11.5540622"><ele>256.4</ele><time>2026-04-19T15:09:33.057Z</time></trkpt><trkpt lat="43.1322614" lon="11.5540876"><ele>259.6</ele><time>2026-04-19T15:09:34.058Z</time></trkpt><trkpt lat="43.1321735" lon="11.5541345"><ele>262.8</ele><time>2026-04-19T15:09:35.057Z</time></trkpt><trkpt lat="43.1320903" lon="11.5542141"><ele>266.0</ele><time>2026-04-19T15:09:36.057Z</time></trkpt><trkpt lat="43.1320108" lon="11.5543148"><ele>266.0</ele><time>2026-04-19T15:09:37.057Z</time></trkpt><trkpt lat="43.1319327" lon="11.5544301"><ele>266.0</ele><time>2026-04-19T15:09:38.058Z</time></trkpt><trkpt lat="43.1318523" lon="11.5545605"><ele>266.0</ele><time>2026-04-19T15:09:39.057Z</time></trkpt><trkpt lat="43.1317733" lon="11.5546761"><ele>266.0</ele><time>2026-04-19T15:09:40.057Z</time></trkpt><trkpt lat="43.1316883" lon="11.5547905"><ele>265.0</ele><time>2026-04-19T15:09:41.057Z</time></trkpt><trkpt lat="43.1315965" lon="11.5549086"><ele>264.0</ele><time>2026-04-19T15:09:42.057Z</time></trkpt><trkpt lat="43.131496" lon="11.5550115"><ele>263.0</ele><time>2026-04-19T15:09:43.057Z</time></trkpt><trkpt lat="43.1313953" lon="11.5550917"><ele>262.0</ele><time>2026-04-19T15:09:44.058Z</time></trkpt><trkpt lat="43.1312971" lon="11.5551409"><ele>262.0</ele><time>2026-04-19T15:09:45.057Z</time></trkpt><trkpt lat="43.1312081" lon="11.5551632"><ele>262.0</ele><time>2026-04-19T15:09:46.057Z</time></trkpt><trkpt lat="43.1311157" lon="11.5551599"><ele>262.0</ele><time>2026-04-19T15:09:47.057Z</time></trkpt><trkpt lat="43.1310286" lon="11.5551272"><ele>262.0</ele><time>2026-04-19T15:09:48.057Z</time></trkpt><trkpt lat="43.1309452" lon="11.5550681"><ele>262.0</ele><time>2026-04-19T15:09:49.057Z</time></trkpt><trkpt lat="43.1308707" lon="11.5549787"><ele>262.0</ele><time>2026-04-19T15:09:50.057Z</time></trkpt><trkpt lat="43.1308027" lon="11.5548777"><ele>262.0</ele><time>2026-04-19T15:09:51.057Z</time></trkpt><trkpt lat="43.1307394" lon="11.5547694"><ele>262.0</ele><time>2026-04-19T15:09:52.057Z</time></trkpt><trkpt lat="43.1306752" lon="11.5546704"><ele>262.0</ele><time>2026-04-19T15:09:53.057Z</time></trkpt><trkpt lat="43.130594" lon="11.5545827"><ele>262.0</ele><time>2026-04-19T15:09:54.057Z</time></trkpt><trkpt lat="43.1305107" lon="11.5545093"><ele>262.8</ele><time>2026-04-19T15:09:55.057Z</time></trkpt><trkpt lat="43.1304217" lon="11.554431"><ele>263.6</ele><time>2026-04-19T15:09:56.057Z</time></trkpt><trkpt lat="43.1303359" lon="11.5543458"><ele>264.40000000000003</ele><time>2026-04-19T15:09:57.058Z</time></trkpt><trkpt lat="43.1302522" lon="11.5542534"><ele>265.2</ele><time>2026-04-19T15:09:58.057Z</time></trkpt><trkpt lat="43.1301674" lon="11.5541517"><ele>266.0</ele><time>2026-04-19T15:09:59.057Z</time></trkpt><trkpt lat="43.1300819" lon="11.5540472"><ele>266.0</ele><time>2026-04-19T15:10:00.057Z</time></trkpt><trkpt lat="43.1299903" lon="11.5539569"><ele>266.0</ele><time>2026-04-19T15:10:01.057Z</time></trkpt><trkpt lat="43.129889" lon="11.5538881"><ele>266.0</ele><time>2026-04-19T15:10:02.057Z</time></trkpt><trkpt lat="43.1297832" lon="11.5538419"><ele>266.0</ele><time>2026-04-19T15:10:03.058Z</time></trkpt><trkpt lat="43.1296827" lon="11.5538227"><ele>266.0</ele><time>2026-04-19T15:10:04.057Z</time></trkpt><trkpt lat="43.1295987" lon="11.5538129"><ele>266.1666666666667</ele><time>2026-04-19T15:10:05.058Z</time></trkpt><trkpt lat="43.1295112" lon="11.5537996"><ele>266.33333333333337</ele><time>2026-04-19T15:10:06.057Z</time></trkpt><trkpt lat="43.1294343" lon="11.5537657"><ele>266.5</ele><time>2026-04-19T15:10:07.058Z</time></trkpt><trkpt lat="43.1293721" lon="11.55371"><ele>266.6666666666667</ele><time>2026-04-19T15:10:08.057Z</time></trkpt><trkpt lat="43.1293286" lon="11.55363"><ele>266.8333333333333</ele><time>2026-04-19T15:10:09.057Z</time></trkpt><trkpt lat="43.1293033" lon="11.5535372"><ele>267.0</ele><time>2026-04-19T15:10:10.058Z</time></trkpt><trkpt lat="43.1293019" lon="11.5534381"><ele>268.8333333333333</ele><time>2026-04-19T15:10:11.057Z</time></trkpt><trkpt lat="43.1293195" lon="11.5533415"><ele>270.6666666666667</ele><time>2026-04-19T15:10:12.057Z</time></trkpt><trkpt lat="43.1293652" lon="11.5532516"><ele>272.5</ele><time>2026-04-19T15:10:13.057Z</time></trkpt><trkpt lat="43.1294268" lon="11.553178"><ele>274.33333333333337</ele><time>2026-04-19T15:10:14.057Z</time></trkpt><trkpt lat="43.1295086" lon="11.5531361"><ele>276.1666666666667</ele><time>2026-04-19T15:10:15.057Z</time></trkpt><trkpt lat="43.129595" lon="11.5531185"><ele>278.0</ele><time>2026-04-19T15:10:16.057Z</time></trkpt><trkpt lat="43.1296904" lon="11.5531232"><ele>278.0</ele><time>2026-04-19T15:10:17.057Z</time></trkpt><trkpt lat="43.1297917" lon="11.5531471"><ele>278.0</ele><time>2026-04-19T15:10:18.057Z</time></trkpt><trkpt lat="43.1298951" lon="11.5531738"><ele>278.0</ele><time>2026-04-19T15:10:19.057Z</time></trkpt><trkpt lat="43.1299992" lon="11.5532187"><ele>278.0</ele><time>2026-04-19T15:10:20.057Z</time></trkpt><trkpt lat="43.1301093" lon="11.5532682"><ele>278.0</ele><time>2026-04-19T15:10:21.057Z</time></trkpt><trkpt lat="43.1302167" lon="11.5533143"><ele>278.0</ele><time>2026-04-19T15:10:22.058Z</time></trkpt><trkpt lat="43.1303316" lon="11.5533559"><ele>278.0</ele><time>2026-04-19T15:10:23.058Z</time></trkpt><trkpt lat="43.1304428" lon="11.5533897"><ele>278.0</ele><time>2026-04-19T15:10:24.058Z</time></trkpt><trkpt lat="43.1305479" lon="11.5534131"><ele>278.0</ele><time>2026-04-19T15:10:25.057Z</time></trkpt><trkpt lat="43.1306475" lon="11.5534135"><ele>278.0</ele><time>2026-04-19T15:10:26.057Z</time></trkpt><trkpt lat="43.1307457" lon="11.5533935"><ele>279.0</ele><time>2026-04-19T15:10:27.058Z</time></trkpt><trkpt lat="43.1308346" lon="11.5533483"><ele>280.0</ele><time>2026-04-19T15:10:28.057Z</time></trkpt><trkpt lat="43.1309163" lon="11.5532851"><ele>281.0</ele><time>2026-04-19T15:10:29.057Z</time></trkpt><trkpt lat="43.1309868" lon="11.5532089"><ele>282.0</ele><time>2026-04-19T15:10:30.058Z</time></trkpt><trkpt lat="43.1310418" lon="11.5531155"><ele>283.0</ele><time>2026-04-19T15:10:31.057Z</time></trkpt><trkpt lat="43.1310837" lon="11.5530097"><ele>283.0</ele><time>2026-04-19T15:10:32.057Z</time></trkpt><trkpt lat="43.1311102" lon="11.5528934"><ele>283.0</ele><time>2026-04-19T15:10:33.057Z</time></trkpt><trkpt lat="43.1311199" lon="11.5527597"><ele>283.0</ele><time>2026-04-19T15:10:34.057Z</time></trkpt><trkpt lat="43.1311128" lon="11.5526314"><ele>283.0</ele><time>2026-04-19T15:10:35.057Z</time></trkpt><trkpt lat="43.1310973" lon="11.5524951"><ele>283.0</ele><time>2026-04-19T15:10:36.057Z</time></trkpt><trkpt lat="43.1310901" lon="11.5523532"><ele>284.8</ele><time>2026-04-19T15:10:37.057Z</time></trkpt><trkpt lat="43.1310872" lon="11.5522023"><ele>286.6</ele><time>2026-04-19T15:10:38.057Z</time></trkpt><trkpt lat="43.1310939" lon="11.5520538"><ele>288.4</ele><time>2026-04-19T15:10:39.057Z</time></trkpt><trkpt lat="43.1311202" lon="11.5519074"><ele>290.2</ele><time>2026-04-19T15:10:40.057Z</time></trkpt><trkpt lat="43.1311591" lon="11.5517696"><ele>292.0</ele><time>2026-04-19T15:10:41.057Z</time></trkpt><trkpt lat="43.1312105" lon="11.5516359"><ele>294.25</ele><time>2026-04-19T15:10:42.058Z</time></trkpt><trkpt lat="43.1312744" lon="11.5515084"><ele>296.5</ele><time>2026-04-19T15:10:43.057Z</time></trkpt><trkpt lat="43.1313523" lon="11.5513739"><ele>298.75</ele><time>2026-04-19T15:10:44.057Z</time></trkpt><trkpt lat="43.1314246" lon="11.5512429"><ele>301.0</ele><time>2026-04-19T15:10:45.057Z</time></trkpt><trkpt lat="43.1315023" lon="11.5511041"><ele>300.25</ele><time>2026-04-19T15:10:46.058Z</time></trkpt><trkpt lat="43.1315814" lon="11.5509592"><ele>299.5</ele><time>2026-04-19T15:10:47.057Z</time></trkpt><trkpt lat="43.1316587" lon="11.5508186"><ele>298.75</ele><time>2026-04-19T15:10:48.057Z</time></trkpt><trkpt lat="43.1317392" lon="11.5506706"><ele>298.0</ele><time>2026-04-19T15:10:49.058Z</time></trkpt><trkpt lat="43.1318209" lon="11.5505276"><ele>298.0</ele><time>2026-04-19T15:10:50.057Z</time></trkpt><trkpt lat="43.1319028" lon="11.5503756"><ele>298.0</ele><time>2026-04-19T15:10:51.058Z</time></trkpt><trkpt lat="43.1319831" lon="11.5502206"><ele>298.0</ele><time>2026-04-19T15:10:52.057Z</time></trkpt><trkpt lat="43.1320641" lon="11.5500678"><ele>298.0</ele><time>2026-04-19T15:10:53.058Z</time></trkpt><trkpt lat="43.1321425" lon="11.5499129"><ele>300.25</ele><time>2026-04-19T15:10:54.058Z</time></trkpt><trkpt lat="43.1322264" lon="11.5497629"><ele>302.5</ele><time>2026-04-19T15:10:55.057Z</time></trkpt><trkpt lat="43.1323067" lon="11.5496104"><ele>304.75</ele><time>2026-04-19T15:10:56.057Z</time></trkpt><trkpt lat="43.1323946" lon="11.5494673"><ele>307.0</ele><time>2026-04-19T15:10:57.057Z</time></trkpt><trkpt lat="43.1324915" lon="11.5493389"><ele>307.5</ele><time>2026-04-19T15:10:58.057Z</time></trkpt><trkpt lat="43.1325906" lon="11.549232"><ele>308.0</ele><time>2026-04-19T15:10:59.058Z</time></trkpt><trkpt lat="43.1326966" lon="11.5491318"><ele>308.5</ele><time>2026-04-19T15:11:00.057Z</time></trkpt><trkpt lat="43.1328131" lon="11.5490519"><ele>309.0</ele><time>2026-04-19T15:11:01.057Z</time></trkpt><trkpt lat="43.1329351" lon="11.5489739"><ele>309.0</ele><time>2026-04-19T15:11:02.057Z</time></trkpt><trkpt lat="43.1330497" lon="11.5488943"><ele>309.0</ele><time>2026-04-19T15:11:03.057Z</time></trkpt><trkpt lat="43.1331517" lon="11.5488241"><ele>309.0</ele><time>2026-04-19T15:11:04.057Z</time></trkpt><trkpt lat="43.1332415" lon="11.5487494"><ele>309.0</ele><time>2026-04-19T15:11:05.057Z</time></trkpt><trkpt lat="43.133319" lon="11.5486468"><ele>309.4</ele><time>2026-04-19T15:11:06.058Z</time></trkpt><trkpt lat="43.1333791" lon="11.5485367"><ele>309.79999999999995</ele><time>2026-04-19T15:11:07.058Z</time></trkpt><trkpt lat="43.1334209" lon="11.5484219"><ele>310.20000000000005</ele><time>2026-04-19T15:11:08.057Z</time></trkpt><trkpt lat="43.1334465" lon="11.5483064"><ele>310.6</ele><time>2026-04-19T15:11:09.057Z</time></trkpt><trkpt lat="43.1334648" lon="11.5481823"><ele>311.0</ele><time>2026-04-19T15:11:10.057Z</time></trkpt><trkpt lat="43.1334719" lon="11.5480504"><ele>311.0</ele><time>2026-04-19T15:11:11.057Z</time></trkpt><trkpt lat="43.1334612" lon="11.5479109"><ele>311.0</ele><time>2026-04-19T15:11:12.057Z</time></trkpt><trkpt lat="43.1334352" lon="11.5477665"><ele>311.0</ele><time>2026-04-19T15:11:13.057Z</time></trkpt><trkpt lat="43.1334009" lon="11.5476117"><ele>311.0</ele><time>2026-04-19T15:11:14.057Z</time></trkpt><trkpt lat="43.1333606" lon="11.5474524"><ele>311.0</ele><time>2026-04-19T15:11:15.058Z</time></trkpt><trkpt lat="43.13332" lon="11.5472862"><ele>311.0</ele><time>2026-04-19T15:11:16.057Z</time></trkpt><trkpt lat="43.1332784" lon="11.5471085"><ele>311.0</ele><time>2026-04-19T15:11:17.058Z</time></trkpt><trkpt lat="43.1332364" lon="11.5469311"><ele>311.0</ele><time>2026-04-19T15:11:18.058Z</time></trkpt><trkpt lat="43.1331951" lon="11.5467561"><ele>307.0</ele><time>2026-04-19T15:11:19.057Z</time></trkpt><trkpt lat="43.1331539" lon="11.5465804"><ele>303.0</ele><time>2026-04-19T15:11:20.057Z</time></trkpt><trkpt lat="43.1331113" lon="11.5463982"><ele>299.0</ele><time>2026-04-19T15:11:21.057Z</time></trkpt><trkpt lat="43.1330682" lon="11.5462164"><ele>295.0</ele><time>2026-04-19T15:11:22.057Z</time></trkpt><trkpt lat="43.1330302" lon="11.5460357"><ele>295.0</ele><time>2026-04-19T15:11:23.057Z</time></trkpt><trkpt lat="43.1329846" lon="11.5458535"><ele>295.0</ele><time>2026-04-19T15:11:24.057Z</time></trkpt><trkpt lat="43.1329447" lon="11.5456767"><ele>295.0</ele><time>2026-04-19T15:11:25.057Z</time></trkpt><trkpt lat="43.1329032" lon="11.5455009"><ele>295.0</ele><time>2026-04-19T15:11:26.058Z</time></trkpt><trkpt lat="43.1328625" lon="11.5453249"><ele>295.75</ele><time>2026-04-19T15:11:27.057Z</time></trkpt><trkpt lat="43.1328212" lon="11.5451498"><ele>296.5</ele><time>2026-04-19T15:11:28.057Z</time></trkpt><trkpt lat="43.1327787" lon="11.5449661"><ele>297.25</ele><time>2026-04-19T15:11:29.057Z</time></trkpt><trkpt lat="43.1327335" lon="11.5447802"><ele>298.0</ele><time>2026-04-19T15:11:30.057Z</time></trkpt><trkpt lat="43.1326857" lon="11.5445993"><ele>299.0</ele><time>2026-04-19T15:11:31.058Z</time></trkpt><trkpt lat="43.1326395" lon="11.5444134"><ele>300.0</ele><time>2026-04-19T15:11:32.057Z</time></trkpt><trkpt lat="43.1325935" lon="11.5442299"><ele>301.0</ele><time>2026-04-19T15:11:33.058Z</time></trkpt><trkpt lat="43.1325429" lon="11.5440485"><ele>302.0</ele><time>2026-04-19T15:11:34.058Z</time></trkpt><trkpt lat="43.1324872" lon="11.5438701"><ele>302.0</ele><time>2026-04-19T15:11:35.058Z</time></trkpt><trkpt lat="43.132429" lon="11.5436978"><ele>302.0</ele><time>2026-04-19T15:11:36.057Z</time></trkpt><trkpt lat="43.1323633" lon="11.5435198"><ele>302.0</ele><time>2026-04-19T15:11:37.057Z</time></trkpt><trkpt lat="43.1322947" lon="11.5433492"><ele>302.0</ele><time>2026-04-19T15:11:38.057Z</time></trkpt><trkpt lat="43.1322293" lon="11.5431862"><ele>302.0</ele><time>2026-04-19T15:11:39.058Z</time></trkpt><trkpt lat="43.1321696" lon="11.5430328"><ele>302.0</ele><time>2026-04-19T15:11:40.057Z</time></trkpt><trkpt lat="43.1321129" lon="11.5428855"><ele>302.0</ele><time>2026-04-19T15:11:41.057Z</time></trkpt><trkpt lat="43.1320548" lon="11.5427475"><ele>302.0</ele><time>2026-04-19T15:11:42.057Z</time></trkpt><trkpt lat="43.1319999" lon="11.542617"><ele>302.4</ele><time>2026-04-19T15:11:43.058Z</time></trkpt><trkpt lat="43.1319468" lon="11.5424892"><ele>302.79999999999995</ele><time>2026-04-19T15:11:44.057Z</time></trkpt><trkpt lat="43.1318967" lon="11.5423672"><ele>303.2</ele><time>2026-04-19T15:11:45.057Z</time></trkpt><trkpt lat="43.131856" lon="11.542246"><ele>303.59999999999997</ele><time>2026-04-19T15:11:46.057Z</time></trkpt><trkpt lat="43.1318262" lon="11.5421197"><ele>304.0</ele><time>2026-04-19T15:11:47.057Z</time></trkpt><trkpt lat="43.1318157" lon="11.5419794"><ele>304.25</ele><time>2026-04-19T15:11:48.057Z</time></trkpt><trkpt lat="43.1318214" lon="11.5418292"><ele>304.5</ele><time>2026-04-19T15:11:49.057Z</time></trkpt><trkpt lat="43.131839" lon="11.5416807"><ele>304.75</ele><time>2026-04-19T15:11:50.057Z</time></trkpt><trkpt lat="43.1318651" lon="11.5415232"><ele>305.0</ele><time>2026-04-19T15:11:51.057Z</time></trkpt><trkpt lat="43.1318933" lon="11.5413477"><ele>305.25</ele><time>2026-04-19T15:11:52.057Z</time></trkpt><trkpt lat="43.1319193" lon="11.5411734"><ele>305.5</ele><time>2026-04-19T15:11:53.057Z</time></trkpt><trkpt lat="43.1319389" lon="11.5410024"><ele>305.75</ele><time>2026-04-19T15:11:54.057Z</time></trkpt><trkpt lat="43.1319634" lon="11.5408318"><ele>306.0</ele><time>2026-04-19T15:11:55.057Z</time></trkpt><trkpt lat="43.1319945" lon="11.5406605"><ele>306.0</ele><time>2026-04-19T15:11:56.057Z</time></trkpt><trkpt lat="43.1320343" lon="11.5404953"><ele>306.0</ele><time>2026-04-19T15:11:57.057Z</time></trkpt><trkpt lat="43.1320792" lon="11.5403291"><ele>306.0</ele><time>2026-04-19T15:11:58.057Z</time></trkpt><trkpt lat="43.1321219" lon="11.5401611"><ele>306.0</ele><time>2026-04-19T15:11:59.057Z</time></trkpt><trkpt lat="43.1321537" lon="11.54"><ele>306.0</ele><time>2026-04-19T15:12:00.058Z</time></trkpt><trkpt lat="43.1321731" lon="11.5398401"><ele>306.0</ele><time>2026-04-19T15:12:01.057Z</time></trkpt><trkpt lat="43.1321893" lon="11.539668"><ele>306.0</ele><time>2026-04-19T15:12:02.057Z</time></trkpt><trkpt lat="43.1321944" lon="11.5394999"><ele>306.0</ele><time>2026-04-19T15:12:03.057Z</time></trkpt><trkpt lat="43.1321946" lon="11.539331"><ele>304.75</ele><time>2026-04-19T15:12:04.057Z</time></trkpt><trkpt lat="43.1322016" lon="11.5391623"><ele>303.5</ele><time>2026-04-19T15:12:05.057Z</time></trkpt><trkpt lat="43.1322106" lon="11.5389916"><ele>302.25</ele><time>2026-04-19T15:12:06.057Z</time></trkpt><trkpt lat="43.1322312" lon="11.5388234"><ele>301.0</ele><time>2026-04-19T15:12:07.058Z</time></trkpt><trkpt lat="43.1322513" lon="11.5386492"><ele>299.0</ele><time>2026-04-19T15:12:08.057Z</time></trkpt><trkpt lat="43.1322778" lon="11.5384793"><ele>297.0</ele><time>2026-04-19T15:12:09.057Z</time></trkpt><trkpt lat="43.1323123" lon="11.5383126"><ele>295.0</ele><time>2026-04-19T15:12:10.057Z</time></trkpt><trkpt lat="43.1323518" lon="11.5381432"><ele>293.0</ele><time>2026-04-19T15:12:11.057Z</time></trkpt><trkpt lat="43.1323972" lon="11.5379825"><ele>290.5</ele><time>2026-04-19T15:12:12.058Z</time></trkpt><trkpt lat="43.1324466" lon="11.5378221"><ele>288.0</ele><time>2026-04-19T15:12:13.057Z</time></trkpt><trkpt lat="43.1324947" lon="11.5376628"><ele>285.5</ele><time>2026-04-19T15:12:14.058Z</time></trkpt><trkpt lat="43.132548" lon="11.5375038"><ele>283.0</ele><time>2026-04-19T15:12:15.057Z</time></trkpt><trkpt lat="43.1326058" lon="11.5373515"><ele>283.0</ele><time>2026-04-19T15:12:16.057Z</time></trkpt><trkpt lat="43.1326713" lon="11.5372053"><ele>283.0</ele><time>2026-04-19T15:12:17.057Z</time></trkpt><trkpt lat="43.1327479" lon="11.5370638"><ele>283.0</ele><time>2026-04-19T15:12:18.057Z</time></trkpt><trkpt lat="43.1328343" lon="11.5369225"><ele>283.0</ele><time>2026-04-19T15:12:19.057Z</time></trkpt><trkpt lat="43.1329258" lon="11.5367863"><ele>281.25</ele><time>2026-04-19T15:12:20.057Z</time></trkpt><trkpt lat="43.1330209" lon="11.5366562"><ele>279.5</ele><time>2026-04-19T15:12:21.058Z</time></trkpt><trkpt lat="43.13312" lon="11.5365257"><ele>277.75</ele><time>2026-04-19T15:12:22.058Z</time></trkpt><trkpt lat="43.1332161" lon="11.5363897"><ele>276.0</ele><time>2026-04-19T15:12:23.057Z</time></trkpt><trkpt lat="43.1333104" lon="11.5362506"><ele>275.25</ele><time>2026-04-19T15:12:24.057Z</time></trkpt><trkpt lat="43.1334028" lon="11.5360968"><ele>274.5</ele><time>2026-04-19T15:12:25.057Z</time></trkpt><trkpt lat="43.1334882" lon="11.5359379"><ele>273.75</ele><time>2026-04-19T15:12:26.057Z</time></trkpt><trkpt lat="43.1335683" lon="11.535772"><ele>273.0</ele><time>2026-04-19T15:12:27.057Z</time></trkpt><trkpt lat="43.1336492" lon="11.5355967"><ele>273.0</ele><time>2026-04-19T15:12:28.058Z</time></trkpt><trkpt lat="43.1337332" lon="11.5354193"><ele>273.0</ele><time>2026-04-19T15:12:29.058Z</time></trkpt><trkpt lat="43.1338115" lon="11.5352407"><ele>273.0</ele><time>2026-04-19T15:12:30.058Z</time></trkpt><trkpt lat="43.1338924" lon="11.5350557"><ele>271.3333333333333</ele><time>2026-04-19T15:12:31.058Z</time></trkpt><trkpt lat="43.1339743" lon="11.5348679"><ele>269.66666666666663</ele><time>2026-04-19T15:12:32.058Z</time></trkpt><trkpt lat="43.1340573" lon="11.5346823"><ele>268.0</ele><time>2026-04-19T15:12:33.057Z</time></trkpt><trkpt lat="43.1341375" lon="11.5344945"><ele>268.0</ele><time>2026-04-19T15:12:34.057Z</time></trkpt><trkpt lat="43.1342209" lon="11.5343078"><ele>268.0</ele><time>2026-04-19T15:12:35.057Z</time></trkpt><trkpt lat="43.1342961" lon="11.5341213"><ele>268.0</ele><time>2026-04-19T15:12:36.058Z</time></trkpt><trkpt lat="43.1343668" lon="11.5339339"><ele>268.0</ele><time>2026-04-19T15:12:37.057Z</time></trkpt><trkpt lat="43.1344315" lon="11.5337464"><ele>268.0</ele><time>2026-04-19T15:12:38.057Z</time></trkpt><trkpt lat="43.134495" lon="11.5335571"><ele>268.0</ele><time>2026-04-19T15:12:39.057Z</time></trkpt><trkpt lat="43.1345525" lon="11.5333675"><ele>267.0</ele><time>2026-04-19T15:12:40.057Z</time></trkpt><trkpt lat="43.1346079" lon="11.5331798"><ele>266.0</ele><time>2026-04-19T15:12:41.057Z</time></trkpt><trkpt lat="43.1346616" lon="11.5329928"><ele>265.0</ele><time>2026-04-19T15:12:42.058Z</time></trkpt><trkpt lat="43.1347157" lon="11.5328028"><ele>264.0</ele><time>2026-04-19T15:12:43.058Z</time></trkpt><trkpt lat="43.1347636" lon="11.5326096"><ele>263.75</ele><time>2026-04-19T15:12:44.057Z</time></trkpt><trkpt lat="43.1348064" lon="11.532422"><ele>263.5</ele><time>2026-04-19T15:12:45.057Z</time></trkpt><trkpt lat="43.1348465" lon="11.5322264"><ele>263.25</ele><time>2026-04-19T15:12:46.058Z</time></trkpt><trkpt lat="43.1348859" lon="11.5320389"><ele>263.0</ele><time>2026-04-19T15:12:47.057Z</time></trkpt><trkpt lat="43.1349213" lon="11.5318481"><ele>265.0</ele><time>2026-04-19T15:12:48.057Z</time></trkpt><trkpt lat="43.1349562" lon="11.5316563"><ele>267.0</ele><time>2026-04-19T15:12:49.058Z</time></trkpt><trkpt lat="43.1349839" lon="11.5314641"><ele>269.0</ele><time>2026-04-19T15:12:50.058Z</time></trkpt><trkpt lat="43.1350072" lon="11.5312897"><ele>271.0</ele><time>2026-04-19T15:12:51.058Z</time></trkpt><trkpt lat="43.1350269" lon="11.5311293"><ele>271.8</ele><time>2026-04-19T15:12:52.057Z</time></trkpt><trkpt lat="43.1350417" lon="11.530976"><ele>272.6</ele><time>2026-04-19T15:12:53.058Z</time></trkpt><trkpt lat="43.1350531" lon="11.5308267"><ele>273.4</ele><time>2026-04-19T15:12:54.057Z</time></trkpt><trkpt lat="43.1350528" lon="11.5306775"><ele>274.2</ele><time>2026-04-19T15:12:55.058Z</time></trkpt><trkpt lat="43.1350285" lon="11.5305303"><ele>275.0</ele><time>2026-04-19T15:12:56.057Z</time></trkpt><trkpt lat="43.1349849" lon="11.5303771"><ele>275.0</ele><time>2026-04-19T15:12:57.057Z</time></trkpt><trkpt lat="43.1349365" lon="11.5302231"><ele>275.0</ele><time>2026-04-19T15:12:58.057Z</time></trkpt><trkpt lat="43.134883" lon="11.5300578"><ele>275.0</ele><time>2026-04-19T15:12:59.057Z</time></trkpt><trkpt lat="43.134825" lon="11.5298933"><ele>275.0</ele><time>2026-04-19T15:13:00.057Z</time></trkpt><trkpt lat="43.1347663" lon="11.5297249"><ele>271.75</ele><time>2026-04-19T15:13:01.058Z</time></trkpt><trkpt lat="43.1347094" lon="11.529556"><ele>268.5</ele><time>2026-04-19T15:13:02.057Z</time></trkpt><trkpt lat="43.1346512" lon="11.5293936"><ele>265.25</ele><time>2026-04-19T15:13:03.058Z</time></trkpt><trkpt lat="43.134592" lon="11.5292307"><ele>262.0</ele><time>2026-04-19T15:13:04.057Z</time></trkpt><trkpt lat="43.1345334" lon="11.5290733"><ele>262.0</ele><time>2026-04-19T15:13:05.057Z</time></trkpt><trkpt lat="43.134475" lon="11.5289183"><ele>262.0</ele><time>2026-04-19T15:13:06.057Z</time></trkpt><trkpt lat="43.134428" lon="11.5287615"><ele>262.0</ele><time>2026-04-19T15:13:07.057Z</time></trkpt><trkpt lat="43.1343861" lon="11.5286027"><ele>262.0</ele><time>2026-04-19T15:13:08.057Z</time></trkpt><trkpt lat="43.1343661" lon="11.5284459"><ele>262.25</ele><time>2026-04-19T15:13:09.057Z</time></trkpt><trkpt lat="43.134359" lon="11.5282832"><ele>262.5</ele><time>2026-04-19T15:13:10.058Z</time></trkpt><trkpt lat="43.1343648" lon="11.5281106"><ele>262.75</ele><time>2026-04-19T15:13:11.057Z</time></trkpt><trkpt lat="43.1343761" lon="11.5279258"><ele>263.0</ele><time>2026-04-19T15:13:12.057Z</time></trkpt><trkpt lat="43.1343898" lon="11.5277389"><ele>262.25</ele><time>2026-04-19T15:13:13.057Z</time></trkpt><trkpt lat="43.1344049" lon="11.527548"><ele>261.5</ele><time>2026-04-19T15:13:14.057Z</time></trkpt><trkpt lat="43.1344221" lon="11.5273459"><ele>260.75</ele><time>2026-04-19T15:13:15.057Z</time></trkpt><trkpt lat="43.1344413" lon="11.5271397"><ele>260.0</ele><time>2026-04-19T15:13:16.057Z</time></trkpt><trkpt lat="43.1344634" lon="11.526934"><ele>258.0</ele><time>2026-04-19T15:13:17.057Z</time></trkpt><trkpt lat="43.1344846" lon="11.5267221"><ele>256.0</ele><time>2026-04-19T15:13:18.058Z</time></trkpt><trkpt lat="43.1345018" lon="11.5265131"><ele>254.0</ele><time>2026-04-19T15:13:19.057Z</time></trkpt><trkpt lat="43.134518" lon="11.5263132"><ele>253.0</ele><time>2026-04-19T15:13:20.057Z</time></trkpt><trkpt lat="43.1345392" lon="11.5261258"><ele>252.0</ele><time>2026-04-19T15:13:21.057Z</time></trkpt><trkpt lat="43.1345728" lon="11.5259482"><ele>251.0</ele><time>2026-04-19T15:13:22.057Z</time></trkpt><trkpt lat="43.1346301" lon="11.5257696"><ele>250.0</ele><time>2026-04-19T15:13:23.058Z</time></trkpt><trkpt lat="43.1347006" lon="11.5255904"><ele>250.0</ele><time>2026-04-19T15:13:24.057Z</time></trkpt><trkpt lat="43.1347722" lon="11.5254069"><ele>250.0</ele><time>2026-04-19T15:13:25.057Z</time></trkpt><trkpt lat="43.1348401" lon="11.5252258"><ele>250.0</ele><time>2026-04-19T15:13:26.057Z</time></trkpt><trkpt lat="43.1348956" lon="11.5250426"><ele>250.0</ele><time>2026-04-19T15:13:27.057Z</time></trkpt><trkpt lat="43.134947" lon="11.5248711"><ele>250.5</ele><time>2026-04-19T15:13:28.057Z</time></trkpt><trkpt lat="43.1349927" lon="11.5247036"><ele>251.0</ele><time>2026-04-19T15:13:29.057Z</time></trkpt><trkpt lat="43.1350265" lon="11.5245419"><ele>251.5</ele><time>2026-04-19T15:13:30.057Z</time></trkpt><trkpt lat="43.1350486" lon="11.5243755"><ele>252.0</ele><time>2026-04-19T15:13:31.058Z</time></trkpt><trkpt lat="43.1350619" lon="11.5242026"><ele>252.0</ele><time>2026-04-19T15:13:32.057Z</time></trkpt><trkpt lat="43.1350605" lon="11.5240283"><ele>252.0</ele><time>2026-04-19T15:13:33.057Z</time></trkpt><trkpt lat="43.1350506" lon="11.5238471"><ele>252.0</ele><time>2026-04-19T15:13:34.057Z</time></trkpt><trkpt lat="43.1350394" lon="11.5236554"><ele>252.0</ele><time>2026-04-19T15:13:35.058Z</time></trkpt><trkpt lat="43.1350266" lon="11.5234558"><ele>250.33333333333331</ele><time>2026-04-19T15:13:36.057Z</time></trkpt><trkpt lat="43.135011" lon="11.5232532"><ele>248.66666666666666</ele><time>2026-04-19T15:13:37.058Z</time></trkpt><trkpt lat="43.1350007" lon="11.5230457"><ele>247.0</ele><time>2026-04-19T15:13:38.058Z</time></trkpt><trkpt lat="43.1349855" lon="11.5228403"><ele>245.0</ele><time>2026-04-19T15:13:39.057Z</time></trkpt><trkpt lat="43.1349757" lon="11.5226327"><ele>243.0</ele><time>2026-04-19T15:13:40.057Z</time></trkpt><trkpt lat="43.1349736" lon="11.522425"><ele>241.0</ele><time>2026-04-19T15:13:41.058Z</time></trkpt><trkpt lat="43.1349766" lon="11.5222166"><ele>240.0</ele><time>2026-04-19T15:13:42.058Z</time></trkpt><trkpt lat="43.1349827" lon="11.5220114"><ele>239.0</ele><time>2026-04-19T15:13:43.057Z</time></trkpt><trkpt lat="43.1349903" lon="11.5218065"><ele>238.0</ele><time>2026-04-19T15:13:44.058Z</time></trkpt><trkpt lat="43.1349943" lon="11.5216048"><ele>237.0</ele><time>2026-04-19T15:13:45.057Z</time></trkpt><trkpt lat="43.1349948" lon="11.521406"><ele>236.75</ele><time>2026-04-19T15:13:46.057Z</time></trkpt><trkpt lat="43.1349969" lon="11.5212088"><ele>236.5</ele><time>2026-04-19T15:13:47.057Z</time></trkpt><trkpt lat="43.1349954" lon="11.5210204"><ele>236.25</ele><time>2026-04-19T15:13:48.057Z</time></trkpt><trkpt lat="43.1349911" lon="11.5208449"><ele>236.0</ele><time>2026-04-19T15:13:49.057Z</time></trkpt><trkpt lat="43.1349842" lon="11.5206726"><ele>236.0</ele><time>2026-04-19T15:13:50.058Z</time></trkpt><trkpt lat="43.1349671" lon="11.5205081"><ele>236.0</ele><time>2026-04-19T15:13:51.057Z</time></trkpt><trkpt lat="43.1349376" lon="11.5203397"><ele>236.0</ele><time>2026-04-19T15:13:52.057Z</time></trkpt><trkpt lat="43.1349015" lon="11.5201716"><ele>236.0</ele><time>2026-04-19T15:13:53.057Z</time></trkpt><trkpt lat="43.1348656" lon="11.520003"><ele>234.5</ele><time>2026-04-19T15:13:54.057Z</time></trkpt><trkpt lat="43.1348255" lon="11.5198502"><ele>233.0</ele><time>2026-04-19T15:13:55.057Z</time></trkpt><trkpt lat="43.1347881" lon="11.519703"><ele>231.5</ele><time>2026-04-19T15:13:56.057Z</time></trkpt><trkpt lat="43.1347589" lon="11.5195585"><ele>230.0</ele><time>2026-04-19T15:13:57.058Z</time></trkpt><trkpt lat="43.1347271" lon="11.5194097"><ele>230.0</ele><time>2026-04-19T15:13:58.057Z</time></trkpt><trkpt lat="43.1346973" lon="11.519258"><ele>230.0</ele><time>2026-04-19T15:13:59.057Z</time></trkpt><trkpt lat="43.1346717" lon="11.5191043"><ele>230.0</ele><time>2026-04-19T15:14:00.057Z</time></trkpt><trkpt lat="43.1346545" lon="11.518942"><ele>230.0</ele><time>2026-04-19T15:14:01.058Z</time></trkpt><trkpt lat="43.1346421" lon="11.5187656"><ele>233.25</ele><time>2026-04-19T15:14:02.057Z</time></trkpt><trkpt lat="43.1346297" lon="11.5185736"><ele>236.5</ele><time>2026-04-19T15:14:03.057Z</time></trkpt><trkpt lat="43.1346289" lon="11.518387"><ele>239.75</ele><time>2026-04-19T15:14:04.057Z</time></trkpt><trkpt lat="43.1346398" lon="11.5182174"><ele>243.0</ele><time>2026-04-19T15:14:05.057Z</time></trkpt><trkpt lat="43.1346593" lon="11.5180522"><ele>244.25</ele><time>2026-04-19T15:14:06.057Z</time></trkpt><trkpt lat="43.1346906" lon="11.517894"><ele>245.5</ele><time>2026-04-19T15:14:07.057Z</time></trkpt><trkpt lat="43.1347454" lon="11.5177613"><ele>246.75</ele><time>2026-04-19T15:14:08.057Z</time></trkpt><trkpt lat="43.1348199" lon="11.5176168"><ele>248.0</ele><time>2026-04-19T15:14:09.057Z</time></trkpt><trkpt lat="43.1349" lon="11.5174873"><ele>246.0</ele><time>2026-04-19T15:14:10.057Z</time></trkpt><trkpt lat="43.1349886" lon="11.5173503"><ele>244.0</ele><time>2026-04-19T15:14:11.058Z</time></trkpt><trkpt lat="43.1350735" lon="11.5172141"><ele>242.0</ele><time>2026-04-19T15:14:12.058Z</time></trkpt><trkpt lat="43.1351585" lon="11.5170802"><ele>240.0</ele><time>2026-04-19T15:14:13.058Z</time></trkpt><trkpt lat="43.1352393" lon="11.5169408"><ele>240.0</ele><time>2026-04-19T15:14:14.057Z</time></trkpt><trkpt lat="43.1353226" lon="11.5167999"><ele>240.0</ele><time>2026-04-19T15:14:15.057Z</time></trkpt><trkpt lat="43.1354104" lon="11.5166534"><ele>240.0</ele><time>2026-04-19T15:14:16.058Z</time></trkpt><trkpt lat="43.1354973" lon="11.5165043"><ele>240.0</ele><time>2026-04-19T15:14:17.058Z</time></trkpt><trkpt lat="43.1355781" lon="11.5163568"><ele>239.5</ele><time>2026-04-19T15:14:18.057Z</time></trkpt><trkpt lat="43.1356657" lon="11.5162158"><ele>239.0</ele><time>2026-04-19T15:14:19.057Z</time></trkpt><trkpt lat="43.135761" lon="11.5160852"><ele>238.5</ele><time>2026-04-19T15:14:20.057Z</time></trkpt><trkpt lat="43.1358631" lon="11.5159682"><ele>238.0</ele><time>2026-04-19T15:14:21.058Z</time></trkpt><trkpt lat="43.1359746" lon="11.5158694"><ele>235.75</ele><time>2026-04-19T15:14:22.057Z</time></trkpt><trkpt lat="43.136074" lon="11.5157743"><ele>233.5</ele><time>2026-04-19T15:14:23.057Z</time></trkpt><trkpt lat="43.1361597" lon="11.5156581"><ele>231.25</ele><time>2026-04-19T15:14:24.057Z</time></trkpt><trkpt lat="43.1362289" lon="11.5155252"><ele>229.0</ele><time>2026-04-19T15:14:25.057Z</time></trkpt><trkpt lat="43.1362758" lon="11.5153811"><ele>228.25</ele><time>2026-04-19T15:14:26.057Z</time></trkpt><trkpt lat="43.1363023" lon="11.5152198"><ele>227.5</ele><time>2026-04-19T15:14:27.057Z</time></trkpt><trkpt lat="43.1363174" lon="11.5150511"><ele>226.75</ele><time>2026-04-19T15:14:28.058Z</time></trkpt><trkpt lat="43.1363212" lon="11.5148824"><ele>226.0</ele><time>2026-04-19T15:14:29.057Z</time></trkpt><trkpt lat="43.1363052" lon="11.5147261"><ele>226.75</ele><time>2026-04-19T15:14:30.057Z</time></trkpt><trkpt lat="43.1362697" lon="11.5145669"><ele>227.5</ele><time>2026-04-19T15:14:31.057Z</time></trkpt><trkpt lat="43.136218" lon="11.514418"><ele>228.25</ele><time>2026-04-19T15:14:32.057Z</time></trkpt><trkpt lat="43.1361522" lon="11.5142655"><ele>229.0</ele><time>2026-04-19T15:14:33.057Z</time></trkpt><trkpt lat="43.1360798" lon="11.5141195"><ele>229.0</ele><time>2026-04-19T15:14:34.057Z</time></trkpt><trkpt lat="43.1359996" lon="11.5139755"><ele>229.0</ele><time>2026-04-19T15:14:35.057Z</time></trkpt><trkpt lat="43.1359205" lon="11.5138307"><ele>229.0</ele><time>2026-04-19T15:14:36.057Z</time></trkpt><trkpt lat="43.1358438" lon="11.5136818"><ele>229.0</ele><time>2026-04-19T15:14:37.057Z</time></trkpt><trkpt lat="43.135773" lon="11.5135348"><ele>227.25</ele><time>2026-04-19T15:14:38.057Z</time></trkpt><trkpt lat="43.1357109" lon="11.5133947"><ele>225.5</ele><time>2026-04-19T15:14:39.057Z</time></trkpt><trkpt lat="43.1356533" lon="11.5132566"><ele>223.75</ele><time>2026-04-19T15:14:40.057Z</time></trkpt><trkpt lat="43.1355984" lon="11.5131104"><ele>222.0</ele><time>2026-04-19T15:14:41.057Z</time></trkpt><trkpt lat="43.1355508" lon="11.5129607"><ele>223.25</ele><time>2026-04-19T15:14:42.057Z</time></trkpt><trkpt lat="43.1355024" lon="11.512807"><ele>224.5</ele><time>2026-04-19T15:14:43.057Z</time></trkpt><trkpt lat="43.135461" lon="11.5126511"><ele>225.75</ele><time>2026-04-19T15:14:44.057Z</time></trkpt><trkpt lat="43.1354092" lon="11.5124931"><ele>227.0</ele><time>2026-04-19T15:14:45.057Z</time></trkpt><trkpt lat="43.1353529" lon="11.5123377"><ele>227.0</ele><time>2026-04-19T15:14:46.057Z</time></trkpt><trkpt lat="43.1352867" lon="11.5121916"><ele>227.0</ele><time>2026-04-19T15:14:47.058Z</time></trkpt><trkpt lat="43.1352077" lon="11.512051"><ele>227.0</ele><time>2026-04-19T15:14:48.058Z</time></trkpt><trkpt lat="43.1351284" lon="11.5119097"><ele>227.0</ele><time>2026-04-19T15:14:49.057Z</time></trkpt><trkpt lat="43.1350478" lon="11.5117729"><ele>228.0</ele><time>2026-04-19T15:14:50.057Z</time></trkpt><trkpt lat="43.1349646" lon="11.5116402"><ele>229.0</ele><time>2026-04-19T15:14:51.057Z</time></trkpt><trkpt lat="43.1348963" lon="11.511507"><ele>230.0</ele><time>2026-04-19T15:14:52.057Z</time></trkpt><trkpt lat="43.1348368" lon="11.5113866"><ele>231.0</ele><time>2026-04-19T15:14:53.057Z</time></trkpt><trkpt lat="43.1347813" lon="11.5112736"><ele>232.33333333333334</ele><time>2026-04-19T15:14:54.058Z</time></trkpt><trkpt lat="43.1347357" lon="11.5111757"><ele>233.66666666666669</ele><time>2026-04-19T15:14:55.057Z</time></trkpt><trkpt lat="43.1346982" lon="11.5110834"><ele>235.0</ele><time>2026-04-19T15:14:56.057Z</time></trkpt><trkpt lat="43.134661" lon="11.5109995"><ele>236.33333333333334</ele><time>2026-04-19T15:14:57.057Z</time></trkpt><trkpt lat="43.1346238" lon="11.5109129"><ele>237.66666666666669</ele><time>2026-04-19T15:14:58.057Z</time></trkpt><trkpt lat="43.1345816" lon="11.5108116"><ele>239.0</ele><time>2026-04-19T15:14:59.057Z</time></trkpt><trkpt lat="43.1345349" lon="11.5107019"><ele>239.0</ele><time>2026-04-19T15:15:00.057Z</time></trkpt><trkpt lat="43.1344809" lon="11.5105857"><ele>238.99999999999997</ele><time>2026-04-19T15:15:01.057Z</time></trkpt><trkpt lat="43.1344256" lon="11.510468"><ele>238.99999999999997</ele><time>2026-04-19T15:15:02.057Z</time></trkpt><trkpt lat="43.1343703" lon="11.510349"><ele>239.0</ele><time>2026-04-19T15:15:03.057Z</time></trkpt><trkpt lat="43.134314" lon="11.510218"><ele>239.0</ele><time>2026-04-19T15:15:04.057Z</time></trkpt><trkpt lat="43.1342586" lon="11.5101005"><ele>238.0</ele><time>2026-04-19T15:15:05.057Z</time></trkpt><trkpt lat="43.1342089" lon="11.5099836"><ele>236.99999999999997</ele><time>2026-04-19T15:15:06.057Z</time></trkpt><trkpt lat="43.1341574" lon="11.509867"><ele>235.99999999999997</ele><time>2026-04-19T15:15:07.057Z</time></trkpt><trkpt lat="43.1341079" lon="11.5097475"><ele>235.0</ele><time>2026-04-19T15:15:08.058Z</time></trkpt><trkpt lat="43.1340542" lon="11.509632"><ele>234.0</ele><time>2026-04-19T15:15:09.057Z</time></trkpt><trkpt lat="43.1339992" lon="11.5095249"><ele>232.39999999999998</ele><time>2026-04-19T15:15:10.057Z</time></trkpt><trkpt lat="43.1339482" lon="11.5094126"><ele>230.79999999999998</ele><time>2026-04-19T15:15:11.057Z</time></trkpt><trkpt lat="43.1339001" lon="11.5092982"><ele>229.20000000000002</ele><time>2026-04-19T15:15:12.058Z</time></trkpt><trkpt lat="43.1338564" lon="11.5091871"><ele>227.60000000000002</ele><time>2026-04-19T15:15:13.057Z</time></trkpt><trkpt lat="43.1338179" lon="11.5090753"><ele>226.0</ele><time>2026-04-19T15:15:14.058Z</time></trkpt><trkpt lat="43.133786" lon="11.508956"><ele>226.0</ele><time>2026-04-19T15:15:15.058Z</time></trkpt><trkpt lat="43.1337471" lon="11.5088251"><ele>226.00000000000003</ele><time>2026-04-19T15:15:16.057Z</time></trkpt><trkpt lat="43.1337103" lon="11.5086892"><ele>226.00000000000003</ele><time>2026-04-19T15:15:17.057Z</time></trkpt><trkpt lat="43.1336759" lon="11.5085582"><ele>226.0</ele><time>2026-04-19T15:15:18.057Z</time></trkpt><trkpt lat="43.1336361" lon="11.5084199"><ele>226.0</ele><time>2026-04-19T15:15:19.057Z</time></trkpt><trkpt lat="43.1336022" lon="11.5082746"><ele>224.5</ele><time>2026-04-19T15:15:20.057Z</time></trkpt><trkpt lat="43.1335701" lon="11.5081223"><ele>223.0</ele><time>2026-04-19T15:15:21.057Z</time></trkpt><trkpt lat="43.1335402" lon="11.5079583"><ele>221.5</ele><time>2026-04-19T15:15:22.057Z</time></trkpt><trkpt lat="43.133534" lon="11.5077832"><ele>220.0</ele><time>2026-04-19T15:15:23.057Z</time></trkpt><trkpt lat="43.1335314" lon="11.5076121"><ele>218.5</ele><time>2026-04-19T15:15:24.057Z</time></trkpt><trkpt lat="43.1335433" lon="11.5074364"><ele>217.0</ele><time>2026-04-19T15:15:25.057Z</time></trkpt><trkpt lat="43.133559" lon="11.50727"><ele>215.5</ele><time>2026-04-19T15:15:26.057Z</time></trkpt><trkpt lat="43.1335806" lon="11.5070881"><ele>214.0</ele><time>2026-04-19T15:15:27.058Z</time></trkpt><trkpt lat="43.1336034" lon="11.5069147"><ele>213.5</ele><time>2026-04-19T15:15:28.058Z</time></trkpt><trkpt lat="43.1336251" lon="11.5067334"><ele>213.0</ele><time>2026-04-19T15:15:29.057Z</time></trkpt><trkpt lat="43.1336489" lon="11.506549"><ele>212.5</ele><time>2026-04-19T15:15:30.058Z</time></trkpt><trkpt lat="43.1336755" lon="11.5063456"><ele>212.0</ele><time>2026-04-19T15:15:31.057Z</time></trkpt><trkpt lat="43.1336976" lon="11.5061614"><ele>211.75</ele><time>2026-04-19T15:15:32.057Z</time></trkpt><trkpt lat="43.1337226" lon="11.5059695"><ele>211.5</ele><time>2026-04-19T15:15:33.057Z</time></trkpt><trkpt lat="43.1337435" lon="11.5057728"><ele>211.25</ele><time>2026-04-19T15:15:34.058Z</time></trkpt><trkpt lat="43.1337665" lon="11.5055792"><ele>211.0</ele><time>2026-04-19T15:15:35.057Z</time></trkpt><trkpt lat="43.1337872" lon="11.5053841"><ele>211.0</ele><time>2026-04-19T15:15:36.057Z</time></trkpt><trkpt lat="43.1338086" lon="11.505185"><ele>211.0</ele><time>2026-04-19T15:15:37.058Z</time></trkpt><trkpt lat="43.1338327" lon="11.5049953"><ele>211.0</ele><time>2026-04-19T15:15:38.057Z</time></trkpt><trkpt lat="43.1338587" lon="11.504811"><ele>211.0</ele><time>2026-04-19T15:15:39.057Z</time></trkpt><trkpt lat="43.1338807" lon="11.5046341"><ele>211.5</ele><time>2026-04-19T15:15:40.057Z</time></trkpt><trkpt lat="43.1339047" lon="11.5044486"><ele>212.0</ele><time>2026-04-19T15:15:41.058Z</time></trkpt><trkpt lat="43.1339321" lon="11.5042556"><ele>212.5</ele><time>2026-04-19T15:15:42.057Z</time></trkpt><trkpt lat="43.1339594" lon="11.504064"><ele>213.0</ele><time>2026-04-19T15:15:43.058Z</time></trkpt><trkpt lat="43.1339885" lon="11.5038832"><ele>212.0</ele><time>2026-04-19T15:15:44.057Z</time></trkpt><trkpt lat="43.1340244" lon="11.5036913"><ele>211.0</ele><time>2026-04-19T15:15:45.057Z</time></trkpt><trkpt lat="43.1340647" lon="11.5034987"><ele>210.0</ele><time>2026-04-19T15:15:46.057Z</time></trkpt><trkpt lat="43.1341045" lon="11.5033065"><ele>209.0</ele><time>2026-04-19T15:15:47.057Z</time></trkpt><trkpt lat="43.1341433" lon="11.5031189"><ele>209.0</ele><time>2026-04-19T15:15:48.057Z</time></trkpt><trkpt lat="43.1341838" lon="11.5029319"><ele>209.0</ele><time>2026-04-19T15:15:49.057Z</time></trkpt><trkpt lat="43.1342206" lon="11.5027421"><ele>209.0</ele><time>2026-04-19T15:15:50.057Z</time></trkpt><trkpt lat="43.1342579" lon="11.5025521"><ele>209.0</ele><time>2026-04-19T15:15:51.057Z</time></trkpt><trkpt lat="43.1342931" lon="11.5023618"><ele>202.0</ele><time>2026-04-19T15:15:52.057Z</time></trkpt></trkseg><trkseg><trkpt lat="43.1377154" lon="11.4874496"><ele>151.0</ele><time>2026-04-19T15:21:15.807Z</time></trkpt><trkpt lat="43.1377209" lon="11.487794"><ele>151.0</ele><time>2026-04-19T15:21:18.055Z</time></trkpt><trkpt lat="43.1377232" lon="11.4876827"><ele>151.0</ele><time>2026-04-19T15:21:51.053Z</time></trkpt><trkpt lat="43.1377162" lon="11.4875914"><ele>151.0</ele><time>2026-04-19T15:21:53.053Z</time></trkpt><trkpt lat="43.1377129" lon="11.4874932"><ele>151.0</ele><time>2026-04-19T15:21:55.052Z</time></trkpt><trkpt lat="43.1377141" lon="11.4873893"><ele>151.0</ele><time>2026-04-19T15:21:57.053Z</time></trkpt><trkpt lat="43.1377143" lon="11.4872512"><ele>151.0</ele><time>2026-04-19T15:21:59.052Z</time></trkpt><trkpt lat="43.1376924" lon="11.4870949"><ele>151.0</ele><time>2026-04-19T15:22:01.052Z</time></trkpt><trkpt lat="43.1376892" lon="11.4870043"><ele>151.0</ele><time>2026-04-19T15:22:02.052Z</time></trkpt><trkpt lat="43.1376902" lon="11.486909"><ele>151.0</ele><time>2026-04-19T15:22:03.053Z</time></trkpt><trkpt lat="43.1376891" lon="11.4868082"><ele>150.57142857142858</ele><time>2026-04-19T15:22:04.052Z</time></trkpt><trkpt lat="43.1376867" lon="11.486703"><ele>150.14285714285714</ele><time>2026-04-19T15:22:05.052Z</time></trkpt><trkpt lat="43.1376856" lon="11.4865965"><ele>149.71428571428572</ele><time>2026-04-19T15:22:06.052Z</time></trkpt><trkpt lat="43.1376823" lon="11.4864927"><ele>149.28571428571428</ele><time>2026-04-19T15:22:07.052Z</time></trkpt><trkpt lat="43.1376835" lon="11.4863925"><ele>148.85714285714286</ele><time>2026-04-19T15:22:08.052Z</time></trkpt><trkpt lat="43.1376857" lon="11.4862958"><ele>148.42857142857144</ele><time>2026-04-19T15:22:09.052Z</time></trkpt><trkpt lat="43.1376855" lon="11.4862009"><ele>148.0</ele><time>2026-04-19T15:22:10.052Z</time></trkpt><trkpt lat="43.137684" lon="11.4861105"><ele>148.0</ele><time>2026-04-19T15:22:11.052Z</time></trkpt><trkpt lat="43.137682" lon="11.4860232"><ele>148.0</ele><time>2026-04-19T15:22:12.053Z</time></trkpt><trkpt lat="43.1376766" lon="11.4858597"><ele>148.0</ele><time>2026-04-19T15:22:14.052Z</time></trkpt><trkpt lat="43.1375864" lon="11.4857838"><ele>148.0</ele><time>2026-04-19T15:22:16.052Z</time></trkpt><trkpt lat="43.1374859" lon="11.4857784"><ele>148.0</ele><time>2026-04-19T15:22:18.053Z</time></trkpt><trkpt lat="43.1373647" lon="11.4857685"><ele>147.66666666666669</ele><time>2026-04-19T15:22:20.053Z</time></trkpt><trkpt lat="43.1372911" lon="11.4857723"><ele>147.33333333333334</ele><time>2026-04-19T15:22:21.052Z</time></trkpt><trkpt lat="43.1372125" lon="11.4857717"><ele>147.0</ele><time>2026-04-19T15:22:22.053Z</time></trkpt><trkpt lat="43.1371275" lon="11.4857716"><ele>146.66666666666666</ele><time>2026-04-19T15:22:23.053Z</time></trkpt><trkpt lat="43.1370464" lon="11.4857686"><ele>146.33333333333331</ele><time>2026-04-19T15:22:24.053Z</time></trkpt><trkpt lat="43.1369584" lon="11.4857629"><ele>146.0</ele><time>2026-04-19T15:22:25.052Z</time></trkpt><trkpt lat="43.1368707" lon="11.4857598"><ele>146.0</ele><time>2026-04-19T15:22:26.052Z</time></trkpt><trkpt lat="43.1367803" lon="11.4857621"><ele>146.0</ele><time>2026-04-19T15:22:27.052Z</time></trkpt><trkpt lat="43.1366876" lon="11.4857592"><ele>146.0</ele><time>2026-04-19T15:22:28.053Z</time></trkpt><trkpt lat="43.1365938" lon="11.4857591"><ele>146.0</ele><time>2026-04-19T15:22:29.052Z</time></trkpt><trkpt lat="43.1365006" lon="11.4857575"><ele>146.0</ele><time>2026-04-19T15:22:30.052Z</time></trkpt><trkpt lat="43.1364058" lon="11.4857608"><ele>146.2</ele><time>2026-04-19T15:22:31.052Z</time></trkpt><trkpt lat="43.1363146" lon="11.4857669"><ele>146.39999999999998</ele><time>2026-04-19T15:22:32.052Z</time></trkpt><trkpt lat="43.1362194" lon="11.4857671"><ele>146.6</ele><time>2026-04-19T15:22:33.052Z</time></trkpt><trkpt lat="43.1361251" lon="11.485766"><ele>146.79999999999998</ele><time>2026-04-19T15:22:34.052Z</time></trkpt><trkpt lat="43.1360271" lon="11.4857571"><ele>147.0</ele><time>2026-04-19T15:22:35.052Z</time></trkpt><trkpt lat="43.1359341" lon="11.4857539"><ele>147.0</ele><time>2026-04-19T15:22:36.052Z</time></trkpt><trkpt lat="43.13584" lon="11.4857432"><ele>147.0</ele><time>2026-04-19T15:22:37.052Z</time></trkpt><trkpt lat="43.1357446" lon="11.4857436"><ele>147.0</ele><time>2026-04-19T15:22:38.052Z</time></trkpt><trkpt lat="43.135647" lon="11.4857391"><ele>147.0</ele><time>2026-04-19T15:22:39.052Z</time></trkpt><trkpt lat="43.1355484" lon="11.4857341"><ele>147.0</ele><time>2026-04-19T15:22:40.052Z</time></trkpt><trkpt lat="43.1354502" lon="11.4857321"><ele>147.0</ele><time>2026-04-19T15:22:41.052Z</time></trkpt><trkpt lat="43.1353478" lon="11.4857307"><ele>147.0</ele><time>2026-04-19T15:22:42.053Z</time></trkpt><trkpt lat="43.1352513" lon="11.4857248"><ele>147.0</ele><time>2026-04-19T15:22:43.052Z</time></trkpt><trkpt lat="43.1351603" lon="11.4857208"><ele>147.0</ele><time>2026-04-19T15:22:44.052Z</time></trkpt><trkpt lat="43.1350744" lon="11.4857188"><ele>147.0</ele><time>2026-04-19T15:22:45.053Z</time></trkpt><trkpt lat="43.1349937" lon="11.4857084"><ele>147.0</ele><time>2026-04-19T15:22:46.052Z</time></trkpt><trkpt lat="43.1349242" lon="11.4856864"><ele>147.0</ele><time>2026-04-19T15:22:47.052Z</time></trkpt><trkpt lat="43.1348473" lon="11.4856447"><ele>147.0</ele><time>2026-04-19T15:22:49.052Z</time></trkpt><trkpt lat="43.1347815" lon="11.4855869"><ele>147.0</ele><time>2026-04-19T15:22:52.053Z</time></trkpt><trkpt lat="43.1347151" lon="11.4854725"><ele>147.0</ele><time>2026-04-19T15:22:54.052Z</time></trkpt><trkpt lat="43.1346539" lon="11.4853061"><ele>146.83333333333334</ele><time>2026-04-19T15:22:56.052Z</time></trkpt><trkpt lat="43.1346215" lon="11.4852026"><ele>146.66666666666666</ele><time>2026-04-19T15:22:57.052Z</time></trkpt><trkpt lat="43.1345922" lon="11.4850948"><ele>146.5</ele><time>2026-04-19T15:22:58.052Z</time></trkpt><trkpt lat="43.1345595" lon="11.4849848"><ele>146.33333333333331</ele><time>2026-04-19T15:22:59.053Z</time></trkpt><trkpt lat="43.1345325" lon="11.4848831"><ele>146.16666666666666</ele><time>2026-04-19T15:23:00.053Z</time></trkpt><trkpt lat="43.1345067" lon="11.4847856"><ele>146.0</ele><time>2026-04-19T15:23:01.052Z</time></trkpt><trkpt lat="43.1344786" lon="11.4846853"><ele>145.83333333333331</ele><time>2026-04-19T15:23:02.053Z</time></trkpt><trkpt lat="43.1344538" lon="11.484577"><ele>145.66666666666666</ele><time>2026-04-19T15:23:03.052Z</time></trkpt><trkpt lat="43.1344284" lon="11.4844646"><ele>145.5</ele><time>2026-04-19T15:23:04.052Z</time></trkpt><trkpt lat="43.1343977" lon="11.484349"><ele>145.33333333333334</ele><time>2026-04-19T15:23:05.052Z</time></trkpt><trkpt lat="43.1343666" lon="11.4842305"><ele>145.16666666666669</ele><time>2026-04-19T15:23:06.052Z</time></trkpt><trkpt lat="43.1343384" lon="11.4841201"><ele>145.0</ele><time>2026-04-19T15:23:07.053Z</time></trkpt><trkpt lat="43.1343107" lon="11.4840149"><ele>145.0</ele><time>2026-04-19T15:23:08.052Z</time></trkpt><trkpt lat="43.1342905" lon="11.4839244"><ele>145.0</ele><time>2026-04-19T15:23:09.052Z</time></trkpt><trkpt lat="43.1342675" lon="11.4838369"><ele>145.0</ele><time>2026-04-19T15:23:10.052Z</time></trkpt><trkpt lat="43.134248" lon="11.4837541"><ele>145.0</ele><time>2026-04-19T15:23:11.053Z</time></trkpt><trkpt lat="43.1342111" lon="11.4836171"><ele>145.0</ele><time>2026-04-19T15:23:13.052Z</time></trkpt><trkpt lat="43.1341799" lon="11.4834894"><ele>145.0</ele><time>2026-04-19T15:23:15.053Z</time></trkpt><trkpt lat="43.1341332" lon="11.4833539"><ele>145.0</ele><time>2026-04-19T15:23:17.052Z</time></trkpt><trkpt lat="43.1341063" lon="11.4832208"><ele>145.0</ele><time>2026-04-19T15:23:19.052Z</time></trkpt><trkpt lat="43.1341197" lon="11.4831339"><ele>145.0</ele><time>2026-04-19T15:23:23.052Z</time></trkpt><trkpt lat="43.1341968" lon="11.4831128"><ele>145.0</ele><time>2026-04-19T15:23:27.052Z</time></trkpt><trkpt lat="43.1343204" lon="11.4831461"><ele>145.0</ele><time>2026-04-19T15:23:29.053Z</time></trkpt><trkpt lat="43.134386" lon="11.4831645"><ele>145.0</ele><time>2026-04-19T15:23:30.052Z</time></trkpt><trkpt lat="43.1344523" lon="11.4831765"><ele>145.0</ele><time>2026-04-19T15:23:31.052Z</time></trkpt><trkpt lat="43.1345154" lon="11.483189"><ele>145.0</ele><time>2026-04-19T15:23:32.052Z</time></trkpt><trkpt lat="43.1345793" lon="11.4831994"><ele>145.0</ele><time>2026-04-19T15:23:33.053Z</time></trkpt><trkpt lat="43.1346463" lon="11.483209"><ele>145.0</ele><time>2026-04-19T15:23:34.052Z</time></trkpt><trkpt lat="43.1347175" lon="11.4832236"><ele>145.0</ele><time>2026-04-19T15:23:35.052Z</time></trkpt><trkpt lat="43.1347879" lon="11.4832436"><ele>145.0</ele><time>2026-04-19T15:23:36.052Z</time></trkpt><trkpt lat="43.1348622" lon="11.4832589"><ele>145.0</ele><time>2026-04-19T15:23:37.052Z</time></trkpt><trkpt lat="43.1349303" lon="11.4832735"><ele>145.14285714285714</ele><time>2026-04-19T15:23:38.052Z</time></trkpt><trkpt lat="43.1350034" lon="11.4832857"><ele>145.2857142857143</ele><time>2026-04-19T15:23:39.052Z</time></trkpt><trkpt lat="43.135075" lon="11.483295"><ele>145.42857142857144</ele><time>2026-04-19T15:23:40.052Z</time></trkpt><trkpt lat="43.1351478" lon="11.4833064"><ele>145.57142857142858</ele><time>2026-04-19T15:23:41.052Z</time></trkpt><trkpt lat="43.1352107" lon="11.4833173"><ele>145.71428571428572</ele><time>2026-04-19T15:23:42.052Z</time></trkpt><trkpt lat="43.135274" lon="11.4833316"><ele>145.85714285714286</ele><time>2026-04-19T15:23:43.053Z</time></trkpt><trkpt lat="43.1353377" lon="11.4833424"><ele>146.0</ele><time>2026-04-19T15:23:44.052Z</time></trkpt><trkpt lat="43.1354421" lon="11.4833615"><ele>146.0</ele><time>2026-04-19T15:23:46.052Z</time></trkpt><trkpt lat="43.135563" lon="11.4833891"><ele>146.0</ele><time>2026-04-19T15:23:48.053Z</time></trkpt><trkpt lat="43.1356325" lon="11.4833976"><ele>146.0</ele><time>2026-04-19T15:23:49.052Z</time></trkpt><trkpt lat="43.135707" lon="11.4834053"><ele>146.0</ele><time>2026-04-19T15:23:50.052Z</time></trkpt><trkpt lat="43.135789" lon="11.4834096"><ele>146.0</ele><time>2026-04-19T15:23:51.052Z</time></trkpt><trkpt lat="43.1358757" lon="11.4834123"><ele>146.0</ele><time>2026-04-19T15:23:52.052Z</time></trkpt><trkpt lat="43.1359638" lon="11.4834153"><ele>146.0</ele><time>2026-04-19T15:23:53.052Z</time></trkpt><trkpt lat="43.1360514" lon="11.4834204"><ele>146.0</ele><time>2026-04-19T15:23:54.052Z</time></trkpt><trkpt lat="43.1361408" lon="11.4834227"><ele>146.0</ele><time>2026-04-19T15:23:55.052Z</time></trkpt><trkpt lat="43.1362325" lon="11.4834248"><ele>146.0</ele><time>2026-04-19T15:23:56.053Z</time></trkpt><trkpt lat="43.1363196" lon="11.4834239"><ele>146.0</ele><time>2026-04-19T15:23:57.053Z</time></trkpt><trkpt lat="43.1363998" lon="11.4834208"><ele>146.0</ele><time>2026-04-19T15:23:58.052Z</time></trkpt><trkpt lat="43.1364671" lon="11.4834268"><ele>146.0</ele><time>2026-04-19T15:23:59.052Z</time></trkpt><trkpt lat="43.1365345" lon="11.4834381"><ele>146.0</ele><time>2026-04-19T15:24:00.052Z</time></trkpt><trkpt lat="43.1365908" lon="11.4834853"><ele>146.0</ele><time>2026-04-19T15:24:02.052Z</time></trkpt><trkpt lat="43.1366556" lon="11.4834994"><ele>146.0</ele><time>2026-04-19T15:24:19.053Z</time></trkpt><trkpt lat="43.1367401" lon="11.4835111"><ele>146.0</ele><time>2026-04-19T15:24:22.052Z</time></trkpt><trkpt lat="43.1368032" lon="11.4835102"><ele>146.0</ele><time>2026-04-19T15:24:24.052Z</time></trkpt><trkpt lat="43.1368576" lon="11.4834515"><ele>146.0</ele><time>2026-04-19T15:24:26.052Z</time></trkpt><trkpt lat="43.1367989" lon="11.4833506"><ele>146.0</ele><time>2026-04-19T15:24:29.052Z</time></trkpt><trkpt lat="43.1366824" lon="11.4833401"><ele>146.0</ele><time>2026-04-19T15:24:31.052Z</time></trkpt><trkpt lat="43.1366187" lon="11.4833393"><ele>146.0</ele><time>2026-04-19T15:24:32.052Z</time></trkpt><trkpt lat="43.1365452" lon="11.4833354"><ele>146.0</ele><time>2026-04-19T15:24:33.052Z</time></trkpt><trkpt lat="43.1364748" lon="11.4833377"><ele>146.0</ele><time>2026-04-19T15:24:34.052Z</time></trkpt><trkpt lat="43.1363969" lon="11.4833365"><ele>146.0</ele><time>2026-04-19T15:24:35.052Z</time></trkpt><trkpt lat="43.1363161" lon="11.4833387"><ele>146.0</ele><time>2026-04-19T15:24:36.053Z</time></trkpt><trkpt lat="43.1362356" lon="11.4833419"><ele>146.0</ele><time>2026-04-19T15:24:37.053Z</time></trkpt><trkpt lat="43.1361561" lon="11.4833456"><ele>146.0</ele><time>2026-04-19T15:24:38.052Z</time></trkpt><trkpt lat="43.1360737" lon="11.4833465"><ele>146.0</ele><time>2026-04-19T15:24:39.052Z</time></trkpt><trkpt lat="43.1359881" lon="11.4833468"><ele>146.0</ele><time>2026-04-19T15:24:40.053Z</time></trkpt><trkpt lat="43.1358978" lon="11.4833464"><ele>146.0</ele><time>2026-04-19T15:24:41.052Z</time></trkpt><trkpt lat="43.1358062" lon="11.4833439"><ele>146.0</ele><time>2026-04-19T15:24:42.052Z</time></trkpt><trkpt lat="43.1357158" lon="11.4833396"><ele>146.0</ele><time>2026-04-19T15:24:43.052Z</time></trkpt><trkpt lat="43.1356377" lon="11.4833362"><ele>146.0</ele><time>2026-04-19T15:24:44.052Z</time></trkpt><trkpt lat="43.1355361" lon="11.4833034"><ele>146.0</ele><time>2026-04-19T15:24:46.052Z</time></trkpt><trkpt lat="43.135497" lon="11.4831817"><ele>146.0</ele><time>2026-04-19T15:24:48.052Z</time></trkpt><trkpt lat="43.1354868" lon="11.483032"><ele>145.8</ele><time>2026-04-19T15:24:50.053Z</time></trkpt><trkpt lat="43.1354732" lon="11.4828798"><ele>145.6</ele><time>2026-04-19T15:24:52.052Z</time></trkpt><trkpt lat="43.135459" lon="11.4827459"><ele>145.4</ele><time>2026-04-19T15:24:54.052Z</time></trkpt><trkpt lat="43.1354403" lon="11.4825206"><ele>145.2</ele><time>2026-04-19T15:24:57.052Z</time></trkpt><trkpt lat="43.1354314" lon="11.4824339"><ele>145.0</ele><time>2026-04-19T15:24:58.052Z</time></trkpt><trkpt lat="43.1354217" lon="11.4823459"><ele>145.0</ele><time>2026-04-19T15:24:59.052Z</time></trkpt><trkpt lat="43.135407" lon="11.4821919"><ele>145.0</ele><time>2026-04-19T15:25:01.052Z</time></trkpt><trkpt lat="43.1354228" lon="11.4820757"><ele>145.0</ele><time>2026-04-19T15:25:03.052Z</time></trkpt><trkpt lat="43.1354917" lon="11.4819951"><ele>145.0</ele><time>2026-04-19T15:25:05.052Z</time></trkpt><trkpt lat="43.1355714" lon="11.4820017"><ele>145.0</ele><time>2026-04-19T15:25:06.052Z</time></trkpt><trkpt lat="43.1356397" lon="11.4819919"><ele>145.0</ele><time>2026-04-19T15:25:07.052Z</time></trkpt><trkpt lat="43.1357096" lon="11.4819858"><ele>145.14285714285714</ele><time>2026-04-19T15:25:08.052Z</time></trkpt><trkpt lat="43.1357803" lon="11.4819815"><ele>145.2857142857143</ele><time>2026-04-19T15:25:09.052Z</time></trkpt><trkpt lat="43.1358521" lon="11.4819693"><ele>145.42857142857144</ele><time>2026-04-19T15:25:10.052Z</time></trkpt><trkpt lat="43.135923" lon="11.4819671"><ele>145.57142857142858</ele><time>2026-04-19T15:25:11.052Z</time></trkpt><trkpt lat="43.1360017" lon="11.4819607"><ele>145.71428571428572</ele><time>2026-04-19T15:25:12.052Z</time></trkpt><trkpt lat="43.1360771" lon="11.4819508"><ele>145.85714285714286</ele><time>2026-04-19T15:25:13.052Z</time></trkpt><trkpt lat="43.1361539" lon="11.4819473"><ele>146.0</ele><time>2026-04-19T15:25:14.052Z</time></trkpt><trkpt lat="43.1362326" lon="11.4819415"><ele>146.0</ele><time>2026-04-19T15:25:15.052Z</time></trkpt><trkpt lat="43.1363055" lon="11.4819383"><ele>146.0</ele><time>2026-04-19T15:25:16.052Z</time></trkpt><trkpt lat="43.13638" lon="11.4819359"><ele>146.0</ele><time>2026-04-19T15:25:17.052Z</time></trkpt><trkpt lat="43.1364518" lon="11.4819321"><ele>146.0</ele><time>2026-04-19T15:25:18.052Z</time></trkpt><trkpt lat="43.136519" lon="11.4819308"><ele>146.0</ele><time>2026-04-19T15:25:19.052Z</time></trkpt><trkpt lat="43.1366149" lon="11.4819099"><ele>146.0</ele><time>2026-04-19T15:25:21.053Z</time></trkpt><trkpt lat="43.1366674" lon="11.4818315"><ele>146.2</ele><time>2026-04-19T15:25:24.052Z</time></trkpt><trkpt lat="43.1366533" lon="11.4816946"><ele>146.39999999999998</ele><time>2026-04-19T15:25:26.053Z</time></trkpt><trkpt lat="43.1366111" lon="11.481519"><ele>146.6</ele><time>2026-04-19T15:25:28.053Z</time></trkpt><trkpt lat="43.1365849" lon="11.4814085"><ele>146.79999999999998</ele><time>2026-04-19T15:25:29.052Z</time></trkpt><trkpt lat="43.1365532" lon="11.4812874"><ele>147.0</ele><time>2026-04-19T15:25:30.052Z</time></trkpt><trkpt lat="43.136522" lon="11.481167"><ele>146.6</ele><time>2026-04-19T15:25:31.052Z</time></trkpt><trkpt lat="43.1364882" lon="11.4810297"><ele>146.2</ele><time>2026-04-19T15:25:32.052Z</time></trkpt><trkpt lat="43.1364543" lon="11.4808965"><ele>145.8</ele><time>2026-04-19T15:25:33.052Z</time></trkpt><trkpt lat="43.1364201" lon="11.4807604"><ele>145.4</ele><time>2026-04-19T15:25:34.053Z</time></trkpt><trkpt lat="43.1363851" lon="11.4806212"><ele>145.0</ele><time>2026-04-19T15:25:35.052Z</time></trkpt><trkpt lat="43.1363513" lon="11.4804764"><ele>144.8</ele><time>2026-04-19T15:25:36.052Z</time></trkpt><trkpt lat="43.1363145" lon="11.4803356"><ele>144.6</ele><time>2026-04-19T15:25:37.052Z</time></trkpt><trkpt lat="43.1362828" lon="11.4801955"><ele>144.4</ele><time>2026-04-19T15:25:38.052Z</time></trkpt><trkpt lat="43.1362408" lon="11.4800476"><ele>144.2</ele><time>2026-04-19T15:25:39.053Z</time></trkpt><trkpt lat="43.1362046" lon="11.4799044"><ele>144.0</ele><time>2026-04-19T15:25:40.052Z</time></trkpt><trkpt lat="43.1361654" lon="11.4797634"><ele>144.0</ele><time>2026-04-19T15:25:41.052Z</time></trkpt><trkpt lat="43.1361294" lon="11.4796217"><ele>144.0</ele><time>2026-04-19T15:25:42.052Z</time></trkpt><trkpt lat="43.1360935" lon="11.4794808"><ele>144.0</ele><time>2026-04-19T15:25:43.052Z</time></trkpt><trkpt lat="43.1360553" lon="11.4793307"><ele>144.0</ele><time>2026-04-19T15:25:44.052Z</time></trkpt><trkpt lat="43.1360186" lon="11.4791804"><ele>144.0</ele><time>2026-04-19T15:25:45.052Z</time></trkpt><trkpt lat="43.1359809" lon="11.4790189"><ele>144.0</ele><time>2026-04-19T15:25:46.052Z</time></trkpt><trkpt lat="43.135942" lon="11.478856"><ele>144.0</ele><time>2026-04-19T15:25:47.052Z</time></trkpt><trkpt lat="43.1359021" lon="11.4786955"><ele>144.0</ele><time>2026-04-19T15:25:48.052Z</time></trkpt><trkpt lat="43.1358655" lon="11.4785333"><ele>144.25</ele><time>2026-04-19T15:25:49.052Z</time></trkpt><trkpt lat="43.1358306" lon="11.478372"><ele>144.5</ele><time>2026-04-19T15:25:50.052Z</time></trkpt><trkpt lat="43.1357947" lon="11.4782144"><ele>144.75</ele><time>2026-04-19T15:25:51.052Z</time></trkpt><trkpt lat="43.1357649" lon="11.4780603"><ele>145.0</ele><time>2026-04-19T15:25:52.053Z</time></trkpt><trkpt lat="43.1357334" lon="11.4778991"><ele>144.25</ele><time>2026-04-19T15:25:53.052Z</time></trkpt><trkpt lat="43.1357003" lon="11.4777334"><ele>143.5</ele><time>2026-04-19T15:25:54.052Z</time></trkpt><trkpt lat="43.1356652" lon="11.4775694"><ele>142.75</ele><time>2026-04-19T15:25:55.053Z</time></trkpt><trkpt lat="43.1356334" lon="11.4774065"><ele>142.0</ele><time>2026-04-19T15:25:56.052Z</time></trkpt><trkpt lat="43.1355998" lon="11.4772418"><ele>141.5</ele><time>2026-04-19T15:25:57.052Z</time></trkpt><trkpt lat="43.1355595" lon="11.4770763"><ele>141.0</ele><time>2026-04-19T15:25:58.053Z</time></trkpt><trkpt lat="43.1355214" lon="11.476907"><ele>140.5</ele><time>2026-04-19T15:25:59.052Z</time></trkpt><trkpt lat="43.1354859" lon="11.4767415"><ele>140.0</ele><time>2026-04-19T15:26:00.052Z</time></trkpt><trkpt lat="43.1354523" lon="11.4765876"><ele>140.0</ele><time>2026-04-19T15:26:01.052Z</time></trkpt><trkpt lat="43.1354187" lon="11.4764445"><ele>140.0</ele><time>2026-04-19T15:26:02.052Z</time></trkpt><trkpt lat="43.1353881" lon="11.4763095"><ele>140.0</ele><time>2026-04-19T15:26:03.052Z</time></trkpt><trkpt lat="43.1353574" lon="11.4761879"><ele>140.0</ele><time>2026-04-19T15:26:04.052Z</time></trkpt><trkpt lat="43.1353304" lon="11.4760782"><ele>140.0</ele><time>2026-04-19T15:26:05.052Z</time></trkpt><trkpt lat="43.1353029" lon="11.4759738"><ele>139.6</ele><time>2026-04-19T15:26:06.053Z</time></trkpt><trkpt lat="43.1352762" lon="11.4758761"><ele>139.2</ele><time>2026-04-19T15:26:07.052Z</time></trkpt><trkpt lat="43.1352485" lon="11.4757817"><ele>138.8</ele><time>2026-04-19T15:26:08.052Z</time></trkpt><trkpt lat="43.1352139" lon="11.4756218"><ele>138.4</ele><time>2026-04-19T15:26:10.052Z</time></trkpt><trkpt lat="43.1351784" lon="11.4754689"><ele>138.0</ele><time>2026-04-19T15:26:12.052Z</time></trkpt><trkpt lat="43.135157" lon="11.4753855"><ele>138.0</ele><time>2026-04-19T15:26:13.053Z</time></trkpt><trkpt lat="43.1351172" lon="11.4752236"><ele>138.0</ele><time>2026-04-19T15:26:15.052Z</time></trkpt><trkpt lat="43.1351008" lon="11.4751363"><ele>138.0</ele><time>2026-04-19T15:26:16.052Z</time></trkpt><trkpt lat="43.1350845" lon="11.47505"><ele>138.0</ele><time>2026-04-19T15:26:17.052Z</time></trkpt><trkpt lat="43.1350676" lon="11.4749595"><ele>138.0</ele><time>2026-04-19T15:26:18.053Z</time></trkpt><trkpt lat="43.1350557" lon="11.4748704"><ele>138.0</ele><time>2026-04-19T15:26:19.053Z</time></trkpt><trkpt lat="43.1350381" lon="11.4747857"><ele>138.0</ele><time>2026-04-19T15:26:20.052Z</time></trkpt><trkpt lat="43.1350024" lon="11.4746302"><ele>138.0</ele><time>2026-04-19T15:26:22.052Z</time></trkpt><trkpt lat="43.1349706" lon="11.4744856"><ele>138.0</ele><time>2026-04-19T15:26:24.052Z</time></trkpt><trkpt lat="43.1349408" lon="11.4743492"><ele>138.0</ele><time>2026-04-19T15:26:26.053Z</time></trkpt><trkpt lat="43.1349168" lon="11.474217"><ele>138.0</ele><time>2026-04-19T15:26:28.052Z</time></trkpt><trkpt lat="43.1348916" lon="11.4740855"><ele>138.0</ele><time>2026-04-19T15:26:30.052Z</time></trkpt><trkpt lat="43.1348677" lon="11.4739572"><ele>138.0</ele><time>2026-04-19T15:26:32.052Z</time></trkpt><trkpt lat="43.1348444" lon="11.4738432"><ele>138.0</ele><time>2026-04-19T15:26:34.052Z</time></trkpt><trkpt lat="43.13482" lon="11.4737167"><ele>138.0</ele><time>2026-04-19T15:26:36.052Z</time></trkpt><trkpt lat="43.1347995" lon="11.4735859"><ele>138.0</ele><time>2026-04-19T15:26:38.052Z</time></trkpt><trkpt lat="43.1347744" lon="11.4734645"><ele>138.0</ele><time>2026-04-19T15:26:40.052Z</time></trkpt><trkpt lat="43.1347526" lon="11.4733513"><ele>138.0</ele><time>2026-04-19T15:26:42.052Z</time></trkpt><trkpt lat="43.1347329" lon="11.4732377"><ele>138.0</ele><time>2026-04-19T15:26:44.052Z</time></trkpt><trkpt lat="43.1347143" lon="11.4731313"><ele>138.0</ele><time>2026-04-19T15:26:46.052Z</time></trkpt><trkpt lat="43.1346964" lon="11.4730257"><ele>138.0</ele><time>2026-04-19T15:26:48.052Z</time></trkpt><trkpt lat="43.1346799" lon="11.472916"><ele>138.0</ele><time>2026-04-19T15:26:50.052Z</time></trkpt><trkpt lat="43.1346587" lon="11.4728076"><ele>138.0</ele><time>2026-04-19T15:26:52.052Z</time></trkpt><trkpt lat="43.134635" lon="11.4726958"><ele>138.0</ele><time>2026-04-19T15:26:54.052Z</time></trkpt><trkpt lat="43.1346108" lon="11.4725803"><ele>138.0</ele><time>2026-04-19T15:26:56.052Z</time></trkpt><trkpt lat="43.1345893" lon="11.4724601"><ele>138.0</ele><time>2026-04-19T15:26:58.053Z</time></trkpt><trkpt lat="43.1345641" lon="11.472334"><ele>138.0</ele><time>2026-04-19T15:27:00.052Z</time></trkpt><trkpt lat="43.1345438" lon="11.4722053"><ele>138.0</ele><time>2026-04-19T15:27:02.052Z</time></trkpt><trkpt lat="43.1345223" lon="11.4720788"><ele>138.0</ele><time>2026-04-19T15:27:04.052Z</time></trkpt><trkpt lat="43.1344971" lon="11.471954"><ele>138.0</ele><time>2026-04-19T15:27:06.052Z</time></trkpt><trkpt lat="43.134473" lon="11.4718347"><ele>138.0</ele><time>2026-04-19T15:27:08.052Z</time></trkpt><trkpt lat="43.1344463" lon="11.4717141"><ele>138.0</ele><time>2026-04-19T15:27:10.052Z</time></trkpt><trkpt lat="43.1344284" lon="11.4715856"><ele>138.0</ele><time>2026-04-19T15:27:12.052Z</time></trkpt><trkpt lat="43.1344028" lon="11.4714482"><ele>138.0</ele><time>2026-04-19T15:27:14.052Z</time></trkpt><trkpt lat="43.1344032" lon="11.471327"><ele>138.0</ele><time>2026-04-19T15:27:16.052Z</time></trkpt><trkpt lat="43.1343872" lon="11.4712432"><ele>138.0</ele><time>2026-04-19T15:27:18.053Z</time></trkpt><trkpt lat="43.1343173" lon="11.4712432"><ele>138.0</ele><time>2026-04-19T15:28:10.053Z</time></trkpt><trkpt lat="43.1343573" lon="11.471415"><ele>138.0</ele><time>2026-04-19T15:28:12.052Z</time></trkpt><trkpt lat="43.134378" lon="11.4715168"><ele>138.0</ele><time>2026-04-19T15:28:13.052Z</time></trkpt><trkpt lat="43.134405" lon="11.471651"><ele>138.0</ele><time>2026-04-19T15:28:14.052Z</time></trkpt><trkpt lat="43.1344341" lon="11.4718043"><ele>138.0</ele><time>2026-04-19T15:28:15.052Z</time></trkpt><trkpt lat="43.134465" lon="11.4719659"><ele>138.0</ele><time>2026-04-19T15:28:16.053Z</time></trkpt><trkpt lat="43.1345048" lon="11.4721667"><ele>138.0</ele><time>2026-04-19T15:28:17.052Z</time></trkpt><trkpt lat="43.1345437" lon="11.4723776"><ele>138.0</ele><time>2026-04-19T15:28:18.053Z</time></trkpt><trkpt lat="43.1345843" lon="11.4725936"><ele>138.0</ele><time>2026-04-19T15:28:19.052Z</time></trkpt><trkpt lat="43.1346317" lon="11.4728393"><ele>138.0</ele><time>2026-04-19T15:28:20.052Z</time></trkpt><trkpt lat="43.1346806" lon="11.4730939"><ele>138.0</ele><time>2026-04-19T15:28:21.052Z</time></trkpt><trkpt lat="43.1347267" lon="11.4733459"><ele>138.0</ele><time>2026-04-19T15:28:22.052Z</time></trkpt><trkpt lat="43.1347773" lon="11.4736129"><ele>138.0</ele><time>2026-04-19T15:28:23.052Z</time></trkpt><trkpt lat="43.1348287" lon="11.4738917"><ele>138.0</ele><time>2026-04-19T15:28:24.052Z</time></trkpt><trkpt lat="43.1348768" lon="11.4741531"><ele>138.0</ele><time>2026-04-19T15:28:25.052Z</time></trkpt><trkpt lat="43.1349253" lon="11.4744016"><ele>138.0</ele><time>2026-04-19T15:28:26.052Z</time></trkpt><trkpt lat="43.134972" lon="11.4746375"><ele>138.0</ele><time>2026-04-19T15:28:27.052Z</time></trkpt><trkpt lat="43.1350156" lon="11.4748602"><ele>138.0</ele><time>2026-04-19T15:28:28.052Z</time></trkpt><trkpt lat="43.1350569" lon="11.4750694"><ele>138.0</ele><time>2026-04-19T15:28:29.052Z</time></trkpt><trkpt lat="43.1350953" lon="11.4752591"><ele>138.0</ele><time>2026-04-19T15:28:30.052Z</time></trkpt><trkpt lat="43.1351398" lon="11.4754391"><ele>138.0</ele><time>2026-04-19T15:28:31.052Z</time></trkpt><trkpt lat="43.1351884" lon="11.4756228"><ele>138.0</ele><time>2026-04-19T15:28:32.052Z</time></trkpt><trkpt lat="43.1352381" lon="11.4758095"><ele>138.0</ele><time>2026-04-19T15:28:33.052Z</time></trkpt><trkpt lat="43.1352899" lon="11.4760052"><ele>138.0</ele><time>2026-04-19T15:28:34.052Z</time></trkpt><trkpt lat="43.1353432" lon="11.4762048"><ele>138.0</ele><time>2026-04-19T15:28:35.052Z</time></trkpt><trkpt lat="43.135391" lon="11.4763892"><ele>138.5</ele><time>2026-04-19T15:28:36.053Z</time></trkpt><trkpt lat="43.1354342" lon="11.4765668"><ele>139.0</ele><time>2026-04-19T15:28:37.052Z</time></trkpt><trkpt lat="43.1354753" lon="11.4767432"><ele>139.5</ele><time>2026-04-19T15:28:38.052Z</time></trkpt><trkpt lat="43.1355138" lon="11.4769241"><ele>140.0</ele><time>2026-04-19T15:28:39.052Z</time></trkpt><trkpt lat="43.1355527" lon="11.4771116"><ele>140.5</ele><time>2026-04-19T15:28:40.052Z</time></trkpt><trkpt lat="43.1355928" lon="11.4772951"><ele>141.0</ele><time>2026-04-19T15:28:41.052Z</time></trkpt><trkpt lat="43.1356264" lon="11.4774676"><ele>141.5</ele><time>2026-04-19T15:28:42.052Z</time></trkpt><trkpt lat="43.1356599" lon="11.4776319"><ele>142.0</ele><time>2026-04-19T15:28:43.052Z</time></trkpt><trkpt lat="43.1356907" lon="11.4777842"><ele>143.0</ele><time>2026-04-19T15:28:44.052Z</time></trkpt><trkpt lat="43.1357277" lon="11.4779528"><ele>144.0</ele><time>2026-04-19T15:28:45.052Z</time></trkpt><trkpt lat="43.1358021" lon="11.4782852"><ele>145.0</ele><time>2026-04-19T15:28:47.052Z</time></trkpt><trkpt lat="43.1358704" lon="11.4786265"><ele>144.75</ele><time>2026-04-19T15:28:49.052Z</time></trkpt><trkpt lat="43.1359048" lon="11.4788012"><ele>144.5</ele><time>2026-04-19T15:28:50.052Z</time></trkpt><trkpt lat="43.1359469" lon="11.4789905"><ele>144.25</ele><time>2026-04-19T15:28:51.052Z</time></trkpt><trkpt lat="43.1359884" lon="11.4791793"><ele>144.0</ele><time>2026-04-19T15:28:52.052Z</time></trkpt><trkpt lat="43.1360331" lon="11.4793509"><ele>144.0</ele><time>2026-04-19T15:28:53.052Z</time></trkpt><trkpt lat="43.1360732" lon="11.479519"><ele>144.0</ele><time>2026-04-19T15:28:54.052Z</time></trkpt><trkpt lat="43.1361129" lon="11.4796909"><ele>144.0</ele><time>2026-04-19T15:28:55.052Z</time></trkpt><trkpt lat="43.1361546" lon="11.4798596"><ele>144.0</ele><time>2026-04-19T15:28:56.052Z</time></trkpt><trkpt lat="43.1361986" lon="11.4800416"><ele>144.0</ele><time>2026-04-19T15:28:57.052Z</time></trkpt><trkpt lat="43.1362441" lon="11.480216"><ele>144.0</ele><time>2026-04-19T15:28:58.052Z</time></trkpt><trkpt lat="43.136292" lon="11.4803841"><ele>144.0</ele><time>2026-04-19T15:28:59.052Z</time></trkpt><trkpt lat="43.1363335" lon="11.4805425"><ele>144.0</ele><time>2026-04-19T15:29:00.053Z</time></trkpt><trkpt lat="43.1363714" lon="11.4806906"><ele>144.2</ele><time>2026-04-19T15:29:01.052Z</time></trkpt><trkpt lat="43.1364053" lon="11.4808246"><ele>144.4</ele><time>2026-04-19T15:29:02.052Z</time></trkpt><trkpt lat="43.13644" lon="11.4809485"><ele>144.6</ele><time>2026-04-19T15:29:03.053Z</time></trkpt><trkpt lat="43.1364734" lon="11.4810736"><ele>144.8</ele><time>2026-04-19T15:29:04.052Z</time></trkpt><trkpt lat="43.1365052" lon="11.4812014"><ele>145.0</ele><time>2026-04-19T15:29:05.052Z</time></trkpt><trkpt lat="43.1365399" lon="11.4813243"><ele>145.33333333333334</ele><time>2026-04-19T15:29:06.053Z</time></trkpt><trkpt lat="43.1365732" lon="11.4814377"><ele>145.66666666666669</ele><time>2026-04-19T15:29:07.053Z</time></trkpt><trkpt lat="43.1365984" lon="11.4815442"><ele>146.0</ele><time>2026-04-19T15:29:08.052Z</time></trkpt><trkpt lat="43.1366188" lon="11.4816365"><ele>146.33333333333334</ele><time>2026-04-19T15:29:09.052Z</time></trkpt><trkpt lat="43.1366371" lon="11.4817769"><ele>146.66666666666666</ele><time>2026-04-19T15:29:11.052Z</time></trkpt><trkpt lat="43.1366306" lon="11.4818704"><ele>147.0</ele><time>2026-04-19T15:29:17.052Z</time></trkpt><trkpt lat="43.1367002" lon="11.4818904"><ele>147.0</ele><time>2026-04-19T15:29:21.052Z</time></trkpt><trkpt lat="43.1366998" lon="11.4817884"><ele>147.0</ele><time>2026-04-19T15:29:25.052Z</time></trkpt><trkpt lat="43.1366584" lon="11.4816447"><ele>147.0</ele><time>2026-04-19T15:29:34.052Z</time></trkpt><trkpt lat="43.1366166" lon="11.4814874"><ele>147.0</ele><time>2026-04-19T15:29:36.053Z</time></trkpt><trkpt lat="43.1365868" lon="11.4814019"><ele>147.0</ele><time>2026-04-19T15:29:37.053Z</time></trkpt><trkpt lat="43.1365385" lon="11.4812328"><ele>146.66666666666666</ele><time>2026-04-19T15:29:39.052Z</time></trkpt><trkpt lat="43.1365217" lon="11.4811474"><ele>146.33333333333334</ele><time>2026-04-19T15:29:40.052Z</time></trkpt><trkpt lat="43.1365035" lon="11.4810575"><ele>146.0</ele><time>2026-04-19T15:29:41.052Z</time></trkpt><trkpt lat="43.1364743" lon="11.4809563"><ele>145.66666666666669</ele><time>2026-04-19T15:29:42.052Z</time></trkpt><trkpt lat="43.1364424" lon="11.4808542"><ele>145.33333333333334</ele><time>2026-04-19T15:29:43.053Z</time></trkpt><trkpt lat="43.1364123" lon="11.4807432"><ele>145.0</ele><time>2026-04-19T15:29:44.053Z</time></trkpt><trkpt lat="43.1363852" lon="11.4806219"><ele>145.0</ele><time>2026-04-19T15:29:45.052Z</time></trkpt><trkpt lat="43.136351" lon="11.4804883"><ele>145.0</ele><time>2026-04-19T15:29:46.052Z</time></trkpt><trkpt lat="43.136317" lon="11.480356"><ele>145.0</ele><time>2026-04-19T15:29:47.052Z</time></trkpt><trkpt lat="43.1362856" lon="11.4802162"><ele>145.0</ele><time>2026-04-19T15:29:48.052Z</time></trkpt><trkpt lat="43.13625" lon="11.4800745"><ele>145.0</ele><time>2026-04-19T15:29:49.052Z</time></trkpt><trkpt lat="43.1362096" lon="11.4799257"><ele>144.75</ele><time>2026-04-19T15:29:50.052Z</time></trkpt><trkpt lat="43.1361654" lon="11.4797665"><ele>144.5</ele><time>2026-04-19T15:29:51.053Z</time></trkpt><trkpt lat="43.136125" lon="11.4796104"><ele>144.25</ele><time>2026-04-19T15:29:52.052Z</time></trkpt><trkpt lat="43.1360831" lon="11.4794446"><ele>144.0</ele><time>2026-04-19T15:29:53.052Z</time></trkpt><trkpt lat="43.1360474" lon="11.4792863"><ele>144.0</ele><time>2026-04-19T15:29:54.052Z</time></trkpt><trkpt lat="43.136009" lon="11.479127"><ele>144.0</ele><time>2026-04-19T15:29:55.052Z</time></trkpt><trkpt lat="43.135972" lon="11.478966"><ele>144.0</ele><time>2026-04-19T15:29:56.052Z</time></trkpt><trkpt lat="43.1359349" lon="11.4788075"><ele>144.0</ele><time>2026-04-19T15:29:57.052Z</time></trkpt><trkpt lat="43.1358969" lon="11.4786441"><ele>144.25</ele><time>2026-04-19T15:29:58.052Z</time></trkpt><trkpt lat="43.1358569" lon="11.4784828"><ele>144.5</ele><time>2026-04-19T15:29:59.052Z</time></trkpt><trkpt lat="43.135821" lon="11.4783115"><ele>144.75</ele><time>2026-04-19T15:30:00.052Z</time></trkpt><trkpt lat="43.1357848" lon="11.4781359"><ele>145.0</ele><time>2026-04-19T15:30:01.053Z</time></trkpt><trkpt lat="43.1357431" lon="11.4779592"><ele>144.25</ele><time>2026-04-19T15:30:02.052Z</time></trkpt><trkpt lat="43.1357114" lon="11.4777853"><ele>143.5</ele><time>2026-04-19T15:30:03.052Z</time></trkpt><trkpt lat="43.1356781" lon="11.4776139"><ele>142.75</ele><time>2026-04-19T15:30:04.053Z</time></trkpt><trkpt lat="43.1356407" lon="11.4774419"><ele>142.0</ele><time>2026-04-19T15:30:05.052Z</time></trkpt><trkpt lat="43.1356008" lon="11.4772633"><ele>141.5</ele><time>2026-04-19T15:30:06.052Z</time></trkpt><trkpt lat="43.1355593" lon="11.4770738"><ele>141.0</ele><time>2026-04-19T15:30:07.053Z</time></trkpt><trkpt lat="43.1355164" lon="11.4768809"><ele>140.5</ele><time>2026-04-19T15:30:08.052Z</time></trkpt><trkpt lat="43.1354748" lon="11.4766903"><ele>140.0</ele><time>2026-04-19T15:30:09.052Z</time></trkpt><trkpt lat="43.1354286" lon="11.4764917"><ele>140.0</ele><time>2026-04-19T15:30:10.052Z</time></trkpt><trkpt lat="43.1353821" lon="11.4763019"><ele>140.0</ele><time>2026-04-19T15:30:11.052Z</time></trkpt><trkpt lat="43.1353344" lon="11.4761111"><ele>140.0</ele><time>2026-04-19T15:30:12.052Z</time></trkpt><trkpt lat="43.1352846" lon="11.4759239"><ele>140.0</ele><time>2026-04-19T15:30:13.052Z</time></trkpt><trkpt lat="43.1352353" lon="11.475733"><ele>139.33333333333331</ele><time>2026-04-19T15:30:14.052Z</time></trkpt><trkpt lat="43.1351879" lon="11.4755409"><ele>138.66666666666666</ele><time>2026-04-19T15:30:15.052Z</time></trkpt><trkpt lat="43.1351378" lon="11.4753424"><ele>138.0</ele><time>2026-04-19T15:30:16.052Z</time></trkpt><trkpt lat="43.1350897" lon="11.4751335"><ele>138.0</ele><time>2026-04-19T15:30:17.052Z</time></trkpt><trkpt lat="43.1350424" lon="11.4749089"><ele>138.0</ele><time>2026-04-19T15:30:18.053Z</time></trkpt><trkpt lat="43.1349918" lon="11.4746777"><ele>138.0</ele><time>2026-04-19T15:30:19.053Z</time></trkpt><trkpt lat="43.1349443" lon="11.4744516"><ele>138.0</ele><time>2026-04-19T15:30:20.053Z</time></trkpt><trkpt lat="43.1348947" lon="11.4742162"><ele>138.0</ele><time>2026-04-19T15:30:21.052Z</time></trkpt><trkpt lat="43.1348462" lon="11.4739763"><ele>138.0</ele><time>2026-04-19T15:30:22.052Z</time></trkpt><trkpt lat="43.1347996" lon="11.4737386"><ele>138.0</ele><time>2026-04-19T15:30:23.052Z</time></trkpt><trkpt lat="43.1347546" lon="11.4735006"><ele>138.0</ele><time>2026-04-19T15:30:24.053Z</time></trkpt><trkpt lat="43.1347079" lon="11.4732618"><ele>138.0</ele><time>2026-04-19T15:30:25.052Z</time></trkpt><trkpt lat="43.1346697" lon="11.473021"><ele>138.0</ele><time>2026-04-19T15:30:26.052Z</time></trkpt><trkpt lat="43.1346291" lon="11.4727767"><ele>138.0</ele><time>2026-04-19T15:30:27.052Z</time></trkpt><trkpt lat="43.1345798" lon="11.4725298"><ele>138.0</ele><time>2026-04-19T15:30:28.052Z</time></trkpt><trkpt lat="43.1345376" lon="11.4722857"><ele>138.0</ele><time>2026-04-19T15:30:29.053Z</time></trkpt><trkpt lat="43.1344897" lon="11.4720335"><ele>138.0</ele><time>2026-04-19T15:30:30.053Z</time></trkpt><trkpt lat="43.1344382" lon="11.4717806"><ele>138.0</ele><time>2026-04-19T15:30:31.053Z</time></trkpt><trkpt lat="43.1343897" lon="11.4715282"><ele>138.66666666666666</ele><time>2026-04-19T15:30:32.053Z</time></trkpt><trkpt lat="43.1343406" lon="11.4712713"><ele>139.33333333333331</ele><time>2026-04-19T15:30:33.052Z</time></trkpt><trkpt lat="43.1342953" lon="11.4710149"><ele>140.0</ele><time>2026-04-19T15:30:34.052Z</time></trkpt><trkpt lat="43.1342498" lon="11.4707653"><ele>140.0</ele><time>2026-04-19T15:30:35.052Z</time></trkpt><trkpt lat="43.1342044" lon="11.4705171"><ele>140.0</ele><time>2026-04-19T15:30:36.052Z</time></trkpt><trkpt lat="43.1341582" lon="11.4702729"><ele>140.0</ele><time>2026-04-19T15:30:37.053Z</time></trkpt><trkpt lat="43.1341106" lon="11.4700253"><ele>140.33333333333331</ele><time>2026-04-19T15:30:38.052Z</time></trkpt><trkpt lat="43.134065" lon="11.4697834"><ele>140.66666666666666</ele><time>2026-04-19T15:30:39.052Z</time></trkpt><trkpt lat="43.1340112" lon="11.4695385"><ele>141.0</ele><time>2026-04-19T15:30:40.052Z</time></trkpt><trkpt lat="43.1339646" lon="11.4692997"><ele>141.33333333333334</ele><time>2026-04-19T15:30:41.052Z</time></trkpt><trkpt lat="43.13392" lon="11.4690565"><ele>141.66666666666669</ele><time>2026-04-19T15:30:42.052Z</time></trkpt><trkpt lat="43.1338661" lon="11.4688107"><ele>142.0</ele><time>2026-04-19T15:30:43.052Z</time></trkpt><trkpt lat="43.1338187" lon="11.4685579"><ele>142.0</ele><time>2026-04-19T15:30:44.052Z</time></trkpt><trkpt lat="43.1337688" lon="11.4683076"><ele>142.0</ele><time>2026-04-19T15:30:45.052Z</time></trkpt><trkpt lat="43.1337188" lon="11.4680551"><ele>142.0</ele><time>2026-04-19T15:30:46.052Z</time></trkpt><trkpt lat="43.1336686" lon="11.4678028"><ele>142.0</ele><time>2026-04-19T15:30:47.052Z</time></trkpt><trkpt lat="43.1336252" lon="11.4675535"><ele>142.0</ele><time>2026-04-19T15:30:48.052Z</time></trkpt><trkpt lat="43.1335792" lon="11.467308"><ele>142.0</ele><time>2026-04-19T15:30:49.052Z</time></trkpt><trkpt lat="43.1335414" lon="11.4670804"><ele>142.33333333333334</ele><time>2026-04-19T15:30:50.052Z</time></trkpt><trkpt lat="43.1334999" lon="11.4668592"><ele>142.66666666666666</ele><time>2026-04-19T15:30:51.052Z</time></trkpt><trkpt lat="43.1334613" lon="11.4666434"><ele>143.0</ele><time>2026-04-19T15:30:52.052Z</time></trkpt><trkpt lat="43.1334191" lon="11.4664277"><ele>143.33333333333331</ele><time>2026-04-19T15:30:53.053Z</time></trkpt><trkpt lat="43.1333808" lon="11.4662159"><ele>143.66666666666666</ele><time>2026-04-19T15:30:54.052Z</time></trkpt><trkpt lat="43.1333422" lon="11.4660032"><ele>144.0</ele><time>2026-04-19T15:30:55.052Z</time></trkpt><trkpt lat="43.1333025" lon="11.4657845"><ele>144.0</ele><time>2026-04-19T15:30:56.052Z</time></trkpt><trkpt lat="43.1332634" lon="11.4655672"><ele>144.0</ele><time>2026-04-19T15:30:57.053Z</time></trkpt><trkpt lat="43.1332257" lon="11.4653431"><ele>144.0</ele><time>2026-04-19T15:30:58.052Z</time></trkpt><trkpt lat="43.1331894" lon="11.4651289"><ele>144.0</ele><time>2026-04-19T15:30:59.053Z</time></trkpt><trkpt lat="43.1331495" lon="11.4649211"><ele>144.0</ele><time>2026-04-19T15:31:00.052Z</time></trkpt><trkpt lat="43.13311" lon="11.4647065"><ele>144.0</ele><time>2026-04-19T15:31:01.052Z</time></trkpt><trkpt lat="43.133077" lon="11.464498"><ele>144.0</ele><time>2026-04-19T15:31:02.052Z</time></trkpt><trkpt lat="43.1330456" lon="11.4643048"><ele>144.0</ele><time>2026-04-19T15:31:03.052Z</time></trkpt><trkpt lat="43.1330021" lon="11.464126"><ele>144.0</ele><time>2026-04-19T15:31:04.052Z</time></trkpt><trkpt lat="43.1329512" lon="11.4639461"><ele>144.0</ele><time>2026-04-19T15:31:05.053Z</time></trkpt><trkpt lat="43.1328869" lon="11.4637731"><ele>144.33333333333334</ele><time>2026-04-19T15:31:06.052Z</time></trkpt><trkpt lat="43.1328058" lon="11.463598"><ele>144.66666666666669</ele><time>2026-04-19T15:31:07.052Z</time></trkpt><trkpt lat="43.1327219" lon="11.4634205"><ele>145.0</ele><time>2026-04-19T15:31:08.052Z</time></trkpt><trkpt lat="43.1326349" lon="11.4632351"><ele>145.0</ele><time>2026-04-19T15:31:09.052Z</time></trkpt><trkpt lat="43.1325532" lon="11.4630447"><ele>145.0</ele><time>2026-04-19T15:31:10.052Z</time></trkpt><trkpt lat="43.1324674" lon="11.4628488"><ele>145.0</ele><time>2026-04-19T15:31:11.052Z</time></trkpt><trkpt lat="43.1323921" lon="11.4626661"><ele>145.0</ele><time>2026-04-19T15:31:12.053Z</time></trkpt><trkpt lat="43.1323269" lon="11.4624912"><ele>145.0</ele><time>2026-04-19T15:31:13.053Z</time></trkpt><trkpt lat="43.1322687" lon="11.4623277"><ele>145.0</ele><time>2026-04-19T15:31:14.052Z</time></trkpt><trkpt lat="43.1322106" lon="11.4621773"><ele>145.0</ele><time>2026-04-19T15:31:15.052Z</time></trkpt><trkpt lat="43.1321509" lon="11.4620439"><ele>145.16666666666669</ele><time>2026-04-19T15:31:16.052Z</time></trkpt><trkpt lat="43.1320932" lon="11.4619252"><ele>145.33333333333334</ele><time>2026-04-19T15:31:17.052Z</time></trkpt><trkpt lat="43.1320417" lon="11.4618274"><ele>145.5</ele><time>2026-04-19T15:31:18.052Z</time></trkpt><trkpt lat="43.1319895" lon="11.461736"><ele>145.66666666666666</ele><time>2026-04-19T15:31:19.052Z</time></trkpt><trkpt lat="43.1319444" lon="11.4616556"><ele>145.83333333333331</ele><time>2026-04-19T15:31:20.052Z</time></trkpt><trkpt lat="43.1318782" lon="11.4616046"><ele>146.0</ele><time>2026-04-19T15:31:21.052Z</time></trkpt><trkpt lat="43.1318183" lon="11.4615777"><ele>146.0</ele><time>2026-04-19T15:31:22.053Z</time></trkpt><trkpt lat="43.131752" lon="11.4615612"><ele>146.0</ele><time>2026-04-19T15:31:23.052Z</time></trkpt><trkpt lat="43.131679" lon="11.4615498"><ele>146.0</ele><time>2026-04-19T15:31:24.053Z</time></trkpt><trkpt lat="43.1316022" lon="11.4615397"><ele>146.0</ele><time>2026-04-19T15:31:25.052Z</time></trkpt><trkpt lat="43.1315219" lon="11.4615224"><ele>146.0</ele><time>2026-04-19T15:31:26.053Z</time></trkpt><trkpt lat="43.1314395" lon="11.4614891"><ele>146.0</ele><time>2026-04-19T15:31:27.052Z</time></trkpt><trkpt lat="43.131361" lon="11.4614305"><ele>145.4</ele><time>2026-04-19T15:31:28.053Z</time></trkpt><trkpt lat="43.1312928" lon="11.4613483"><ele>144.8</ele><time>2026-04-19T15:31:29.052Z</time></trkpt><trkpt lat="43.1312254" lon="11.4612412"><ele>144.20000000000002</ele><time>2026-04-19T15:31:30.052Z</time></trkpt><trkpt lat="43.1311622" lon="11.4611242"><ele>143.6</ele><time>2026-04-19T15:31:31.053Z</time></trkpt><trkpt lat="43.1311031" lon="11.4610233"><ele>143.0</ele><time>2026-04-19T15:31:32.052Z</time></trkpt><trkpt lat="43.1310439" lon="11.4609369"><ele>143.0</ele><time>2026-04-19T15:31:33.052Z</time></trkpt><trkpt lat="43.1309791" lon="11.4608705"><ele>143.0</ele><time>2026-04-19T15:31:34.053Z</time></trkpt><trkpt lat="43.1309111" lon="11.4608339"><ele>143.0</ele><time>2026-04-19T15:31:35.052Z</time></trkpt><trkpt lat="43.1308276" lon="11.4608125"><ele>143.0</ele><time>2026-04-19T15:31:36.052Z</time></trkpt><trkpt lat="43.130748" lon="11.4607955"><ele>143.0</ele><time>2026-04-19T15:31:37.053Z</time></trkpt><trkpt lat="43.1306786" lon="11.4607676"><ele>143.0</ele><time>2026-04-19T15:31:38.052Z</time></trkpt><trkpt lat="43.1306156" lon="11.4607347"><ele>142.85714285714283</ele><time>2026-04-19T15:31:39.053Z</time></trkpt><trkpt lat="43.1305564" lon="11.4606887"><ele>142.71428571428572</ele><time>2026-04-19T15:31:40.052Z</time></trkpt><trkpt lat="43.1305097" lon="11.4606292"><ele>142.57142857142856</ele><time>2026-04-19T15:31:41.052Z</time></trkpt><trkpt lat="43.1304686" lon="11.4605604"><ele>142.42857142857142</ele><time>2026-04-19T15:31:42.052Z</time></trkpt><trkpt lat="43.1304407" lon="11.46048"><ele>142.28571428571428</ele><time>2026-04-19T15:31:43.052Z</time></trkpt><trkpt lat="43.1304142" lon="11.4603893"><ele>142.14285714285714</ele><time>2026-04-19T15:31:44.052Z</time></trkpt><trkpt lat="43.1303856" lon="11.4602822"><ele>142.0</ele><time>2026-04-19T15:31:45.052Z</time></trkpt><trkpt lat="43.1303584" lon="11.4601642"><ele>142.4</ele><time>2026-04-19T15:31:46.053Z</time></trkpt><trkpt lat="43.1303272" lon="11.4600311"><ele>142.79999999999998</ele><time>2026-04-19T15:31:47.052Z</time></trkpt><trkpt lat="43.1302922" lon="11.459894"><ele>143.2</ele><time>2026-04-19T15:31:48.052Z</time></trkpt><trkpt lat="43.1302571" lon="11.4597499"><ele>143.6</ele><time>2026-04-19T15:31:49.052Z</time></trkpt><trkpt lat="43.1302312" lon="11.4596171"><ele>144.0</ele><time>2026-04-19T15:31:50.052Z</time></trkpt><trkpt lat="43.1302042" lon="11.4594899"><ele>144.2</ele><time>2026-04-19T15:31:51.052Z</time></trkpt><trkpt lat="43.1301729" lon="11.4593579"><ele>144.4</ele><time>2026-04-19T15:31:52.052Z</time></trkpt><trkpt lat="43.1301531" lon="11.4592247"><ele>144.6</ele><time>2026-04-19T15:31:53.052Z</time></trkpt><trkpt lat="43.1301257" lon="11.4590862"><ele>144.8</ele><time>2026-04-19T15:31:54.052Z</time></trkpt><trkpt lat="43.1300977" lon="11.4589457"><ele>145.0</ele><time>2026-04-19T15:31:55.052Z</time></trkpt><trkpt lat="43.1300708" lon="11.458806"><ele>146.2</ele><time>2026-04-19T15:31:56.053Z</time></trkpt><trkpt lat="43.1300379" lon="11.4586779"><ele>147.4</ele><time>2026-04-19T15:31:57.052Z</time></trkpt><trkpt lat="43.1300087" lon="11.4585627"><ele>148.6</ele><time>2026-04-19T15:31:58.052Z</time></trkpt><trkpt lat="43.1299969" lon="11.4584666"><ele>149.8</ele><time>2026-04-19T15:31:59.052Z</time></trkpt><trkpt lat="43.1299938" lon="11.4583091"><ele>151.0</ele><time>2026-04-19T15:32:01.052Z</time></trkpt><trkpt lat="43.1299559" lon="11.4581448"><ele>151.0</ele><time>2026-04-19T15:32:03.053Z</time></trkpt><trkpt lat="43.1299044" lon="11.4580447"><ele>151.0</ele><time>2026-04-19T15:32:04.052Z</time></trkpt><trkpt lat="43.1298418" lon="11.4579245"><ele>151.0</ele><time>2026-04-19T15:32:05.052Z</time></trkpt><trkpt lat="43.1297647" lon="11.4577815"><ele>151.0</ele><time>2026-04-19T15:32:06.052Z</time></trkpt><trkpt lat="43.1296769" lon="11.4576336"><ele>153.5</ele><time>2026-04-19T15:32:07.052Z</time></trkpt><trkpt lat="43.1295899" lon="11.4574851"><ele>156.0</ele><time>2026-04-19T15:32:08.053Z</time></trkpt><trkpt lat="43.1294975" lon="11.4573301"><ele>158.5</ele><time>2026-04-19T15:32:09.052Z</time></trkpt><trkpt lat="43.1294065" lon="11.4571693"><ele>161.0</ele><time>2026-04-19T15:32:10.053Z</time></trkpt><trkpt lat="43.1293135" lon="11.4570075"><ele>161.66666666666666</ele><time>2026-04-19T15:32:11.052Z</time></trkpt><trkpt lat="43.1292173" lon="11.4568459"><ele>162.33333333333334</ele><time>2026-04-19T15:32:12.052Z</time></trkpt><trkpt lat="43.1291225" lon="11.4566727"><ele>163.0</ele><time>2026-04-19T15:32:13.052Z</time></trkpt><trkpt lat="43.1290278" lon="11.4565028"><ele>166.33333333333334</ele><time>2026-04-19T15:32:14.052Z</time></trkpt><trkpt lat="43.1289349" lon="11.4563384"><ele>169.66666666666666</ele><time>2026-04-19T15:32:15.053Z</time></trkpt><trkpt lat="43.1288447" lon="11.456177"><ele>173.0</ele><time>2026-04-19T15:32:16.052Z</time></trkpt><trkpt lat="43.1287547" lon="11.456012"><ele>173.5</ele><time>2026-04-19T15:32:17.052Z</time></trkpt><trkpt lat="43.1286649" lon="11.4558506"><ele>174.0</ele><time>2026-04-19T15:32:18.052Z</time></trkpt><trkpt lat="43.1285701" lon="11.4557006"><ele>174.5</ele><time>2026-04-19T15:32:19.052Z</time></trkpt><trkpt lat="43.1284596" lon="11.4555705"><ele>175.0</ele><time>2026-04-19T15:32:20.052Z</time></trkpt><trkpt lat="43.1283387" lon="11.455466"><ele>179.5</ele><time>2026-04-19T15:32:21.053Z</time></trkpt><trkpt lat="43.1282098" lon="11.4553837"><ele>184.0</ele><time>2026-04-19T15:32:22.052Z</time></trkpt><trkpt lat="43.1280761" lon="11.4553161"><ele>188.5</ele><time>2026-04-19T15:32:23.052Z</time></trkpt><trkpt lat="43.1279419" lon="11.4552543"><ele>193.0</ele><time>2026-04-19T15:32:24.052Z</time></trkpt><trkpt lat="43.1278034" lon="11.4551914"><ele>193.0</ele><time>2026-04-19T15:32:25.052Z</time></trkpt><trkpt lat="43.1276642" lon="11.4551278"><ele>193.0</ele><time>2026-04-19T15:32:26.052Z</time></trkpt><trkpt lat="43.1275222" lon="11.4550649"><ele>193.0</ele><time>2026-04-19T15:32:27.052Z</time></trkpt><trkpt lat="43.1273849" lon="11.454995"><ele>193.0</ele><time>2026-04-19T15:32:28.052Z</time></trkpt><trkpt lat="43.1272588" lon="11.4549101"><ele>195.75</ele><time>2026-04-19T15:32:29.052Z</time></trkpt><trkpt lat="43.127142" lon="11.4547996"><ele>198.5</ele><time>2026-04-19T15:32:30.052Z</time></trkpt><trkpt lat="43.1270443" lon="11.4546665"><ele>201.25</ele><time>2026-04-19T15:32:31.052Z</time></trkpt><trkpt lat="43.1269585" lon="11.4545123"><ele>204.0</ele><time>2026-04-19T15:32:32.052Z</time></trkpt><trkpt lat="43.1268885" lon="11.4543491"><ele>206.25</ele><time>2026-04-19T15:32:33.053Z</time></trkpt><trkpt lat="43.1268368" lon="11.4541661"><ele>208.5</ele><time>2026-04-19T15:32:34.052Z</time></trkpt><trkpt lat="43.1268019" lon="11.4539731"><ele>210.75</ele><time>2026-04-19T15:32:35.052Z</time></trkpt><trkpt lat="43.1267855" lon="11.4537717"><ele>213.0</ele><time>2026-04-19T15:32:36.052Z</time></trkpt><trkpt lat="43.1267773" lon="11.4535618"><ele>215.0</ele><time>2026-04-19T15:32:37.052Z</time></trkpt><trkpt lat="43.1267699" lon="11.4533521"><ele>217.0</ele><time>2026-04-19T15:32:38.053Z</time></trkpt><trkpt lat="43.1267644" lon="11.4531399"><ele>219.0</ele><time>2026-04-19T15:32:39.052Z</time></trkpt><trkpt lat="43.1267642" lon="11.4529295"><ele>220.0</ele><time>2026-04-19T15:32:40.052Z</time></trkpt><trkpt lat="43.126768" lon="11.4527182"><ele>221.0</ele><time>2026-04-19T15:32:41.052Z</time></trkpt><trkpt lat="43.1267671" lon="11.4525032"><ele>222.0</ele><time>2026-04-19T15:32:42.052Z</time></trkpt><trkpt lat="43.1267587" lon="11.4522865"><ele>223.0</ele><time>2026-04-19T15:32:43.052Z</time></trkpt><trkpt lat="43.1267443" lon="11.4520698"><ele>224.0</ele><time>2026-04-19T15:32:44.052Z</time></trkpt><trkpt lat="43.1267294" lon="11.4518551"><ele>225.0</ele><time>2026-04-19T15:32:45.053Z</time></trkpt><trkpt lat="43.1267081" lon="11.4516439"><ele>225.0</ele><time>2026-04-19T15:32:46.053Z</time></trkpt><trkpt lat="43.126675" lon="11.4514306"><ele>225.0</ele><time>2026-04-19T15:32:47.052Z</time></trkpt><trkpt lat="43.1266402" lon="11.4512289"><ele>225.0</ele><time>2026-04-19T15:32:48.052Z</time></trkpt><trkpt lat="43.1265819" lon="11.4510372"><ele>225.0</ele><time>2026-04-19T15:32:49.053Z</time></trkpt><trkpt lat="43.1265317" lon="11.4508571"><ele>225.0</ele><time>2026-04-19T15:32:50.052Z</time></trkpt><trkpt lat="43.1264855" lon="11.4506985"><ele>225.0</ele><time>2026-04-19T15:32:51.052Z</time></trkpt><trkpt lat="43.1264369" lon="11.4505478"><ele>225.0</ele><time>2026-04-19T15:32:52.052Z</time></trkpt><trkpt lat="43.1263905" lon="11.4503964"><ele>226.2</ele><time>2026-04-19T15:32:53.053Z</time></trkpt><trkpt lat="43.1263482" lon="11.450266"><ele>227.4</ele><time>2026-04-19T15:32:54.052Z</time></trkpt><trkpt lat="43.1263045" lon="11.4501275"><ele>228.60000000000002</ele><time>2026-04-19T15:32:55.053Z</time></trkpt><trkpt lat="43.1262657" lon="11.4499913"><ele>229.8</ele><time>2026-04-19T15:32:56.052Z</time></trkpt><trkpt lat="43.1262267" lon="11.4498539"><ele>231.0</ele><time>2026-04-19T15:32:57.052Z</time></trkpt><trkpt lat="43.1261865" lon="11.4497246"><ele>232.8</ele><time>2026-04-19T15:32:58.052Z</time></trkpt><trkpt lat="43.1261387" lon="11.4495983"><ele>234.60000000000002</ele><time>2026-04-19T15:32:59.052Z</time></trkpt><trkpt lat="43.1260833" lon="11.4494764"><ele>236.4</ele><time>2026-04-19T15:33:00.052Z</time></trkpt><trkpt lat="43.126018" lon="11.4493768"><ele>238.2</ele><time>2026-04-19T15:33:01.052Z</time></trkpt><trkpt lat="43.1259401" lon="11.4492954"><ele>240.0</ele><time>2026-04-19T15:33:02.052Z</time></trkpt><trkpt lat="43.1258602" lon="11.4492268"><ele>240.0</ele><time>2026-04-19T15:33:03.053Z</time></trkpt><trkpt lat="43.1257744" lon="11.4491752"><ele>240.0</ele><time>2026-04-19T15:33:04.052Z</time></trkpt><trkpt lat="43.1256879" lon="11.4491313"><ele>240.0</ele><time>2026-04-19T15:33:05.052Z</time></trkpt><trkpt lat="43.1255998" lon="11.4490937"><ele>240.0</ele><time>2026-04-19T15:33:06.053Z</time></trkpt><trkpt lat="43.125503" lon="11.4490575"><ele>240.0</ele><time>2026-04-19T15:33:07.052Z</time></trkpt><trkpt lat="43.1254052" lon="11.4490223"><ele>239.8</ele><time>2026-04-19T15:33:08.053Z</time></trkpt><trkpt lat="43.1253078" lon="11.44899"><ele>239.6</ele><time>2026-04-19T15:33:09.052Z</time></trkpt><trkpt lat="43.125214" lon="11.4489574"><ele>239.39999999999998</ele><time>2026-04-19T15:33:10.052Z</time></trkpt><trkpt lat="43.125125" lon="11.4489219"><ele>239.2</ele><time>2026-04-19T15:33:11.052Z</time></trkpt><trkpt lat="43.1250408" lon="11.4488861"><ele>239.0</ele><time>2026-04-19T15:33:12.053Z</time></trkpt><trkpt lat="43.1249596" lon="11.4488427"><ele>239.16666666666669</ele><time>2026-04-19T15:33:13.053Z</time></trkpt><trkpt lat="43.1248786" lon="11.4488045"><ele>239.33333333333334</ele><time>2026-04-19T15:33:14.052Z</time></trkpt><trkpt lat="43.1248005" lon="11.4487697"><ele>239.5</ele><time>2026-04-19T15:33:15.052Z</time></trkpt><trkpt lat="43.1247215" lon="11.4487564"><ele>239.66666666666669</ele><time>2026-04-19T15:33:16.052Z</time></trkpt><trkpt lat="43.1246481" lon="11.4487716"><ele>239.83333333333334</ele><time>2026-04-19T15:33:17.052Z</time></trkpt><trkpt lat="43.1245734" lon="11.4487966"><ele>240.0</ele><time>2026-04-19T15:33:18.052Z</time></trkpt><trkpt lat="43.1245177" lon="11.4488858"><ele>239.4</ele><time>2026-04-19T15:33:19.052Z</time></trkpt><trkpt lat="43.1244574" lon="11.4489634"><ele>238.8</ele><time>2026-04-19T15:33:20.052Z</time></trkpt><trkpt lat="43.1243978" lon="11.4490471"><ele>238.2</ele><time>2026-04-19T15:33:21.052Z</time></trkpt><trkpt lat="43.1243287" lon="11.4491244"><ele>237.6</ele><time>2026-04-19T15:33:22.053Z</time></trkpt><trkpt lat="43.1242363" lon="11.4491866"><ele>237.0</ele><time>2026-04-19T15:33:23.053Z</time></trkpt><trkpt lat="43.1241474" lon="11.4492185"><ele>236.25</ele><time>2026-04-19T15:33:24.052Z</time></trkpt><trkpt lat="43.1240423" lon="11.4492213"><ele>235.5</ele><time>2026-04-19T15:33:25.052Z</time></trkpt><trkpt lat="43.1239266" lon="11.4491905"><ele>234.75</ele><time>2026-04-19T15:33:26.052Z</time></trkpt><trkpt lat="43.1238046" lon="11.4491549"><ele>234.0</ele><time>2026-04-19T15:33:27.052Z</time></trkpt><trkpt lat="43.1236856" lon="11.4491207"><ele>234.0</ele><time>2026-04-19T15:33:28.052Z</time></trkpt><trkpt lat="43.1235667" lon="11.4490843"><ele>234.0</ele><time>2026-04-19T15:33:29.052Z</time></trkpt><trkpt lat="43.123432" lon="11.4490411"><ele>234.0</ele><time>2026-04-19T15:33:30.053Z</time></trkpt><trkpt lat="43.1233001" lon="11.4489987"><ele>234.0</ele><time>2026-04-19T15:33:31.052Z</time></trkpt><trkpt lat="43.1231759" lon="11.4489566"><ele>233.25</ele><time>2026-04-19T15:33:32.053Z</time></trkpt><trkpt lat="43.1230573" lon="11.4489146"><ele>232.5</ele><time>2026-04-19T15:33:33.052Z</time></trkpt><trkpt lat="43.1229432" lon="11.4488752"><ele>231.75</ele><time>2026-04-19T15:33:34.052Z</time></trkpt><trkpt lat="43.1228273" lon="11.4488413"><ele>231.0</ele><time>2026-04-19T15:33:35.053Z</time></trkpt><trkpt lat="43.1227101" lon="11.4488039"><ele>230.75</ele><time>2026-04-19T15:33:36.052Z</time></trkpt><trkpt lat="43.1225884" lon="11.4487583"><ele>230.5</ele><time>2026-04-19T15:33:37.052Z</time></trkpt><trkpt lat="43.122466" lon="11.4487164"><ele>230.25</ele><time>2026-04-19T15:33:38.053Z</time></trkpt><trkpt lat="43.1223385" lon="11.4486728"><ele>230.0</ele><time>2026-04-19T15:33:39.052Z</time></trkpt><trkpt lat="43.1222073" lon="11.4486246"><ele>228.5</ele><time>2026-04-19T15:33:40.052Z</time></trkpt><trkpt lat="43.1220783" lon="11.4485794"><ele>227.0</ele><time>2026-04-19T15:33:41.053Z</time></trkpt><trkpt lat="43.1219573" lon="11.4485336"><ele>225.5</ele><time>2026-04-19T15:33:42.052Z</time></trkpt><trkpt lat="43.1218388" lon="11.4484857"><ele>224.0</ele><time>2026-04-19T15:33:43.052Z</time></trkpt><trkpt lat="43.1217232" lon="11.4484387"><ele>224.0</ele><time>2026-04-19T15:33:44.052Z</time></trkpt><trkpt lat="43.1216137" lon="11.4483845"><ele>224.0</ele><time>2026-04-19T15:33:45.052Z</time></trkpt><trkpt lat="43.1215128" lon="11.4483137"><ele>224.0</ele><time>2026-04-19T15:33:46.052Z</time></trkpt><trkpt lat="43.1214183" lon="11.4482133"><ele>224.0</ele><time>2026-04-19T15:33:47.052Z</time></trkpt><trkpt lat="43.1213418" lon="11.4480816"><ele>222.25</ele><time>2026-04-19T15:33:48.052Z</time></trkpt><trkpt lat="43.1212754" lon="11.4479334"><ele>220.5</ele><time>2026-04-19T15:33:49.053Z</time></trkpt><trkpt lat="43.121217" lon="11.447777"><ele>218.75</ele><time>2026-04-19T15:33:50.052Z</time></trkpt><trkpt lat="43.121162" lon="11.4476102"><ele>217.0</ele><time>2026-04-19T15:33:51.052Z</time></trkpt><trkpt lat="43.1211068" lon="11.4474415"><ele>217.0</ele><time>2026-04-19T15:33:52.052Z</time></trkpt><trkpt lat="43.1210577" lon="11.4472766"><ele>217.0</ele><time>2026-04-19T15:33:53.052Z</time></trkpt><trkpt lat="43.1210105" lon="11.4471177"><ele>217.0</ele><time>2026-04-19T15:33:54.052Z</time></trkpt><trkpt lat="43.1209629" lon="11.446966"><ele>217.0</ele><time>2026-04-19T15:33:55.052Z</time></trkpt><trkpt lat="43.1209146" lon="11.4468169"><ele>216.2</ele><time>2026-04-19T15:33:56.052Z</time></trkpt><trkpt lat="43.1208698" lon="11.4466726"><ele>215.39999999999998</ele><time>2026-04-19T15:33:57.052Z</time></trkpt><trkpt lat="43.1208279" lon="11.4465326"><ele>214.60000000000002</ele><time>2026-04-19T15:33:58.052Z</time></trkpt><trkpt lat="43.1207799" lon="11.4463932"><ele>213.8</ele><time>2026-04-19T15:33:59.052Z</time></trkpt><trkpt lat="43.1207366" lon="11.4462645"><ele>213.0</ele><time>2026-04-19T15:34:00.052Z</time></trkpt><trkpt lat="43.120708" lon="11.4461119"><ele>212.5</ele><time>2026-04-19T15:34:01.052Z</time></trkpt><trkpt lat="43.1206952" lon="11.4459641"><ele>212.0</ele><time>2026-04-19T15:34:02.052Z</time></trkpt><trkpt lat="43.1207118" lon="11.4458085"><ele>211.5</ele><time>2026-04-19T15:34:03.052Z</time></trkpt><trkpt lat="43.1207469" lon="11.445653"><ele>211.0</ele><time>2026-04-19T15:34:04.052Z</time></trkpt><trkpt lat="43.1207886" lon="11.445501"><ele>211.0</ele><time>2026-04-19T15:34:05.052Z</time></trkpt><trkpt lat="43.1208326" lon="11.4453557"><ele>211.0</ele><time>2026-04-19T15:34:06.052Z</time></trkpt><trkpt lat="43.1208675" lon="11.4452085"><ele>211.0</ele><time>2026-04-19T15:34:07.052Z</time></trkpt><trkpt lat="43.1208849" lon="11.4450599"><ele>211.0</ele><time>2026-04-19T15:34:08.052Z</time></trkpt><trkpt lat="43.1208847" lon="11.4449141"><ele>211.0</ele><time>2026-04-19T15:34:09.053Z</time></trkpt><trkpt lat="43.1208827" lon="11.4447605"><ele>211.0</ele><time>2026-04-19T15:34:10.053Z</time></trkpt><trkpt lat="43.1207921" lon="11.4446683"><ele>211.0</ele><time>2026-04-19T15:34:11.052Z</time></trkpt><trkpt lat="43.1207182" lon="11.4445641"><ele>211.0</ele><time>2026-04-19T15:34:12.053Z</time></trkpt><trkpt lat="43.1206245" lon="11.444476"><ele>211.0</ele><time>2026-04-19T15:34:13.053Z</time></trkpt><trkpt lat="43.1205213" lon="11.4443923"><ele>209.25</ele><time>2026-04-19T15:34:14.052Z</time></trkpt><trkpt lat="43.1204137" lon="11.4443134"><ele>207.5</ele><time>2026-04-19T15:34:15.052Z</time></trkpt><trkpt lat="43.1203046" lon="11.4442461"><ele>205.75</ele><time>2026-04-19T15:34:16.052Z</time></trkpt><trkpt lat="43.1201954" lon="11.4441754"><ele>204.0</ele><time>2026-04-19T15:34:17.052Z</time></trkpt><trkpt lat="43.1200902" lon="11.4441043"><ele>204.0</ele><time>2026-04-19T15:34:18.053Z</time></trkpt><trkpt lat="43.1199864" lon="11.4440356"><ele>204.0</ele><time>2026-04-19T15:34:19.052Z</time></trkpt><trkpt lat="43.119877" lon="11.4439711"><ele>204.0</ele><time>2026-04-19T15:34:20.053Z</time></trkpt><trkpt lat="43.119774" lon="11.4439068"><ele>204.0</ele><time>2026-04-19T15:34:21.053Z</time></trkpt><trkpt lat="43.119671" lon="11.4438323"><ele>200.75</ele><time>2026-04-19T15:34:22.052Z</time></trkpt><trkpt lat="43.1195659" lon="11.4437725"><ele>197.5</ele><time>2026-04-19T15:34:23.052Z</time></trkpt><trkpt lat="43.1194675" lon="11.4436933"><ele>194.25</ele><time>2026-04-19T15:34:24.052Z</time></trkpt><trkpt lat="43.1193592" lon="11.443625"><ele>191.0</ele><time>2026-04-19T15:34:25.053Z</time></trkpt><trkpt lat="43.1192579" lon="11.4435494"><ele>191.0</ele><time>2026-04-19T15:34:26.053Z</time></trkpt><trkpt lat="43.1191588" lon="11.4434595"><ele>191.0</ele><time>2026-04-19T15:34:27.052Z</time></trkpt><trkpt lat="43.1190578" lon="11.4433839"><ele>191.0</ele><time>2026-04-19T15:34:28.052Z</time></trkpt><trkpt lat="43.1189572" lon="11.4432927"><ele>191.0</ele><time>2026-04-19T15:34:29.052Z</time></trkpt><trkpt lat="43.1188723" lon="11.4431903"><ele>190.20000000000002</ele><time>2026-04-19T15:34:30.052Z</time></trkpt><trkpt lat="43.1187927" lon="11.4430742"><ele>189.4</ele><time>2026-04-19T15:34:31.052Z</time></trkpt><trkpt lat="43.1187242" lon="11.4429805"><ele>188.6</ele><time>2026-04-19T15:34:32.053Z</time></trkpt><trkpt lat="43.1186569" lon="11.4428871"><ele>187.8</ele><time>2026-04-19T15:34:33.053Z</time></trkpt><trkpt lat="43.1185796" lon="11.4428103"><ele>187.0</ele><time>2026-04-19T15:34:34.052Z</time></trkpt><trkpt lat="43.1185069" lon="11.4427266"><ele>185.16666666666669</ele><time>2026-04-19T15:34:35.052Z</time></trkpt><trkpt lat="43.1184361" lon="11.4426631"><ele>183.33333333333334</ele><time>2026-04-19T15:34:36.053Z</time></trkpt><trkpt lat="43.1183593" lon="11.4426142"><ele>181.5</ele><time>2026-04-19T15:34:37.052Z</time></trkpt><trkpt lat="43.1182878" lon="11.4425507"><ele>179.66666666666666</ele><time>2026-04-19T15:34:38.052Z</time></trkpt><trkpt lat="43.118212" lon="11.442485"><ele>177.83333333333331</ele><time>2026-04-19T15:34:39.052Z</time></trkpt><trkpt lat="43.1181353" lon="11.4424206"><ele>176.0</ele><time>2026-04-19T15:34:40.053Z</time></trkpt><trkpt lat="43.1180531" lon="11.442353"><ele>176.0</ele><time>2026-04-19T15:34:41.052Z</time></trkpt><trkpt lat="43.1179724" lon="11.4422868"><ele>176.0</ele><time>2026-04-19T15:34:42.052Z</time></trkpt><trkpt lat="43.1178971" lon="11.4422272"><ele>176.0</ele><time>2026-04-19T15:34:43.052Z</time></trkpt><trkpt lat="43.1178182" lon="11.4421643"><ele>176.0</ele><time>2026-04-19T15:34:44.052Z</time></trkpt><trkpt lat="43.1177368" lon="11.4421051"><ele>176.0</ele><time>2026-04-19T15:34:45.052Z</time></trkpt><trkpt lat="43.1176646" lon="11.4420459"><ele>176.0</ele><time>2026-04-19T15:34:46.052Z</time></trkpt><trkpt lat="43.1175857" lon="11.4420033"><ele>174.16666666666666</ele><time>2026-04-19T15:34:47.052Z</time></trkpt><trkpt lat="43.1175106" lon="11.441966"><ele>172.33333333333331</ele><time>2026-04-19T15:34:48.053Z</time></trkpt><trkpt lat="43.1174241" lon="11.4419701"><ele>170.5</ele><time>2026-04-19T15:34:49.052Z</time></trkpt><trkpt lat="43.1173428" lon="11.441976"><ele>168.66666666666666</ele><time>2026-04-19T15:34:50.052Z</time></trkpt><trkpt lat="43.117262" lon="11.4420028"><ele>166.83333333333334</ele><time>2026-04-19T15:34:51.052Z</time></trkpt><trkpt lat="43.1171797" lon="11.4420471"><ele>165.0</ele><time>2026-04-19T15:34:52.053Z</time></trkpt><trkpt lat="43.1170905" lon="11.4420902"><ele>165.5</ele><time>2026-04-19T15:34:53.052Z</time></trkpt><trkpt lat="43.117011" lon="11.4421467"><ele>166.0</ele><time>2026-04-19T15:34:54.052Z</time></trkpt><trkpt lat="43.1169287" lon="11.4421954"><ele>166.5</ele><time>2026-04-19T15:34:55.052Z</time></trkpt><trkpt lat="43.116845" lon="11.4422346"><ele>167.0</ele><time>2026-04-19T15:34:56.053Z</time></trkpt><trkpt lat="43.11676" lon="11.4422578"><ele>167.5</ele><time>2026-04-19T15:34:57.052Z</time></trkpt><trkpt lat="43.1166733" lon="11.4422636"><ele>168.0</ele><time>2026-04-19T15:34:58.052Z</time></trkpt><trkpt lat="43.116591" lon="11.4422475"><ele>168.0</ele><time>2026-04-19T15:34:59.052Z</time></trkpt><trkpt lat="43.1165108" lon="11.4422091"><ele>168.0</ele><time>2026-04-19T15:35:00.053Z</time></trkpt><trkpt lat="43.1164381" lon="11.4421469"><ele>168.0</ele><time>2026-04-19T15:35:01.052Z</time></trkpt><trkpt lat="43.1163677" lon="11.4420629"><ele>168.0</ele><time>2026-04-19T15:35:02.052Z</time></trkpt><trkpt lat="43.1162969" lon="11.4419674"><ele>168.0</ele><time>2026-04-19T15:35:03.052Z</time></trkpt><trkpt lat="43.1162291" lon="11.4418792"><ele>166.20000000000002</ele><time>2026-04-19T15:35:04.052Z</time></trkpt><trkpt lat="43.1161591" lon="11.4417899"><ele>164.4</ele><time>2026-04-19T15:35:05.052Z</time></trkpt><trkpt lat="43.1160816" lon="11.4416967"><ele>162.60000000000002</ele><time>2026-04-19T15:35:06.052Z</time></trkpt><trkpt lat="43.1160053" lon="11.4416117"><ele>160.8</ele><time>2026-04-19T15:35:07.052Z</time></trkpt><trkpt lat="43.1159292" lon="11.4415394"><ele>159.0</ele><time>2026-04-19T15:35:08.053Z</time></trkpt><trkpt lat="43.1158577" lon="11.4414631"><ele>159.0</ele><time>2026-04-19T15:35:09.052Z</time></trkpt><trkpt lat="43.1157865" lon="11.4413862"><ele>159.0</ele><time>2026-04-19T15:35:10.052Z</time></trkpt><trkpt lat="43.115714" lon="11.4413198"><ele>159.0</ele><time>2026-04-19T15:35:11.052Z</time></trkpt><trkpt lat="43.1156312" lon="11.4412617"><ele>159.0</ele><time>2026-04-19T15:35:12.052Z</time></trkpt><trkpt lat="43.1155453" lon="11.4412325"><ele>159.0</ele><time>2026-04-19T15:35:13.052Z</time></trkpt><trkpt lat="43.1154605" lon="11.4412281"><ele>159.0</ele><time>2026-04-19T15:35:14.052Z</time></trkpt><trkpt lat="43.1153715" lon="11.4412368"><ele>157.6</ele><time>2026-04-19T15:35:15.052Z</time></trkpt><trkpt lat="43.1152758" lon="11.4412525"><ele>156.2</ele><time>2026-04-19T15:35:16.052Z</time></trkpt><trkpt lat="43.1151756" lon="11.4412726"><ele>154.79999999999998</ele><time>2026-04-19T15:35:17.052Z</time></trkpt><trkpt lat="43.1150746" lon="11.4412879"><ele>153.4</ele><time>2026-04-19T15:35:18.052Z</time></trkpt><trkpt lat="43.1149738" lon="11.4413034"><ele>152.0</ele><time>2026-04-19T15:35:19.053Z</time></trkpt><trkpt lat="43.1148678" lon="11.441307"><ele>149.79999999999998</ele><time>2026-04-19T15:35:20.052Z</time></trkpt><trkpt lat="43.1147677" lon="11.4413136"><ele>147.6</ele><time>2026-04-19T15:35:21.052Z</time></trkpt><trkpt lat="43.1146641" lon="11.4413137"><ele>145.39999999999998</ele><time>2026-04-19T15:35:22.052Z</time></trkpt><trkpt lat="43.1145613" lon="11.441316"><ele>143.2</ele><time>2026-04-19T15:35:23.052Z</time></trkpt><trkpt lat="43.1144616" lon="11.4413287"><ele>141.0</ele><time>2026-04-19T15:35:24.052Z</time></trkpt><trkpt lat="43.1143603" lon="11.441337"><ele>141.0</ele><time>2026-04-19T15:35:25.053Z</time></trkpt><trkpt lat="43.114254" lon="11.441342"><ele>141.0</ele><time>2026-04-19T15:35:26.052Z</time></trkpt><trkpt lat="43.1141482" lon="11.4413521"><ele>141.0</ele><time>2026-04-19T15:35:27.053Z</time></trkpt><trkpt lat="43.114039" lon="11.4413615"><ele>141.0</ele><time>2026-04-19T15:35:28.052Z</time></trkpt><trkpt lat="43.113923" lon="11.4413699"><ele>141.0</ele><time>2026-04-19T15:35:29.052Z</time></trkpt><trkpt lat="43.1138121" lon="11.4413746"><ele>140.25</ele><time>2026-04-19T15:35:30.052Z</time></trkpt><trkpt lat="43.1136978" lon="11.441384"><ele>139.5</ele><time>2026-04-19T15:35:31.052Z</time></trkpt><trkpt lat="43.1135825" lon="11.4414002"><ele>138.75</ele><time>2026-04-19T15:35:32.052Z</time></trkpt><trkpt lat="43.1134683" lon="11.4414152"><ele>138.0</ele><time>2026-04-19T15:35:33.052Z</time></trkpt><trkpt lat="43.1133512" lon="11.4414278"><ele>137.75</ele><time>2026-04-19T15:35:34.053Z</time></trkpt><trkpt lat="43.1132325" lon="11.4414346"><ele>137.5</ele><time>2026-04-19T15:35:35.052Z</time></trkpt><trkpt lat="43.1131136" lon="11.4414457"><ele>137.25</ele><time>2026-04-19T15:35:36.052Z</time></trkpt><trkpt lat="43.1129951" lon="11.4414638"><ele>137.0</ele><time>2026-04-19T15:35:37.052Z</time></trkpt><trkpt lat="43.1128757" lon="11.4414739"><ele>137.0</ele><time>2026-04-19T15:35:38.052Z</time></trkpt><trkpt lat="43.112759" lon="11.441491"><ele>137.0</ele><time>2026-04-19T15:35:39.052Z</time></trkpt><trkpt lat="43.112643" lon="11.4415027"><ele>137.0</ele><time>2026-04-19T15:35:40.052Z</time></trkpt><trkpt lat="43.1125262" lon="11.4415136"><ele>137.0</ele><time>2026-04-19T15:35:41.052Z</time></trkpt><trkpt lat="43.1124094" lon="11.4415252"><ele>136.75</ele><time>2026-04-19T15:35:42.052Z</time></trkpt><trkpt lat="43.1122971" lon="11.441537"><ele>136.5</ele><time>2026-04-19T15:35:43.053Z</time></trkpt><trkpt lat="43.1121812" lon="11.4415467"><ele>136.25</ele><time>2026-04-19T15:35:44.053Z</time></trkpt><trkpt lat="43.112065" lon="11.4415572"><ele>136.0</ele><time>2026-04-19T15:35:45.052Z</time></trkpt><trkpt lat="43.1119454" lon="11.4415665"><ele>136.0</ele><time>2026-04-19T15:35:46.052Z</time></trkpt><trkpt lat="43.1118308" lon="11.4415711"><ele>136.0</ele><time>2026-04-19T15:35:47.052Z</time></trkpt><trkpt lat="43.1117205" lon="11.4415795"><ele>136.0</ele><time>2026-04-19T15:35:48.052Z</time></trkpt><trkpt lat="43.1116123" lon="11.4415877"><ele>136.0</ele><time>2026-04-19T15:35:49.052Z</time></trkpt><trkpt lat="43.1115091" lon="11.4415951"><ele>136.0</ele><time>2026-04-19T15:35:50.052Z</time></trkpt><trkpt lat="43.1114137" lon="11.441607"><ele>135.8</ele><time>2026-04-19T15:35:51.052Z</time></trkpt><trkpt lat="43.1113186" lon="11.4416238"><ele>135.6</ele><time>2026-04-19T15:35:52.052Z</time></trkpt><trkpt lat="43.1112227" lon="11.4416464"><ele>135.4</ele><time>2026-04-19T15:35:53.053Z</time></trkpt><trkpt lat="43.1111193" lon="11.4416683"><ele>135.2</ele><time>2026-04-19T15:35:54.052Z</time></trkpt><trkpt lat="43.1110077" lon="11.4416852"><ele>135.0</ele><time>2026-04-19T15:35:55.053Z</time></trkpt><trkpt lat="43.1108913" lon="11.4417039"><ele>135.0</ele><time>2026-04-19T15:35:56.053Z</time></trkpt><trkpt lat="43.1107688" lon="11.441714"><ele>135.0</ele><time>2026-04-19T15:35:57.053Z</time></trkpt><trkpt lat="43.1106392" lon="11.4417217"><ele>135.0</ele><time>2026-04-19T15:35:58.052Z</time></trkpt><trkpt lat="43.1105151" lon="11.4417229"><ele>135.0</ele><time>2026-04-19T15:35:59.052Z</time></trkpt><trkpt lat="43.1103877" lon="11.4417242"><ele>134.5</ele><time>2026-04-19T15:36:00.052Z</time></trkpt><trkpt lat="43.1102646" lon="11.4417337"><ele>134.0</ele><time>2026-04-19T15:36:01.052Z</time></trkpt><trkpt lat="43.1101502" lon="11.4417492"><ele>133.5</ele><time>2026-04-19T15:36:02.052Z</time></trkpt><trkpt lat="43.11004" lon="11.4417834"><ele>133.0</ele><time>2026-04-19T15:36:03.053Z</time></trkpt><trkpt lat="43.1099252" lon="11.4418254"><ele>133.0</ele><time>2026-04-19T15:36:04.052Z</time></trkpt><trkpt lat="43.1098102" lon="11.4418702"><ele>133.0</ele><time>2026-04-19T15:36:05.052Z</time></trkpt><trkpt lat="43.1096934" lon="11.4419176"><ele>133.0</ele><time>2026-04-19T15:36:06.053Z</time></trkpt><trkpt lat="43.1095801" lon="11.4419673"><ele>133.0</ele><time>2026-04-19T15:36:07.053Z</time></trkpt><trkpt lat="43.1094674" lon="11.4420165"><ele>133.0</ele><time>2026-04-19T15:36:08.052Z</time></trkpt><trkpt lat="43.1093509" lon="11.4420558"><ele>133.0</ele><time>2026-04-19T15:36:09.053Z</time></trkpt><trkpt lat="43.1092354" lon="11.4420969"><ele>133.0</ele><time>2026-04-19T15:36:10.053Z</time></trkpt><trkpt lat="43.1091181" lon="11.4421321"><ele>133.0</ele><time>2026-04-19T15:36:11.052Z</time></trkpt><trkpt lat="43.1089993" lon="11.4421635"><ele>133.0</ele><time>2026-04-19T15:36:12.053Z</time></trkpt><trkpt lat="43.1088826" lon="11.4421941"><ele>133.0</ele><time>2026-04-19T15:36:13.053Z</time></trkpt><trkpt lat="43.1087627" lon="11.442226"><ele>133.0</ele><time>2026-04-19T15:36:14.053Z</time></trkpt><trkpt lat="43.1086468" lon="11.4422515"><ele>133.0</ele><time>2026-04-19T15:36:15.052Z</time></trkpt><trkpt lat="43.1085426" lon="11.4422719"><ele>133.0</ele><time>2026-04-19T15:36:16.052Z</time></trkpt><trkpt lat="43.1084474" lon="11.4422928"><ele>133.0</ele><time>2026-04-19T15:36:17.052Z</time></trkpt><trkpt lat="43.108357" lon="11.4423086"><ele>133.0</ele><time>2026-04-19T15:36:18.053Z</time></trkpt><trkpt lat="43.1082661" lon="11.4423295"><ele>133.0</ele><time>2026-04-19T15:36:19.053Z</time></trkpt><trkpt lat="43.1081766" lon="11.4423457"><ele>133.0</ele><time>2026-04-19T15:36:20.052Z</time></trkpt><trkpt lat="43.1080836" lon="11.4423673"><ele>133.16666666666669</ele><time>2026-04-19T15:36:21.052Z</time></trkpt><trkpt lat="43.1079934" lon="11.4423892"><ele>133.33333333333334</ele><time>2026-04-19T15:36:22.052Z</time></trkpt><trkpt lat="43.107905" lon="11.4424049"><ele>133.5</ele><time>2026-04-19T15:36:23.052Z</time></trkpt><trkpt lat="43.1078194" lon="11.4424213"><ele>133.66666666666666</ele><time>2026-04-19T15:36:24.052Z</time></trkpt><trkpt lat="43.1077329" lon="11.4424333"><ele>133.83333333333331</ele><time>2026-04-19T15:36:25.052Z</time></trkpt><trkpt lat="43.1076525" lon="11.4424381"><ele>134.0</ele><time>2026-04-19T15:36:26.053Z</time></trkpt><trkpt lat="43.1075718" lon="11.4424299"><ele>134.0</ele><time>2026-04-19T15:36:27.053Z</time></trkpt><trkpt lat="43.1074925" lon="11.4424027"><ele>134.0</ele><time>2026-04-19T15:36:28.052Z</time></trkpt><trkpt lat="43.1074091" lon="11.4423589"><ele>134.0</ele><time>2026-04-19T15:36:29.052Z</time></trkpt><trkpt lat="43.1073331" lon="11.4422913"><ele>134.0</ele><time>2026-04-19T15:36:30.052Z</time></trkpt><trkpt lat="43.1072596" lon="11.4422023"><ele>134.0</ele><time>2026-04-19T15:36:31.052Z</time></trkpt><trkpt lat="43.1071854" lon="11.4420999"><ele>133.4</ele><time>2026-04-19T15:36:32.053Z</time></trkpt><trkpt lat="43.1071134" lon="11.4419946"><ele>132.8</ele><time>2026-04-19T15:36:33.052Z</time></trkpt><trkpt lat="43.1070429" lon="11.4418889"><ele>132.2</ele><time>2026-04-19T15:36:34.052Z</time></trkpt><trkpt lat="43.1069737" lon="11.4417841"><ele>131.6</ele><time>2026-04-19T15:36:35.052Z</time></trkpt><trkpt lat="43.1068925" lon="11.4416651"><ele>131.0</ele><time>2026-04-19T15:36:36.053Z</time></trkpt><trkpt lat="43.1068142" lon="11.4415567"><ele>131.0</ele><time>2026-04-19T15:36:37.052Z</time></trkpt><trkpt lat="43.1067343" lon="11.4414478"><ele>131.0</ele><time>2026-04-19T15:36:38.052Z</time></trkpt><trkpt lat="43.1066522" lon="11.4413272"><ele>131.0</ele><time>2026-04-19T15:36:39.052Z</time></trkpt><trkpt lat="43.106569" lon="11.4412017"><ele>131.0</ele><time>2026-04-19T15:36:40.052Z</time></trkpt><trkpt lat="43.1064841" lon="11.4410744"><ele>131.0</ele><time>2026-04-19T15:36:41.053Z</time></trkpt><trkpt lat="43.1063962" lon="11.4409477"><ele>131.0</ele><time>2026-04-19T15:36:42.053Z</time></trkpt><trkpt lat="43.1063099" lon="11.4408258"><ele>131.0</ele><time>2026-04-19T15:36:43.052Z</time></trkpt><trkpt lat="43.106223" lon="11.4407026"><ele>131.0</ele><time>2026-04-19T15:36:44.052Z</time></trkpt><trkpt lat="43.1061364" lon="11.4405819"><ele>131.0</ele><time>2026-04-19T15:36:45.053Z</time></trkpt><trkpt lat="43.1060513" lon="11.4404615"><ele>131.0</ele><time>2026-04-19T15:36:46.052Z</time></trkpt><trkpt lat="43.105967" lon="11.4403468"><ele>131.0</ele><time>2026-04-19T15:36:47.052Z</time></trkpt><trkpt lat="43.1058789" lon="11.4402308"><ele>131.0</ele><time>2026-04-19T15:36:48.052Z</time></trkpt><trkpt lat="43.1057901" lon="11.4401153"><ele>130.75</ele><time>2026-04-19T15:36:49.053Z</time></trkpt><trkpt lat="43.1056991" lon="11.4399995"><ele>130.5</ele><time>2026-04-19T15:36:50.052Z</time></trkpt><trkpt lat="43.1056077" lon="11.4398839"><ele>130.25</ele><time>2026-04-19T15:36:51.052Z</time></trkpt><trkpt lat="43.1055199" lon="11.4397744"><ele>130.0</ele><time>2026-04-19T15:36:52.052Z</time></trkpt><trkpt lat="43.1054313" lon="11.4396638"><ele>129.75</ele><time>2026-04-19T15:36:53.052Z</time></trkpt><trkpt lat="43.1053464" lon="11.4395493"><ele>129.5</ele><time>2026-04-19T15:36:54.053Z</time></trkpt><trkpt lat="43.1052654" lon="11.4394256"><ele>129.25</ele><time>2026-04-19T15:36:55.053Z</time></trkpt><trkpt lat="43.1051874" lon="11.4392936"><ele>129.0</ele><time>2026-04-19T15:36:56.052Z</time></trkpt><trkpt lat="43.1051089" lon="11.4391638"><ele>129.0</ele><time>2026-04-19T15:36:57.052Z</time></trkpt><trkpt lat="43.1050302" lon="11.4390259"><ele>129.0</ele><time>2026-04-19T15:36:58.052Z</time></trkpt><trkpt lat="43.1049499" lon="11.438891"><ele>129.0</ele><time>2026-04-19T15:36:59.052Z</time></trkpt><trkpt lat="43.1048658" lon="11.4387581"><ele>129.0</ele><time>2026-04-19T15:37:00.052Z</time></trkpt><trkpt lat="43.1047755" lon="11.438631"><ele>129.5</ele><time>2026-04-19T15:37:01.053Z</time></trkpt><trkpt lat="43.1046885" lon="11.4385053"><ele>130.0</ele><time>2026-04-19T15:37:02.053Z</time></trkpt><trkpt lat="43.1046043" lon="11.4383786"><ele>130.5</ele><time>2026-04-19T15:37:03.053Z</time></trkpt><trkpt lat="43.1045175" lon="11.4382509"><ele>131.0</ele><time>2026-04-19T15:37:04.052Z</time></trkpt><trkpt lat="43.1044319" lon="11.4381272"><ele>131.0</ele><time>2026-04-19T15:37:05.052Z</time></trkpt><trkpt lat="43.1043467" lon="11.4380069"><ele>131.0</ele><time>2026-04-19T15:37:06.052Z</time></trkpt><trkpt lat="43.1042649" lon="11.4378896"><ele>131.0</ele><time>2026-04-19T15:37:07.052Z</time></trkpt><trkpt lat="43.1041799" lon="11.4377723"><ele>131.0</ele><time>2026-04-19T15:37:08.052Z</time></trkpt><trkpt lat="43.104095" lon="11.4376567"><ele>131.25</ele><time>2026-04-19T15:37:09.053Z</time></trkpt><trkpt lat="43.104005" lon="11.4375392"><ele>131.5</ele><time>2026-04-19T15:37:10.052Z</time></trkpt><trkpt lat="43.1039149" lon="11.4374135"><ele>131.75</ele><time>2026-04-19T15:37:11.053Z</time></trkpt><trkpt lat="43.1038231" lon="11.4372889"><ele>132.0</ele><time>2026-04-19T15:37:12.053Z</time></trkpt><trkpt lat="43.1037324" lon="11.4371613"><ele>132.5</ele><time>2026-04-19T15:37:13.053Z</time></trkpt><trkpt lat="43.1036513" lon="11.4370473"><ele>133.0</ele><time>2026-04-19T15:37:14.052Z</time></trkpt><trkpt lat="43.1035782" lon="11.4369413"><ele>133.5</ele><time>2026-04-19T15:37:15.052Z</time></trkpt><trkpt lat="43.1034972" lon="11.436831"><ele>134.0</ele><time>2026-04-19T15:37:16.052Z</time></trkpt><trkpt lat="43.1034146" lon="11.4367191"><ele>134.0</ele><time>2026-04-19T15:37:17.053Z</time></trkpt><trkpt lat="43.1033323" lon="11.4366038"><ele>134.0</ele><time>2026-04-19T15:37:18.053Z</time></trkpt><trkpt lat="43.1032465" lon="11.4364774"><ele>134.0</ele><time>2026-04-19T15:37:19.053Z</time></trkpt><trkpt lat="43.1031598" lon="11.4363591"><ele>134.0</ele><time>2026-04-19T15:37:20.052Z</time></trkpt><trkpt lat="43.1030725" lon="11.4362403"><ele>134.5</ele><time>2026-04-19T15:37:21.052Z</time></trkpt><trkpt lat="43.1029828" lon="11.4361259"><ele>135.0</ele><time>2026-04-19T15:37:22.053Z</time></trkpt><trkpt lat="43.1028921" lon="11.4360039"><ele>135.5</ele><time>2026-04-19T15:37:23.053Z</time></trkpt><trkpt lat="43.1028075" lon="11.4358834"><ele>136.0</ele><time>2026-04-19T15:37:24.052Z</time></trkpt><trkpt lat="43.1027195" lon="11.4357548"><ele>136.0</ele><time>2026-04-19T15:37:25.052Z</time></trkpt><trkpt lat="43.1026349" lon="11.4356336"><ele>136.0</ele><time>2026-04-19T15:37:26.052Z</time></trkpt><trkpt lat="43.1025487" lon="11.4355065"><ele>136.0</ele><time>2026-04-19T15:37:27.052Z</time></trkpt><trkpt lat="43.1024657" lon="11.4353859"><ele>136.0</ele><time>2026-04-19T15:37:28.052Z</time></trkpt><trkpt lat="43.1023904" lon="11.4352628"><ele>136.6</ele><time>2026-04-19T15:37:29.052Z</time></trkpt><trkpt lat="43.1023189" lon="11.4351374"><ele>137.2</ele><time>2026-04-19T15:37:30.052Z</time></trkpt><trkpt lat="43.1022547" lon="11.4350136"><ele>137.8</ele><time>2026-04-19T15:37:31.052Z</time></trkpt><trkpt lat="43.1022131" lon="11.4348755"><ele>138.4</ele><time>2026-04-19T15:37:32.052Z</time></trkpt><trkpt lat="43.1021887" lon="11.4347287"><ele>139.0</ele><time>2026-04-19T15:37:33.052Z</time></trkpt><trkpt lat="43.1021831" lon="11.4345769"><ele>140.5</ele><time>2026-04-19T15:37:34.052Z</time></trkpt><trkpt lat="43.1021984" lon="11.4344274"><ele>142.0</ele><time>2026-04-19T15:37:35.053Z</time></trkpt><trkpt lat="43.1022243" lon="11.4342648"><ele>143.5</ele><time>2026-04-19T15:37:36.052Z</time></trkpt><trkpt lat="43.1022558" lon="11.4340928"><ele>145.0</ele><time>2026-04-19T15:37:37.053Z</time></trkpt><trkpt lat="43.1022794" lon="11.4339367"><ele>146.0</ele><time>2026-04-19T15:37:38.052Z</time></trkpt><trkpt lat="43.1023007" lon="11.433791"><ele>147.0</ele><time>2026-04-19T15:37:39.053Z</time></trkpt><trkpt lat="43.102314" lon="11.4336475"><ele>148.0</ele><time>2026-04-19T15:37:40.052Z</time></trkpt><trkpt lat="43.1023175" lon="11.4335088"><ele>149.0</ele><time>2026-04-19T15:37:41.052Z</time></trkpt><trkpt lat="43.102312" lon="11.4333697"><ele>150.0</ele><time>2026-04-19T15:37:42.052Z</time></trkpt><trkpt lat="43.1022986" lon="11.4332352"><ele>150.0</ele><time>2026-04-19T15:37:43.053Z</time></trkpt><trkpt lat="43.1022783" lon="11.4331132"><ele>150.0</ele><time>2026-04-19T15:37:44.052Z</time></trkpt><trkpt lat="43.1022548" lon="11.4330053"><ele>150.0</ele><time>2026-04-19T15:37:45.052Z</time></trkpt><trkpt lat="43.1022208" lon="11.4328997"><ele>150.0</ele><time>2026-04-19T15:37:46.052Z</time></trkpt><trkpt lat="43.1021733" lon="11.4327968"><ele>150.0</ele><time>2026-04-19T15:37:47.052Z</time></trkpt><trkpt lat="43.1021169" lon="11.4326967"><ele>150.0</ele><time>2026-04-19T15:37:48.052Z</time></trkpt><trkpt lat="43.10205" lon="11.4326106"><ele>150.4</ele><time>2026-04-19T15:37:49.052Z</time></trkpt><trkpt lat="43.1019688" lon="11.4325407"><ele>150.8</ele><time>2026-04-19T15:37:50.052Z</time></trkpt><trkpt lat="43.1018782" lon="11.4324922"><ele>151.2</ele><time>2026-04-19T15:37:51.053Z</time></trkpt><trkpt lat="43.1017795" lon="11.4324625"><ele>151.6</ele><time>2026-04-19T15:37:52.052Z</time></trkpt><trkpt lat="43.1016793" lon="11.4324568"><ele>152.0</ele><time>2026-04-19T15:37:53.052Z</time></trkpt><trkpt lat="43.1015596" lon="11.4324409"><ele>152.0</ele><time>2026-04-19T15:37:54.052Z</time></trkpt><trkpt lat="43.1014375" lon="11.4324318"><ele>152.0</ele><time>2026-04-19T15:37:55.052Z</time></trkpt><trkpt lat="43.1013256" lon="11.4324176"><ele>152.0</ele><time>2026-04-19T15:37:56.052Z</time></trkpt><trkpt lat="43.1012051" lon="11.4324139"><ele>152.0</ele><time>2026-04-19T15:37:57.053Z</time></trkpt><trkpt lat="43.101084" lon="11.4324059"><ele>152.0</ele><time>2026-04-19T15:37:58.052Z</time></trkpt><trkpt lat="43.1009541" lon="11.4323975"><ele>152.0</ele><time>2026-04-19T15:37:59.052Z</time></trkpt><trkpt lat="43.1008273" lon="11.4323884"><ele>152.0</ele><time>2026-04-19T15:38:00.052Z</time></trkpt><trkpt lat="43.1006925" lon="11.4323723"><ele>152.0</ele><time>2026-04-19T15:38:01.052Z</time></trkpt><trkpt lat="43.1005559" lon="11.4323586"><ele>153.5</ele><time>2026-04-19T15:38:02.053Z</time></trkpt><trkpt lat="43.1004278" lon="11.4323474"><ele>155.0</ele><time>2026-04-19T15:38:03.053Z</time></trkpt><trkpt lat="43.1002988" lon="11.4323345"><ele>156.5</ele><time>2026-04-19T15:38:04.052Z</time></trkpt><trkpt lat="43.1001711" lon="11.4323207"><ele>158.0</ele><time>2026-04-19T15:38:05.052Z</time></trkpt><trkpt lat="43.1000433" lon="11.4323128"><ele>158.75</ele><time>2026-04-19T15:38:06.053Z</time></trkpt><trkpt lat="43.0999119" lon="11.432302"><ele>159.5</ele><time>2026-04-19T15:38:07.052Z</time></trkpt><trkpt lat="43.0997733" lon="11.4322861"><ele>160.25</ele><time>2026-04-19T15:38:08.052Z</time></trkpt><trkpt lat="43.0996477" lon="11.4322695"><ele>161.0</ele><time>2026-04-19T15:38:09.052Z</time></trkpt><trkpt lat="43.099509" lon="11.4322571"><ele>161.0</ele><time>2026-04-19T15:38:10.053Z</time></trkpt><trkpt lat="43.0993746" lon="11.4322441"><ele>161.0</ele><time>2026-04-19T15:38:11.052Z</time></trkpt><trkpt lat="43.0992448" lon="11.4322333"><ele>161.0</ele><time>2026-04-19T15:38:12.052Z</time></trkpt><trkpt lat="43.0991135" lon="11.4322229"><ele>161.0</ele><time>2026-04-19T15:38:13.052Z</time></trkpt><trkpt lat="43.0989826" lon="11.4322042"><ele>160.0</ele><time>2026-04-19T15:38:14.053Z</time></trkpt><trkpt lat="43.0988524" lon="11.4321809"><ele>159.0</ele><time>2026-04-19T15:38:15.053Z</time></trkpt><trkpt lat="43.0987243" lon="11.4321497"><ele>158.0</ele><time>2026-04-19T15:38:16.052Z</time></trkpt><trkpt lat="43.0986069" lon="11.4320971"><ele>157.0</ele><time>2026-04-19T15:38:17.052Z</time></trkpt><trkpt lat="43.0984941" lon="11.4320251"><ele>158.5</ele><time>2026-04-19T15:38:18.052Z</time></trkpt><trkpt lat="43.0983883" lon="11.4319363"><ele>160.0</ele><time>2026-04-19T15:38:19.052Z</time></trkpt><trkpt lat="43.0982823" lon="11.4318525"><ele>161.5</ele><time>2026-04-19T15:38:20.052Z</time></trkpt><trkpt lat="43.0981792" lon="11.4317661"><ele>163.0</ele><time>2026-04-19T15:38:21.052Z</time></trkpt><trkpt lat="43.0980722" lon="11.431676"><ele>163.0</ele><time>2026-04-19T15:38:22.052Z</time></trkpt><trkpt lat="43.0979701" lon="11.431579"><ele>163.0</ele><time>2026-04-19T15:38:23.052Z</time></trkpt><trkpt lat="43.0978631" lon="11.4314838"><ele>163.0</ele><time>2026-04-19T15:38:24.052Z</time></trkpt><trkpt lat="43.0977599" lon="11.4313904"><ele>163.0</ele><time>2026-04-19T15:38:25.052Z</time></trkpt><trkpt lat="43.0976492" lon="11.431289"><ele>164.0</ele><time>2026-04-19T15:38:26.053Z</time></trkpt><trkpt lat="43.0975446" lon="11.4311961"><ele>165.0</ele><time>2026-04-19T15:38:27.052Z</time></trkpt><trkpt lat="43.0974407" lon="11.431108"><ele>166.0</ele><time>2026-04-19T15:38:28.052Z</time></trkpt><trkpt lat="43.0973337" lon="11.4310199"><ele>167.0</ele><time>2026-04-19T15:38:29.053Z</time></trkpt><trkpt lat="43.097226" lon="11.4309346"><ele>167.0</ele><time>2026-04-19T15:38:30.053Z</time></trkpt><trkpt lat="43.0971206" lon="11.4308463"><ele>167.0</ele><time>2026-04-19T15:38:31.052Z</time></trkpt><trkpt lat="43.0970123" lon="11.4307657"><ele>167.0</ele><time>2026-04-19T15:38:32.053Z</time></trkpt><trkpt lat="43.0969026" lon="11.4306701"><ele>167.0</ele><time>2026-04-19T15:38:33.052Z</time></trkpt><trkpt lat="43.0967962" lon="11.4305713"><ele>168.0</ele><time>2026-04-19T15:38:34.052Z</time></trkpt><trkpt lat="43.0966983" lon="11.4304644"><ele>169.0</ele><time>2026-04-19T15:38:35.053Z</time></trkpt><trkpt lat="43.0966019" lon="11.4303466"><ele>170.0</ele><time>2026-04-19T15:38:36.052Z</time></trkpt><trkpt lat="43.0965051" lon="11.4302283"><ele>171.0</ele><time>2026-04-19T15:38:37.052Z</time></trkpt><trkpt lat="43.0964056" lon="11.4301111"><ele>171.0</ele><time>2026-04-19T15:38:38.052Z</time></trkpt><trkpt lat="43.0963074" lon="11.4299927"><ele>171.0</ele><time>2026-04-19T15:38:39.052Z</time></trkpt><trkpt lat="43.0962082" lon="11.4298758"><ele>171.0</ele><time>2026-04-19T15:38:40.052Z</time></trkpt><trkpt lat="43.0961112" lon="11.4297703"><ele>171.0</ele><time>2026-04-19T15:38:41.052Z</time></trkpt><trkpt lat="43.0960064" lon="11.4296682"><ele>172.0</ele><time>2026-04-19T15:38:42.052Z</time></trkpt><trkpt lat="43.0958989" lon="11.4295686"><ele>173.0</ele><time>2026-04-19T15:38:43.052Z</time></trkpt><trkpt lat="43.0957754" lon="11.4294737"><ele>174.0</ele><time>2026-04-19T15:38:44.052Z</time></trkpt><trkpt lat="43.09565" lon="11.4293761"><ele>175.0</ele><time>2026-04-19T15:38:45.052Z</time></trkpt><trkpt lat="43.0955245" lon="11.4292742"><ele>176.0</ele><time>2026-04-19T15:38:46.052Z</time></trkpt><trkpt lat="43.0954018" lon="11.4291884"><ele>177.0</ele><time>2026-04-19T15:38:47.052Z</time></trkpt><trkpt lat="43.0952795" lon="11.4291039"><ele>178.0</ele><time>2026-04-19T15:38:48.052Z</time></trkpt><trkpt lat="43.0951622" lon="11.4290167"><ele>179.0</ele><time>2026-04-19T15:38:49.052Z</time></trkpt><trkpt lat="43.0950523" lon="11.4289403"><ele>179.0</ele><time>2026-04-19T15:38:50.052Z</time></trkpt><trkpt lat="43.0949404" lon="11.4288626"><ele>179.0</ele><time>2026-04-19T15:38:51.053Z</time></trkpt><trkpt lat="43.0948324" lon="11.4287788"><ele>179.0</ele><time>2026-04-19T15:38:52.052Z</time></trkpt><trkpt lat="43.0947146" lon="11.4286963"><ele>179.0</ele><time>2026-04-19T15:38:53.052Z</time></trkpt><trkpt lat="43.0946026" lon="11.4286188"><ele>180.75</ele><time>2026-04-19T15:38:54.052Z</time></trkpt><trkpt lat="43.0944942" lon="11.4285397"><ele>182.5</ele><time>2026-04-19T15:38:55.053Z</time></trkpt><trkpt lat="43.0943919" lon="11.4284618"><ele>184.25</ele><time>2026-04-19T15:38:56.053Z</time></trkpt><trkpt lat="43.0942859" lon="11.4283835"><ele>186.0</ele><time>2026-04-19T15:38:57.052Z</time></trkpt><trkpt lat="43.0941782" lon="11.4283041"><ele>186.5</ele><time>2026-04-19T15:38:58.052Z</time></trkpt><trkpt lat="43.094068" lon="11.4282248"><ele>187.0</ele><time>2026-04-19T15:38:59.052Z</time></trkpt><trkpt lat="43.0939691" lon="11.4281496"><ele>187.5</ele><time>2026-04-19T15:39:00.053Z</time></trkpt><trkpt lat="43.0938629" lon="11.4280688"><ele>188.0</ele><time>2026-04-19T15:39:01.052Z</time></trkpt><trkpt lat="43.0937596" lon="11.4279867"><ele>188.75</ele><time>2026-04-19T15:39:02.053Z</time></trkpt><trkpt lat="43.0936528" lon="11.427909"><ele>189.5</ele><time>2026-04-19T15:39:03.053Z</time></trkpt><trkpt lat="43.0935498" lon="11.4278422"><ele>190.25</ele><time>2026-04-19T15:39:04.052Z</time></trkpt><trkpt lat="43.0934405" lon="11.4277641"><ele>191.0</ele><time>2026-04-19T15:39:05.053Z</time></trkpt><trkpt lat="43.0933351" lon="11.4276875"><ele>191.75</ele><time>2026-04-19T15:39:06.052Z</time></trkpt><trkpt lat="43.0932257" lon="11.4276126"><ele>192.5</ele><time>2026-04-19T15:39:07.052Z</time></trkpt><trkpt lat="43.0931174" lon="11.4275323"><ele>193.25</ele><time>2026-04-19T15:39:08.052Z</time></trkpt><trkpt lat="43.093008" lon="11.4274495"><ele>194.0</ele><time>2026-04-19T15:39:09.052Z</time></trkpt><trkpt lat="43.0929006" lon="11.4273742"><ele>194.0</ele><time>2026-04-19T15:39:10.052Z</time></trkpt><trkpt lat="43.0927905" lon="11.4272956"><ele>194.0</ele><time>2026-04-19T15:39:11.052Z</time></trkpt><trkpt lat="43.0926779" lon="11.4272171"><ele>194.0</ele><time>2026-04-19T15:39:12.053Z</time></trkpt><trkpt lat="43.0925673" lon="11.4271383"><ele>194.0</ele><time>2026-04-19T15:39:13.052Z</time></trkpt><trkpt lat="43.0924585" lon="11.427057"><ele>195.5</ele><time>2026-04-19T15:39:14.052Z</time></trkpt><trkpt lat="43.0923495" lon="11.42698"><ele>197.0</ele><time>2026-04-19T15:39:15.052Z</time></trkpt><trkpt lat="43.0922372" lon="11.4269011"><ele>198.5</ele><time>2026-04-19T15:39:16.052Z</time></trkpt><trkpt lat="43.0921273" lon="11.4268247"><ele>200.0</ele><time>2026-04-19T15:39:17.052Z</time></trkpt><trkpt lat="43.0920147" lon="11.4267424"><ele>200.0</ele><time>2026-04-19T15:39:18.052Z</time></trkpt><trkpt lat="43.0919019" lon="11.4266582"><ele>200.0</ele><time>2026-04-19T15:39:19.053Z</time></trkpt><trkpt lat="43.0917911" lon="11.4265765"><ele>200.0</ele><time>2026-04-19T15:39:20.053Z</time></trkpt><trkpt lat="43.0916734" lon="11.4264957"><ele>200.0</ele><time>2026-04-19T15:39:21.052Z</time></trkpt><trkpt lat="43.0915645" lon="11.4264089"><ele>199.75</ele><time>2026-04-19T15:39:22.052Z</time></trkpt><trkpt lat="43.0914529" lon="11.4263161"><ele>199.5</ele><time>2026-04-19T15:39:23.052Z</time></trkpt><trkpt lat="43.0913408" lon="11.4262257"><ele>199.25</ele><time>2026-04-19T15:39:24.053Z</time></trkpt><trkpt lat="43.0912286" lon="11.4261423"><ele>199.0</ele><time>2026-04-19T15:39:25.052Z</time></trkpt><trkpt lat="43.0911123" lon="11.4260653"><ele>200.0</ele><time>2026-04-19T15:39:26.052Z</time></trkpt><trkpt lat="43.0909896" lon="11.4260023"><ele>201.0</ele><time>2026-04-19T15:39:27.052Z</time></trkpt><trkpt lat="43.0908614" lon="11.4259471"><ele>202.0</ele><time>2026-04-19T15:39:28.052Z</time></trkpt><trkpt lat="43.0907273" lon="11.4259031"><ele>203.0</ele><time>2026-04-19T15:39:29.052Z</time></trkpt><trkpt lat="43.0905951" lon="11.4258711"><ele>204.5</ele><time>2026-04-19T15:39:30.052Z</time></trkpt><trkpt lat="43.0904626" lon="11.4258315"><ele>206.0</ele><time>2026-04-19T15:39:31.052Z</time></trkpt><trkpt lat="43.0903349" lon="11.4257968"><ele>207.5</ele><time>2026-04-19T15:39:32.052Z</time></trkpt><trkpt lat="43.0902035" lon="11.4257634"><ele>209.0</ele><time>2026-04-19T15:39:33.052Z</time></trkpt><trkpt lat="43.0900712" lon="11.4257274"><ele>209.0</ele><time>2026-04-19T15:39:34.053Z</time></trkpt><trkpt lat="43.0899389" lon="11.4256965"><ele>209.0</ele><time>2026-04-19T15:39:35.052Z</time></trkpt><trkpt lat="43.0898078" lon="11.4256607"><ele>209.0</ele><time>2026-04-19T15:39:36.052Z</time></trkpt><trkpt lat="43.0896825" lon="11.4256262"><ele>209.0</ele><time>2026-04-19T15:39:37.052Z</time></trkpt><trkpt lat="43.0895537" lon="11.4255871"><ele>210.0</ele><time>2026-04-19T15:39:38.052Z</time></trkpt><trkpt lat="43.0894238" lon="11.4255528"><ele>211.0</ele><time>2026-04-19T15:39:39.052Z</time></trkpt><trkpt lat="43.0893076" lon="11.4255239"><ele>211.99999999999997</ele><time>2026-04-19T15:39:40.053Z</time></trkpt><trkpt lat="43.0892058" lon="11.4254845"><ele>213.0</ele><time>2026-04-19T15:39:41.052Z</time></trkpt><trkpt lat="43.0891189" lon="11.4254468"><ele>214.0</ele><time>2026-04-19T15:39:42.053Z</time></trkpt><trkpt lat="43.0890377" lon="11.4253868"><ele>218.33333333333331</ele><time>2026-04-19T15:39:43.053Z</time></trkpt><trkpt lat="43.0889807" lon="11.4253088"><ele>222.66666666666666</ele><time>2026-04-19T15:39:44.052Z</time></trkpt><trkpt lat="43.088945" lon="11.4252109"><ele>227.0</ele><time>2026-04-19T15:39:45.052Z</time></trkpt><trkpt lat="43.088936" lon="11.4251026"><ele>231.33333333333331</ele><time>2026-04-19T15:39:46.052Z</time></trkpt><trkpt lat="43.0889405" lon="11.4249874"><ele>235.66666666666666</ele><time>2026-04-19T15:39:47.052Z</time></trkpt><trkpt lat="43.0889545" lon="11.4248707"><ele>240.0</ele><time>2026-04-19T15:39:48.052Z</time></trkpt><trkpt lat="43.088968" lon="11.4247514"><ele>243.2</ele><time>2026-04-19T15:39:49.052Z</time></trkpt><trkpt lat="43.0889786" lon="11.4246265"><ele>246.4</ele><time>2026-04-19T15:39:50.052Z</time></trkpt><trkpt lat="43.0890028" lon="11.4244951"><ele>249.60000000000002</ele><time>2026-04-19T15:39:51.053Z</time></trkpt><trkpt lat="43.0890271" lon="11.4243643"><ele>252.8</ele><time>2026-04-19T15:39:52.052Z</time></trkpt><trkpt lat="43.0890518" lon="11.4242325"><ele>256.0</ele><time>2026-04-19T15:39:53.052Z</time></trkpt><trkpt lat="43.0890765" lon="11.4240915"><ele>252.4</ele><time>2026-04-19T15:39:54.052Z</time></trkpt><trkpt lat="43.0891022" lon="11.4239658"><ele>248.8</ele><time>2026-04-19T15:39:55.052Z</time></trkpt><trkpt lat="43.0891232" lon="11.4238272"><ele>245.20000000000002</ele><time>2026-04-19T15:39:56.052Z</time></trkpt><trkpt lat="43.0891443" lon="11.4236887"><ele>241.60000000000002</ele><time>2026-04-19T15:39:57.052Z</time></trkpt><trkpt lat="43.0891607" lon="11.4235386"><ele>238.0</ele><time>2026-04-19T15:39:58.053Z</time></trkpt><trkpt lat="43.0891604" lon="11.4234058"><ele>238.0</ele><time>2026-04-19T15:39:59.052Z</time></trkpt><trkpt lat="43.0891532" lon="11.4232768"><ele>238.0</ele><time>2026-04-19T15:40:00.053Z</time></trkpt><trkpt lat="43.089124" lon="11.4231541"><ele>238.0</ele><time>2026-04-19T15:40:01.053Z</time></trkpt><trkpt lat="43.0890821" lon="11.4230299"><ele>238.0</ele><time>2026-04-19T15:40:02.052Z</time></trkpt><trkpt lat="43.0890362" lon="11.422912"><ele>238.0</ele><time>2026-04-19T15:40:03.052Z</time></trkpt><trkpt lat="43.0889851" lon="11.4227884"><ele>241.8</ele><time>2026-04-19T15:40:04.052Z</time></trkpt><trkpt lat="43.0889359" lon="11.4226614"><ele>245.60000000000002</ele><time>2026-04-19T15:40:05.052Z</time></trkpt><trkpt lat="43.0888819" lon="11.422531"><ele>249.39999999999998</ele><time>2026-04-19T15:40:06.052Z</time></trkpt><trkpt lat="43.0888268" lon="11.4223962"><ele>253.2</ele><time>2026-04-19T15:40:07.052Z</time></trkpt><trkpt lat="43.0887719" lon="11.4222617"><ele>257.0</ele><time>2026-04-19T15:40:08.052Z</time></trkpt><trkpt lat="43.0887202" lon="11.4221282"><ele>257.0</ele><time>2026-04-19T15:40:09.052Z</time></trkpt><trkpt lat="43.0886726" lon="11.4220009"><ele>257.0</ele><time>2026-04-19T15:40:10.052Z</time></trkpt><trkpt lat="43.0886281" lon="11.4219028"><ele>257.0</ele><time>2026-04-19T15:40:11.052Z</time></trkpt><trkpt lat="43.0885806" lon="11.4218182"><ele>257.0</ele><time>2026-04-19T15:40:12.052Z</time></trkpt><trkpt lat="43.088521" lon="11.4217528"><ele>257.0</ele><time>2026-04-19T15:40:13.052Z</time></trkpt><trkpt lat="43.0884509" lon="11.4217104"><ele>257.0</ele><time>2026-04-19T15:40:14.052Z</time></trkpt><trkpt lat="43.0883804" lon="11.4216858"><ele>257.0</ele><time>2026-04-19T15:40:15.052Z</time></trkpt><trkpt lat="43.0883166" lon="11.421685"><ele>257.0</ele><time>2026-04-19T15:40:16.052Z</time></trkpt><trkpt lat="43.0882093" lon="11.4217521"><ele>257.0</ele><time>2026-04-19T15:40:18.052Z</time></trkpt><trkpt lat="43.0881306" lon="11.4218798"><ele>257.0</ele><time>2026-04-19T15:40:20.052Z</time></trkpt><trkpt lat="43.0881049" lon="11.4219607"><ele>257.0</ele><time>2026-04-19T15:40:21.052Z</time></trkpt><trkpt lat="43.0880839" lon="11.4220628"><ele>257.0</ele><time>2026-04-19T15:40:22.053Z</time></trkpt><trkpt lat="43.0880625" lon="11.4221783"><ele>262.0</ele><time>2026-04-19T15:40:23.053Z</time></trkpt><trkpt lat="43.0880312" lon="11.4223015"><ele>267.0</ele><time>2026-04-19T15:40:24.053Z</time></trkpt><trkpt lat="43.0880051" lon="11.422418"><ele>272.0</ele><time>2026-04-19T15:40:25.052Z</time></trkpt><trkpt lat="43.0879736" lon="11.4225437"><ele>277.0</ele><time>2026-04-19T15:40:26.052Z</time></trkpt><trkpt lat="43.0879419" lon="11.4226623"><ele>282.0</ele><time>2026-04-19T15:40:27.052Z</time></trkpt><trkpt lat="43.0879142" lon="11.4227814"><ele>282.0</ele><time>2026-04-19T15:40:28.052Z</time></trkpt><trkpt lat="43.0878817" lon="11.4229026"><ele>282.0</ele><time>2026-04-19T15:40:29.053Z</time></trkpt><trkpt lat="43.0878479" lon="11.4230262"><ele>282.0</ele><time>2026-04-19T15:40:30.052Z</time></trkpt><trkpt lat="43.0878039" lon="11.4231409"><ele>282.0</ele><time>2026-04-19T15:40:31.052Z</time></trkpt><trkpt lat="43.087751" lon="11.423257"><ele>282.0</ele><time>2026-04-19T15:40:32.052Z</time></trkpt><trkpt lat="43.0877051" lon="11.4233601"><ele>282.2</ele><time>2026-04-19T15:40:33.052Z</time></trkpt><trkpt lat="43.0876592" lon="11.4234347"><ele>282.4</ele><time>2026-04-19T15:40:34.053Z</time></trkpt><trkpt lat="43.0875769" lon="11.4234919"><ele>282.6</ele><time>2026-04-19T15:40:36.053Z</time></trkpt><trkpt lat="43.087502" lon="11.4234435"><ele>282.8</ele><time>2026-04-19T15:40:38.052Z</time></trkpt><trkpt lat="43.0874492" lon="11.4233119"><ele>283.0</ele><time>2026-04-19T15:40:40.052Z</time></trkpt><trkpt lat="43.0874147" lon="11.4231529"><ele>286.8571428571429</ele><time>2026-04-19T15:40:42.053Z</time></trkpt><trkpt lat="43.087403" lon="11.4230552"><ele>290.7142857142857</ele><time>2026-04-19T15:40:43.052Z</time></trkpt><trkpt lat="43.087383" lon="11.4229539"><ele>294.57142857142856</ele><time>2026-04-19T15:40:44.052Z</time></trkpt><trkpt lat="43.087365" lon="11.4228562"><ele>298.42857142857144</ele><time>2026-04-19T15:40:45.052Z</time></trkpt><trkpt lat="43.087351" lon="11.4227717"><ele>302.2857142857143</ele><time>2026-04-19T15:40:46.052Z</time></trkpt><trkpt lat="43.0873246" lon="11.4226917"><ele>306.14285714285717</ele><time>2026-04-19T15:40:47.053Z</time></trkpt><trkpt lat="43.0872521" lon="11.4226004"><ele>310.0</ele><time>2026-04-19T15:40:49.052Z</time></trkpt><trkpt lat="43.0871636" lon="11.4226094"><ele>310.0</ele><time>2026-04-19T15:40:51.052Z</time></trkpt><trkpt lat="43.0871158" lon="11.4227166"><ele>310.0</ele><time>2026-04-19T15:40:53.053Z</time></trkpt><trkpt lat="43.0871098" lon="11.4228071"><ele>310.0</ele><time>2026-04-19T15:40:54.052Z</time></trkpt><trkpt lat="43.0870978" lon="11.4229111"><ele>310.0</ele><time>2026-04-19T15:40:55.052Z</time></trkpt><trkpt lat="43.0870778" lon="11.4230224"><ele>310.0</ele><time>2026-04-19T15:40:56.052Z</time></trkpt><trkpt lat="43.0870557" lon="11.423142"><ele>310.0</ele><time>2026-04-19T15:40:57.053Z</time></trkpt><trkpt lat="43.0870326" lon="11.423251"><ele>310.0</ele><time>2026-04-19T15:40:58.052Z</time></trkpt><trkpt lat="43.087006" lon="11.4233687"><ele>310.0</ele><time>2026-04-19T15:40:59.052Z</time></trkpt><trkpt lat="43.086981" lon="11.4234849"><ele>310.0</ele><time>2026-04-19T15:41:00.052Z</time></trkpt><trkpt lat="43.0869618" lon="11.4235872"><ele>310.0</ele><time>2026-04-19T15:41:01.053Z</time></trkpt><trkpt lat="43.0869283" lon="11.4236739"><ele>310.0</ele><time>2026-04-19T15:41:02.052Z</time></trkpt><trkpt lat="43.0868808" lon="11.4237568"><ele>310.0</ele><time>2026-04-19T15:41:03.053Z</time></trkpt><trkpt lat="43.0868195" lon="11.4238166"><ele>311.14285714285717</ele><time>2026-04-19T15:41:04.053Z</time></trkpt><trkpt lat="43.0867601" lon="11.4238473"><ele>312.2857142857143</ele><time>2026-04-19T15:41:05.052Z</time></trkpt><trkpt lat="43.0866949" lon="11.4238569"><ele>313.42857142857144</ele><time>2026-04-19T15:41:06.052Z</time></trkpt><trkpt lat="43.0866281" lon="11.4238493"><ele>314.57142857142856</ele><time>2026-04-19T15:41:07.052Z</time></trkpt><trkpt lat="43.0865593" lon="11.4238202"><ele>315.7142857142857</ele><time>2026-04-19T15:41:08.052Z</time></trkpt><trkpt lat="43.086491" lon="11.423777"><ele>316.85714285714283</ele><time>2026-04-19T15:41:09.052Z</time></trkpt><trkpt lat="43.0864347" lon="11.4237211"><ele>318.0</ele><time>2026-04-19T15:41:10.052Z</time></trkpt><trkpt lat="43.0863649" lon="11.4235826"><ele>319.6666666666667</ele><time>2026-04-19T15:41:12.052Z</time></trkpt><trkpt lat="43.0863792" lon="11.4234148"><ele>321.3333333333333</ele><time>2026-04-19T15:41:14.052Z</time></trkpt><trkpt lat="43.086409" lon="11.4233292"><ele>323.0</ele><time>2026-04-19T15:41:15.052Z</time></trkpt><trkpt lat="43.0864369" lon="11.4232364"><ele>324.66666666666663</ele><time>2026-04-19T15:41:16.052Z</time></trkpt><trkpt lat="43.086469" lon="11.4231425"><ele>326.3333333333333</ele><time>2026-04-19T15:41:17.052Z</time></trkpt><trkpt lat="43.0864963" lon="11.4230359"><ele>328.0</ele><time>2026-04-19T15:41:18.053Z</time></trkpt><trkpt lat="43.0865012" lon="11.422937"><ele>328.0</ele><time>2026-04-19T15:41:19.052Z</time></trkpt><trkpt lat="43.0864993" lon="11.4228416"><ele>328.0</ele><time>2026-04-19T15:41:20.053Z</time></trkpt><trkpt lat="43.0864791" lon="11.4227562"><ele>328.0</ele><time>2026-04-19T15:41:21.052Z</time></trkpt><trkpt lat="43.0864457" lon="11.4226791"><ele>328.0</ele><time>2026-04-19T15:41:22.052Z</time></trkpt><trkpt lat="43.0863976" lon="11.4226226"><ele>328.0</ele><time>2026-04-19T15:41:23.053Z</time></trkpt><trkpt lat="43.0862819" lon="11.4225887"><ele>328.0</ele><time>2026-04-19T15:41:25.052Z</time></trkpt><trkpt lat="43.0861831" lon="11.4226776"><ele>328.0</ele><time>2026-04-19T15:41:27.052Z</time></trkpt><trkpt lat="43.0861411" lon="11.4227525"><ele>328.0</ele><time>2026-04-19T15:41:28.053Z</time></trkpt><trkpt lat="43.0861024" lon="11.4228333"><ele>328.0</ele><time>2026-04-19T15:41:29.052Z</time></trkpt><trkpt lat="43.0860593" lon="11.4229219"><ele>328.0</ele><time>2026-04-19T15:41:30.053Z</time></trkpt><trkpt lat="43.0860116" lon="11.4230161"><ele>328.0</ele><time>2026-04-19T15:41:31.052Z</time></trkpt><trkpt lat="43.0859567" lon="11.4231037"><ele>328.0</ele><time>2026-04-19T15:41:32.052Z</time></trkpt><trkpt lat="43.0859001" lon="11.4231867"><ele>328.16666666666663</ele><time>2026-04-19T15:41:33.052Z</time></trkpt><trkpt lat="43.0858435" lon="11.4232362"><ele>328.3333333333333</ele><time>2026-04-19T15:41:34.052Z</time></trkpt><trkpt lat="43.0857646" lon="11.4232563"><ele>328.5</ele><time>2026-04-19T15:41:35.052Z</time></trkpt><trkpt lat="43.0856925" lon="11.4232349"><ele>328.6666666666667</ele><time>2026-04-19T15:41:36.052Z</time></trkpt><trkpt lat="43.0856317" lon="11.4231766"><ele>328.83333333333337</ele><time>2026-04-19T15:41:37.052Z</time></trkpt><trkpt lat="43.085581" lon="11.423086"><ele>329.0</ele><time>2026-04-19T15:41:38.053Z</time></trkpt><trkpt lat="43.0855397" lon="11.4229769"><ele>333.0</ele><time>2026-04-19T15:41:39.053Z</time></trkpt><trkpt lat="43.0855043" lon="11.4228543"><ele>337.0</ele><time>2026-04-19T15:41:40.053Z</time></trkpt><trkpt lat="43.085469" lon="11.4227074"><ele>341.0</ele><time>2026-04-19T15:41:41.052Z</time></trkpt><trkpt lat="43.0854309" lon="11.422552"><ele>345.0</ele><time>2026-04-19T15:41:42.053Z</time></trkpt><trkpt lat="43.085391" lon="11.4223973"><ele>349.0</ele><time>2026-04-19T15:41:43.052Z</time></trkpt><trkpt lat="43.0853494" lon="11.4222515"><ele>346.4</ele><time>2026-04-19T15:41:44.052Z</time></trkpt><trkpt lat="43.0853061" lon="11.4221241"><ele>343.79999999999995</ele><time>2026-04-19T15:41:45.052Z</time></trkpt><trkpt lat="43.0852591" lon="11.4220011"><ele>341.20000000000005</ele><time>2026-04-19T15:41:46.052Z</time></trkpt><trkpt lat="43.0851651" lon="11.4219054"><ele>338.6</ele><time>2026-04-19T15:41:47.053Z</time></trkpt><trkpt lat="43.0850758" lon="11.4218238"><ele>336.0</ele><time>2026-04-19T15:41:48.052Z</time></trkpt><trkpt lat="43.0849841" lon="11.4217514"><ele>337.8</ele><time>2026-04-19T15:41:49.052Z</time></trkpt><trkpt lat="43.0848919" lon="11.4216991"><ele>339.6</ele><time>2026-04-19T15:41:50.052Z</time></trkpt><trkpt lat="43.084792" lon="11.4216569"><ele>341.4</ele><time>2026-04-19T15:41:51.052Z</time></trkpt><trkpt lat="43.0846898" lon="11.4216197"><ele>343.2</ele><time>2026-04-19T15:41:52.052Z</time></trkpt><trkpt lat="43.0845887" lon="11.4215832"><ele>345.0</ele><time>2026-04-19T15:41:53.052Z</time></trkpt><trkpt lat="43.08449" lon="11.4215371"><ele>345.0</ele><time>2026-04-19T15:41:54.052Z</time></trkpt><trkpt lat="43.0843881" lon="11.4214822"><ele>345.0</ele><time>2026-04-19T15:41:55.053Z</time></trkpt><trkpt lat="43.0842949" lon="11.4214231"><ele>345.0</ele><time>2026-04-19T15:41:56.052Z</time></trkpt><trkpt lat="43.0842202" lon="11.4213647"><ele>345.0</ele><time>2026-04-19T15:41:57.052Z</time></trkpt><trkpt lat="43.0841384" lon="11.4212943"><ele>345.0</ele><time>2026-04-19T15:41:59.052Z</time></trkpt><trkpt lat="43.0840731" lon="11.4212398"><ele>345.4</ele><time>2026-04-19T15:42:01.052Z</time></trkpt><trkpt lat="43.0839898" lon="11.4211706"><ele>345.8</ele><time>2026-04-19T15:42:03.052Z</time></trkpt><trkpt lat="43.0839342" lon="11.4211239"><ele>346.20000000000005</ele><time>2026-04-19T15:42:04.052Z</time></trkpt><trkpt lat="43.0838191" lon="11.4210416"><ele>346.6</ele><time>2026-04-19T15:42:06.052Z</time></trkpt><trkpt lat="43.0837486" lon="11.4210014"><ele>347.0</ele><time>2026-04-19T15:42:07.053Z</time></trkpt><trkpt lat="43.0836675" lon="11.4209624"><ele>347.0</ele><time>2026-04-19T15:42:08.053Z</time></trkpt><trkpt lat="43.0835726" lon="11.4209299"><ele>347.0</ele><time>2026-04-19T15:42:09.053Z</time></trkpt><trkpt lat="43.0834886" lon="11.4208985"><ele>347.0</ele><time>2026-04-19T15:42:10.052Z</time></trkpt><trkpt lat="43.0834073" lon="11.4208708"><ele>347.0</ele><time>2026-04-19T15:42:11.052Z</time></trkpt><trkpt lat="43.0833185" lon="11.4208449"><ele>347.0</ele><time>2026-04-19T15:42:12.053Z</time></trkpt><trkpt lat="43.0832247" lon="11.4208116"><ele>348.6</ele><time>2026-04-19T15:42:13.053Z</time></trkpt><trkpt lat="43.0831306" lon="11.4207787"><ele>350.20000000000005</ele><time>2026-04-19T15:42:14.052Z</time></trkpt><trkpt lat="43.0830322" lon="11.4207476"><ele>351.8</ele><time>2026-04-19T15:42:15.053Z</time></trkpt><trkpt lat="43.082935" lon="11.42072"><ele>353.4</ele><time>2026-04-19T15:42:16.053Z</time></trkpt><trkpt lat="43.0828407" lon="11.4206914"><ele>355.0</ele><time>2026-04-19T15:42:17.053Z</time></trkpt><trkpt lat="43.0827506" lon="11.4206509"><ele>355.0</ele><time>2026-04-19T15:42:18.052Z</time></trkpt><trkpt lat="43.0826595" lon="11.4206233"><ele>355.0</ele><time>2026-04-19T15:42:19.052Z</time></trkpt><trkpt lat="43.0825686" lon="11.4205996"><ele>355.0</ele><time>2026-04-19T15:42:20.052Z</time></trkpt><trkpt lat="43.0824824" lon="11.4205846"><ele>355.0</ele><time>2026-04-19T15:42:21.052Z</time></trkpt><trkpt lat="43.0823865" lon="11.4205798"><ele>355.0</ele><time>2026-04-19T15:42:22.052Z</time></trkpt><trkpt lat="43.0822948" lon="11.420557"><ele>354.8</ele><time>2026-04-19T15:42:23.053Z</time></trkpt><trkpt lat="43.0821991" lon="11.4205407"><ele>354.6</ele><time>2026-04-19T15:42:24.052Z</time></trkpt><trkpt lat="43.0821045" lon="11.4205433"><ele>354.4</ele><time>2026-04-19T15:42:25.053Z</time></trkpt><trkpt lat="43.0819996" lon="11.4205469"><ele>354.2</ele><time>2026-04-19T15:42:26.053Z</time></trkpt><trkpt lat="43.0818997" lon="11.4205237"><ele>354.0</ele><time>2026-04-19T15:42:27.053Z</time></trkpt><trkpt lat="43.0817944" lon="11.4204824"><ele>355.0</ele><time>2026-04-19T15:42:28.052Z</time></trkpt><trkpt lat="43.0816983" lon="11.4204147"><ele>356.0</ele><time>2026-04-19T15:42:29.052Z</time></trkpt><trkpt lat="43.081608" lon="11.4203306"><ele>357.0</ele><time>2026-04-19T15:42:30.052Z</time></trkpt><trkpt lat="43.0815222" lon="11.4202353"><ele>358.0</ele><time>2026-04-19T15:42:31.053Z</time></trkpt><trkpt lat="43.0814416" lon="11.4201265"><ele>359.0</ele><time>2026-04-19T15:42:32.052Z</time></trkpt><trkpt lat="43.0813627" lon="11.4200117"><ele>360.4</ele><time>2026-04-19T15:42:33.052Z</time></trkpt><trkpt lat="43.0812919" lon="11.4199018"><ele>361.79999999999995</ele><time>2026-04-19T15:42:34.053Z</time></trkpt><trkpt lat="43.0812331" lon="11.4197937"><ele>363.20000000000005</ele><time>2026-04-19T15:42:35.052Z</time></trkpt><trkpt lat="43.0811752" lon="11.4196922"><ele>364.6</ele><time>2026-04-19T15:42:36.052Z</time></trkpt><trkpt lat="43.0811015" lon="11.4196129"><ele>366.0</ele><time>2026-04-19T15:42:37.052Z</time></trkpt><trkpt lat="43.0810164" lon="11.4195436"><ele>366.0</ele><time>2026-04-19T15:42:38.052Z</time></trkpt><trkpt lat="43.0809275" lon="11.4194877"><ele>366.0</ele><time>2026-04-19T15:42:39.052Z</time></trkpt><trkpt lat="43.0808321" lon="11.419442"><ele>366.0</ele><time>2026-04-19T15:42:40.053Z</time></trkpt><trkpt lat="43.0807404" lon="11.4194076"><ele>366.0</ele><time>2026-04-19T15:42:41.052Z</time></trkpt><trkpt lat="43.0806449" lon="11.4193941"><ele>366.0</ele><time>2026-04-19T15:42:42.052Z</time></trkpt><trkpt lat="43.0805504" lon="11.4193738"><ele>369.1666666666667</ele><time>2026-04-19T15:42:43.052Z</time></trkpt><trkpt lat="43.0804607" lon="11.419347"><ele>372.33333333333337</ele><time>2026-04-19T15:42:44.052Z</time></trkpt><trkpt lat="43.0803771" lon="11.4193196"><ele>375.5</ele><time>2026-04-19T15:42:45.052Z</time></trkpt><trkpt lat="43.0802998" lon="11.4192761"><ele>378.6666666666667</ele><time>2026-04-19T15:42:46.052Z</time></trkpt><trkpt lat="43.0802427" lon="11.4192123"><ele>381.83333333333337</ele><time>2026-04-19T15:42:47.053Z</time></trkpt><trkpt lat="43.0801808" lon="11.4190939"><ele>385.0</ele><time>2026-04-19T15:42:49.052Z</time></trkpt><trkpt lat="43.080153" lon="11.4190132"><ele>385.00000000000006</ele><time>2026-04-19T15:42:50.052Z</time></trkpt><trkpt lat="43.0801178" lon="11.4189313"><ele>385.0</ele><time>2026-04-19T15:42:51.052Z</time></trkpt><trkpt lat="43.0800687" lon="11.418852"><ele>385.0</ele><time>2026-04-19T15:42:52.052Z</time></trkpt><trkpt lat="43.0800068" lon="11.4187783"><ele>385.0</ele><time>2026-04-19T15:42:53.052Z</time></trkpt><trkpt lat="43.0799348" lon="11.418706"><ele>385.00000000000006</ele><time>2026-04-19T15:42:54.053Z</time></trkpt><trkpt lat="43.0798585" lon="11.4186455"><ele>385.0</ele><time>2026-04-19T15:42:55.052Z</time></trkpt><trkpt lat="43.07978" lon="11.4185976"><ele>387.4</ele><time>2026-04-19T15:42:56.053Z</time></trkpt><trkpt lat="43.0796948" lon="11.4185562"><ele>389.8</ele><time>2026-04-19T15:42:57.052Z</time></trkpt><trkpt lat="43.07961" lon="11.4185153"><ele>392.20000000000005</ele><time>2026-04-19T15:42:58.053Z</time></trkpt><trkpt lat="43.0795202" lon="11.4184734"><ele>394.6</ele><time>2026-04-19T15:42:59.052Z</time></trkpt><trkpt lat="43.079434" lon="11.4184322"><ele>397.0</ele><time>2026-04-19T15:43:00.052Z</time></trkpt><trkpt lat="43.0793427" lon="11.4183938"><ele>397.0</ele><time>2026-04-19T15:43:01.053Z</time></trkpt><trkpt lat="43.0792417" lon="11.4183389"><ele>397.0</ele><time>2026-04-19T15:43:02.052Z</time></trkpt><trkpt lat="43.079157" lon="11.4182724"><ele>397.0</ele><time>2026-04-19T15:43:03.052Z</time></trkpt><trkpt lat="43.0790833" lon="11.4181906"><ele>397.0</ele><time>2026-04-19T15:43:04.052Z</time></trkpt><trkpt lat="43.0790104" lon="11.4181186"><ele>397.0</ele><time>2026-04-19T15:43:05.052Z</time></trkpt><trkpt lat="43.0789387" lon="11.4180549"><ele>396.6</ele><time>2026-04-19T15:43:06.052Z</time></trkpt><trkpt lat="43.0788569" lon="11.4180172"><ele>396.20000000000005</ele><time>2026-04-19T15:43:07.053Z</time></trkpt><trkpt lat="43.0787667" lon="11.4179861"><ele>395.8</ele><time>2026-04-19T15:43:08.053Z</time></trkpt><trkpt lat="43.0786701" lon="11.4179649"><ele>395.4</ele><time>2026-04-19T15:43:09.052Z</time></trkpt><trkpt lat="43.0785764" lon="11.4179475"><ele>395.0</ele><time>2026-04-19T15:43:10.052Z</time></trkpt><trkpt lat="43.0784849" lon="11.4179388"><ele>395.0</ele><time>2026-04-19T15:43:11.052Z</time></trkpt><trkpt lat="43.0783916" lon="11.417932"><ele>395.0</ele><time>2026-04-19T15:43:12.052Z</time></trkpt><trkpt lat="43.0782944" lon="11.4179256"><ele>395.0</ele><time>2026-04-19T15:43:13.052Z</time></trkpt><trkpt lat="43.0781988" lon="11.4179147"><ele>395.0</ele><time>2026-04-19T15:43:14.052Z</time></trkpt><trkpt lat="43.0781013" lon="11.4179053"><ele>395.0</ele><time>2026-04-19T15:43:15.052Z</time></trkpt><trkpt lat="43.0780096" lon="11.4178955"><ele>397.8</ele><time>2026-04-19T15:43:16.052Z</time></trkpt><trkpt lat="43.0779117" lon="11.4178933"><ele>400.6</ele><time>2026-04-19T15:43:17.052Z</time></trkpt><trkpt lat="43.0778134" lon="11.417897"><ele>403.4</ele><time>2026-04-19T15:43:18.052Z</time></trkpt><trkpt lat="43.0777187" lon="11.4179058"><ele>406.2</ele><time>2026-04-19T15:43:19.052Z</time></trkpt><trkpt lat="43.0776189" lon="11.4179094"><ele>409.0</ele><time>2026-04-19T15:43:20.052Z</time></trkpt><trkpt lat="43.07752" lon="11.4178942"><ele>412.6</ele><time>2026-04-19T15:43:21.053Z</time></trkpt><trkpt lat="43.0774258" lon="11.4178618"><ele>416.2</ele><time>2026-04-19T15:43:22.052Z</time></trkpt><trkpt lat="43.0773336" lon="11.4178139"><ele>419.80000000000007</ele><time>2026-04-19T15:43:23.053Z</time></trkpt><trkpt lat="43.0772383" lon="11.4177596"><ele>423.40000000000003</ele><time>2026-04-19T15:43:24.052Z</time></trkpt><trkpt lat="43.0771486" lon="11.417685"><ele>427.0</ele><time>2026-04-19T15:43:25.052Z</time></trkpt><trkpt lat="43.077061" lon="11.4176152"><ele>427.0</ele><time>2026-04-19T15:43:26.052Z</time></trkpt><trkpt lat="43.0769854" lon="11.4175357"><ele>427.00000000000006</ele><time>2026-04-19T15:43:27.052Z</time></trkpt><trkpt lat="43.0769141" lon="11.4174331"><ele>427.00000000000006</ele><time>2026-04-19T15:43:28.052Z</time></trkpt><trkpt lat="43.0768546" lon="11.4173243"><ele>427.0</ele><time>2026-04-19T15:43:29.052Z</time></trkpt><trkpt lat="43.0768092" lon="11.4172091"><ele>427.0</ele><time>2026-04-19T15:43:30.052Z</time></trkpt><trkpt lat="43.076776" lon="11.4170873"><ele>427.50000000000006</ele><time>2026-04-19T15:43:31.053Z</time></trkpt><trkpt lat="43.0767293" lon="11.4170068"><ele>428.0</ele><time>2026-04-19T15:43:32.052Z</time></trkpt><trkpt lat="43.076671" lon="11.4169362"><ele>428.5</ele><time>2026-04-19T15:43:33.053Z</time></trkpt><trkpt lat="43.0765991" lon="11.4168811"><ele>429.0</ele><time>2026-04-19T15:43:34.052Z</time></trkpt><trkpt lat="43.0765225" lon="11.416848"><ele>429.50000000000006</ele><time>2026-04-19T15:43:35.052Z</time></trkpt><trkpt lat="43.0764422" lon="11.4168179"><ele>430.0</ele><time>2026-04-19T15:43:36.052Z</time></trkpt><trkpt lat="43.0763561" lon="11.416794"><ele>430.0</ele><time>2026-04-19T15:43:37.052Z</time></trkpt><trkpt lat="43.0762599" lon="11.4167648"><ele>430.0</ele><time>2026-04-19T15:43:38.052Z</time></trkpt><trkpt lat="43.0761641" lon="11.4167304"><ele>430.0</ele><time>2026-04-19T15:43:39.052Z</time></trkpt><trkpt lat="43.0760604" lon="11.416687"><ele>430.0</ele><time>2026-04-19T15:43:40.052Z</time></trkpt><trkpt lat="43.0759631" lon="11.4166299"><ele>430.0</ele><time>2026-04-19T15:43:41.052Z</time></trkpt><trkpt lat="43.0758703" lon="11.4165681"><ele>430.0</ele><time>2026-04-19T15:43:42.053Z</time></trkpt><trkpt lat="43.0757787" lon="11.4164977"><ele>430.0</ele><time>2026-04-19T15:43:43.052Z</time></trkpt><trkpt lat="43.075687" lon="11.4164256"><ele>430.0</ele><time>2026-04-19T15:43:44.053Z</time></trkpt><trkpt lat="43.0755909" lon="11.4163479"><ele>430.0</ele><time>2026-04-19T15:43:45.052Z</time></trkpt><trkpt lat="43.0754924" lon="11.416278"><ele>430.0</ele><time>2026-04-19T15:43:46.052Z</time></trkpt><trkpt lat="43.075384" lon="11.4161983"><ele>431.0</ele><time>2026-04-19T15:43:47.052Z</time></trkpt><trkpt lat="43.0752875" lon="11.4161213"><ele>432.0</ele><time>2026-04-19T15:43:48.052Z</time></trkpt><trkpt lat="43.0751947" lon="11.4160527"><ele>433.0</ele><time>2026-04-19T15:43:49.052Z</time></trkpt><trkpt lat="43.0751" lon="11.4159771"><ele>434.0</ele><time>2026-04-19T15:43:50.052Z</time></trkpt><trkpt lat="43.0750054" lon="11.4159175"><ele>435.0</ele><time>2026-04-19T15:43:51.053Z</time></trkpt><trkpt lat="43.074908" lon="11.4158647"><ele>435.8333333333333</ele><time>2026-04-19T15:43:52.053Z</time></trkpt><trkpt lat="43.0748067" lon="11.4158174"><ele>436.66666666666663</ele><time>2026-04-19T15:43:53.053Z</time></trkpt><trkpt lat="43.0747045" lon="11.4157827"><ele>437.5</ele><time>2026-04-19T15:43:54.053Z</time></trkpt><trkpt lat="43.0746147" lon="11.415767"><ele>438.3333333333333</ele><time>2026-04-19T15:43:55.052Z</time></trkpt><trkpt lat="43.0745332" lon="11.4157549"><ele>439.16666666666663</ele><time>2026-04-19T15:43:56.052Z</time></trkpt><trkpt lat="43.0744736" lon="11.4157269"><ele>440.0</ele><time>2026-04-19T15:43:57.053Z</time></trkpt><trkpt lat="43.0744152" lon="11.4156784"><ele>439.99999999999994</ele><time>2026-04-19T15:43:58.052Z</time></trkpt><trkpt lat="43.0743759" lon="11.4156068"><ele>440.0</ele><time>2026-04-19T15:43:59.052Z</time></trkpt><trkpt lat="43.0743407" lon="11.4154376"><ele>440.0</ele><time>2026-04-19T15:44:01.052Z</time></trkpt><trkpt lat="43.0743357" lon="11.4153362"><ele>440.0</ele><time>2026-04-19T15:44:02.053Z</time></trkpt><trkpt lat="43.0743311" lon="11.4152235"><ele>439.99999999999994</ele><time>2026-04-19T15:44:03.053Z</time></trkpt><trkpt lat="43.0743226" lon="11.4151066"><ele>440.0</ele><time>2026-04-19T15:44:04.052Z</time></trkpt><trkpt lat="43.0743066" lon="11.4149897"><ele>442.0</ele><time>2026-04-19T15:44:05.053Z</time></trkpt><trkpt lat="43.074279" lon="11.4148716"><ele>444.0</ele><time>2026-04-19T15:44:06.052Z</time></trkpt><trkpt lat="43.0742465" lon="11.4147462"><ele>446.0</ele><time>2026-04-19T15:44:07.052Z</time></trkpt><trkpt lat="43.0742168" lon="11.4146444"><ele>448.0</ele><time>2026-04-19T15:44:08.052Z</time></trkpt><trkpt lat="43.0741881" lon="11.4145569"><ele>450.0</ele><time>2026-04-19T15:44:09.052Z</time></trkpt><trkpt lat="43.0740995" lon="11.4144375"><ele>453.0</ele><time>2026-04-19T15:44:11.052Z</time></trkpt><trkpt lat="43.0739774" lon="11.414387"><ele>456.0</ele><time>2026-04-19T15:44:13.052Z</time></trkpt><trkpt lat="43.0739068" lon="11.4143749"><ele>459.0</ele><time>2026-04-19T15:44:14.052Z</time></trkpt><trkpt lat="43.0738371" lon="11.4143726"><ele>462.0</ele><time>2026-04-19T15:44:15.053Z</time></trkpt><trkpt lat="43.073763" lon="11.4143733"><ele>465.0</ele><time>2026-04-19T15:44:16.052Z</time></trkpt><trkpt lat="43.0736833" lon="11.414371"><ele>468.0</ele><time>2026-04-19T15:44:17.053Z</time></trkpt><trkpt lat="43.073605" lon="11.4143621"><ele>468.0</ele><time>2026-04-19T15:44:18.051Z</time></trkpt><trkpt lat="43.0735272" lon="11.4143526"><ele>468.0</ele><time>2026-04-19T15:44:19.053Z</time></trkpt><trkpt lat="43.0734632" lon="11.4143313"><ele>468.0</ele><time>2026-04-19T15:44:20.053Z</time></trkpt><trkpt lat="43.0734015" lon="11.4143076"><ele>468.0</ele><time>2026-04-19T15:44:21.052Z</time></trkpt><trkpt lat="43.0733259" lon="11.4142833"><ele>468.0</ele><time>2026-04-19T15:44:22.052Z</time></trkpt><trkpt lat="43.0732392" lon="11.4142609"><ele>468.0</ele><time>2026-04-19T15:44:23.053Z</time></trkpt><trkpt lat="43.0731507" lon="11.4142498"><ele>469.5</ele><time>2026-04-19T15:44:24.052Z</time></trkpt><trkpt lat="43.0730633" lon="11.4142476"><ele>471.0</ele><time>2026-04-19T15:44:25.052Z</time></trkpt><trkpt lat="43.0729717" lon="11.4142562"><ele>472.5</ele><time>2026-04-19T15:44:26.052Z</time></trkpt><trkpt lat="43.0728863" lon="11.4142637"><ele>474.0</ele><time>2026-04-19T15:44:27.052Z</time></trkpt><trkpt lat="43.0727973" lon="11.4142687"><ele>475.5</ele><time>2026-04-19T15:44:28.052Z</time></trkpt><trkpt lat="43.0727074" lon="11.4142663"><ele>477.0</ele><time>2026-04-19T15:44:29.053Z</time></trkpt><trkpt lat="43.0726193" lon="11.4142481"><ele>477.0</ele><time>2026-04-19T15:44:30.052Z</time></trkpt><trkpt lat="43.072532" lon="11.4142148"><ele>477.0</ele><time>2026-04-19T15:44:31.053Z</time></trkpt><trkpt lat="43.0724489" lon="11.4141734"><ele>477.0</ele><time>2026-04-19T15:44:32.052Z</time></trkpt><trkpt lat="43.0723669" lon="11.4141263"><ele>477.0</ele><time>2026-04-19T15:44:33.053Z</time></trkpt><trkpt lat="43.0722817" lon="11.4140943"><ele>477.0</ele><time>2026-04-19T15:44:34.053Z</time></trkpt><trkpt lat="43.0722049" lon="11.4140379"><ele>477.0</ele><time>2026-04-19T15:44:35.052Z</time></trkpt><trkpt lat="43.0721278" lon="11.4139903"><ele>476.6</ele><time>2026-04-19T15:44:36.052Z</time></trkpt><trkpt lat="43.0720423" lon="11.4139432"><ele>476.20000000000005</ele><time>2026-04-19T15:44:37.052Z</time></trkpt><trkpt lat="43.071955" lon="11.4139008"><ele>475.8</ele><time>2026-04-19T15:44:38.052Z</time></trkpt><trkpt lat="43.0718559" lon="11.4138564"><ele>475.4</ele><time>2026-04-19T15:44:39.052Z</time></trkpt><trkpt lat="43.0717685" lon="11.4137978"><ele>475.0</ele><time>2026-04-19T15:44:40.052Z</time></trkpt><trkpt lat="43.071682" lon="11.4137301"><ele>477.2</ele><time>2026-04-19T15:44:41.052Z</time></trkpt><trkpt lat="43.0715935" lon="11.4136514"><ele>479.4</ele><time>2026-04-19T15:44:42.052Z</time></trkpt><trkpt lat="43.0715077" lon="11.4136009"><ele>481.6</ele><time>2026-04-19T15:44:43.052Z</time></trkpt><trkpt lat="43.071417" lon="11.4135667"><ele>483.8</ele><time>2026-04-19T15:44:44.052Z</time></trkpt><trkpt lat="43.0713177" lon="11.4135618"><ele>486.0</ele><time>2026-04-19T15:44:45.053Z</time></trkpt><trkpt lat="43.071221" lon="11.4135754"><ele>486.0</ele><time>2026-04-19T15:44:46.052Z</time></trkpt><trkpt lat="43.0711274" lon="11.4135913"><ele>486.0</ele><time>2026-04-19T15:44:47.052Z</time></trkpt><trkpt lat="43.0710347" lon="11.4135841"><ele>486.0</ele><time>2026-04-19T15:44:48.053Z</time></trkpt><trkpt lat="43.0709468" lon="11.4135431"><ele>486.0</ele><time>2026-04-19T15:44:49.053Z</time></trkpt><trkpt lat="43.0708673" lon="11.4134901"><ele>486.0</ele><time>2026-04-19T15:44:50.053Z</time></trkpt><trkpt lat="43.0707891" lon="11.4134156"><ele>487.8</ele><time>2026-04-19T15:44:51.052Z</time></trkpt><trkpt lat="43.0707148" lon="11.4133331"><ele>489.6</ele><time>2026-04-19T15:44:52.052Z</time></trkpt><trkpt lat="43.0706437" lon="11.4132432"><ele>491.4</ele><time>2026-04-19T15:44:53.052Z</time></trkpt><trkpt lat="43.0705711" lon="11.4131446"><ele>493.2</ele><time>2026-04-19T15:44:54.052Z</time></trkpt><trkpt lat="43.0705012" lon="11.4130416"><ele>495.0</ele><time>2026-04-19T15:44:55.052Z</time></trkpt><trkpt lat="43.0704341" lon="11.4129776"><ele>494.99999999999994</ele><time>2026-04-19T15:44:56.052Z</time></trkpt><trkpt lat="43.0703696" lon="11.412925"><ele>495.0</ele><time>2026-04-19T15:44:57.052Z</time></trkpt><trkpt lat="43.0702998" lon="11.412901"><ele>494.99999999999994</ele><time>2026-04-19T15:44:58.052Z</time></trkpt><trkpt lat="43.0702356" lon="11.4129132"><ele>494.99999999999994</ele><time>2026-04-19T15:44:59.053Z</time></trkpt><trkpt lat="43.0701728" lon="11.4129614"><ele>495.0</ele><time>2026-04-19T15:45:00.052Z</time></trkpt><trkpt lat="43.0701295" lon="11.4130287"><ele>494.99999999999994</ele><time>2026-04-19T15:45:01.052Z</time></trkpt><trkpt lat="43.0700883" lon="11.4131172"><ele>494.99999999999994</ele><time>2026-04-19T15:45:02.052Z</time></trkpt><trkpt lat="43.0700557" lon="11.4132206"><ele>495.0</ele><time>2026-04-19T15:45:03.052Z</time></trkpt><trkpt lat="43.0700208" lon="11.4133248"><ele>495.0</ele><time>2026-04-19T15:45:04.053Z</time></trkpt><trkpt lat="43.0699915" lon="11.4134401"><ele>495.0</ele><time>2026-04-19T15:45:05.053Z</time></trkpt><trkpt lat="43.0699792" lon="11.4135549"><ele>495.0</ele><time>2026-04-19T15:45:06.053Z</time></trkpt><trkpt lat="43.0699765" lon="11.413681"><ele>495.0</ele><time>2026-04-19T15:45:07.053Z</time></trkpt><trkpt lat="43.0699827" lon="11.4138102"><ele>495.0</ele><time>2026-04-19T15:45:08.052Z</time></trkpt><trkpt lat="43.069989" lon="11.4139411"><ele>494.8</ele><time>2026-04-19T15:45:09.052Z</time></trkpt><trkpt lat="43.0699971" lon="11.4140752"><ele>494.6</ele><time>2026-04-19T15:45:10.052Z</time></trkpt><trkpt lat="43.0700012" lon="11.4142136"><ele>494.4</ele><time>2026-04-19T15:45:11.052Z</time></trkpt><trkpt lat="43.0699926" lon="11.4143428"><ele>494.2</ele><time>2026-04-19T15:45:12.052Z</time></trkpt><trkpt lat="43.0699712" lon="11.4144726"><ele>494.0</ele><time>2026-04-19T15:45:13.052Z</time></trkpt><trkpt lat="43.0699352" lon="11.4145991"><ele>495.0</ele><time>2026-04-19T15:45:14.052Z</time></trkpt><trkpt lat="43.069883" lon="11.4147161"><ele>496.0</ele><time>2026-04-19T15:45:15.052Z</time></trkpt><trkpt lat="43.0698238" lon="11.4148221"><ele>497.0</ele><time>2026-04-19T15:45:16.052Z</time></trkpt><trkpt lat="43.0697593" lon="11.4149098"><ele>498.0</ele><time>2026-04-19T15:45:17.052Z</time></trkpt><trkpt lat="43.0696798" lon="11.4149894"><ele>499.0</ele><time>2026-04-19T15:45:18.052Z</time></trkpt><trkpt lat="43.0695886" lon="11.4150636"><ele>499.0</ele><time>2026-04-19T15:45:19.052Z</time></trkpt><trkpt lat="43.0694903" lon="11.4151345"><ele>499.0</ele><time>2026-04-19T15:45:20.052Z</time></trkpt><trkpt lat="43.0693966" lon="11.415215"><ele>499.0</ele><time>2026-04-19T15:45:21.053Z</time></trkpt><trkpt lat="43.0693086" lon="11.4152905"><ele>499.0</ele><time>2026-04-19T15:45:22.052Z</time></trkpt><trkpt lat="43.0692284" lon="11.4153665"><ele>499.0</ele><time>2026-04-19T15:45:23.052Z</time></trkpt><trkpt lat="43.0691465" lon="11.4154341"><ele>497.2</ele><time>2026-04-19T15:45:24.052Z</time></trkpt><trkpt lat="43.0690642" lon="11.4154776"><ele>495.4</ele><time>2026-04-19T15:45:25.052Z</time></trkpt><trkpt lat="43.0689824" lon="11.4155094"><ele>493.6</ele><time>2026-04-19T15:45:26.052Z</time></trkpt><trkpt lat="43.0688895" lon="11.4155383"><ele>491.8</ele><time>2026-04-19T15:45:27.052Z</time></trkpt><trkpt lat="43.068794" lon="11.4155695"><ele>490.0</ele><time>2026-04-19T15:45:28.052Z</time></trkpt><trkpt lat="43.0687" lon="11.4156119"><ele>489.5</ele><time>2026-04-19T15:45:29.052Z</time></trkpt><trkpt lat="43.0686059" lon="11.4156707"><ele>489.0</ele><time>2026-04-19T15:45:30.053Z</time></trkpt><trkpt lat="43.0685111" lon="11.4157494"><ele>488.5</ele><time>2026-04-19T15:45:31.052Z</time></trkpt><trkpt lat="43.068418" lon="11.4158433"><ele>488.0</ele><time>2026-04-19T15:45:32.052Z</time></trkpt><trkpt lat="43.0683209" lon="11.4159574"><ele>487.75</ele><time>2026-04-19T15:45:33.052Z</time></trkpt><trkpt lat="43.0682222" lon="11.4160663"><ele>487.5</ele><time>2026-04-19T15:45:34.053Z</time></trkpt><trkpt lat="43.068126" lon="11.4161605"><ele>487.25</ele><time>2026-04-19T15:45:35.052Z</time></trkpt><trkpt lat="43.0680356" lon="11.4162429"><ele>487.0</ele><time>2026-04-19T15:45:36.052Z</time></trkpt><trkpt lat="43.0679454" lon="11.4163033"><ele>488.6666666666667</ele><time>2026-04-19T15:45:37.052Z</time></trkpt><trkpt lat="43.0678634" lon="11.416359"><ele>490.33333333333337</ele><time>2026-04-19T15:45:38.053Z</time></trkpt><trkpt lat="43.0677929" lon="11.4164326"><ele>492.0</ele><time>2026-04-19T15:45:39.053Z</time></trkpt><trkpt lat="43.0677393" lon="11.4165236"><ele>493.66666666666663</ele><time>2026-04-19T15:45:40.053Z</time></trkpt><trkpt lat="43.0677041" lon="11.4166216"><ele>495.3333333333333</ele><time>2026-04-19T15:45:41.052Z</time></trkpt><trkpt lat="43.0676755" lon="11.4167445"><ele>497.0</ele><time>2026-04-19T15:45:42.052Z</time></trkpt><trkpt lat="43.0676401" lon="11.4168687"><ele>497.0</ele><time>2026-04-19T15:45:43.052Z</time></trkpt><trkpt lat="43.067592" lon="11.4169875"><ele>497.0</ele><time>2026-04-19T15:45:44.052Z</time></trkpt><trkpt lat="43.0675271" lon="11.4171277"><ele>497.0</ele><time>2026-04-19T15:45:45.052Z</time></trkpt><trkpt lat="43.0674627" lon="11.417242"><ele>497.0</ele><time>2026-04-19T15:45:46.052Z</time></trkpt><trkpt lat="43.0673177" lon="11.4174326"><ele>498.40000000000003</ele><time>2026-04-19T15:45:48.052Z</time></trkpt><trkpt lat="43.0672474" lon="11.4175036"><ele>499.80000000000007</ele><time>2026-04-19T15:45:49.053Z</time></trkpt><trkpt lat="43.0671608" lon="11.4175646"><ele>501.2</ele><time>2026-04-19T15:45:50.052Z</time></trkpt><trkpt lat="43.0670682" lon="11.4176086"><ele>502.6</ele><time>2026-04-19T15:45:51.052Z</time></trkpt><trkpt lat="43.0669702" lon="11.4176478"><ele>504.0</ele><time>2026-04-19T15:45:52.052Z</time></trkpt><trkpt lat="43.0668892" lon="11.4176909"><ele>504.0</ele><time>2026-04-19T15:45:53.052Z</time></trkpt><trkpt lat="43.0668097" lon="11.4177517"><ele>504.0</ele><time>2026-04-19T15:45:54.052Z</time></trkpt><trkpt lat="43.066753" lon="11.417848"><ele>504.0</ele><time>2026-04-19T15:45:55.052Z</time></trkpt><trkpt lat="43.066702" lon="11.4179565"><ele>504.0</ele><time>2026-04-19T15:45:56.053Z</time></trkpt><trkpt lat="43.0666568" lon="11.4180865"><ele>504.0</ele><time>2026-04-19T15:45:57.052Z</time></trkpt><trkpt lat="43.0666229" lon="11.4182245"><ele>500.79999999999995</ele><time>2026-04-19T15:45:58.052Z</time></trkpt><trkpt lat="43.0665934" lon="11.4183667"><ele>497.59999999999997</ele><time>2026-04-19T15:45:59.053Z</time></trkpt><trkpt lat="43.0665645" lon="11.4185145"><ele>494.4</ele><time>2026-04-19T15:46:00.052Z</time></trkpt><trkpt lat="43.0665465" lon="11.4186669"><ele>491.2</ele><time>2026-04-19T15:46:01.052Z</time></trkpt><trkpt lat="43.0665342" lon="11.418817"><ele>488.0</ele><time>2026-04-19T15:46:02.052Z</time></trkpt><trkpt lat="43.0665341" lon="11.4189657"><ele>486.59999999999997</ele><time>2026-04-19T15:46:03.052Z</time></trkpt><trkpt lat="43.0665403" lon="11.4191026"><ele>485.19999999999993</ele><time>2026-04-19T15:46:04.053Z</time></trkpt><trkpt lat="43.0665474" lon="11.4192274"><ele>483.8</ele><time>2026-04-19T15:46:05.052Z</time></trkpt><trkpt lat="43.0665499" lon="11.4193623"><ele>482.4</ele><time>2026-04-19T15:46:06.052Z</time></trkpt><trkpt lat="43.066557" lon="11.4194931"><ele>481.0</ele><time>2026-04-19T15:46:07.052Z</time></trkpt><trkpt lat="43.0665586" lon="11.4196327"><ele>481.8</ele><time>2026-04-19T15:46:08.053Z</time></trkpt><trkpt lat="43.0665503" lon="11.4197766"><ele>482.6</ele><time>2026-04-19T15:46:09.052Z</time></trkpt><trkpt lat="43.0665277" lon="11.4199148"><ele>483.4</ele><time>2026-04-19T15:46:10.052Z</time></trkpt><trkpt lat="43.0664876" lon="11.4200463"><ele>484.2</ele><time>2026-04-19T15:46:11.052Z</time></trkpt><trkpt lat="43.0664321" lon="11.4201748"><ele>485.0</ele><time>2026-04-19T15:46:12.052Z</time></trkpt><trkpt lat="43.066367" lon="11.4203029"><ele>485.0</ele><time>2026-04-19T15:46:13.052Z</time></trkpt><trkpt lat="43.0663067" lon="11.4204316"><ele>485.0</ele><time>2026-04-19T15:46:14.053Z</time></trkpt><trkpt lat="43.066245" lon="11.4205679"><ele>485.0</ele><time>2026-04-19T15:46:15.052Z</time></trkpt><trkpt lat="43.0661829" lon="11.4206995"><ele>485.0</ele><time>2026-04-19T15:46:16.052Z</time></trkpt><trkpt lat="43.0661173" lon="11.420814"><ele>486.4</ele><time>2026-04-19T15:46:17.052Z</time></trkpt><trkpt lat="43.0660486" lon="11.4209271"><ele>487.8</ele><time>2026-04-19T15:46:18.052Z</time></trkpt><trkpt lat="43.0659791" lon="11.4210442"><ele>489.20000000000005</ele><time>2026-04-19T15:46:19.053Z</time></trkpt><trkpt lat="43.0659148" lon="11.4211535"><ele>490.6</ele><time>2026-04-19T15:46:20.052Z</time></trkpt><trkpt lat="43.0658562" lon="11.4212655"><ele>492.0</ele><time>2026-04-19T15:46:21.053Z</time></trkpt><trkpt lat="43.0657998" lon="11.4213834"><ele>490.8</ele><time>2026-04-19T15:46:22.052Z</time></trkpt><trkpt lat="43.0657418" lon="11.4215005"><ele>489.6</ele><time>2026-04-19T15:46:23.052Z</time></trkpt><trkpt lat="43.0656849" lon="11.4216178"><ele>488.40000000000003</ele><time>2026-04-19T15:46:24.053Z</time></trkpt><trkpt lat="43.0656167" lon="11.421728"><ele>487.20000000000005</ele><time>2026-04-19T15:46:25.052Z</time></trkpt><trkpt lat="43.0655368" lon="11.421825"><ele>486.0</ele><time>2026-04-19T15:46:26.052Z</time></trkpt><trkpt lat="43.0654517" lon="11.4219126"><ele>486.0</ele><time>2026-04-19T15:46:27.053Z</time></trkpt><trkpt lat="43.0653688" lon="11.4219966"><ele>486.0</ele><time>2026-04-19T15:46:28.052Z</time></trkpt><trkpt lat="43.065286" lon="11.4220774"><ele>486.0</ele><time>2026-04-19T15:46:29.052Z</time></trkpt><trkpt lat="43.0652033" lon="11.4221351"><ele>486.0</ele><time>2026-04-19T15:46:30.052Z</time></trkpt><trkpt lat="43.0651118" lon="11.4221784"><ele>486.0</ele><time>2026-04-19T15:46:31.052Z</time></trkpt><trkpt lat="43.0650111" lon="11.4222122"><ele>486.0</ele><time>2026-04-19T15:46:32.052Z</time></trkpt><trkpt lat="43.0648984" lon="11.4222114"><ele>486.0</ele><time>2026-04-19T15:46:33.053Z</time></trkpt><trkpt lat="43.0647919" lon="11.422237"><ele>486.0</ele><time>2026-04-19T15:46:34.052Z</time></trkpt><trkpt lat="43.0646898" lon="11.4222261"><ele>486.0</ele><time>2026-04-19T15:46:35.052Z</time></trkpt><trkpt lat="43.0645755" lon="11.4222133"><ele>486.0</ele><time>2026-04-19T15:46:36.052Z</time></trkpt><trkpt lat="43.0644676" lon="11.4221798"><ele>484.6</ele><time>2026-04-19T15:46:37.052Z</time></trkpt><trkpt lat="43.0643569" lon="11.4221431"><ele>483.20000000000005</ele><time>2026-04-19T15:46:38.052Z</time></trkpt><trkpt lat="43.0642558" lon="11.4220991"><ele>481.79999999999995</ele><time>2026-04-19T15:46:39.052Z</time></trkpt><trkpt lat="43.0641655" lon="11.4220528"><ele>480.4</ele><time>2026-04-19T15:46:40.053Z</time></trkpt><trkpt lat="43.0640807" lon="11.4220055"><ele>479.0</ele><time>2026-04-19T15:46:41.053Z</time></trkpt><trkpt lat="43.0639938" lon="11.4219638"><ele>477.8333333333333</ele><time>2026-04-19T15:46:42.053Z</time></trkpt><trkpt lat="43.0639008" lon="11.421958"><ele>476.66666666666663</ele><time>2026-04-19T15:46:43.052Z</time></trkpt><trkpt lat="43.0638078" lon="11.4219688"><ele>475.5</ele><time>2026-04-19T15:46:44.052Z</time></trkpt><trkpt lat="43.0637218" lon="11.4219823"><ele>474.33333333333337</ele><time>2026-04-19T15:46:45.052Z</time></trkpt><trkpt lat="43.063645" lon="11.4220016"><ele>473.1666666666667</ele><time>2026-04-19T15:46:46.052Z</time></trkpt><trkpt lat="43.0635784" lon="11.4220338"><ele>472.0</ele><time>2026-04-19T15:46:47.053Z</time></trkpt><trkpt lat="43.0635244" lon="11.4220833"><ele>472.00000000000006</ele><time>2026-04-19T15:46:48.052Z</time></trkpt><trkpt lat="43.0634886" lon="11.4221586"><ele>472.0</ele><time>2026-04-19T15:46:49.052Z</time></trkpt><trkpt lat="43.0634691" lon="11.422252"><ele>472.0</ele><time>2026-04-19T15:46:50.052Z</time></trkpt><trkpt lat="43.0634727" lon="11.4223504"><ele>472.0</ele><time>2026-04-19T15:46:51.053Z</time></trkpt><trkpt lat="43.0634967" lon="11.4224529"><ele>472.00000000000006</ele><time>2026-04-19T15:46:52.052Z</time></trkpt><trkpt lat="43.0635188" lon="11.4225578"><ele>472.0</ele><time>2026-04-19T15:46:53.052Z</time></trkpt><trkpt lat="43.0635292" lon="11.4226701"><ele>472.00000000000006</ele><time>2026-04-19T15:46:54.053Z</time></trkpt><trkpt lat="43.0635242" lon="11.4227936"><ele>472.0</ele><time>2026-04-19T15:46:55.053Z</time></trkpt><trkpt lat="43.063505" lon="11.4229099"><ele>472.0</ele><time>2026-04-19T15:46:56.053Z</time></trkpt><trkpt lat="43.0634636" lon="11.4230185"><ele>472.0</ele><time>2026-04-19T15:46:57.052Z</time></trkpt><trkpt lat="43.0634161" lon="11.4231203"><ele>472.00000000000006</ele><time>2026-04-19T15:46:58.053Z</time></trkpt><trkpt lat="43.0633769" lon="11.4232275"><ele>472.0</ele><time>2026-04-19T15:46:59.052Z</time></trkpt><trkpt lat="43.0633478" lon="11.4233288"><ele>471.57142857142856</ele><time>2026-04-19T15:47:00.052Z</time></trkpt><trkpt lat="43.0633277" lon="11.423434"><ele>471.14285714285717</ele><time>2026-04-19T15:47:01.052Z</time></trkpt><trkpt lat="43.0633234" lon="11.4235382"><ele>470.7142857142857</ele><time>2026-04-19T15:47:02.052Z</time></trkpt><trkpt lat="43.0633354" lon="11.4236311"><ele>470.2857142857143</ele><time>2026-04-19T15:47:03.052Z</time></trkpt><trkpt lat="43.0633512" lon="11.4237242"><ele>469.8571428571429</ele><time>2026-04-19T15:47:04.053Z</time></trkpt><trkpt lat="43.0633704" lon="11.4238194"><ele>469.42857142857144</ele><time>2026-04-19T15:47:05.053Z</time></trkpt><trkpt lat="43.0633813" lon="11.4239192"><ele>469.0</ele><time>2026-04-19T15:47:06.052Z</time></trkpt><trkpt lat="43.063382" lon="11.4240198"><ele>468.33333333333337</ele><time>2026-04-19T15:47:07.052Z</time></trkpt><trkpt lat="43.063368" lon="11.4241255"><ele>467.6666666666667</ele><time>2026-04-19T15:47:08.052Z</time></trkpt><trkpt lat="43.0633411" lon="11.4242372"><ele>467.0</ele><time>2026-04-19T15:47:09.052Z</time></trkpt><trkpt lat="43.0633035" lon="11.4243488"><ele>466.33333333333337</ele><time>2026-04-19T15:47:10.052Z</time></trkpt><trkpt lat="43.0632774" lon="11.4244712"><ele>465.6666666666667</ele><time>2026-04-19T15:47:11.052Z</time></trkpt><trkpt lat="43.0632614" lon="11.4245869"><ele>465.0</ele><time>2026-04-19T15:47:12.052Z</time></trkpt><trkpt lat="43.0632444" lon="11.4247077"><ele>464.4</ele><time>2026-04-19T15:47:13.053Z</time></trkpt><trkpt lat="43.0632324" lon="11.4248352"><ele>463.8</ele><time>2026-04-19T15:47:14.053Z</time></trkpt><trkpt lat="43.0632023" lon="11.4249631"><ele>463.20000000000005</ele><time>2026-04-19T15:47:15.052Z</time></trkpt><trkpt lat="43.0631586" lon="11.4250932"><ele>462.6</ele><time>2026-04-19T15:47:16.052Z</time></trkpt><trkpt lat="43.0631037" lon="11.4252126"><ele>462.0</ele><time>2026-04-19T15:47:17.053Z</time></trkpt><trkpt lat="43.0630361" lon="11.425327"><ele>462.0</ele><time>2026-04-19T15:47:18.052Z</time></trkpt><trkpt lat="43.062967" lon="11.4254376"><ele>462.00000000000006</ele><time>2026-04-19T15:47:19.052Z</time></trkpt><trkpt lat="43.0629049" lon="11.4255503"><ele>462.00000000000006</ele><time>2026-04-19T15:47:20.052Z</time></trkpt><trkpt lat="43.0628591" lon="11.4256655"><ele>462.0</ele><time>2026-04-19T15:47:21.052Z</time></trkpt><trkpt lat="43.0628373" lon="11.4258047"><ele>462.0</ele><time>2026-04-19T15:47:22.053Z</time></trkpt><trkpt lat="43.0628287" lon="11.4259335"><ele>462.8</ele><time>2026-04-19T15:47:23.052Z</time></trkpt><trkpt lat="43.0628286" lon="11.4260656"><ele>463.6</ele><time>2026-04-19T15:47:24.053Z</time></trkpt><trkpt lat="43.0628244" lon="11.4262002"><ele>464.40000000000003</ele><time>2026-04-19T15:47:25.052Z</time></trkpt><trkpt lat="43.0628299" lon="11.426333"><ele>465.20000000000005</ele><time>2026-04-19T15:47:26.052Z</time></trkpt><trkpt lat="43.0628455" lon="11.426475"><ele>466.0</ele><time>2026-04-19T15:47:27.053Z</time></trkpt><trkpt lat="43.0628647" lon="11.4266071"><ele>466.0</ele><time>2026-04-19T15:47:28.052Z</time></trkpt><trkpt lat="43.062883" lon="11.4267442"><ele>466.0</ele><time>2026-04-19T15:47:29.052Z</time></trkpt><trkpt lat="43.0628976" lon="11.4268779"><ele>466.0</ele><time>2026-04-19T15:47:30.053Z</time></trkpt><trkpt lat="43.0628886" lon="11.4270011"><ele>466.0</ele><time>2026-04-19T15:47:31.052Z</time></trkpt><trkpt lat="43.0628544" lon="11.4271186"><ele>466.0</ele><time>2026-04-19T15:47:32.052Z</time></trkpt><trkpt lat="43.0628064" lon="11.4272178"><ele>466.0</ele><time>2026-04-19T15:47:33.052Z</time></trkpt><trkpt lat="43.0627406" lon="11.4273007"><ele>466.0</ele><time>2026-04-19T15:47:34.052Z</time></trkpt><trkpt lat="43.0626654" lon="11.4273687"><ele>466.0</ele><time>2026-04-19T15:47:35.052Z</time></trkpt><trkpt lat="43.0625815" lon="11.4274192"><ele>466.0</ele><time>2026-04-19T15:47:36.052Z</time></trkpt><trkpt lat="43.062496" lon="11.4274607"><ele>466.0</ele><time>2026-04-19T15:47:37.052Z</time></trkpt><trkpt lat="43.0624039" lon="11.427506"><ele>466.8</ele><time>2026-04-19T15:47:38.052Z</time></trkpt><trkpt lat="43.0623064" lon="11.4275495"><ele>467.6</ele><time>2026-04-19T15:47:39.052Z</time></trkpt><trkpt lat="43.0622031" lon="11.4275813"><ele>468.4</ele><time>2026-04-19T15:47:40.052Z</time></trkpt><trkpt lat="43.0621012" lon="11.4275962"><ele>469.2</ele><time>2026-04-19T15:47:41.052Z</time></trkpt><trkpt lat="43.0620085" lon="11.4275997"><ele>470.0</ele><time>2026-04-19T15:47:42.052Z</time></trkpt><trkpt lat="43.0619131" lon="11.4275881"><ele>470.0</ele><time>2026-04-19T15:47:43.052Z</time></trkpt><trkpt lat="43.0618159" lon="11.4275468"><ele>470.0</ele><time>2026-04-19T15:47:44.053Z</time></trkpt><trkpt lat="43.0617258" lon="11.4274944"><ele>470.0</ele><time>2026-04-19T15:47:45.052Z</time></trkpt><trkpt lat="43.061638" lon="11.4274334"><ele>470.0</ele><time>2026-04-19T15:47:46.052Z</time></trkpt><trkpt lat="43.0615482" lon="11.4273834"><ele>470.0</ele><time>2026-04-19T15:47:47.053Z</time></trkpt><trkpt lat="43.0614514" lon="11.4273672"><ele>470.2</ele><time>2026-04-19T15:47:48.052Z</time></trkpt><trkpt lat="43.06135" lon="11.4273739"><ele>470.4</ele><time>2026-04-19T15:47:49.052Z</time></trkpt><trkpt lat="43.0612558" lon="11.4273963"><ele>470.6</ele><time>2026-04-19T15:47:50.052Z</time></trkpt><trkpt lat="43.0611624" lon="11.4274197"><ele>470.8</ele><time>2026-04-19T15:47:51.053Z</time></trkpt><trkpt lat="43.061067" lon="11.4274512"><ele>471.0</ele><time>2026-04-19T15:47:52.052Z</time></trkpt><trkpt lat="43.0609739" lon="11.4274772"><ele>471.0</ele><time>2026-04-19T15:47:53.053Z</time></trkpt><trkpt lat="43.0608858" lon="11.4274821"><ele>471.0</ele><time>2026-04-19T15:47:54.052Z</time></trkpt><trkpt lat="43.060798" lon="11.4274571"><ele>471.0</ele><time>2026-04-19T15:47:55.052Z</time></trkpt><trkpt lat="43.0607135" lon="11.427408"><ele>471.0</ele><time>2026-04-19T15:47:56.052Z</time></trkpt><trkpt lat="43.0606312" lon="11.4273509"><ele>471.0</ele><time>2026-04-19T15:47:57.052Z</time></trkpt><trkpt lat="43.0605554" lon="11.4272967"><ele>471.0</ele><time>2026-04-19T15:47:58.052Z</time></trkpt><trkpt lat="43.0604842" lon="11.4272573"><ele>472.3333333333333</ele><time>2026-04-19T15:47:59.052Z</time></trkpt><trkpt lat="43.0604197" lon="11.4272393"><ele>473.66666666666663</ele><time>2026-04-19T15:48:00.053Z</time></trkpt><trkpt lat="43.0603085" lon="11.4273119"><ele>475.0</ele><time>2026-04-19T15:48:02.052Z</time></trkpt><trkpt lat="43.060293" lon="11.4274281"><ele>476.3333333333333</ele><time>2026-04-19T15:48:03.052Z</time></trkpt><trkpt lat="43.060273" lon="11.4275256"><ele>477.66666666666663</ele><time>2026-04-19T15:48:04.053Z</time></trkpt><trkpt lat="43.0602503" lon="11.4276102"><ele>479.0</ele><time>2026-04-19T15:48:05.052Z</time></trkpt><trkpt lat="43.0602043" lon="11.4276894"><ele>478.99999999999994</ele><time>2026-04-19T15:48:06.052Z</time></trkpt><trkpt lat="43.0601403" lon="11.4277521"><ele>479.0</ele><time>2026-04-19T15:48:07.052Z</time></trkpt><trkpt lat="43.0600687" lon="11.4278151"><ele>479.0</ele><time>2026-04-19T15:48:08.052Z</time></trkpt><trkpt lat="43.0599941" lon="11.4278684"><ele>479.0</ele><time>2026-04-19T15:48:09.052Z</time></trkpt><trkpt lat="43.0599245" lon="11.4278893"><ele>478.99999999999994</ele><time>2026-04-19T15:48:10.053Z</time></trkpt><trkpt lat="43.0598531" lon="11.4278978"><ele>479.0</ele><time>2026-04-19T15:48:11.052Z</time></trkpt><trkpt lat="43.059783" lon="11.4278779"><ele>479.8333333333333</ele><time>2026-04-19T15:48:12.052Z</time></trkpt><trkpt lat="43.0597239" lon="11.4278386"><ele>480.66666666666663</ele><time>2026-04-19T15:48:13.053Z</time></trkpt><trkpt lat="43.0596684" lon="11.4277752"><ele>481.5</ele><time>2026-04-19T15:48:14.052Z</time></trkpt><trkpt lat="43.0596112" lon="11.4276869"><ele>482.33333333333337</ele><time>2026-04-19T15:48:15.053Z</time></trkpt><trkpt lat="43.0595618" lon="11.4276007"><ele>483.1666666666667</ele><time>2026-04-19T15:48:16.053Z</time></trkpt><trkpt lat="43.0595158" lon="11.4275207"><ele>484.0</ele><time>2026-04-19T15:48:17.052Z</time></trkpt><trkpt lat="43.0594679" lon="11.4274449"><ele>484.0</ele><time>2026-04-19T15:48:18.052Z</time></trkpt><trkpt lat="43.0594124" lon="11.4273692"><ele>483.99999999999994</ele><time>2026-04-19T15:48:19.052Z</time></trkpt><trkpt lat="43.0593532" lon="11.4273076"><ele>484.0</ele><time>2026-04-19T15:48:20.053Z</time></trkpt><trkpt lat="43.0592811" lon="11.4272554"><ele>484.0</ele><time>2026-04-19T15:48:21.052Z</time></trkpt><trkpt lat="43.0592109" lon="11.4272477"><ele>483.99999999999994</ele><time>2026-04-19T15:48:22.052Z</time></trkpt><trkpt lat="43.0591416" lon="11.4272573"><ele>484.0</ele><time>2026-04-19T15:48:23.052Z</time></trkpt><trkpt lat="43.0590774" lon="11.4272929"><ele>484.0</ele><time>2026-04-19T15:48:24.053Z</time></trkpt><trkpt lat="43.059026" lon="11.4273478"><ele>487.0</ele><time>2026-04-19T15:48:25.053Z</time></trkpt><trkpt lat="43.0589553" lon="11.4274647"><ele>490.0</ele><time>2026-04-19T15:48:27.052Z</time></trkpt><trkpt lat="43.0589812" lon="11.4275859"><ele>493.0</ele><time>2026-04-19T15:48:28.052Z</time></trkpt><trkpt lat="43.0590259" lon="11.427684"><ele>496.0</ele><time>2026-04-19T15:48:29.052Z</time></trkpt><trkpt lat="43.0590585" lon="11.4277917"><ele>499.0</ele><time>2026-04-19T15:48:30.053Z</time></trkpt><trkpt lat="43.059107" lon="11.4279167"><ele>497.6666666666667</ele><time>2026-04-19T15:48:31.052Z</time></trkpt><trkpt lat="43.0591374" lon="11.4280313"><ele>496.33333333333337</ele><time>2026-04-19T15:48:32.052Z</time></trkpt><trkpt lat="43.0591497" lon="11.4281404"><ele>495.0</ele><time>2026-04-19T15:48:33.052Z</time></trkpt><trkpt lat="43.0591391" lon="11.4282327"><ele>493.66666666666663</ele><time>2026-04-19T15:48:34.052Z</time></trkpt><trkpt lat="43.0591034" lon="11.4283071"><ele>492.3333333333333</ele><time>2026-04-19T15:48:35.052Z</time></trkpt><trkpt lat="43.0589888" lon="11.4283878"><ele>491.0</ele><time>2026-04-19T15:48:37.052Z</time></trkpt><trkpt lat="43.058921" lon="11.4284119"><ele>490.99999999999994</ele><time>2026-04-19T15:48:38.052Z</time></trkpt><trkpt lat="43.0588528" lon="11.4284602"><ele>491.0</ele><time>2026-04-19T15:48:39.052Z</time></trkpt><trkpt lat="43.0587888" lon="11.4285248"><ele>491.0</ele><time>2026-04-19T15:48:40.052Z</time></trkpt><trkpt lat="43.0587214" lon="11.4286011"><ele>491.0</ele><time>2026-04-19T15:48:41.052Z</time></trkpt><trkpt lat="43.058662" lon="11.4286908"><ele>490.99999999999994</ele><time>2026-04-19T15:48:42.052Z</time></trkpt><trkpt lat="43.058609" lon="11.428796"><ele>491.0</ele><time>2026-04-19T15:48:43.052Z</time></trkpt><trkpt lat="43.0585612" lon="11.4289091"><ele>490.0</ele><time>2026-04-19T15:48:44.052Z</time></trkpt><trkpt lat="43.0585171" lon="11.4290292"><ele>489.0</ele><time>2026-04-19T15:48:45.052Z</time></trkpt><trkpt lat="43.0584737" lon="11.4291542"><ele>488.0</ele><time>2026-04-19T15:48:46.052Z</time></trkpt><trkpt lat="43.0584366" lon="11.4292788"><ele>487.0</ele><time>2026-04-19T15:48:47.053Z</time></trkpt><trkpt lat="43.0583996" lon="11.4294111"><ele>486.0</ele><time>2026-04-19T15:48:48.052Z</time></trkpt><trkpt lat="43.058365" lon="11.4295493"><ele>486.0</ele><time>2026-04-19T15:48:49.053Z</time></trkpt><trkpt lat="43.0583357" lon="11.4296943"><ele>486.0</ele><time>2026-04-19T15:48:50.052Z</time></trkpt><trkpt lat="43.0583085" lon="11.4298295"><ele>486.0</ele><time>2026-04-19T15:48:51.052Z</time></trkpt><trkpt lat="43.0582892" lon="11.4299486"><ele>486.0</ele><time>2026-04-19T15:48:52.052Z</time></trkpt><trkpt lat="43.0582711" lon="11.4300783"><ele>486.0</ele><time>2026-04-19T15:48:53.053Z</time></trkpt><trkpt lat="43.0582634" lon="11.4302099"><ele>484.8</ele><time>2026-04-19T15:48:54.052Z</time></trkpt><trkpt lat="43.0582693" lon="11.4303476"><ele>483.6</ele><time>2026-04-19T15:48:55.052Z</time></trkpt><trkpt lat="43.0582733" lon="11.4304735"><ele>482.4</ele><time>2026-04-19T15:48:56.052Z</time></trkpt><trkpt lat="43.0582736" lon="11.4305944"><ele>481.2</ele><time>2026-04-19T15:48:57.052Z</time></trkpt><trkpt lat="43.0582644" lon="11.4307117"><ele>480.0</ele><time>2026-04-19T15:48:58.052Z</time></trkpt><trkpt lat="43.0582316" lon="11.4308162"><ele>480.0</ele><time>2026-04-19T15:48:59.052Z</time></trkpt><trkpt lat="43.0581815" lon="11.4309065"><ele>480.0</ele><time>2026-04-19T15:49:00.053Z</time></trkpt><trkpt lat="43.0581152" lon="11.4309835"><ele>480.0</ele><time>2026-04-19T15:49:01.052Z</time></trkpt><trkpt lat="43.0580323" lon="11.4310424"><ele>480.0</ele><time>2026-04-19T15:49:02.053Z</time></trkpt><trkpt lat="43.0579397" lon="11.4311028"><ele>480.0</ele><time>2026-04-19T15:49:03.052Z</time></trkpt><trkpt lat="43.0578426" lon="11.4311662"><ele>480.0</ele><time>2026-04-19T15:49:04.052Z</time></trkpt><trkpt lat="43.0577441" lon="11.4312269"><ele>480.0</ele><time>2026-04-19T15:49:05.053Z</time></trkpt><trkpt lat="43.0576459" lon="11.4312964"><ele>480.0</ele><time>2026-04-19T15:49:06.052Z</time></trkpt><trkpt lat="43.057553" lon="11.4313663"><ele>480.0</ele><time>2026-04-19T15:49:07.053Z</time></trkpt><trkpt lat="43.0574796" lon="11.4314508"><ele>480.0</ele><time>2026-04-19T15:49:08.052Z</time></trkpt><trkpt lat="43.0574078" lon="11.4315369"><ele>481.5</ele><time>2026-04-19T15:49:09.052Z</time></trkpt><trkpt lat="43.0573394" lon="11.4316298"><ele>483.0</ele><time>2026-04-19T15:49:10.052Z</time></trkpt><trkpt lat="43.0572756" lon="11.4317108"><ele>484.5</ele><time>2026-04-19T15:49:11.053Z</time></trkpt><trkpt lat="43.057222" lon="11.4317874"><ele>486.0</ele><time>2026-04-19T15:49:12.052Z</time></trkpt><trkpt lat="43.057172" lon="11.4318684"><ele>487.5</ele><time>2026-04-19T15:49:13.052Z</time></trkpt><trkpt lat="43.0571285" lon="11.4319483"><ele>489.0</ele><time>2026-04-19T15:49:14.052Z</time></trkpt><trkpt lat="43.0570887" lon="11.4320164"><ele>489.0</ele><time>2026-04-19T15:49:15.053Z</time></trkpt><trkpt lat="43.0570264" lon="11.4321328"><ele>489.0</ele><time>2026-04-19T15:49:17.052Z</time></trkpt><trkpt lat="43.0569525" lon="11.432209"><ele>489.0</ele><time>2026-04-19T15:49:20.052Z</time></trkpt><trkpt lat="43.0568581" lon="11.4322532"><ele>489.0</ele><time>2026-04-19T15:49:22.052Z</time></trkpt><trkpt lat="43.0567591" lon="11.4322786"><ele>489.0</ele><time>2026-04-19T15:49:24.053Z</time></trkpt><trkpt lat="43.0566531" lon="11.432232"><ele>489.1666666666667</ele><time>2026-04-19T15:49:26.052Z</time></trkpt><trkpt lat="43.0565972" lon="11.4321867"><ele>489.33333333333337</ele><time>2026-04-19T15:49:27.052Z</time></trkpt><trkpt lat="43.0565363" lon="11.4321406"><ele>489.5</ele><time>2026-04-19T15:49:28.052Z</time></trkpt><trkpt lat="43.0564718" lon="11.4320943"><ele>489.6666666666667</ele><time>2026-04-19T15:49:29.052Z</time></trkpt><trkpt lat="43.0564063" lon="11.4320488"><ele>489.83333333333337</ele><time>2026-04-19T15:49:30.053Z</time></trkpt><trkpt lat="43.0563326" lon="11.4319988"><ele>490.0</ele><time>2026-04-19T15:49:31.052Z</time></trkpt><trkpt lat="43.0562108" lon="11.4319421"><ele>488.83333333333337</ele><time>2026-04-19T15:49:33.053Z</time></trkpt><trkpt lat="43.0561265" lon="11.4319161"><ele>487.6666666666667</ele><time>2026-04-19T15:49:34.052Z</time></trkpt><trkpt lat="43.0560486" lon="11.4318896"><ele>486.5</ele><time>2026-04-19T15:49:35.052Z</time></trkpt><trkpt lat="43.0559743" lon="11.431866"><ele>485.33333333333337</ele><time>2026-04-19T15:49:36.052Z</time></trkpt><trkpt lat="43.0559055" lon="11.4318387"><ele>484.1666666666667</ele><time>2026-04-19T15:49:37.053Z</time></trkpt><trkpt lat="43.0558364" lon="11.4318085"><ele>483.0</ele><time>2026-04-19T15:49:38.052Z</time></trkpt><trkpt lat="43.0557624" lon="11.4317869"><ele>482.2857142857143</ele><time>2026-04-19T15:49:39.052Z</time></trkpt><trkpt lat="43.0556834" lon="11.4317759"><ele>481.57142857142856</ele><time>2026-04-19T15:49:40.052Z</time></trkpt><trkpt lat="43.0556029" lon="11.4317535"><ele>480.8571428571429</ele><time>2026-04-19T15:49:41.052Z</time></trkpt><trkpt lat="43.0555303" lon="11.4317483"><ele>480.14285714285717</ele><time>2026-04-19T15:49:42.052Z</time></trkpt><trkpt lat="43.0554548" lon="11.4317302"><ele>479.42857142857144</ele><time>2026-04-19T15:49:43.052Z</time></trkpt><trkpt lat="43.0553921" lon="11.4316909"><ele>478.7142857142858</ele><time>2026-04-19T15:49:44.052Z</time></trkpt><trkpt lat="43.0553376" lon="11.4316401"><ele>478.00000000000006</ele><time>2026-04-19T15:49:45.052Z</time></trkpt><trkpt lat="43.0552859" lon="11.4315649"><ele>478.00000000000006</ele><time>2026-04-19T15:49:46.052Z</time></trkpt><trkpt lat="43.0552331" lon="11.4314719"><ele>478.0</ele><time>2026-04-19T15:49:47.052Z</time></trkpt><trkpt lat="43.0551991" lon="11.4313989"><ele>478.00000000000006</ele><time>2026-04-19T15:49:48.052Z</time></trkpt><trkpt lat="43.055136" lon="11.4313526"><ele>478.00000000000006</ele><time>2026-04-19T15:49:49.053Z</time></trkpt><trkpt lat="43.0550819" lon="11.4312798"><ele>478.0</ele><time>2026-04-19T15:49:50.052Z</time></trkpt><trkpt lat="43.0550306" lon="11.4312122"><ele>478.00000000000006</ele><time>2026-04-19T15:49:51.052Z</time></trkpt><trkpt lat="43.0549688" lon="11.4311512"><ele>478.00000000000006</ele><time>2026-04-19T15:49:52.052Z</time></trkpt><trkpt lat="43.0549068" lon="11.4310752"><ele>476.00000000000006</ele><time>2026-04-19T15:49:53.052Z</time></trkpt><trkpt lat="43.0548459" lon="11.4310157"><ele>474.0</ele><time>2026-04-19T15:49:54.052Z</time></trkpt><trkpt lat="43.0547774" lon="11.4309669"><ele>472.0</ele><time>2026-04-19T15:49:55.052Z</time></trkpt><trkpt lat="43.054704" lon="11.4309231"><ele>470.0</ele><time>2026-04-19T15:49:56.052Z</time></trkpt><trkpt lat="43.0546255" lon="11.4308952"><ele>468.00000000000006</ele><time>2026-04-19T15:49:57.052Z</time></trkpt><trkpt lat="43.0545444" lon="11.4308736"><ele>466.0</ele><time>2026-04-19T15:49:58.053Z</time></trkpt><trkpt lat="43.0544598" lon="11.4308563"><ele>466.00000000000006</ele><time>2026-04-19T15:49:59.053Z</time></trkpt><trkpt lat="43.054376" lon="11.4308382"><ele>466.0</ele><time>2026-04-19T15:50:00.052Z</time></trkpt><trkpt lat="43.0542879" lon="11.4308175"><ele>466.0</ele><time>2026-04-19T15:50:01.052Z</time></trkpt><trkpt lat="43.0542025" lon="11.4307978"><ele>466.0</ele><time>2026-04-19T15:50:02.052Z</time></trkpt><trkpt lat="43.0541132" lon="11.4307837"><ele>466.00000000000006</ele><time>2026-04-19T15:50:03.052Z</time></trkpt><trkpt lat="43.0540207" lon="11.4307765"><ele>466.0</ele><time>2026-04-19T15:50:04.052Z</time></trkpt><trkpt lat="43.053933" lon="11.430771"><ele>464.6666666666667</ele><time>2026-04-19T15:50:05.052Z</time></trkpt><trkpt lat="43.0538455" lon="11.4307679"><ele>463.33333333333337</ele><time>2026-04-19T15:50:06.052Z</time></trkpt><trkpt lat="43.0537626" lon="11.4307698"><ele>462.0</ele><time>2026-04-19T15:50:07.052Z</time></trkpt><trkpt lat="43.0536777" lon="11.4307662"><ele>460.66666666666663</ele><time>2026-04-19T15:50:08.052Z</time></trkpt><trkpt lat="43.0535944" lon="11.4307543"><ele>459.3333333333333</ele><time>2026-04-19T15:50:09.052Z</time></trkpt><trkpt lat="43.0535168" lon="11.4307235"><ele>458.0</ele><time>2026-04-19T15:50:10.053Z</time></trkpt><trkpt lat="43.0534447" lon="11.4306892"><ele>457.99999999999994</ele><time>2026-04-19T15:50:11.052Z</time></trkpt><trkpt lat="43.0533636" lon="11.4306512"><ele>458.0</ele><time>2026-04-19T15:50:12.052Z</time></trkpt><trkpt lat="43.0532817" lon="11.4306113"><ele>458.0</ele><time>2026-04-19T15:50:13.052Z</time></trkpt><trkpt lat="43.0531959" lon="11.4305716"><ele>458.0</ele><time>2026-04-19T15:50:14.052Z</time></trkpt><trkpt lat="43.0531111" lon="11.4305336"><ele>457.99999999999994</ele><time>2026-04-19T15:50:15.052Z</time></trkpt><trkpt lat="43.0530255" lon="11.4304956"><ele>458.0</ele><time>2026-04-19T15:50:16.053Z</time></trkpt><trkpt lat="43.0529413" lon="11.4304445"><ele>455.59999999999997</ele><time>2026-04-19T15:50:17.053Z</time></trkpt><trkpt lat="43.0528611" lon="11.4303842"><ele>453.19999999999993</ele><time>2026-04-19T15:50:18.053Z</time></trkpt><trkpt lat="43.0527732" lon="11.4303226"><ele>450.8</ele><time>2026-04-19T15:50:19.052Z</time></trkpt><trkpt lat="43.0526873" lon="11.4302538"><ele>448.4</ele><time>2026-04-19T15:50:20.052Z</time></trkpt><trkpt lat="43.0525865" lon="11.4301908"><ele>446.0</ele><time>2026-04-19T15:50:21.053Z</time></trkpt><trkpt lat="43.0524907" lon="11.4301335"><ele>443.20000000000005</ele><time>2026-04-19T15:50:22.052Z</time></trkpt><trkpt lat="43.0523872" lon="11.4300719"><ele>440.40000000000003</ele><time>2026-04-19T15:50:23.052Z</time></trkpt><trkpt lat="43.0522881" lon="11.4300173"><ele>437.6</ele><time>2026-04-19T15:50:24.053Z</time></trkpt><trkpt lat="43.0521835" lon="11.4299644"><ele>434.8</ele><time>2026-04-19T15:50:25.052Z</time></trkpt><trkpt lat="43.0520807" lon="11.4299181"><ele>432.0</ele><time>2026-04-19T15:50:26.053Z</time></trkpt><trkpt lat="43.0519824" lon="11.4298744"><ele>432.0</ele><time>2026-04-19T15:50:27.052Z</time></trkpt><trkpt lat="43.0518879" lon="11.4298496"><ele>432.00000000000006</ele><time>2026-04-19T15:50:28.052Z</time></trkpt><trkpt lat="43.0517995" lon="11.4298177"><ele>432.00000000000006</ele><time>2026-04-19T15:50:29.052Z</time></trkpt><trkpt lat="43.0516997" lon="11.4297771"><ele>432.0</ele><time>2026-04-19T15:50:30.052Z</time></trkpt><trkpt lat="43.0516035" lon="11.4297334"><ele>432.0</ele><time>2026-04-19T15:50:31.053Z</time></trkpt><trkpt lat="43.0515061" lon="11.4296819"><ele>432.8</ele><time>2026-04-19T15:50:32.052Z</time></trkpt><trkpt lat="43.0514076" lon="11.4296207"><ele>433.6</ele><time>2026-04-19T15:50:33.052Z</time></trkpt><trkpt lat="43.0513146" lon="11.4295482"><ele>434.40000000000003</ele><time>2026-04-19T15:50:34.052Z</time></trkpt><trkpt lat="43.051221" lon="11.4294713"><ele>435.20000000000005</ele><time>2026-04-19T15:50:35.052Z</time></trkpt><trkpt lat="43.0511313" lon="11.4293881"><ele>436.0</ele><time>2026-04-19T15:50:36.052Z</time></trkpt><trkpt lat="43.0510415" lon="11.4292987"><ele>436.0</ele><time>2026-04-19T15:50:37.052Z</time></trkpt><trkpt lat="43.0509588" lon="11.4292063"><ele>436.0</ele><time>2026-04-19T15:50:38.052Z</time></trkpt><trkpt lat="43.0508794" lon="11.4291104"><ele>436.0</ele><time>2026-04-19T15:50:39.053Z</time></trkpt><trkpt lat="43.0508021" lon="11.4290238"><ele>436.0</ele><time>2026-04-19T15:50:40.053Z</time></trkpt><trkpt lat="43.0507315" lon="11.428953"><ele>436.0</ele><time>2026-04-19T15:50:41.052Z</time></trkpt><trkpt lat="43.0506633" lon="11.4288986"><ele>436.1666666666667</ele><time>2026-04-19T15:50:42.052Z</time></trkpt><trkpt lat="43.0505954" lon="11.4288436"><ele>436.33333333333337</ele><time>2026-04-19T15:50:43.052Z</time></trkpt><trkpt lat="43.0505272" lon="11.4287832"><ele>436.5</ele><time>2026-04-19T15:50:44.052Z</time></trkpt><trkpt lat="43.0504592" lon="11.4287177"><ele>436.66666666666663</ele><time>2026-04-19T15:50:45.052Z</time></trkpt><trkpt lat="43.0503917" lon="11.4286385"><ele>436.8333333333333</ele><time>2026-04-19T15:50:46.052Z</time></trkpt><trkpt lat="43.0503212" lon="11.4285615"><ele>437.0</ele><time>2026-04-19T15:50:47.052Z</time></trkpt><trkpt lat="43.0502484" lon="11.4284846"><ele>436.99999999999994</ele><time>2026-04-19T15:50:48.053Z</time></trkpt><trkpt lat="43.0501746" lon="11.42842"><ele>437.0</ele><time>2026-04-19T15:50:49.052Z</time></trkpt><trkpt lat="43.0500954" lon="11.4283696"><ele>437.0</ele><time>2026-04-19T15:50:50.052Z</time></trkpt><trkpt lat="43.0500173" lon="11.4283304"><ele>437.0</ele><time>2026-04-19T15:50:51.052Z</time></trkpt><trkpt lat="43.0499262" lon="11.4283055"><ele>436.99999999999994</ele><time>2026-04-19T15:50:52.052Z</time></trkpt><trkpt lat="43.0498361" lon="11.4282749"><ele>437.0</ele><time>2026-04-19T15:50:53.052Z</time></trkpt><trkpt lat="43.0497509" lon="11.4282297"><ele>438.0</ele><time>2026-04-19T15:50:54.053Z</time></trkpt><trkpt lat="43.0496744" lon="11.4281625"><ele>439.00000000000006</ele><time>2026-04-19T15:50:55.052Z</time></trkpt><trkpt lat="43.0495944" lon="11.4280751"><ele>440.00000000000006</ele><time>2026-04-19T15:50:56.052Z</time></trkpt><trkpt lat="43.0495252" lon="11.4279846"><ele>441.0</ele><time>2026-04-19T15:50:57.052Z</time></trkpt><trkpt lat="43.0494557" lon="11.4278887"><ele>442.0</ele><time>2026-04-19T15:50:58.053Z</time></trkpt><trkpt lat="43.049381" lon="11.4278035"><ele>439.20000000000005</ele><time>2026-04-19T15:50:59.053Z</time></trkpt><trkpt lat="43.0492956" lon="11.4277296"><ele>436.40000000000003</ele><time>2026-04-19T15:51:00.053Z</time></trkpt><trkpt lat="43.0492082" lon="11.4276624"><ele>433.59999999999997</ele><time>2026-04-19T15:51:01.052Z</time></trkpt><trkpt lat="43.0491245" lon="11.4275992"><ele>430.79999999999995</ele><time>2026-04-19T15:51:02.052Z</time></trkpt><trkpt lat="43.0490387" lon="11.4275319"><ele>428.0</ele><time>2026-04-19T15:51:03.052Z</time></trkpt><trkpt lat="43.0489505" lon="11.4274613"><ele>427.79999999999995</ele><time>2026-04-19T15:51:04.052Z</time></trkpt><trkpt lat="43.0488682" lon="11.4273795"><ele>427.59999999999997</ele><time>2026-04-19T15:51:05.052Z</time></trkpt><trkpt lat="43.0487954" lon="11.4272864"><ele>427.40000000000003</ele><time>2026-04-19T15:51:06.052Z</time></trkpt><trkpt lat="43.0487286" lon="11.4271921"><ele>427.20000000000005</ele><time>2026-04-19T15:51:07.052Z</time></trkpt><trkpt lat="43.048675" lon="11.427085"><ele>427.0</ele><time>2026-04-19T15:51:08.052Z</time></trkpt><trkpt lat="43.0486157" lon="11.4269808"><ele>425.20000000000005</ele><time>2026-04-19T15:51:09.052Z</time></trkpt><trkpt lat="43.0485508" lon="11.4268869"><ele>423.40000000000003</ele><time>2026-04-19T15:51:10.052Z</time></trkpt><trkpt lat="43.0484788" lon="11.4267892"><ele>421.6</ele><time>2026-04-19T15:51:11.052Z</time></trkpt><trkpt lat="43.0484075" lon="11.4266898"><ele>419.79999999999995</ele><time>2026-04-19T15:51:12.052Z</time></trkpt><trkpt lat="43.0483408" lon="11.4265791"><ele>418.0</ele><time>2026-04-19T15:51:13.052Z</time></trkpt><trkpt lat="43.0482859" lon="11.4264566"><ele>417.0</ele><time>2026-04-19T15:51:14.052Z</time></trkpt><trkpt lat="43.0482384" lon="11.4263353"><ele>416.0</ele><time>2026-04-19T15:51:15.053Z</time></trkpt><trkpt lat="43.0481936" lon="11.4262211"><ele>415.0</ele><time>2026-04-19T15:51:16.053Z</time></trkpt><trkpt lat="43.0481494" lon="11.426109"><ele>414.0</ele><time>2026-04-19T15:51:17.053Z</time></trkpt><trkpt lat="43.0481017" lon="11.4260104"><ele>413.0</ele><time>2026-04-19T15:51:18.052Z</time></trkpt><trkpt lat="43.048052" lon="11.4259036"><ele>411.79999999999995</ele><time>2026-04-19T15:51:19.052Z</time></trkpt><trkpt lat="43.0479987" lon="11.4257976"><ele>410.6</ele><time>2026-04-19T15:51:20.052Z</time></trkpt><trkpt lat="43.0479443" lon="11.4256861"><ele>409.4</ele><time>2026-04-19T15:51:21.052Z</time></trkpt><trkpt lat="43.0478832" lon="11.4255798"><ele>408.20000000000005</ele><time>2026-04-19T15:51:22.052Z</time></trkpt><trkpt lat="43.0478181" lon="11.4254715"><ele>407.0</ele><time>2026-04-19T15:51:23.052Z</time></trkpt><trkpt lat="43.0477547" lon="11.4253675"><ele>405.0</ele><time>2026-04-19T15:51:24.052Z</time></trkpt><trkpt lat="43.0476851" lon="11.4252678"><ele>403.0</ele><time>2026-04-19T15:51:25.052Z</time></trkpt><trkpt lat="43.0476216" lon="11.4251699"><ele>401.0</ele><time>2026-04-19T15:51:26.053Z</time></trkpt><trkpt lat="43.0475597" lon="11.425072"><ele>399.0</ele><time>2026-04-19T15:51:27.053Z</time></trkpt><trkpt lat="43.0474983" lon="11.42498"><ele>397.0</ele><time>2026-04-19T15:51:28.052Z</time></trkpt><trkpt lat="43.0474363" lon="11.4248832"><ele>396.50000000000006</ele><time>2026-04-19T15:51:29.052Z</time></trkpt><trkpt lat="43.0473715" lon="11.4248009"><ele>396.0</ele><time>2026-04-19T15:51:30.052Z</time></trkpt><trkpt lat="43.0473013" lon="11.4247278"><ele>395.5</ele><time>2026-04-19T15:51:31.052Z</time></trkpt><trkpt lat="43.0472245" lon="11.4246683"><ele>395.0</ele><time>2026-04-19T15:51:32.052Z</time></trkpt><trkpt lat="43.0471394" lon="11.4246187"><ele>394.50000000000006</ele><time>2026-04-19T15:51:33.052Z</time></trkpt><trkpt lat="43.0470625" lon="11.4245643"><ele>394.0</ele><time>2026-04-19T15:51:34.052Z</time></trkpt><trkpt lat="43.0469951" lon="11.4244596"><ele>393.0</ele><time>2026-04-19T15:51:35.052Z</time></trkpt><trkpt lat="43.0469354" lon="11.4243638"><ele>392.0</ele><time>2026-04-19T15:51:36.053Z</time></trkpt><trkpt lat="43.0468849" lon="11.4242402"><ele>391.0</ele><time>2026-04-19T15:51:37.052Z</time></trkpt><trkpt lat="43.0468433" lon="11.4241194"><ele>390.0</ele><time>2026-04-19T15:51:38.053Z</time></trkpt><trkpt lat="43.0468016" lon="11.4239846"><ele>389.0</ele><time>2026-04-19T15:51:39.052Z</time></trkpt><trkpt lat="43.0467539" lon="11.4238511"><ele>388.79999999999995</ele><time>2026-04-19T15:51:40.052Z</time></trkpt><trkpt lat="43.0467056" lon="11.4237152"><ele>388.59999999999997</ele><time>2026-04-19T15:51:41.052Z</time></trkpt><trkpt lat="43.046661" lon="11.4235855"><ele>388.4</ele><time>2026-04-19T15:51:42.052Z</time></trkpt><trkpt lat="43.0466116" lon="11.4234516"><ele>388.2</ele><time>2026-04-19T15:51:43.052Z</time></trkpt><trkpt lat="43.0465629" lon="11.4233182"><ele>388.0</ele><time>2026-04-19T15:51:44.052Z</time></trkpt><trkpt lat="43.0465101" lon="11.4231929"><ele>387.79999999999995</ele><time>2026-04-19T15:51:45.052Z</time></trkpt><trkpt lat="43.0464605" lon="11.4230656"><ele>387.6</ele><time>2026-04-19T15:51:46.052Z</time></trkpt><trkpt lat="43.0464117" lon="11.4229451"><ele>387.4</ele><time>2026-04-19T15:51:47.052Z</time></trkpt><trkpt lat="43.0463639" lon="11.4228272"><ele>387.20000000000005</ele><time>2026-04-19T15:51:48.052Z</time></trkpt><trkpt lat="43.046318" lon="11.4227084"><ele>387.0</ele><time>2026-04-19T15:51:49.052Z</time></trkpt><trkpt lat="43.0462765" lon="11.4225928"><ele>389.1666666666667</ele><time>2026-04-19T15:51:50.053Z</time></trkpt><trkpt lat="43.0462372" lon="11.4224812"><ele>391.33333333333337</ele><time>2026-04-19T15:51:51.053Z</time></trkpt><trkpt lat="43.0461981" lon="11.4223818"><ele>393.5</ele><time>2026-04-19T15:51:52.052Z</time></trkpt><trkpt lat="43.0461591" lon="11.4222825"><ele>395.6666666666667</ele><time>2026-04-19T15:51:53.053Z</time></trkpt><trkpt lat="43.0461306" lon="11.4222025"><ele>397.83333333333337</ele><time>2026-04-19T15:51:54.052Z</time></trkpt><trkpt lat="43.046095" lon="11.4220764"><ele>400.0</ele><time>2026-04-19T15:51:56.053Z</time></trkpt><trkpt lat="43.0461123" lon="11.4219462"><ele>401.1666666666667</ele><time>2026-04-19T15:51:58.052Z</time></trkpt><trkpt lat="43.0461308" lon="11.4218166"><ele>402.33333333333337</ele><time>2026-04-19T15:52:00.053Z</time></trkpt><trkpt lat="43.0461511" lon="11.4216845"><ele>403.5</ele><time>2026-04-19T15:52:02.053Z</time></trkpt><trkpt lat="43.0461789" lon="11.4215998"><ele>404.66666666666663</ele><time>2026-04-19T15:52:03.052Z</time></trkpt><trkpt lat="43.0462141" lon="11.4215197"><ele>405.8333333333333</ele><time>2026-04-19T15:52:04.052Z</time></trkpt><trkpt lat="43.046253" lon="11.4214283"><ele>407.0</ele><time>2026-04-19T15:52:05.053Z</time></trkpt><trkpt lat="43.0462907" lon="11.4213331"><ele>405.8333333333333</ele><time>2026-04-19T15:52:06.052Z</time></trkpt><trkpt lat="43.046333" lon="11.4212314"><ele>404.66666666666663</ele><time>2026-04-19T15:52:07.052Z</time></trkpt><trkpt lat="43.0463739" lon="11.4211235"><ele>403.5</ele><time>2026-04-19T15:52:08.052Z</time></trkpt><trkpt lat="43.0464143" lon="11.4210142"><ele>402.33333333333337</ele><time>2026-04-19T15:52:09.052Z</time></trkpt><trkpt lat="43.0464441" lon="11.4208974"><ele>401.1666666666667</ele><time>2026-04-19T15:52:10.052Z</time></trkpt><trkpt lat="43.0464578" lon="11.4207962"><ele>400.0</ele><time>2026-04-19T15:52:11.052Z</time></trkpt><trkpt lat="43.0464613" lon="11.4207027"><ele>400.00000000000006</ele><time>2026-04-19T15:52:12.052Z</time></trkpt><trkpt lat="43.0464524" lon="11.420608"><ele>400.0</ele><time>2026-04-19T15:52:13.052Z</time></trkpt><trkpt lat="43.0464308" lon="11.4205248"><ele>400.0</ele><time>2026-04-19T15:52:14.053Z</time></trkpt><trkpt lat="43.0463977" lon="11.4204435"><ele>400.0</ele><time>2026-04-19T15:52:15.053Z</time></trkpt><trkpt lat="43.0463491" lon="11.4203556"><ele>400.00000000000006</ele><time>2026-04-19T15:52:16.052Z</time></trkpt><trkpt lat="43.0462975" lon="11.4202636"><ele>400.0</ele><time>2026-04-19T15:52:17.053Z</time></trkpt><trkpt lat="43.0462452" lon="11.4201736"><ele>398.2</ele><time>2026-04-19T15:52:18.052Z</time></trkpt><trkpt lat="43.046187" lon="11.4200729"><ele>396.4</ele><time>2026-04-19T15:52:19.052Z</time></trkpt><trkpt lat="43.0461277" lon="11.4199734"><ele>394.6</ele><time>2026-04-19T15:52:20.052Z</time></trkpt><trkpt lat="43.0460747" lon="11.4198798"><ele>392.8</ele><time>2026-04-19T15:52:21.052Z</time></trkpt><trkpt lat="43.0460264" lon="11.4197883"><ele>391.0</ele><time>2026-04-19T15:52:22.052Z</time></trkpt><trkpt lat="43.0459705" lon="11.4196811"><ele>389.6</ele><time>2026-04-19T15:52:23.052Z</time></trkpt><trkpt lat="43.0459232" lon="11.4195727"><ele>388.20000000000005</ele><time>2026-04-19T15:52:24.052Z</time></trkpt><trkpt lat="43.0458776" lon="11.4194667"><ele>386.79999999999995</ele><time>2026-04-19T15:52:25.052Z</time></trkpt><trkpt lat="43.045826" lon="11.4193651"><ele>385.4</ele><time>2026-04-19T15:52:26.052Z</time></trkpt><trkpt lat="43.04577" lon="11.4192664"><ele>384.0</ele><time>2026-04-19T15:52:27.052Z</time></trkpt><trkpt lat="43.0457069" lon="11.4191842"><ele>383.6</ele><time>2026-04-19T15:52:28.053Z</time></trkpt><trkpt lat="43.0456334" lon="11.4191038"><ele>383.2</ele><time>2026-04-19T15:52:29.052Z</time></trkpt><trkpt lat="43.0455555" lon="11.4190204"><ele>382.8</ele><time>2026-04-19T15:52:30.052Z</time></trkpt><trkpt lat="43.0454757" lon="11.4189617"><ele>382.40000000000003</ele><time>2026-04-19T15:52:31.052Z</time></trkpt><trkpt lat="43.0454099" lon="11.4189104"><ele>382.0</ele><time>2026-04-19T15:52:32.052Z</time></trkpt><trkpt lat="43.0453345" lon="11.4188343"><ele>381.66666666666663</ele><time>2026-04-19T15:52:33.052Z</time></trkpt><trkpt lat="43.0452539" lon="11.4187682"><ele>381.3333333333333</ele><time>2026-04-19T15:52:34.053Z</time></trkpt><trkpt lat="43.0451892" lon="11.4187022"><ele>381.0</ele><time>2026-04-19T15:52:35.052Z</time></trkpt><trkpt lat="43.0451168" lon="11.4186342"><ele>380.6666666666667</ele><time>2026-04-19T15:52:36.052Z</time></trkpt><trkpt lat="43.0450493" lon="11.4185623"><ele>380.33333333333337</ele><time>2026-04-19T15:52:37.052Z</time></trkpt><trkpt lat="43.0450005" lon="11.4185043"><ele>380.0</ele><time>2026-04-19T15:52:38.052Z</time></trkpt><trkpt lat="43.0449391" lon="11.4184401"><ele>378.83333333333337</ele><time>2026-04-19T15:52:39.052Z</time></trkpt><trkpt lat="43.0448842" lon="11.4183775"><ele>377.6666666666667</ele><time>2026-04-19T15:52:40.052Z</time></trkpt><trkpt lat="43.0448216" lon="11.4183019"><ele>376.5</ele><time>2026-04-19T15:52:41.052Z</time></trkpt><trkpt lat="43.0447529" lon="11.418216"><ele>375.3333333333333</ele><time>2026-04-19T15:52:42.052Z</time></trkpt><trkpt lat="43.0446829" lon="11.4181313"><ele>374.16666666666663</ele><time>2026-04-19T15:52:43.052Z</time></trkpt><trkpt lat="43.0446132" lon="11.4180544"><ele>373.0</ele><time>2026-04-19T15:52:44.052Z</time></trkpt><trkpt lat="43.0445432" lon="11.4179772"><ele>373.0</ele><time>2026-04-19T15:52:45.052Z</time></trkpt><trkpt lat="43.0444732" lon="11.4179021"><ele>373.0</ele><time>2026-04-19T15:52:46.052Z</time></trkpt><trkpt lat="43.0444015" lon="11.4178287"><ele>373.0</ele><time>2026-04-19T15:52:47.052Z</time></trkpt><trkpt lat="43.0443284" lon="11.4177475"><ele>373.0</ele><time>2026-04-19T15:52:48.052Z</time></trkpt><trkpt lat="43.04425" lon="11.4176648"><ele>373.0</ele><time>2026-04-19T15:52:49.052Z</time></trkpt><trkpt lat="43.0441741" lon="11.4175773"><ele>372.0</ele><time>2026-04-19T15:52:50.052Z</time></trkpt><trkpt lat="43.0440979" lon="11.4174928"><ele>371.0</ele><time>2026-04-19T15:52:51.052Z</time></trkpt><trkpt lat="43.0440225" lon="11.4173919"><ele>370.0</ele><time>2026-04-19T15:52:52.053Z</time></trkpt><trkpt lat="43.0439498" lon="11.4172967"><ele>369.0</ele><time>2026-04-19T15:52:53.052Z</time></trkpt><trkpt lat="43.0438831" lon="11.4172094"><ele>368.0</ele><time>2026-04-19T15:52:54.053Z</time></trkpt><trkpt lat="43.0438177" lon="11.4171188"><ele>368.0</ele><time>2026-04-19T15:52:55.052Z</time></trkpt><trkpt lat="43.0437587" lon="11.417024"><ele>368.0</ele><time>2026-04-19T15:52:56.053Z</time></trkpt><trkpt lat="43.0437047" lon="11.4169291"><ele>368.0</ele><time>2026-04-19T15:52:57.053Z</time></trkpt><trkpt lat="43.0436452" lon="11.4168302"><ele>368.0</ele><time>2026-04-19T15:52:58.053Z</time></trkpt><trkpt lat="43.043588" lon="11.41673"><ele>368.0</ele><time>2026-04-19T15:52:59.053Z</time></trkpt><trkpt lat="43.0435362" lon="11.4166331"><ele>368.0</ele><time>2026-04-19T15:53:00.053Z</time></trkpt><trkpt lat="43.0434808" lon="11.4165333"><ele>368.0</ele><time>2026-04-19T15:53:01.053Z</time></trkpt><trkpt lat="43.0434287" lon="11.4164319"><ele>368.0</ele><time>2026-04-19T15:53:02.053Z</time></trkpt><trkpt lat="43.0433761" lon="11.4163312"><ele>368.0</ele><time>2026-04-19T15:53:03.052Z</time></trkpt><trkpt lat="43.0433208" lon="11.4162342"><ele>368.0</ele><time>2026-04-19T15:53:04.052Z</time></trkpt><trkpt lat="43.0432601" lon="11.4161374"><ele>366.59999999999997</ele><time>2026-04-19T15:53:05.053Z</time></trkpt><trkpt lat="43.0431952" lon="11.4160318"><ele>365.2</ele><time>2026-04-19T15:53:06.053Z</time></trkpt><trkpt lat="43.0431343" lon="11.4159301"><ele>363.8</ele><time>2026-04-19T15:53:07.052Z</time></trkpt><trkpt lat="43.0430787" lon="11.4158272"><ele>362.4</ele><time>2026-04-19T15:53:08.053Z</time></trkpt><trkpt lat="43.0430248" lon="11.4157179"><ele>361.0</ele><time>2026-04-19T15:53:09.052Z</time></trkpt><trkpt lat="43.0429666" lon="11.4155966"><ele>360.8</ele><time>2026-04-19T15:53:10.052Z</time></trkpt><trkpt lat="43.0429173" lon="11.4154783"><ele>360.6</ele><time>2026-04-19T15:53:11.052Z</time></trkpt><trkpt lat="43.0428679" lon="11.4153687"><ele>360.4</ele><time>2026-04-19T15:53:12.052Z</time></trkpt><trkpt lat="43.042813" lon="11.4152577"><ele>360.2</ele><time>2026-04-19T15:53:13.053Z</time></trkpt><trkpt lat="43.0427494" lon="11.4151402"><ele>360.0</ele><time>2026-04-19T15:53:14.052Z</time></trkpt><trkpt lat="43.0426834" lon="11.4150381"><ele>360.0</ele><time>2026-04-19T15:53:15.053Z</time></trkpt><trkpt lat="43.0426259" lon="11.4149441"><ele>360.0</ele><time>2026-04-19T15:53:16.052Z</time></trkpt><trkpt lat="43.0425688" lon="11.4148574"><ele>360.0</ele><time>2026-04-19T15:53:17.052Z</time></trkpt><trkpt lat="43.0425084" lon="11.4147804"><ele>360.0</ele><time>2026-04-19T15:53:18.052Z</time></trkpt><trkpt lat="43.0424399" lon="11.414701"><ele>360.0</ele><time>2026-04-19T15:53:19.052Z</time></trkpt><trkpt lat="43.0423687" lon="11.4146236"><ele>360.0</ele><time>2026-04-19T15:53:20.052Z</time></trkpt><trkpt lat="43.0423008" lon="11.4145399"><ele>358.5</ele><time>2026-04-19T15:53:21.052Z</time></trkpt><trkpt lat="43.0422292" lon="11.4144548"><ele>357.0</ele><time>2026-04-19T15:53:22.053Z</time></trkpt><trkpt lat="43.0421639" lon="11.4143662"><ele>355.5</ele><time>2026-04-19T15:53:23.052Z</time></trkpt><trkpt lat="43.0421082" lon="11.414288"><ele>354.0</ele><time>2026-04-19T15:53:24.052Z</time></trkpt><trkpt lat="43.0420538" lon="11.4141881"><ele>352.5</ele><time>2026-04-19T15:53:25.052Z</time></trkpt><trkpt lat="43.0420111" lon="11.414079"><ele>351.0</ele><time>2026-04-19T15:53:26.052Z</time></trkpt><trkpt lat="43.0419714" lon="11.4139709"><ele>351.0</ele><time>2026-04-19T15:53:27.052Z</time></trkpt><trkpt lat="43.0419344" lon="11.4138543"><ele>351.0</ele><time>2026-04-19T15:53:28.052Z</time></trkpt><trkpt lat="43.0418959" lon="11.4137387"><ele>351.0</ele><time>2026-04-19T15:53:29.053Z</time></trkpt><trkpt lat="43.0418544" lon="11.4136233"><ele>351.0</ele><time>2026-04-19T15:53:30.052Z</time></trkpt><trkpt lat="43.0418158" lon="11.4135037"><ele>351.0</ele><time>2026-04-19T15:53:31.052Z</time></trkpt><trkpt lat="43.0417786" lon="11.4133863"><ele>349.8</ele><time>2026-04-19T15:53:32.052Z</time></trkpt><trkpt lat="43.0417437" lon="11.413268"><ele>348.6</ele><time>2026-04-19T15:53:33.052Z</time></trkpt><trkpt lat="43.0417034" lon="11.4131508"><ele>347.4</ele><time>2026-04-19T15:53:34.052Z</time></trkpt><trkpt lat="43.0416682" lon="11.4130331"><ele>346.2</ele><time>2026-04-19T15:53:35.053Z</time></trkpt><trkpt lat="43.041636" lon="11.4129164"><ele>345.0</ele><time>2026-04-19T15:53:36.052Z</time></trkpt><trkpt lat="43.0416047" lon="11.4127983"><ele>342.2</ele><time>2026-04-19T15:53:37.052Z</time></trkpt><trkpt lat="43.041576" lon="11.4126794"><ele>339.4</ele><time>2026-04-19T15:53:38.052Z</time></trkpt><trkpt lat="43.041553" lon="11.4125583"><ele>336.6</ele><time>2026-04-19T15:53:39.052Z</time></trkpt><trkpt lat="43.0415377" lon="11.4124346"><ele>333.8</ele><time>2026-04-19T15:53:40.052Z</time></trkpt><trkpt lat="43.0415283" lon="11.412312"><ele>331.0</ele><time>2026-04-19T15:53:41.052Z</time></trkpt><trkpt lat="43.0415243" lon="11.4121799"><ele>329.25</ele><time>2026-04-19T15:53:42.052Z</time></trkpt><trkpt lat="43.0415202" lon="11.4120294"><ele>327.5</ele><time>2026-04-19T15:53:43.053Z</time></trkpt><trkpt lat="43.0415168" lon="11.4118752"><ele>325.75</ele><time>2026-04-19T15:53:44.053Z</time></trkpt><trkpt lat="43.0415184" lon="11.4117161"><ele>324.0</ele><time>2026-04-19T15:53:45.052Z</time></trkpt><trkpt lat="43.0415226" lon="11.4115376"><ele>324.0</ele><time>2026-04-19T15:53:46.052Z</time></trkpt><trkpt lat="43.0415276" lon="11.4113654"><ele>324.0</ele><time>2026-04-19T15:53:47.052Z</time></trkpt><trkpt lat="43.04154" lon="11.4111983"><ele>324.0</ele><time>2026-04-19T15:53:48.053Z</time></trkpt><trkpt lat="43.0415532" lon="11.4110392"><ele>324.0</ele><time>2026-04-19T15:53:49.052Z</time></trkpt><trkpt lat="43.0415692" lon="11.4108886"><ele>323.6</ele><time>2026-04-19T15:53:50.052Z</time></trkpt><trkpt lat="43.0415855" lon="11.410739"><ele>323.2</ele><time>2026-04-19T15:53:51.053Z</time></trkpt><trkpt lat="43.0416034" lon="11.4105864"><ele>322.8</ele><time>2026-04-19T15:53:52.052Z</time></trkpt><trkpt lat="43.0416265" lon="11.4104412"><ele>322.40000000000003</ele><time>2026-04-19T15:53:53.052Z</time></trkpt><trkpt lat="43.0416421" lon="11.4102915"><ele>322.0</ele><time>2026-04-19T15:53:54.053Z</time></trkpt><trkpt lat="43.0416605" lon="11.4101399"><ele>321.75</ele><time>2026-04-19T15:53:55.053Z</time></trkpt><trkpt lat="43.0416741" lon="11.4099858"><ele>321.5</ele><time>2026-04-19T15:53:56.053Z</time></trkpt><trkpt lat="43.0416909" lon="11.4098286"><ele>321.25</ele><time>2026-04-19T15:53:57.052Z</time></trkpt><trkpt lat="43.041707" lon="11.4096762"><ele>321.0</ele><time>2026-04-19T15:53:58.052Z</time></trkpt><trkpt lat="43.0417135" lon="11.4095265"><ele>319.40000000000003</ele><time>2026-04-19T15:53:59.052Z</time></trkpt><trkpt lat="43.0417179" lon="11.4093812"><ele>317.8</ele><time>2026-04-19T15:54:00.052Z</time></trkpt><trkpt lat="43.0417217" lon="11.4092434"><ele>316.20000000000005</ele><time>2026-04-19T15:54:01.052Z</time></trkpt><trkpt lat="43.0417274" lon="11.4090996"><ele>314.6</ele><time>2026-04-19T15:54:02.052Z</time></trkpt><trkpt lat="43.0417293" lon="11.408965"><ele>313.0</ele><time>2026-04-19T15:54:03.052Z</time></trkpt><trkpt lat="43.0417346" lon="11.4088299"><ele>311.4</ele><time>2026-04-19T15:54:04.052Z</time></trkpt><trkpt lat="43.0417433" lon="11.4086967"><ele>309.8</ele><time>2026-04-19T15:54:05.052Z</time></trkpt><trkpt lat="43.0417472" lon="11.4085586"><ele>308.2</ele><time>2026-04-19T15:54:06.053Z</time></trkpt><trkpt lat="43.0417528" lon="11.408428"><ele>306.6</ele><time>2026-04-19T15:54:07.052Z</time></trkpt><trkpt lat="43.0417607" lon="11.4083094"><ele>305.0</ele><time>2026-04-19T15:54:08.052Z</time></trkpt><trkpt lat="43.0417691" lon="11.408204"><ele>305.0</ele><time>2026-04-19T15:54:09.052Z</time></trkpt><trkpt lat="43.041775" lon="11.4081052"><ele>305.0</ele><time>2026-04-19T15:54:10.052Z</time></trkpt><trkpt lat="43.0417619" lon="11.4079332"><ele>305.0</ele><time>2026-04-19T15:54:12.053Z</time></trkpt><trkpt lat="43.0417343" lon="11.4078506"><ele>305.0</ele><time>2026-04-19T15:54:13.052Z</time></trkpt><trkpt lat="43.0416848" lon="11.4077793"><ele>305.0</ele><time>2026-04-19T15:54:14.052Z</time></trkpt><trkpt lat="43.0416264" lon="11.4077299"><ele>305.0</ele><time>2026-04-19T15:54:15.052Z</time></trkpt><trkpt lat="43.0415626" lon="11.4077026"><ele>303.2</ele><time>2026-04-19T15:54:16.053Z</time></trkpt><trkpt lat="43.0414825" lon="11.407685"><ele>301.4</ele><time>2026-04-19T15:54:17.052Z</time></trkpt><trkpt lat="43.0413968" lon="11.4076725"><ele>299.6</ele><time>2026-04-19T15:54:18.052Z</time></trkpt><trkpt lat="43.0413107" lon="11.4076627"><ele>297.8</ele><time>2026-04-19T15:54:19.052Z</time></trkpt><trkpt lat="43.0412152" lon="11.4076456"><ele>296.0</ele><time>2026-04-19T15:54:20.052Z</time></trkpt><trkpt lat="43.0411163" lon="11.40762"><ele>296.0</ele><time>2026-04-19T15:54:21.052Z</time></trkpt><trkpt lat="43.0410188" lon="11.4075903"><ele>296.0</ele><time>2026-04-19T15:54:22.052Z</time></trkpt><trkpt lat="43.0409229" lon="11.4075738"><ele>296.0</ele><time>2026-04-19T15:54:23.052Z</time></trkpt><trkpt lat="43.0408286" lon="11.4075595"><ele>296.0</ele><time>2026-04-19T15:54:24.052Z</time></trkpt><trkpt lat="43.0407349" lon="11.40755"><ele>296.0</ele><time>2026-04-19T15:54:25.053Z</time></trkpt><trkpt lat="43.0406447" lon="11.4075422"><ele>295.1666666666667</ele><time>2026-04-19T15:54:26.053Z</time></trkpt><trkpt lat="43.040562" lon="11.4075509"><ele>294.33333333333337</ele><time>2026-04-19T15:54:27.052Z</time></trkpt><trkpt lat="43.0404852" lon="11.4075775"><ele>293.5</ele><time>2026-04-19T15:54:28.052Z</time></trkpt><trkpt lat="43.040407" lon="11.4076157"><ele>292.6666666666667</ele><time>2026-04-19T15:54:29.052Z</time></trkpt><trkpt lat="43.040329" lon="11.4076687"><ele>291.8333333333333</ele><time>2026-04-19T15:54:30.052Z</time></trkpt><trkpt lat="43.0402424" lon="11.4077255"><ele>291.0</ele><time>2026-04-19T15:54:31.052Z</time></trkpt><trkpt lat="43.0401663" lon="11.4077834"><ele>291.0</ele><time>2026-04-19T15:54:32.052Z</time></trkpt><trkpt lat="43.0400856" lon="11.40784"><ele>291.0</ele><time>2026-04-19T15:54:33.053Z</time></trkpt><trkpt lat="43.0400074" lon="11.4078895"><ele>291.0</ele><time>2026-04-19T15:54:34.052Z</time></trkpt><trkpt lat="43.0399212" lon="11.4079309"><ele>291.0</ele><time>2026-04-19T15:54:35.052Z</time></trkpt><trkpt lat="43.03983" lon="11.4079797"><ele>291.0</ele><time>2026-04-19T15:54:36.052Z</time></trkpt><trkpt lat="43.0397392" lon="11.4080135"><ele>290.6</ele><time>2026-04-19T15:54:37.052Z</time></trkpt><trkpt lat="43.0396465" lon="11.4080432"><ele>290.20000000000005</ele><time>2026-04-19T15:54:38.052Z</time></trkpt><trkpt lat="43.0395517" lon="11.4080701"><ele>289.79999999999995</ele><time>2026-04-19T15:54:39.052Z</time></trkpt><trkpt lat="43.0394604" lon="11.4080904"><ele>289.4</ele><time>2026-04-19T15:54:40.052Z</time></trkpt><trkpt lat="43.0393688" lon="11.4081143"><ele>289.0</ele><time>2026-04-19T15:54:41.053Z</time></trkpt><trkpt lat="43.0392762" lon="11.4081373"><ele>289.0</ele><time>2026-04-19T15:54:42.053Z</time></trkpt><trkpt lat="43.0391913" lon="11.4081639"><ele>289.0</ele><time>2026-04-19T15:54:43.053Z</time></trkpt><trkpt lat="43.0391106" lon="11.4081935"><ele>289.0</ele><time>2026-04-19T15:54:44.052Z</time></trkpt><trkpt lat="43.0390311" lon="11.4082321"><ele>289.0</ele><time>2026-04-19T15:54:45.052Z</time></trkpt><trkpt lat="43.038942" lon="11.4082711"><ele>289.0</ele><time>2026-04-19T15:54:46.052Z</time></trkpt><trkpt lat="43.038845" lon="11.408318"><ele>287.4</ele><time>2026-04-19T15:54:47.053Z</time></trkpt><trkpt lat="43.0387416" lon="11.4083718"><ele>285.79999999999995</ele><time>2026-04-19T15:54:48.052Z</time></trkpt><trkpt lat="43.0386458" lon="11.4084229"><ele>284.20000000000005</ele><time>2026-04-19T15:54:49.052Z</time></trkpt><trkpt lat="43.0385532" lon="11.4084763"><ele>282.6</ele><time>2026-04-19T15:54:50.052Z</time></trkpt><trkpt lat="43.038465" lon="11.4085265"><ele>281.0</ele><time>2026-04-19T15:54:51.052Z</time></trkpt><trkpt lat="43.0383763" lon="11.4085684"><ele>280.2</ele><time>2026-04-19T15:54:52.053Z</time></trkpt><trkpt lat="43.0382964" lon="11.4086286"><ele>279.40000000000003</ele><time>2026-04-19T15:54:53.052Z</time></trkpt><trkpt lat="43.0382181" lon="11.4087031"><ele>278.6</ele><time>2026-04-19T15:54:54.053Z</time></trkpt><trkpt lat="43.038139" lon="11.4087937"><ele>277.8</ele><time>2026-04-19T15:54:55.052Z</time></trkpt><trkpt lat="43.0380621" lon="11.4088984"><ele>277.0</ele><time>2026-04-19T15:54:56.052Z</time></trkpt><trkpt lat="43.0379804" lon="11.4090067"><ele>277.0</ele><time>2026-04-19T15:54:57.052Z</time></trkpt><trkpt lat="43.0379069" lon="11.4091057"><ele>277.0</ele><time>2026-04-19T15:54:58.052Z</time></trkpt><trkpt lat="43.0378395" lon="11.4092016"><ele>277.0</ele><time>2026-04-19T15:54:59.052Z</time></trkpt><trkpt lat="43.037778" lon="11.4092919"><ele>277.0</ele><time>2026-04-19T15:55:00.052Z</time></trkpt><trkpt lat="43.0377184" lon="11.4093693"><ele>277.0</ele><time>2026-04-19T15:55:01.052Z</time></trkpt><trkpt lat="43.0376564" lon="11.40943"><ele>277.0</ele><time>2026-04-19T15:55:02.052Z</time></trkpt><trkpt lat="43.0375869" lon="11.4094677"><ele>277.0</ele><time>2026-04-19T15:55:03.052Z</time></trkpt><trkpt lat="43.0375159" lon="11.4094647"><ele>277.0</ele><time>2026-04-19T15:55:04.052Z</time></trkpt><trkpt lat="43.0374505" lon="11.4094215"><ele>277.0</ele><time>2026-04-19T15:55:05.052Z</time></trkpt><trkpt lat="43.0373817" lon="11.4093564"><ele>277.0</ele><time>2026-04-19T15:55:06.052Z</time></trkpt><trkpt lat="43.0373073" lon="11.40926"><ele>277.0</ele><time>2026-04-19T15:55:07.052Z</time></trkpt><trkpt lat="43.0372325" lon="11.4091369"><ele>277.0</ele><time>2026-04-19T15:55:08.052Z</time></trkpt><trkpt lat="43.0371595" lon="11.4090104"><ele>276.6</ele><time>2026-04-19T15:55:09.052Z</time></trkpt><trkpt lat="43.0370904" lon="11.408891"><ele>276.2</ele><time>2026-04-19T15:55:10.053Z</time></trkpt><trkpt lat="43.0370198" lon="11.408776"><ele>275.8</ele><time>2026-04-19T15:55:11.052Z</time></trkpt><trkpt lat="43.0369518" lon="11.4086655"><ele>275.4</ele><time>2026-04-19T15:55:12.052Z</time></trkpt><trkpt lat="43.0368851" lon="11.4085653"><ele>275.0</ele><time>2026-04-19T15:55:13.052Z</time></trkpt><trkpt lat="43.0368235" lon="11.4084684"><ele>274.1666666666667</ele><time>2026-04-19T15:55:14.052Z</time></trkpt><trkpt lat="43.0367659" lon="11.4083733"><ele>273.33333333333337</ele><time>2026-04-19T15:55:15.052Z</time></trkpt><trkpt lat="43.0367153" lon="11.4082954"><ele>272.5</ele><time>2026-04-19T15:55:16.052Z</time></trkpt><trkpt lat="43.0366335" lon="11.4082281"><ele>271.6666666666667</ele><time>2026-04-19T15:55:18.052Z</time></trkpt><trkpt lat="43.0365485" lon="11.408238"><ele>270.8333333333333</ele><time>2026-04-19T15:55:20.053Z</time></trkpt><trkpt lat="43.0364659" lon="11.4083072"><ele>270.0</ele><time>2026-04-19T15:55:22.053Z</time></trkpt><trkpt lat="43.0364159" lon="11.4083603"><ele>270.3333333333333</ele><time>2026-04-19T15:55:23.052Z</time></trkpt><trkpt lat="43.0363619" lon="11.4084244"><ele>270.6666666666667</ele><time>2026-04-19T15:55:24.052Z</time></trkpt><trkpt lat="43.0363007" lon="11.4085038"><ele>271.0</ele><time>2026-04-19T15:55:25.052Z</time></trkpt><trkpt lat="43.0362436" lon="11.4085846"><ele>271.33333333333337</ele><time>2026-04-19T15:55:26.053Z</time></trkpt><trkpt lat="43.0361834" lon="11.4086699"><ele>271.6666666666667</ele><time>2026-04-19T15:55:27.052Z</time></trkpt><trkpt lat="43.0361172" lon="11.408769"><ele>272.0</ele><time>2026-04-19T15:55:28.052Z</time></trkpt><trkpt lat="43.0360528" lon="11.4088645"><ele>272.0</ele><time>2026-04-19T15:55:29.052Z</time></trkpt><trkpt lat="43.0359818" lon="11.4089623"><ele>272.0</ele><time>2026-04-19T15:55:30.052Z</time></trkpt><trkpt lat="43.0359151" lon="11.4090544"><ele>272.0</ele><time>2026-04-19T15:55:31.052Z</time></trkpt><trkpt lat="43.0358431" lon="11.4091546"><ele>272.0</ele><time>2026-04-19T15:55:32.053Z</time></trkpt><trkpt lat="43.0357629" lon="11.4092611"><ele>272.0</ele><time>2026-04-19T15:55:33.052Z</time></trkpt><trkpt lat="43.0356795" lon="11.4093658"><ele>271.5</ele><time>2026-04-19T15:55:34.053Z</time></trkpt><trkpt lat="43.0355875" lon="11.4094694"><ele>271.0</ele><time>2026-04-19T15:55:35.052Z</time></trkpt><trkpt lat="43.0354938" lon="11.4095726"><ele>270.5</ele><time>2026-04-19T15:55:36.052Z</time></trkpt><trkpt lat="43.035407" lon="11.4096586"><ele>270.0</ele><time>2026-04-19T15:55:37.052Z</time></trkpt><trkpt lat="43.0353103" lon="11.4097437"><ele>271.0</ele><time>2026-04-19T15:55:38.052Z</time></trkpt><trkpt lat="43.0352137" lon="11.4098227"><ele>272.0</ele><time>2026-04-19T15:55:39.052Z</time></trkpt><trkpt lat="43.0351086" lon="11.4099049"><ele>273.0</ele><time>2026-04-19T15:55:40.052Z</time></trkpt><trkpt lat="43.035007" lon="11.4099904"><ele>274.0</ele><time>2026-04-19T15:55:41.052Z</time></trkpt><trkpt lat="43.0349029" lon="11.4100714"><ele>274.0</ele><time>2026-04-19T15:55:42.052Z</time></trkpt><trkpt lat="43.0348038" lon="11.4101453"><ele>274.0</ele><time>2026-04-19T15:55:43.052Z</time></trkpt><trkpt lat="43.0347137" lon="11.4102048"><ele>274.0</ele><time>2026-04-19T15:55:44.052Z</time></trkpt><trkpt lat="43.0346212" lon="11.4102565"><ele>274.0</ele><time>2026-04-19T15:55:45.053Z</time></trkpt><trkpt lat="43.0345331" lon="11.4103011"><ele>274.0</ele><time>2026-04-19T15:55:46.052Z</time></trkpt><trkpt lat="43.0344409" lon="11.4103414"><ele>274.0</ele><time>2026-04-19T15:55:47.053Z</time></trkpt><trkpt lat="43.0343466" lon="11.4103732"><ele>274.0</ele><time>2026-04-19T15:55:48.053Z</time></trkpt><trkpt lat="43.0342521" lon="11.4103997"><ele>274.0</ele><time>2026-04-19T15:55:49.052Z</time></trkpt><trkpt lat="43.0341593" lon="11.410417"><ele>274.0</ele><time>2026-04-19T15:55:50.053Z</time></trkpt><trkpt lat="43.0340664" lon="11.4104287"><ele>274.0</ele><time>2026-04-19T15:55:51.052Z</time></trkpt><trkpt lat="43.033976" lon="11.4104286"><ele>273.8</ele><time>2026-04-19T15:55:52.052Z</time></trkpt><trkpt lat="43.0338777" lon="11.4104394"><ele>273.59999999999997</ele><time>2026-04-19T15:55:53.052Z</time></trkpt><trkpt lat="43.0337737" lon="11.4104488"><ele>273.4</ele><time>2026-04-19T15:55:54.052Z</time></trkpt><trkpt lat="43.0336662" lon="11.4104657"><ele>273.2</ele><time>2026-04-19T15:55:55.052Z</time></trkpt><trkpt lat="43.0335592" lon="11.4104888"><ele>273.0</ele><time>2026-04-19T15:55:56.053Z</time></trkpt><trkpt lat="43.0334539" lon="11.4105122"><ele>273.0</ele><time>2026-04-19T15:55:57.052Z</time></trkpt><trkpt lat="43.0333466" lon="11.4105288"><ele>273.0</ele><time>2026-04-19T15:55:58.053Z</time></trkpt><trkpt lat="43.0332381" lon="11.4105543"><ele>273.0</ele><time>2026-04-19T15:55:59.052Z</time></trkpt><trkpt lat="43.0331304" lon="11.4105749"><ele>273.0</ele><time>2026-04-19T15:56:00.053Z</time></trkpt><trkpt lat="43.033022" lon="11.4105864"><ele>273.0</ele><time>2026-04-19T15:56:01.052Z</time></trkpt><trkpt lat="43.0329169" lon="11.4106015"><ele>271.0</ele><time>2026-04-19T15:56:02.052Z</time></trkpt><trkpt lat="43.0328104" lon="11.4106189"><ele>269.0</ele><time>2026-04-19T15:56:03.052Z</time></trkpt><trkpt lat="43.0327037" lon="11.4106354"><ele>267.0</ele><time>2026-04-19T15:56:04.052Z</time></trkpt><trkpt lat="43.0325947" lon="11.4106639"><ele>265.0</ele><time>2026-04-19T15:56:05.052Z</time></trkpt><trkpt lat="43.0324852" lon="11.4106946"><ele>263.0</ele><time>2026-04-19T15:56:06.052Z</time></trkpt><trkpt lat="43.0323751" lon="11.4107308"><ele>260.25</ele><time>2026-04-19T15:56:07.052Z</time></trkpt><trkpt lat="43.0322648" lon="11.4107711"><ele>257.5</ele><time>2026-04-19T15:56:08.052Z</time></trkpt><trkpt lat="43.0321566" lon="11.4108165"><ele>254.75</ele><time>2026-04-19T15:56:09.052Z</time></trkpt><trkpt lat="43.0320454" lon="11.4108698"><ele>252.0</ele><time>2026-04-19T15:56:10.053Z</time></trkpt><trkpt lat="43.0319325" lon="11.410925"><ele>252.0</ele><time>2026-04-19T15:56:11.052Z</time></trkpt><trkpt lat="43.031818" lon="11.4109826"><ele>252.0</ele><time>2026-04-19T15:56:12.052Z</time></trkpt><trkpt lat="43.0317053" lon="11.4110362"><ele>252.0</ele><time>2026-04-19T15:56:13.052Z</time></trkpt><trkpt lat="43.0315927" lon="11.4110864"><ele>252.0</ele><time>2026-04-19T15:56:14.052Z</time></trkpt><trkpt lat="43.0314774" lon="11.4111345"><ele>249.75</ele><time>2026-04-19T15:56:15.052Z</time></trkpt><trkpt lat="43.0313657" lon="11.411184"><ele>247.5</ele><time>2026-04-19T15:56:16.052Z</time></trkpt><trkpt lat="43.0312584" lon="11.4112287"><ele>245.25</ele><time>2026-04-19T15:56:17.052Z</time></trkpt><trkpt lat="43.0311552" lon="11.4112651"><ele>243.0</ele><time>2026-04-19T15:56:18.052Z</time></trkpt><trkpt lat="43.0310451" lon="11.4113033"><ele>242.2</ele><time>2026-04-19T15:56:19.052Z</time></trkpt><trkpt lat="43.0309412" lon="11.4113392"><ele>241.4</ele><time>2026-04-19T15:56:20.053Z</time></trkpt><trkpt lat="43.030838" lon="11.4113777"><ele>240.59999999999997</ele><time>2026-04-19T15:56:21.053Z</time></trkpt><trkpt lat="43.0307372" lon="11.4114212"><ele>239.79999999999998</ele><time>2026-04-19T15:56:22.052Z</time></trkpt><trkpt lat="43.0306433" lon="11.411479"><ele>239.0</ele><time>2026-04-19T15:56:23.053Z</time></trkpt><trkpt lat="43.0305587" lon="11.4115563"><ele>239.0</ele><time>2026-04-19T15:56:24.052Z</time></trkpt><trkpt lat="43.0304747" lon="11.4116367"><ele>238.99999999999997</ele><time>2026-04-19T15:56:25.052Z</time></trkpt><trkpt lat="43.0303942" lon="11.4117254"><ele>238.99999999999997</ele><time>2026-04-19T15:56:26.052Z</time></trkpt><trkpt lat="43.0303148" lon="11.4118193"><ele>239.0</ele><time>2026-04-19T15:56:27.053Z</time></trkpt><trkpt lat="43.0302342" lon="11.41191"><ele>239.0</ele><time>2026-04-19T15:56:28.053Z</time></trkpt><trkpt lat="43.0301576" lon="11.4120059"><ele>239.0</ele><time>2026-04-19T15:56:29.053Z</time></trkpt><trkpt lat="43.0300814" lon="11.41211"><ele>238.99999999999997</ele><time>2026-04-19T15:56:30.053Z</time></trkpt><trkpt lat="43.0300098" lon="11.4122226"><ele>238.99999999999997</ele><time>2026-04-19T15:56:31.052Z</time></trkpt><trkpt lat="43.0299458" lon="11.4123436"><ele>239.0</ele><time>2026-04-19T15:56:32.053Z</time></trkpt><trkpt lat="43.0298846" lon="11.412469"><ele>239.0</ele><time>2026-04-19T15:56:33.052Z</time></trkpt><trkpt lat="43.0298205" lon="11.4125966"><ele>239.25</ele><time>2026-04-19T15:56:34.053Z</time></trkpt><trkpt lat="43.0297536" lon="11.4127239"><ele>239.5</ele><time>2026-04-19T15:56:35.052Z</time></trkpt><trkpt lat="43.0296813" lon="11.4128577"><ele>239.75</ele><time>2026-04-19T15:56:36.052Z</time></trkpt><trkpt lat="43.0296119" lon="11.412989"><ele>240.0</ele><time>2026-04-19T15:56:37.052Z</time></trkpt><trkpt lat="43.0295359" lon="11.413128"><ele>240.0</ele><time>2026-04-19T15:56:38.052Z</time></trkpt><trkpt lat="43.0294557" lon="11.4132714"><ele>240.0</ele><time>2026-04-19T15:56:39.053Z</time></trkpt><trkpt lat="43.0293724" lon="11.413408"><ele>240.0</ele><time>2026-04-19T15:56:40.052Z</time></trkpt><trkpt lat="43.0292922" lon="11.4135428"><ele>240.0</ele><time>2026-04-19T15:56:41.052Z</time></trkpt><trkpt lat="43.029214" lon="11.4136723"><ele>239.25</ele><time>2026-04-19T15:56:42.052Z</time></trkpt><trkpt lat="43.0291349" lon="11.4138022"><ele>238.5</ele><time>2026-04-19T15:56:43.053Z</time></trkpt><trkpt lat="43.0290591" lon="11.4139221"><ele>237.75</ele><time>2026-04-19T15:56:44.052Z</time></trkpt><trkpt lat="43.0289812" lon="11.4140425"><ele>237.0</ele><time>2026-04-19T15:56:45.052Z</time></trkpt><trkpt lat="43.0288989" lon="11.4141683"><ele>237.0</ele><time>2026-04-19T15:56:46.052Z</time></trkpt><trkpt lat="43.028818" lon="11.4143006"><ele>237.0</ele><time>2026-04-19T15:56:47.052Z</time></trkpt><trkpt lat="43.0287427" lon="11.4144288"><ele>237.0</ele><time>2026-04-19T15:56:48.052Z</time></trkpt><trkpt lat="43.0286571" lon="11.4145577"><ele>237.0</ele><time>2026-04-19T15:56:49.052Z</time></trkpt><trkpt lat="43.0285762" lon="11.4146914"><ele>237.5</ele><time>2026-04-19T15:56:50.053Z</time></trkpt><trkpt lat="43.0284945" lon="11.4148247"><ele>238.0</ele><time>2026-04-19T15:56:51.052Z</time></trkpt><trkpt lat="43.028414" lon="11.4149462"><ele>238.5</ele><time>2026-04-19T15:56:52.053Z</time></trkpt><trkpt lat="43.0283378" lon="11.4150782"><ele>239.0</ele><time>2026-04-19T15:56:53.052Z</time></trkpt><trkpt lat="43.0282581" lon="11.415203"><ele>239.0</ele><time>2026-04-19T15:56:54.052Z</time></trkpt><trkpt lat="43.0281766" lon="11.4153313"><ele>239.0</ele><time>2026-04-19T15:56:55.052Z</time></trkpt><trkpt lat="43.0280979" lon="11.4154597"><ele>239.0</ele><time>2026-04-19T15:56:56.053Z</time></trkpt><trkpt lat="43.0280206" lon="11.4155883"><ele>239.0</ele><time>2026-04-19T15:56:57.053Z</time></trkpt><trkpt lat="43.0279405" lon="11.4157173"><ele>240.5</ele><time>2026-04-19T15:56:58.053Z</time></trkpt><trkpt lat="43.0278636" lon="11.4158439"><ele>242.0</ele><time>2026-04-19T15:56:59.052Z</time></trkpt><trkpt lat="43.0277931" lon="11.4159709"><ele>243.5</ele><time>2026-04-19T15:57:00.052Z</time></trkpt><trkpt lat="43.0277278" lon="11.4160935"><ele>245.0</ele><time>2026-04-19T15:57:01.052Z</time></trkpt><trkpt lat="43.0276635" lon="11.4162089"><ele>246.0</ele><time>2026-04-19T15:57:02.052Z</time></trkpt><trkpt lat="43.0275944" lon="11.4163272"><ele>247.0</ele><time>2026-04-19T15:57:03.052Z</time></trkpt><trkpt lat="43.0275305" lon="11.416441"><ele>248.0</ele><time>2026-04-19T15:57:04.052Z</time></trkpt><trkpt lat="43.0274643" lon="11.4165591"><ele>249.0</ele><time>2026-04-19T15:57:05.052Z</time></trkpt><trkpt lat="43.0273957" lon="11.4166817"><ele>250.0</ele><time>2026-04-19T15:57:06.052Z</time></trkpt><trkpt lat="43.0273315" lon="11.416805"><ele>248.75</ele><time>2026-04-19T15:57:07.052Z</time></trkpt><trkpt lat="43.0272622" lon="11.4169378"><ele>247.5</ele><time>2026-04-19T15:57:08.052Z</time></trkpt><trkpt lat="43.0271937" lon="11.4170685"><ele>246.25</ele><time>2026-04-19T15:57:09.052Z</time></trkpt><trkpt lat="43.0271192" lon="11.4171966"><ele>245.0</ele><time>2026-04-19T15:57:10.053Z</time></trkpt><trkpt lat="43.0270441" lon="11.417316"><ele>245.0</ele><time>2026-04-19T15:57:11.052Z</time></trkpt><trkpt lat="43.0269628" lon="11.4174315"><ele>245.0</ele><time>2026-04-19T15:57:12.052Z</time></trkpt><trkpt lat="43.0268779" lon="11.4175462"><ele>245.0</ele><time>2026-04-19T15:57:13.053Z</time></trkpt><trkpt lat="43.0267878" lon="11.4176654"><ele>245.0</ele><time>2026-04-19T15:57:14.052Z</time></trkpt><trkpt lat="43.0267005" lon="11.4177761"><ele>245.25</ele><time>2026-04-19T15:57:15.052Z</time></trkpt><trkpt lat="43.0266094" lon="11.4178906"><ele>245.5</ele><time>2026-04-19T15:57:16.052Z</time></trkpt><trkpt lat="43.0265215" lon="11.4180032"><ele>245.75</ele><time>2026-04-19T15:57:17.052Z</time></trkpt><trkpt lat="43.0264328" lon="11.4181138"><ele>246.0</ele><time>2026-04-19T15:57:18.053Z</time></trkpt><trkpt lat="43.0263456" lon="11.4182222"><ele>246.0</ele><time>2026-04-19T15:57:19.052Z</time></trkpt><trkpt lat="43.026263" lon="11.4183261"><ele>246.0</ele><time>2026-04-19T15:57:20.052Z</time></trkpt><trkpt lat="43.026174" lon="11.4184304"><ele>246.0</ele><time>2026-04-19T15:57:21.052Z</time></trkpt><trkpt lat="43.0260891" lon="11.4185374"><ele>246.0</ele><time>2026-04-19T15:57:22.053Z</time></trkpt><trkpt lat="43.0260043" lon="11.4186513"><ele>246.0</ele><time>2026-04-19T15:57:23.053Z</time></trkpt><trkpt lat="43.0259211" lon="11.4187654"><ele>246.0</ele><time>2026-04-19T15:57:24.053Z</time></trkpt><trkpt lat="43.0258397" lon="11.4188789"><ele>246.0</ele><time>2026-04-19T15:57:25.053Z</time></trkpt><trkpt lat="43.0257537" lon="11.4189943"><ele>246.0</ele><time>2026-04-19T15:57:26.053Z</time></trkpt><trkpt lat="43.0256639" lon="11.4191058"><ele>243.0</ele><time>2026-04-19T15:57:27.053Z</time></trkpt><trkpt lat="43.0255735" lon="11.4192148"><ele>240.0</ele><time>2026-04-19T15:57:28.053Z</time></trkpt><trkpt lat="43.0254843" lon="11.4193283"><ele>237.0</ele><time>2026-04-19T15:57:29.052Z</time></trkpt><trkpt lat="43.0253965" lon="11.4194366"><ele>234.0</ele><time>2026-04-19T15:57:30.052Z</time></trkpt><trkpt lat="43.0253067" lon="11.4195514"><ele>233.25</ele><time>2026-04-19T15:57:31.052Z</time></trkpt><trkpt lat="43.0252126" lon="11.4196574"><ele>232.5</ele><time>2026-04-19T15:57:32.053Z</time></trkpt><trkpt lat="43.0251228" lon="11.4197625"><ele>231.75</ele><time>2026-04-19T15:57:33.052Z</time></trkpt><trkpt lat="43.0250342" lon="11.4198584"><ele>231.0</ele><time>2026-04-19T15:57:34.052Z</time></trkpt><trkpt lat="43.024941" lon="11.4199378"><ele>231.0</ele><time>2026-04-19T15:57:35.052Z</time></trkpt><trkpt lat="43.0248315" lon="11.4200021"><ele>231.0</ele><time>2026-04-19T15:57:36.053Z</time></trkpt><trkpt lat="43.024719" lon="11.4200426"><ele>231.0</ele><time>2026-04-19T15:57:37.052Z</time></trkpt><trkpt lat="43.0246056" lon="11.4200567"><ele>231.0</ele><time>2026-04-19T15:57:38.052Z</time></trkpt><trkpt lat="43.0244857" lon="11.4200723"><ele>231.0</ele><time>2026-04-19T15:57:39.053Z</time></trkpt><trkpt lat="43.0243631" lon="11.4200769"><ele>231.0</ele><time>2026-04-19T15:57:40.053Z</time></trkpt><trkpt lat="43.0242398" lon="11.4200821"><ele>231.0</ele><time>2026-04-19T15:57:41.052Z</time></trkpt><trkpt lat="43.0241212" lon="11.4200916"><ele>231.0</ele><time>2026-04-19T15:57:42.052Z</time></trkpt><trkpt lat="43.0240042" lon="11.4200951"><ele>229.75</ele><time>2026-04-19T15:57:43.052Z</time></trkpt><trkpt lat="43.0238801" lon="11.4201062"><ele>228.5</ele><time>2026-04-19T15:57:44.052Z</time></trkpt><trkpt lat="43.0237524" lon="11.4201062"><ele>227.25</ele><time>2026-04-19T15:57:45.052Z</time></trkpt><trkpt lat="43.0236322" lon="11.4200909"><ele>226.0</ele><time>2026-04-19T15:57:46.052Z</time></trkpt><trkpt lat="43.0235091" lon="11.4200602"><ele>226.0</ele><time>2026-04-19T15:57:47.052Z</time></trkpt><trkpt lat="43.0233878" lon="11.4200099"><ele>226.0</ele><time>2026-04-19T15:57:48.053Z</time></trkpt><trkpt lat="43.0232705" lon="11.4199451"><ele>226.0</ele><time>2026-04-19T15:57:49.052Z</time></trkpt><trkpt lat="43.0231588" lon="11.4198708"><ele>226.0</ele><time>2026-04-19T15:57:50.053Z</time></trkpt><trkpt lat="43.0230454" lon="11.4197894"><ele>226.25</ele><time>2026-04-19T15:57:51.052Z</time></trkpt><trkpt lat="43.0229347" lon="11.4197055"><ele>226.5</ele><time>2026-04-19T15:57:52.052Z</time></trkpt><trkpt lat="43.0228256" lon="11.4196191"><ele>226.75</ele><time>2026-04-19T15:57:53.052Z</time></trkpt><trkpt lat="43.022716" lon="11.4195318"><ele>227.0</ele><time>2026-04-19T15:57:54.052Z</time></trkpt><trkpt lat="43.0226094" lon="11.41945"><ele>226.25</ele><time>2026-04-19T15:57:55.053Z</time></trkpt><trkpt lat="43.0225049" lon="11.4193657"><ele>225.5</ele><time>2026-04-19T15:57:56.053Z</time></trkpt><trkpt lat="43.0223994" lon="11.4192837"><ele>224.75</ele><time>2026-04-19T15:57:57.052Z</time></trkpt><trkpt lat="43.0222894" lon="11.4191988"><ele>224.0</ele><time>2026-04-19T15:57:58.053Z</time></trkpt><trkpt lat="43.0221841" lon="11.4191136"><ele>224.0</ele><time>2026-04-19T15:57:59.052Z</time></trkpt><trkpt lat="43.0220766" lon="11.4190302"><ele>224.0</ele><time>2026-04-19T15:58:00.052Z</time></trkpt><trkpt lat="43.0219683" lon="11.4189542"><ele>224.0</ele><time>2026-04-19T15:58:01.052Z</time></trkpt><trkpt lat="43.0218614" lon="11.418886"><ele>224.0</ele><time>2026-04-19T15:58:02.052Z</time></trkpt><trkpt lat="43.0217523" lon="11.4188265"><ele>223.0</ele><time>2026-04-19T15:58:03.053Z</time></trkpt><trkpt lat="43.0216516" lon="11.4187776"><ele>221.99999999999997</ele><time>2026-04-19T15:58:04.053Z</time></trkpt><trkpt lat="43.0215525" lon="11.4187351"><ele>220.99999999999997</ele><time>2026-04-19T15:58:05.052Z</time></trkpt><trkpt lat="43.0214604" lon="11.4186976"><ele>220.0</ele><time>2026-04-19T15:58:06.052Z</time></trkpt><trkpt lat="43.0213712" lon="11.4186734"><ele>219.0</ele><time>2026-04-19T15:58:07.053Z</time></trkpt><trkpt lat="43.021291" lon="11.4186479"><ele>219.0</ele><time>2026-04-19T15:58:08.052Z</time></trkpt><trkpt lat="43.0211828" lon="11.4186261"><ele>219.0</ele><time>2026-04-19T15:58:10.052Z</time></trkpt><trkpt lat="43.0211179" lon="11.4186344"><ele>219.0</ele><time>2026-04-19T15:58:12.052Z</time></trkpt><trkpt lat="43.0210854" lon="11.4187133"><ele>219.0</ele><time>2026-04-19T15:58:31.052Z</time></trkpt><trkpt lat="43.0211204" lon="11.4188137"><ele>219.0</ele><time>2026-04-19T15:58:33.053Z</time></trkpt><trkpt lat="43.0211834" lon="11.4189358"><ele>219.0</ele><time>2026-04-19T15:58:35.052Z</time></trkpt><trkpt lat="43.0212533" lon="11.4190484"><ele>220.6</ele><time>2026-04-19T15:58:37.052Z</time></trkpt><trkpt lat="43.0213273" lon="11.4191718"><ele>222.2</ele><time>2026-04-19T15:58:39.052Z</time></trkpt><trkpt lat="43.0214012" lon="11.4193015"><ele>223.79999999999998</ele><time>2026-04-19T15:58:41.052Z</time></trkpt><trkpt lat="43.0214425" lon="11.4193723"><ele>225.39999999999998</ele><time>2026-04-19T15:58:42.053Z</time></trkpt><trkpt lat="43.0214814" lon="11.4194547"><ele>227.0</ele><time>2026-04-19T15:58:43.052Z</time></trkpt><trkpt lat="43.0215329" lon="11.419548"><ele>227.0</ele><time>2026-04-19T15:58:44.052Z</time></trkpt><trkpt lat="43.0215874" lon="11.419643"><ele>227.0</ele><time>2026-04-19T15:58:45.052Z</time></trkpt><trkpt lat="43.02164" lon="11.4197431"><ele>227.0</ele><time>2026-04-19T15:58:46.052Z</time></trkpt><trkpt lat="43.021692" lon="11.4198388"><ele>227.0</ele><time>2026-04-19T15:58:47.052Z</time></trkpt><trkpt lat="43.0217484" lon="11.4199349"><ele>227.0</ele><time>2026-04-19T15:58:48.052Z</time></trkpt><trkpt lat="43.0218101" lon="11.420033"><ele>228.0</ele><time>2026-04-19T15:58:49.052Z</time></trkpt><trkpt lat="43.021871" lon="11.4201362"><ele>229.0</ele><time>2026-04-19T15:58:50.052Z</time></trkpt><trkpt lat="43.0219339" lon="11.420244"><ele>230.0</ele><time>2026-04-19T15:58:51.053Z</time></trkpt><trkpt lat="43.0220014" lon="11.4203567"><ele>231.0</ele><time>2026-04-19T15:58:52.052Z</time></trkpt><trkpt lat="43.022064" lon="11.4204715"><ele>232.0</ele><time>2026-04-19T15:58:53.052Z</time></trkpt><trkpt lat="43.0221273" lon="11.4205843"><ele>232.0</ele><time>2026-04-19T15:58:54.052Z</time></trkpt><trkpt lat="43.022187" lon="11.4206995"><ele>232.0</ele><time>2026-04-19T15:58:55.052Z</time></trkpt><trkpt lat="43.0222358" lon="11.4208198"><ele>232.0</ele><time>2026-04-19T15:58:56.052Z</time></trkpt><trkpt lat="43.0222774" lon="11.4209484"><ele>232.0</ele><time>2026-04-19T15:58:57.052Z</time></trkpt><trkpt lat="43.0222991" lon="11.4210826"><ele>232.0</ele><time>2026-04-19T15:58:58.052Z</time></trkpt><trkpt lat="43.0222973" lon="11.421221"><ele>230.0</ele><time>2026-04-19T15:58:59.052Z</time></trkpt><trkpt lat="43.0222795" lon="11.4213535"><ele>228.0</ele><time>2026-04-19T15:59:00.052Z</time></trkpt><trkpt lat="43.0222389" lon="11.421482"><ele>226.0</ele><time>2026-04-19T15:59:01.052Z</time></trkpt><trkpt lat="43.0221906" lon="11.4216217"><ele>224.0</ele><time>2026-04-19T15:59:02.053Z</time></trkpt><trkpt lat="43.0221314" lon="11.4217622"><ele>222.0</ele><time>2026-04-19T15:59:03.053Z</time></trkpt><trkpt lat="43.0220625" lon="11.4219115"><ele>222.0</ele><time>2026-04-19T15:59:04.053Z</time></trkpt><trkpt lat="43.0219964" lon="11.4220694"><ele>222.0</ele><time>2026-04-19T15:59:05.052Z</time></trkpt><trkpt lat="43.0219263" lon="11.4222232"><ele>222.0</ele><time>2026-04-19T15:59:06.052Z</time></trkpt><trkpt lat="43.0218598" lon="11.4223872"><ele>222.0</ele><time>2026-04-19T15:59:07.052Z</time></trkpt><trkpt lat="43.0217908" lon="11.4225495"><ele>220.5</ele><time>2026-04-19T15:59:08.053Z</time></trkpt><trkpt lat="43.0217236" lon="11.4227086"><ele>219.0</ele><time>2026-04-19T15:59:09.052Z</time></trkpt><trkpt lat="43.0216573" lon="11.4228654"><ele>217.5</ele><time>2026-04-19T15:59:10.052Z</time></trkpt><trkpt lat="43.0215862" lon="11.4230334"><ele>216.0</ele><time>2026-04-19T15:59:11.053Z</time></trkpt><trkpt lat="43.0215132" lon="11.4232071"><ele>216.5</ele><time>2026-04-19T15:59:12.053Z</time></trkpt><trkpt lat="43.0214379" lon="11.4233704"><ele>217.0</ele><time>2026-04-19T15:59:13.052Z</time></trkpt><trkpt lat="43.0213566" lon="11.4235361"><ele>217.5</ele><time>2026-04-19T15:59:14.052Z</time></trkpt><trkpt lat="43.0212647" lon="11.423701"><ele>218.0</ele><time>2026-04-19T15:59:15.053Z</time></trkpt><trkpt lat="43.0211615" lon="11.4238585"><ele>218.0</ele><time>2026-04-19T15:59:16.053Z</time></trkpt><trkpt lat="43.021043" lon="11.4240118"><ele>218.0</ele><time>2026-04-19T15:59:17.052Z</time></trkpt><trkpt lat="43.0209188" lon="11.4241575"><ele>218.0</ele><time>2026-04-19T15:59:18.052Z</time></trkpt><trkpt lat="43.0207918" lon="11.4242968"><ele>218.33333333333334</ele><time>2026-04-19T15:59:19.052Z</time></trkpt><trkpt lat="43.0206634" lon="11.4244363"><ele>218.66666666666669</ele><time>2026-04-19T15:59:20.052Z</time></trkpt><trkpt lat="43.0205332" lon="11.4245865"><ele>219.0</ele><time>2026-04-19T15:59:21.052Z</time></trkpt><trkpt lat="43.0204077" lon="11.4247433"><ele>221.66666666666669</ele><time>2026-04-19T15:59:22.052Z</time></trkpt><trkpt lat="43.0202929" lon="11.4249118"><ele>224.33333333333334</ele><time>2026-04-19T15:59:23.052Z</time></trkpt><trkpt lat="43.0201905" lon="11.4250929"><ele>227.0</ele><time>2026-04-19T15:59:24.052Z</time></trkpt><trkpt lat="43.0200939" lon="11.4252815"><ele>230.0</ele><time>2026-04-19T15:59:25.052Z</time></trkpt><trkpt lat="43.0200023" lon="11.4254813"><ele>233.0</ele><time>2026-04-19T15:59:26.052Z</time></trkpt><trkpt lat="43.0199105" lon="11.4256797"><ele>236.0</ele><time>2026-04-19T15:59:27.052Z</time></trkpt><trkpt lat="43.0198183" lon="11.4258802"><ele>237.33333333333334</ele><time>2026-04-19T15:59:28.052Z</time></trkpt><trkpt lat="43.0197251" lon="11.4260799"><ele>238.66666666666669</ele><time>2026-04-19T15:59:29.053Z</time></trkpt><trkpt lat="43.0196301" lon="11.4262763"><ele>240.0</ele><time>2026-04-19T15:59:30.052Z</time></trkpt><trkpt lat="43.0195386" lon="11.4264782"><ele>241.33333333333331</ele><time>2026-04-19T15:59:31.052Z</time></trkpt><trkpt lat="43.0194484" lon="11.4266853"><ele>242.66666666666666</ele><time>2026-04-19T15:59:32.052Z</time></trkpt><trkpt lat="43.0193589" lon="11.4268934"><ele>244.0</ele><time>2026-04-19T15:59:33.053Z</time></trkpt><trkpt lat="43.0192652" lon="11.4270921"><ele>246.0</ele><time>2026-04-19T15:59:34.052Z</time></trkpt><trkpt lat="43.019174" lon="11.4272994"><ele>248.0</ele><time>2026-04-19T15:59:35.052Z</time></trkpt><trkpt lat="43.0190861" lon="11.4275063"><ele>250.0</ele><time>2026-04-19T15:59:36.052Z</time></trkpt><trkpt lat="43.019003" lon="11.4277171"><ele>250.66666666666666</ele><time>2026-04-19T15:59:37.052Z</time></trkpt><trkpt lat="43.0189272" lon="11.4279306"><ele>251.33333333333331</ele><time>2026-04-19T15:59:38.052Z</time></trkpt><trkpt lat="43.0188556" lon="11.4281484"><ele>252.0</ele><time>2026-04-19T15:59:39.053Z</time></trkpt><trkpt lat="43.0187924" lon="11.4283651"><ele>252.0</ele><time>2026-04-19T15:59:40.052Z</time></trkpt><trkpt lat="43.0187273" lon="11.4285845"><ele>252.0</ele><time>2026-04-19T15:59:41.052Z</time></trkpt><trkpt lat="43.0186593" lon="11.4288163"><ele>252.0</ele><time>2026-04-19T15:59:42.053Z</time></trkpt><trkpt lat="43.0185945" lon="11.4290452"><ele>251.33333333333331</ele><time>2026-04-19T15:59:43.052Z</time></trkpt><trkpt lat="43.0185276" lon="11.4292644"><ele>250.66666666666666</ele><time>2026-04-19T15:59:44.053Z</time></trkpt><trkpt lat="43.0184604" lon="11.4294984"><ele>250.0</ele><time>2026-04-19T15:59:45.052Z</time></trkpt><trkpt lat="43.0183938" lon="11.4297358"><ele>249.33333333333331</ele><time>2026-04-19T15:59:46.052Z</time></trkpt><trkpt lat="43.0183264" lon="11.4299695"><ele>248.66666666666669</ele><time>2026-04-19T15:59:47.052Z</time></trkpt><trkpt lat="43.0182609" lon="11.4301973"><ele>248.0</ele><time>2026-04-19T15:59:48.052Z</time></trkpt><trkpt lat="43.0181958" lon="11.4304204"><ele>246.0</ele><time>2026-04-19T15:59:49.052Z</time></trkpt><trkpt lat="43.0181328" lon="11.4306366"><ele>244.0</ele><time>2026-04-19T15:59:50.052Z</time></trkpt><trkpt lat="43.0180648" lon="11.4308603"><ele>242.0</ele><time>2026-04-19T15:59:51.052Z</time></trkpt><trkpt lat="43.0179989" lon="11.4310844"><ele>241.0</ele><time>2026-04-19T15:59:52.053Z</time></trkpt><trkpt lat="43.0179346" lon="11.4313096"><ele>240.0</ele><time>2026-04-19T15:59:53.052Z</time></trkpt><trkpt lat="43.0178657" lon="11.4315376"><ele>239.0</ele><time>2026-04-19T15:59:54.052Z</time></trkpt><trkpt lat="43.0177962" lon="11.4317638"><ele>239.0</ele><time>2026-04-19T15:59:55.052Z</time></trkpt><trkpt lat="43.0177285" lon="11.4319877"><ele>239.0</ele><time>2026-04-19T15:59:56.052Z</time></trkpt><trkpt lat="43.0176635" lon="11.4322186"><ele>239.0</ele><time>2026-04-19T15:59:57.053Z</time></trkpt><trkpt lat="43.0175951" lon="11.4324469"><ele>239.0</ele><time>2026-04-19T15:59:58.052Z</time></trkpt><trkpt lat="43.0175313" lon="11.4326746"><ele>239.0</ele><time>2026-04-19T15:59:59.053Z</time></trkpt><trkpt lat="43.0174627" lon="11.4329015"><ele>239.0</ele><time>2026-04-19T16:00:00.052Z</time></trkpt><trkpt lat="43.0173931" lon="11.4331297"><ele>240.33333333333334</ele><time>2026-04-19T16:00:01.052Z</time></trkpt><trkpt lat="43.0173263" lon="11.4333605"><ele>241.66666666666669</ele><time>2026-04-19T16:00:02.052Z</time></trkpt><trkpt lat="43.0172588" lon="11.4335867"><ele>243.0</ele><time>2026-04-19T16:00:03.052Z</time></trkpt><trkpt lat="43.0171936" lon="11.4338083"><ele>245.0</ele><time>2026-04-19T16:00:04.052Z</time></trkpt><trkpt lat="43.017128" lon="11.4340284"><ele>247.0</ele><time>2026-04-19T16:00:05.053Z</time></trkpt><trkpt lat="43.0170632" lon="11.434254"><ele>249.0</ele><time>2026-04-19T16:00:06.052Z</time></trkpt><trkpt lat="43.0169961" lon="11.4344836"><ele>249.66666666666669</ele><time>2026-04-19T16:00:07.052Z</time></trkpt><trkpt lat="43.0169277" lon="11.434715"><ele>250.33333333333334</ele><time>2026-04-19T16:00:08.052Z</time></trkpt><trkpt lat="43.0168594" lon="11.4349459"><ele>251.0</ele><time>2026-04-19T16:00:09.052Z</time></trkpt><trkpt lat="43.0167903" lon="11.4351776"><ele>251.0</ele><time>2026-04-19T16:00:10.052Z</time></trkpt><trkpt lat="43.0167196" lon="11.4354116"><ele>251.0</ele><time>2026-04-19T16:00:11.053Z</time></trkpt><trkpt lat="43.0166502" lon="11.4356481"><ele>251.0</ele><time>2026-04-19T16:00:12.052Z</time></trkpt><trkpt lat="43.0165784" lon="11.4358901"><ele>252.66666666666669</ele><time>2026-04-19T16:00:13.052Z</time></trkpt><trkpt lat="43.0165043" lon="11.4361294"><ele>254.33333333333331</ele><time>2026-04-19T16:00:14.052Z</time></trkpt><trkpt lat="43.0164345" lon="11.4363719"><ele>256.0</ele><time>2026-04-19T16:00:15.053Z</time></trkpt><trkpt lat="43.0163667" lon="11.436605"><ele>257.0</ele><time>2026-04-19T16:00:16.052Z</time></trkpt><trkpt lat="43.0163" lon="11.4368385"><ele>258.0</ele><time>2026-04-19T16:00:17.052Z</time></trkpt><trkpt lat="43.0162328" lon="11.4370713"><ele>259.0</ele><time>2026-04-19T16:00:18.052Z</time></trkpt><trkpt lat="43.0161704" lon="11.4372875"><ele>260.5</ele><time>2026-04-19T16:00:19.052Z</time></trkpt><trkpt lat="43.0161137" lon="11.4374795"><ele>262.0</ele><time>2026-04-19T16:00:20.052Z</time></trkpt><trkpt lat="43.0160626" lon="11.4376578"><ele>263.5</ele><time>2026-04-19T16:00:21.052Z</time></trkpt><trkpt lat="43.0160156" lon="11.4378178"><ele>265.0</ele><time>2026-04-19T16:00:22.052Z</time></trkpt><trkpt lat="43.0159711" lon="11.437974"><ele>266.0</ele><time>2026-04-19T16:00:23.053Z</time></trkpt><trkpt lat="43.0159279" lon="11.4381178"><ele>267.0</ele><time>2026-04-19T16:00:24.052Z</time></trkpt><trkpt lat="43.0158852" lon="11.4382599"><ele>268.0</ele><time>2026-04-19T16:00:25.052Z</time></trkpt><trkpt lat="43.0158416" lon="11.4384025"><ele>269.0</ele><time>2026-04-19T16:00:26.052Z</time></trkpt><trkpt lat="43.0158029" lon="11.4385228"><ele>270.0</ele><time>2026-04-19T16:00:27.052Z</time></trkpt><trkpt lat="43.0157672" lon="11.4386253"><ele>270.8</ele><time>2026-04-19T16:00:28.052Z</time></trkpt><trkpt lat="43.0157155" lon="11.4386998"><ele>271.6</ele><time>2026-04-19T16:00:29.052Z</time></trkpt><trkpt lat="43.0156572" lon="11.43874"><ele>272.4</ele><time>2026-04-19T16:00:30.052Z</time></trkpt><trkpt lat="43.0155553" lon="11.4387062"><ele>273.2</ele><time>2026-04-19T16:00:32.053Z</time></trkpt><trkpt lat="43.0154886" lon="11.4385588"><ele>274.0</ele><time>2026-04-19T16:00:34.052Z</time></trkpt><trkpt lat="43.015449" lon="11.4384501"><ele>274.0</ele><time>2026-04-19T16:00:35.052Z</time></trkpt><trkpt lat="43.0153984" lon="11.4383398"><ele>274.0</ele><time>2026-04-19T16:00:36.052Z</time></trkpt><trkpt lat="43.0153355" lon="11.4382111"><ele>274.0</ele><time>2026-04-19T16:00:37.052Z</time></trkpt><trkpt lat="43.0152672" lon="11.4380779"><ele>274.0</ele><time>2026-04-19T16:00:38.052Z</time></trkpt><trkpt lat="43.0152065" lon="11.4379504"><ele>274.0</ele><time>2026-04-19T16:00:39.053Z</time></trkpt><trkpt lat="43.015149" lon="11.4378232"><ele>272.8</ele><time>2026-04-19T16:00:40.052Z</time></trkpt><trkpt lat="43.0150982" lon="11.437698"><ele>271.59999999999997</ele><time>2026-04-19T16:00:41.052Z</time></trkpt><trkpt lat="43.0150497" lon="11.437563"><ele>270.4</ele><time>2026-04-19T16:00:42.052Z</time></trkpt><trkpt lat="43.0150067" lon="11.4374313"><ele>269.2</ele><time>2026-04-19T16:00:43.053Z</time></trkpt><trkpt lat="43.0149729" lon="11.4372981"><ele>268.0</ele><time>2026-04-19T16:00:44.052Z</time></trkpt><trkpt lat="43.0149487" lon="11.4371603"><ele>265.75</ele><time>2026-04-19T16:00:45.052Z</time></trkpt><trkpt lat="43.014933" lon="11.4370134"><ele>263.5</ele><time>2026-04-19T16:00:46.053Z</time></trkpt><trkpt lat="43.014921" lon="11.4368571"><ele>261.25</ele><time>2026-04-19T16:00:47.052Z</time></trkpt><trkpt lat="43.0149093" lon="11.4366979"><ele>259.0</ele><time>2026-04-19T16:00:48.052Z</time></trkpt><trkpt lat="43.0148975" lon="11.4365453"><ele>259.0</ele><time>2026-04-19T16:00:49.052Z</time></trkpt><trkpt lat="43.0148894" lon="11.436394"><ele>259.0</ele><time>2026-04-19T16:00:50.052Z</time></trkpt><trkpt lat="43.014877" lon="11.4362344"><ele>259.0</ele><time>2026-04-19T16:00:51.053Z</time></trkpt><trkpt lat="43.0148695" lon="11.4360726"><ele>259.0</ele><time>2026-04-19T16:00:52.052Z</time></trkpt><trkpt lat="43.0148646" lon="11.4359181"><ele>258.5</ele><time>2026-04-19T16:00:53.052Z</time></trkpt><trkpt lat="43.0148559" lon="11.4357565"><ele>258.0</ele><time>2026-04-19T16:00:54.052Z</time></trkpt><trkpt lat="43.0148464" lon="11.4355953"><ele>257.5</ele><time>2026-04-19T16:00:55.052Z</time></trkpt><trkpt lat="43.0148372" lon="11.4354415"><ele>257.0</ele><time>2026-04-19T16:00:56.052Z</time></trkpt><trkpt lat="43.0148251" lon="11.4352869"><ele>256.75</ele><time>2026-04-19T16:00:57.052Z</time></trkpt><trkpt lat="43.0148117" lon="11.4351326"><ele>256.5</ele><time>2026-04-19T16:00:58.052Z</time></trkpt><trkpt lat="43.0147914" lon="11.4349731"><ele>256.25</ele><time>2026-04-19T16:00:59.052Z</time></trkpt><trkpt lat="43.0147757" lon="11.4348225"><ele>256.0</ele><time>2026-04-19T16:01:00.052Z</time></trkpt><trkpt lat="43.0147589" lon="11.4346703"><ele>255.8</ele><time>2026-04-19T16:01:01.053Z</time></trkpt><trkpt lat="43.0147403" lon="11.4345197"><ele>255.60000000000002</ele><time>2026-04-19T16:01:02.052Z</time></trkpt><trkpt lat="43.0147224" lon="11.4343698"><ele>255.4</ele><time>2026-04-19T16:01:03.052Z</time></trkpt><trkpt lat="43.0147051" lon="11.4342224"><ele>255.2</ele><time>2026-04-19T16:01:04.053Z</time></trkpt><trkpt lat="43.014696" lon="11.4340785"><ele>255.0</ele><time>2026-04-19T16:01:05.052Z</time></trkpt><trkpt lat="43.0146976" lon="11.4339374"><ele>254.2</ele><time>2026-04-19T16:01:06.052Z</time></trkpt><trkpt lat="43.014712" lon="11.4337976"><ele>253.4</ele><time>2026-04-19T16:01:07.052Z</time></trkpt><trkpt lat="43.0147462" lon="11.4336651"><ele>252.60000000000002</ele><time>2026-04-19T16:01:08.052Z</time></trkpt><trkpt lat="43.014792" lon="11.4335334"><ele>251.8</ele><time>2026-04-19T16:01:09.052Z</time></trkpt><trkpt lat="43.0148404" lon="11.4334032"><ele>251.0</ele><time>2026-04-19T16:01:10.052Z</time></trkpt><trkpt lat="43.0148865" lon="11.4332718"><ele>251.0</ele><time>2026-04-19T16:01:11.052Z</time></trkpt><trkpt lat="43.0149291" lon="11.4331364"><ele>251.00000000000003</ele><time>2026-04-19T16:01:12.052Z</time></trkpt><trkpt lat="43.0149585" lon="11.4329973"><ele>251.00000000000003</ele><time>2026-04-19T16:01:13.052Z</time></trkpt><trkpt lat="43.0149711" lon="11.4328509"><ele>251.0</ele><time>2026-04-19T16:01:14.052Z</time></trkpt><trkpt lat="43.0149738" lon="11.4326947"><ele>251.0</ele><time>2026-04-19T16:01:15.052Z</time></trkpt><trkpt lat="43.0149619" lon="11.432534"><ele>250.25</ele><time>2026-04-19T16:01:16.052Z</time></trkpt><trkpt lat="43.0149416" lon="11.4323747"><ele>249.5</ele><time>2026-04-19T16:01:17.052Z</time></trkpt><trkpt lat="43.0149147" lon="11.4322094"><ele>248.75</ele><time>2026-04-19T16:01:18.052Z</time></trkpt><trkpt lat="43.0148868" lon="11.432049"><ele>248.0</ele><time>2026-04-19T16:01:19.053Z</time></trkpt><trkpt lat="43.0148615" lon="11.431893"><ele>247.25</ele><time>2026-04-19T16:01:20.052Z</time></trkpt><trkpt lat="43.0148344" lon="11.4317406"><ele>246.5</ele><time>2026-04-19T16:01:21.052Z</time></trkpt><trkpt lat="43.0148102" lon="11.4315845"><ele>245.75</ele><time>2026-04-19T16:01:22.052Z</time></trkpt><trkpt lat="43.0147842" lon="11.4314173"><ele>245.0</ele><time>2026-04-19T16:01:23.052Z</time></trkpt><trkpt lat="43.0147596" lon="11.4312481"><ele>243.75</ele><time>2026-04-19T16:01:24.052Z</time></trkpt><trkpt lat="43.0147257" lon="11.4310898"><ele>242.5</ele><time>2026-04-19T16:01:25.052Z</time></trkpt><trkpt lat="43.01468" lon="11.430943"><ele>241.25</ele><time>2026-04-19T16:01:26.052Z</time></trkpt><trkpt lat="43.0146204" lon="11.4308083"><ele>240.0</ele><time>2026-04-19T16:01:27.052Z</time></trkpt><trkpt lat="43.0145499" lon="11.4307007"><ele>240.0</ele><time>2026-04-19T16:01:28.053Z</time></trkpt><trkpt lat="43.0144641" lon="11.4306133"><ele>240.0</ele><time>2026-04-19T16:01:29.052Z</time></trkpt><trkpt lat="43.014368" lon="11.4305465"><ele>240.0</ele><time>2026-04-19T16:01:30.053Z</time></trkpt><trkpt lat="43.0142731" lon="11.4304788"><ele>240.0</ele><time>2026-04-19T16:01:31.052Z</time></trkpt><trkpt lat="43.0141833" lon="11.430397"><ele>240.0</ele><time>2026-04-19T16:01:32.052Z</time></trkpt><trkpt lat="43.0140926" lon="11.4303058"><ele>239.0</ele><time>2026-04-19T16:01:33.052Z</time></trkpt><trkpt lat="43.0140394" lon="11.4301588"><ele>238.0</ele><time>2026-04-19T16:01:34.053Z</time></trkpt><trkpt lat="43.0139784" lon="11.4300238"><ele>237.0</ele><time>2026-04-19T16:01:35.052Z</time></trkpt><trkpt lat="43.0139366" lon="11.4298748"><ele>236.0</ele><time>2026-04-19T16:01:36.052Z</time></trkpt><trkpt lat="43.0139079" lon="11.4297182"><ele>234.8</ele><time>2026-04-19T16:01:37.052Z</time></trkpt><trkpt lat="43.013877" lon="11.4295717"><ele>233.60000000000002</ele><time>2026-04-19T16:01:38.053Z</time></trkpt><trkpt lat="43.0138346" lon="11.429438"><ele>232.4</ele><time>2026-04-19T16:01:39.052Z</time></trkpt><trkpt lat="43.0137808" lon="11.4293233"><ele>231.2</ele><time>2026-04-19T16:01:40.053Z</time></trkpt><trkpt lat="43.0137093" lon="11.4292144"><ele>230.0</ele><time>2026-04-19T16:01:41.052Z</time></trkpt><trkpt lat="43.0136162" lon="11.4291253"><ele>230.0</ele><time>2026-04-19T16:01:42.052Z</time></trkpt><trkpt lat="43.0135161" lon="11.4290433"><ele>230.0</ele><time>2026-04-19T16:01:43.052Z</time></trkpt><trkpt lat="43.0134" lon="11.4289618"><ele>230.0</ele><time>2026-04-19T16:01:44.052Z</time></trkpt><trkpt lat="43.0132759" lon="11.4288971"><ele>230.0</ele><time>2026-04-19T16:01:45.052Z</time></trkpt><trkpt lat="43.0131458" lon="11.4288435"><ele>230.75</ele><time>2026-04-19T16:01:46.052Z</time></trkpt><trkpt lat="43.0130101" lon="11.4287959"><ele>231.5</ele><time>2026-04-19T16:01:47.052Z</time></trkpt><trkpt lat="43.0128735" lon="11.4287441"><ele>232.25</ele><time>2026-04-19T16:01:48.053Z</time></trkpt><trkpt lat="43.0127504" lon="11.4286983"><ele>233.0</ele><time>2026-04-19T16:01:49.052Z</time></trkpt><trkpt lat="43.012634" lon="11.428652"><ele>233.0</ele><time>2026-04-19T16:01:50.052Z</time></trkpt><trkpt lat="43.0125202" lon="11.4286022"><ele>233.0</ele><time>2026-04-19T16:01:51.053Z</time></trkpt><trkpt lat="43.0124073" lon="11.4285415"><ele>233.0</ele><time>2026-04-19T16:01:52.052Z</time></trkpt><trkpt lat="43.0122993" lon="11.4284694"><ele>233.0</ele><time>2026-04-19T16:01:53.052Z</time></trkpt><trkpt lat="43.012197" lon="11.4283762"><ele>233.75</ele><time>2026-04-19T16:01:54.052Z</time></trkpt><trkpt lat="43.0120926" lon="11.4282708"><ele>234.5</ele><time>2026-04-19T16:01:55.052Z</time></trkpt><trkpt lat="43.0119842" lon="11.4281647"><ele>235.25</ele><time>2026-04-19T16:01:56.052Z</time></trkpt><trkpt lat="43.0118737" lon="11.4280572"><ele>236.0</ele><time>2026-04-19T16:01:57.052Z</time></trkpt><trkpt lat="43.0117664" lon="11.4279542"><ele>236.0</ele><time>2026-04-19T16:01:58.053Z</time></trkpt><trkpt lat="43.0116646" lon="11.4278532"><ele>236.0</ele><time>2026-04-19T16:01:59.052Z</time></trkpt><trkpt lat="43.0115642" lon="11.4277483"><ele>236.0</ele><time>2026-04-19T16:02:00.053Z</time></trkpt><trkpt lat="43.0114651" lon="11.4276383"><ele>236.0</ele><time>2026-04-19T16:02:01.052Z</time></trkpt><trkpt lat="43.0113742" lon="11.4275115"><ele>234.5</ele><time>2026-04-19T16:02:02.052Z</time></trkpt><trkpt lat="43.0112884" lon="11.4273704"><ele>233.0</ele><time>2026-04-19T16:02:03.052Z</time></trkpt><trkpt lat="43.0112073" lon="11.4272223"><ele>231.5</ele><time>2026-04-19T16:02:04.052Z</time></trkpt><trkpt lat="43.0111305" lon="11.4270676"><ele>230.0</ele><time>2026-04-19T16:02:05.052Z</time></trkpt><trkpt lat="43.0110597" lon="11.4269069"><ele>230.0</ele><time>2026-04-19T16:02:06.052Z</time></trkpt><trkpt lat="43.0109893" lon="11.4267539"><ele>230.0</ele><time>2026-04-19T16:02:07.053Z</time></trkpt><trkpt lat="43.0109172" lon="11.4265962"><ele>230.0</ele><time>2026-04-19T16:02:08.052Z</time></trkpt><trkpt lat="43.0108371" lon="11.4264398"><ele>230.0</ele><time>2026-04-19T16:02:09.052Z</time></trkpt><trkpt lat="43.0107526" lon="11.4262811"><ele>229.25</ele><time>2026-04-19T16:02:10.052Z</time></trkpt><trkpt lat="43.010664" lon="11.4261236"><ele>228.5</ele><time>2026-04-19T16:02:11.052Z</time></trkpt><trkpt lat="43.0105801" lon="11.4259812"><ele>227.75</ele><time>2026-04-19T16:02:12.052Z</time></trkpt><trkpt lat="43.0105059" lon="11.4258459"><ele>227.0</ele><time>2026-04-19T16:02:13.052Z</time></trkpt><trkpt lat="43.0104386" lon="11.4257181"><ele>227.0</ele><time>2026-04-19T16:02:14.053Z</time></trkpt><trkpt lat="43.0103879" lon="11.425581"><ele>227.0</ele><time>2026-04-19T16:02:15.052Z</time></trkpt><trkpt lat="43.0103413" lon="11.4254187"><ele>227.0</ele><time>2026-04-19T16:02:16.053Z</time></trkpt><trkpt lat="43.0102996" lon="11.4252397"><ele>227.0</ele><time>2026-04-19T16:02:17.053Z</time></trkpt><trkpt lat="43.0102589" lon="11.425055"><ele>226.25</ele><time>2026-04-19T16:02:18.053Z</time></trkpt><trkpt lat="43.0102288" lon="11.4248703"><ele>225.5</ele><time>2026-04-19T16:02:19.052Z</time></trkpt><trkpt lat="43.0101864" lon="11.4246714"><ele>224.75</ele><time>2026-04-19T16:02:20.052Z</time></trkpt><trkpt lat="43.0101562" lon="11.4244764"><ele>224.0</ele><time>2026-04-19T16:02:21.053Z</time></trkpt><trkpt lat="43.0101214" lon="11.424292"><ele>223.25</ele><time>2026-04-19T16:02:22.053Z</time></trkpt><trkpt lat="43.0100885" lon="11.4241139"><ele>222.5</ele><time>2026-04-19T16:02:23.052Z</time></trkpt><trkpt lat="43.0100498" lon="11.4239434"><ele>221.75</ele><time>2026-04-19T16:02:24.052Z</time></trkpt><trkpt lat="43.0100058" lon="11.4237674"><ele>221.0</ele><time>2026-04-19T16:02:25.052Z</time></trkpt><trkpt lat="43.0099662" lon="11.4235851"><ele>219.5</ele><time>2026-04-19T16:02:26.053Z</time></trkpt><trkpt lat="43.0099177" lon="11.4233978"><ele>218.0</ele><time>2026-04-19T16:02:27.053Z</time></trkpt><trkpt lat="43.0098736" lon="11.4232173"><ele>216.5</ele><time>2026-04-19T16:02:28.052Z</time></trkpt><trkpt lat="43.0098283" lon="11.4230371"><ele>215.0</ele><time>2026-04-19T16:02:29.052Z</time></trkpt><trkpt lat="43.0097639" lon="11.4228643"><ele>215.0</ele><time>2026-04-19T16:02:30.053Z</time></trkpt><trkpt lat="43.0096984" lon="11.4226821"><ele>215.0</ele><time>2026-04-19T16:02:31.052Z</time></trkpt><trkpt lat="43.0096358" lon="11.4225008"><ele>215.0</ele><time>2026-04-19T16:02:32.053Z</time></trkpt><trkpt lat="43.0095711" lon="11.4223114"><ele>215.0</ele><time>2026-04-19T16:02:33.052Z</time></trkpt><trkpt lat="43.0095083" lon="11.4221263"><ele>216.0</ele><time>2026-04-19T16:02:34.052Z</time></trkpt><trkpt lat="43.0094535" lon="11.4219374"><ele>217.0</ele><time>2026-04-19T16:02:35.052Z</time></trkpt><trkpt lat="43.0093945" lon="11.4217574"><ele>218.0</ele><time>2026-04-19T16:02:36.052Z</time></trkpt><trkpt lat="43.009328" lon="11.4215869"><ele>219.0</ele><time>2026-04-19T16:02:37.052Z</time></trkpt><trkpt lat="43.0092386" lon="11.4214355"><ele>220.75</ele><time>2026-04-19T16:02:38.052Z</time></trkpt><trkpt lat="43.0091332" lon="11.4213147"><ele>222.5</ele><time>2026-04-19T16:02:39.052Z</time></trkpt><trkpt lat="43.0090105" lon="11.4212171"><ele>224.25</ele><time>2026-04-19T16:02:40.052Z</time></trkpt><trkpt lat="43.0088868" lon="11.4211278"><ele>226.0</ele><time>2026-04-19T16:02:41.052Z</time></trkpt><trkpt lat="43.0087595" lon="11.4210382"><ele>226.0</ele><time>2026-04-19T16:02:42.053Z</time></trkpt><trkpt lat="43.0086393" lon="11.4209477"><ele>226.0</ele><time>2026-04-19T16:02:43.052Z</time></trkpt><trkpt lat="43.0085141" lon="11.4208517"><ele>226.0</ele><time>2026-04-19T16:02:44.053Z</time></trkpt><trkpt lat="43.0083876" lon="11.4207554"><ele>226.0</ele><time>2026-04-19T16:02:45.052Z</time></trkpt><trkpt lat="43.008255" lon="11.4206484"><ele>228.0</ele><time>2026-04-19T16:02:46.052Z</time></trkpt><trkpt lat="43.0081213" lon="11.4205352"><ele>230.0</ele><time>2026-04-19T16:02:47.052Z</time></trkpt><trkpt lat="43.0079845" lon="11.4204259"><ele>232.0</ele><time>2026-04-19T16:02:48.052Z</time></trkpt><trkpt lat="43.0078568" lon="11.4203219"><ele>232.25</ele><time>2026-04-19T16:02:49.052Z</time></trkpt><trkpt lat="43.0077431" lon="11.4202262"><ele>232.5</ele><time>2026-04-19T16:02:50.052Z</time></trkpt><trkpt lat="43.0076392" lon="11.420138"><ele>232.75</ele><time>2026-04-19T16:02:51.052Z</time></trkpt><trkpt lat="43.0075435" lon="11.420059"><ele>233.0</ele><time>2026-04-19T16:02:52.053Z</time></trkpt><trkpt lat="43.0074569" lon="11.4199851"><ele>233.0</ele><time>2026-04-19T16:02:53.052Z</time></trkpt><trkpt lat="43.0073771" lon="11.4199232"><ele>233.0</ele><time>2026-04-19T16:02:54.053Z</time></trkpt><trkpt lat="43.0073039" lon="11.41987"><ele>233.0</ele><time>2026-04-19T16:02:55.052Z</time></trkpt><trkpt lat="43.0072307" lon="11.4198154"><ele>233.0</ele><time>2026-04-19T16:02:56.052Z</time></trkpt><trkpt lat="43.0071396" lon="11.4197463"><ele>233.0</ele><time>2026-04-19T16:02:57.052Z</time></trkpt><trkpt lat="43.0070347" lon="11.4196566"><ele>233.0</ele><time>2026-04-19T16:02:58.052Z</time></trkpt><trkpt lat="43.0069214" lon="11.4195425"><ele>233.0</ele><time>2026-04-19T16:02:59.052Z</time></trkpt><trkpt lat="43.0068125" lon="11.4194151"><ele>233.0</ele><time>2026-04-19T16:03:00.053Z</time></trkpt><trkpt lat="43.0066949" lon="11.4192797"><ele>233.0</ele><time>2026-04-19T16:03:01.052Z</time></trkpt><trkpt lat="43.0065867" lon="11.4191357"><ele>233.0</ele><time>2026-04-19T16:03:02.052Z</time></trkpt><trkpt lat="43.0064783" lon="11.4189646"><ele>233.0</ele><time>2026-04-19T16:03:03.052Z</time></trkpt><trkpt lat="43.0063738" lon="11.4187779"><ele>233.0</ele><time>2026-04-19T16:03:04.052Z</time></trkpt><trkpt lat="43.0062709" lon="11.4185706"><ele>231.66666666666669</ele><time>2026-04-19T16:03:05.052Z</time></trkpt><trkpt lat="43.0061708" lon="11.4183685"><ele>230.33333333333331</ele><time>2026-04-19T16:03:06.052Z</time></trkpt><trkpt lat="43.0060662" lon="11.4181615"><ele>229.0</ele><time>2026-04-19T16:03:07.053Z</time></trkpt><trkpt lat="43.0059647" lon="11.4179635"><ele>228.0</ele><time>2026-04-19T16:03:08.052Z</time></trkpt><trkpt lat="43.0058775" lon="11.417785"><ele>227.0</ele><time>2026-04-19T16:03:09.052Z</time></trkpt><trkpt lat="43.0057929" lon="11.4176186"><ele>226.0</ele><time>2026-04-19T16:03:10.052Z</time></trkpt><trkpt lat="43.0057101" lon="11.4174495"><ele>226.0</ele><time>2026-04-19T16:03:11.052Z</time></trkpt><trkpt lat="43.0056247" lon="11.4172715"><ele>226.0</ele><time>2026-04-19T16:03:12.052Z</time></trkpt><trkpt lat="43.0055375" lon="11.4170815"><ele>226.0</ele><time>2026-04-19T16:03:13.052Z</time></trkpt><trkpt lat="43.0054431" lon="11.4168971"><ele>225.66666666666666</ele><time>2026-04-19T16:03:14.052Z</time></trkpt><trkpt lat="43.0053531" lon="11.4167006"><ele>225.33333333333331</ele><time>2026-04-19T16:03:15.052Z</time></trkpt><trkpt lat="43.0052636" lon="11.4165047"><ele>225.0</ele><time>2026-04-19T16:03:16.052Z</time></trkpt><trkpt lat="43.0051734" lon="11.4163055"><ele>225.0</ele><time>2026-04-19T16:03:17.052Z</time></trkpt><trkpt lat="43.0050935" lon="11.4161192"><ele>225.0</ele><time>2026-04-19T16:03:18.052Z</time></trkpt><trkpt lat="43.0050023" lon="11.4159141"><ele>225.0</ele><time>2026-04-19T16:03:19.052Z</time></trkpt><trkpt lat="43.0049202" lon="11.4157202"><ele>224.66666666666669</ele><time>2026-04-19T16:03:20.053Z</time></trkpt><trkpt lat="43.0048336" lon="11.4155295"><ele>224.33333333333334</ele><time>2026-04-19T16:03:21.052Z</time></trkpt><trkpt lat="43.0047475" lon="11.4153401"><ele>224.0</ele><time>2026-04-19T16:03:22.052Z</time></trkpt><trkpt lat="43.004652" lon="11.4151477"><ele>226.0</ele><time>2026-04-19T16:03:23.052Z</time></trkpt><trkpt lat="43.004559" lon="11.414951"><ele>228.0</ele><time>2026-04-19T16:03:24.052Z</time></trkpt><trkpt lat="43.0044544" lon="11.414753"><ele>230.0</ele><time>2026-04-19T16:03:25.052Z</time></trkpt><trkpt lat="43.0043477" lon="11.4145644"><ele>231.0</ele><time>2026-04-19T16:03:26.052Z</time></trkpt><trkpt lat="43.004242" lon="11.4143768"><ele>232.0</ele><time>2026-04-19T16:03:27.052Z</time></trkpt><trkpt lat="43.0041344" lon="11.4141915"><ele>233.0</ele><time>2026-04-19T16:03:28.052Z</time></trkpt><trkpt lat="43.0040294" lon="11.4140052"><ele>233.0</ele><time>2026-04-19T16:03:29.052Z</time></trkpt><trkpt lat="43.0039299" lon="11.4138301"><ele>233.0</ele><time>2026-04-19T16:03:30.052Z</time></trkpt><trkpt lat="43.0038233" lon="11.4136526"><ele>233.0</ele><time>2026-04-19T16:03:31.052Z</time></trkpt><trkpt lat="43.0037191" lon="11.4134717"><ele>233.0</ele><time>2026-04-19T16:03:32.052Z</time></trkpt><trkpt lat="43.0036159" lon="11.4132884"><ele>233.0</ele><time>2026-04-19T16:03:33.052Z</time></trkpt><trkpt lat="43.0035032" lon="11.4130942"><ele>233.0</ele><time>2026-04-19T16:03:34.052Z</time></trkpt><trkpt lat="43.0033915" lon="11.4128992"><ele>232.66666666666669</ele><time>2026-04-19T16:03:35.052Z</time></trkpt><trkpt lat="43.0032789" lon="11.4127008"><ele>232.33333333333331</ele><time>2026-04-19T16:03:36.052Z</time></trkpt><trkpt lat="43.0031705" lon="11.4125006"><ele>232.0</ele><time>2026-04-19T16:03:37.052Z</time></trkpt><trkpt lat="43.0030712" lon="11.4123297"><ele>234.0</ele><time>2026-04-19T16:03:38.052Z</time></trkpt><trkpt lat="43.0029791" lon="11.4121552"><ele>236.0</ele><time>2026-04-19T16:03:39.053Z</time></trkpt><trkpt lat="43.0028871" lon="11.4119983"><ele>238.0</ele><time>2026-04-19T16:03:40.052Z</time></trkpt><trkpt lat="43.0027961" lon="11.411842"><ele>238.0</ele><time>2026-04-19T16:03:41.052Z</time></trkpt><trkpt lat="43.0027042" lon="11.4116824"><ele>238.0</ele><time>2026-04-19T16:03:42.052Z</time></trkpt><trkpt lat="43.0026178" lon="11.4115217"><ele>238.0</ele><time>2026-04-19T16:03:43.052Z</time></trkpt><trkpt lat="43.0025264" lon="11.4113709"><ele>238.0</ele><time>2026-04-19T16:03:44.052Z</time></trkpt><trkpt lat="43.0024444" lon="11.4112229"><ele>238.25</ele><time>2026-04-19T16:03:45.053Z</time></trkpt><trkpt lat="43.002357" lon="11.4110763"><ele>238.5</ele><time>2026-04-19T16:03:46.052Z</time></trkpt><trkpt lat="43.0022614" lon="11.4109357"><ele>238.75</ele><time>2026-04-19T16:03:47.052Z</time></trkpt><trkpt lat="43.0021599" lon="11.4108223"><ele>239.0</ele><time>2026-04-19T16:03:48.053Z</time></trkpt><trkpt lat="43.0020621" lon="11.4107217"><ele>239.0</ele><time>2026-04-19T16:03:49.052Z</time></trkpt><trkpt lat="43.0019479" lon="11.4106705"><ele>239.0</ele><time>2026-04-19T16:03:50.052Z</time></trkpt><trkpt lat="43.0018234" lon="11.4106528"><ele>239.0</ele><time>2026-04-19T16:03:51.052Z</time></trkpt><trkpt lat="43.001684" lon="11.4106613"><ele>239.0</ele><time>2026-04-19T16:03:52.052Z</time></trkpt><trkpt lat="43.0015326" lon="11.4106864"><ele>238.66666666666669</ele><time>2026-04-19T16:03:53.052Z</time></trkpt><trkpt lat="43.0013754" lon="11.4107249"><ele>238.33333333333331</ele><time>2026-04-19T16:03:54.052Z</time></trkpt><trkpt lat="43.0012169" lon="11.4107596"><ele>238.0</ele><time>2026-04-19T16:03:55.053Z</time></trkpt><trkpt lat="43.0010593" lon="11.4107931"><ele>238.0</ele><time>2026-04-19T16:03:56.053Z</time></trkpt><trkpt lat="43.0008971" lon="11.4108328"><ele>238.0</ele><time>2026-04-19T16:03:57.053Z</time></trkpt><trkpt lat="43.0007347" lon="11.4108616"><ele>238.0</ele><time>2026-04-19T16:03:58.052Z</time></trkpt><trkpt lat="43.0005722" lon="11.4108961"><ele>239.33333333333331</ele><time>2026-04-19T16:03:59.052Z</time></trkpt><trkpt lat="43.0004107" lon="11.4109314"><ele>240.66666666666669</ele><time>2026-04-19T16:04:00.052Z</time></trkpt><trkpt lat="43.0002498" lon="11.4109639"><ele>242.0</ele><time>2026-04-19T16:04:01.052Z</time></trkpt><trkpt lat="43.0000881" lon="11.4109945"><ele>242.0</ele><time>2026-04-19T16:04:02.052Z</time></trkpt><trkpt lat="42.9999233" lon="11.4110222"><ele>242.0</ele><time>2026-04-19T16:04:03.053Z</time></trkpt><trkpt lat="42.9997607" lon="11.411059"><ele>242.0</ele><time>2026-04-19T16:04:04.052Z</time></trkpt><trkpt lat="42.9995991" lon="11.4110957"><ele>242.0</ele><time>2026-04-19T16:04:05.053Z</time></trkpt><trkpt lat="42.9994365" lon="11.4111289"><ele>242.0</ele><time>2026-04-19T16:04:06.052Z</time></trkpt><trkpt lat="42.9992751" lon="11.4111584"><ele>242.0</ele><time>2026-04-19T16:04:07.052Z</time></trkpt><trkpt lat="42.9991174" lon="11.4111856"><ele>242.66666666666669</ele><time>2026-04-19T16:04:08.052Z</time></trkpt><trkpt lat="42.9989581" lon="11.4112132"><ele>243.33333333333331</ele><time>2026-04-19T16:04:09.052Z</time></trkpt><trkpt lat="42.9987989" lon="11.4112375"><ele>244.0</ele><time>2026-04-19T16:04:10.052Z</time></trkpt><trkpt lat="42.9986431" lon="11.4112679"><ele>244.0</ele><time>2026-04-19T16:04:11.052Z</time></trkpt><trkpt lat="42.9984841" lon="11.4112993"><ele>244.0</ele><time>2026-04-19T16:04:12.053Z</time></trkpt><trkpt lat="42.9983245" lon="11.4113337"><ele>244.0</ele><time>2026-04-19T16:04:13.052Z</time></trkpt><trkpt lat="42.9981623" lon="11.4113661"><ele>246.66666666666666</ele><time>2026-04-19T16:04:14.052Z</time></trkpt><trkpt lat="42.9979993" lon="11.4114005"><ele>249.33333333333331</ele><time>2026-04-19T16:04:15.052Z</time></trkpt><trkpt lat="42.9978329" lon="11.4114355"><ele>252.0</ele><time>2026-04-19T16:04:16.053Z</time></trkpt><trkpt lat="42.9976698" lon="11.4114689"><ele>252.0</ele><time>2026-04-19T16:04:17.052Z</time></trkpt><trkpt lat="42.997499" lon="11.4115036"><ele>252.0</ele><time>2026-04-19T16:04:18.052Z</time></trkpt><trkpt lat="42.9973298" lon="11.4115318"><ele>252.0</ele><time>2026-04-19T16:04:19.053Z</time></trkpt><trkpt lat="42.9971572" lon="11.4115589"><ele>252.0</ele><time>2026-04-19T16:04:20.053Z</time></trkpt><trkpt lat="42.9969896" lon="11.4115809"><ele>252.0</ele><time>2026-04-19T16:04:21.052Z</time></trkpt><trkpt lat="42.996825" lon="11.4115998"><ele>252.0</ele><time>2026-04-19T16:04:22.052Z</time></trkpt><trkpt lat="42.9966615" lon="11.4116244"><ele>253.0</ele><time>2026-04-19T16:04:23.052Z</time></trkpt><trkpt lat="42.996508" lon="11.4116619"><ele>254.0</ele><time>2026-04-19T16:04:24.052Z</time></trkpt><trkpt lat="42.9963499" lon="11.4117112"><ele>255.0</ele><time>2026-04-19T16:04:25.053Z</time></trkpt><trkpt lat="42.9961883" lon="11.4117708"><ele>255.0</ele><time>2026-04-19T16:04:26.053Z</time></trkpt><trkpt lat="42.996025" lon="11.4118312"><ele>255.0</ele><time>2026-04-19T16:04:27.052Z</time></trkpt><trkpt lat="42.9958595" lon="11.4118914"><ele>255.0</ele><time>2026-04-19T16:04:28.052Z</time></trkpt><trkpt lat="42.9956939" lon="11.4119515"><ele>254.33333333333331</ele><time>2026-04-19T16:04:29.052Z</time></trkpt><trkpt lat="42.9955243" lon="11.4119999"><ele>253.66666666666666</ele><time>2026-04-19T16:04:30.052Z</time></trkpt><trkpt lat="42.9953597" lon="11.4120487"><ele>253.0</ele><time>2026-04-19T16:04:31.052Z</time></trkpt><trkpt lat="42.9951984" lon="11.4120803"><ele>253.0</ele><time>2026-04-19T16:04:32.052Z</time></trkpt><trkpt lat="42.9950342" lon="11.4120852"><ele>253.0</ele><time>2026-04-19T16:04:33.052Z</time></trkpt><trkpt lat="42.9948733" lon="11.4120572"><ele>253.0</ele><time>2026-04-19T16:04:34.053Z</time></trkpt><trkpt lat="42.9947084" lon="11.4119883"><ele>252.33333333333331</ele><time>2026-04-19T16:04:35.052Z</time></trkpt><trkpt lat="42.9945474" lon="11.4118934"><ele>251.66666666666669</ele><time>2026-04-19T16:04:36.052Z</time></trkpt><trkpt lat="42.9943915" lon="11.4117799"><ele>251.0</ele><time>2026-04-19T16:04:37.052Z</time></trkpt><trkpt lat="42.9942411" lon="11.4116601"><ele>250.66666666666669</ele><time>2026-04-19T16:04:38.052Z</time></trkpt><trkpt lat="42.9940914" lon="11.411538"><ele>250.33333333333331</ele><time>2026-04-19T16:04:39.052Z</time></trkpt><trkpt lat="42.9939345" lon="11.4114099"><ele>250.0</ele><time>2026-04-19T16:04:40.052Z</time></trkpt><trkpt lat="42.9937852" lon="11.4112749"><ele>248.66666666666666</ele><time>2026-04-19T16:04:41.052Z</time></trkpt><trkpt lat="42.9936372" lon="11.4111256"><ele>247.33333333333331</ele><time>2026-04-19T16:04:42.052Z</time></trkpt><trkpt lat="42.9935014" lon="11.4109831"><ele>246.0</ele><time>2026-04-19T16:04:43.052Z</time></trkpt><trkpt lat="42.9933664" lon="11.4108369"><ele>246.0</ele><time>2026-04-19T16:04:44.053Z</time></trkpt><trkpt lat="42.9932444" lon="11.4107165"><ele>246.0</ele><time>2026-04-19T16:04:45.053Z</time></trkpt><trkpt lat="42.9931174" lon="11.4106011"><ele>246.0</ele><time>2026-04-19T16:04:46.052Z</time></trkpt><trkpt lat="42.9929767" lon="11.4105141"><ele>245.33333333333331</ele><time>2026-04-19T16:04:47.053Z</time></trkpt><trkpt lat="42.9928225" lon="11.4104497"><ele>244.66666666666666</ele><time>2026-04-19T16:04:48.052Z</time></trkpt><trkpt lat="42.9926541" lon="11.4104019"><ele>244.0</ele><time>2026-04-19T16:04:49.053Z</time></trkpt><trkpt lat="42.9924818" lon="11.4103683"><ele>244.0</ele><time>2026-04-19T16:04:50.052Z</time></trkpt><trkpt lat="42.9923165" lon="11.4103468"><ele>244.0</ele><time>2026-04-19T16:04:51.052Z</time></trkpt><trkpt lat="42.9921556" lon="11.4103305"><ele>244.0</ele><time>2026-04-19T16:04:52.052Z</time></trkpt><trkpt lat="42.9919881" lon="11.410329"><ele>244.0</ele><time>2026-04-19T16:04:53.053Z</time></trkpt><trkpt lat="42.991818" lon="11.4103367"><ele>244.0</ele><time>2026-04-19T16:04:54.052Z</time></trkpt><trkpt lat="42.9916468" lon="11.4103502"><ele>244.0</ele><time>2026-04-19T16:04:55.052Z</time></trkpt><trkpt lat="42.9914756" lon="11.4103528"><ele>244.33333333333331</ele><time>2026-04-19T16:04:56.052Z</time></trkpt><trkpt lat="42.9913007" lon="11.41034"><ele>244.66666666666669</ele><time>2026-04-19T16:04:57.052Z</time></trkpt><trkpt lat="42.9911184" lon="11.4103148"><ele>245.0</ele><time>2026-04-19T16:04:58.053Z</time></trkpt><trkpt lat="42.9909411" lon="11.4102928"><ele>244.66666666666669</ele><time>2026-04-19T16:04:59.052Z</time></trkpt><trkpt lat="42.9907742" lon="11.4102643"><ele>244.33333333333331</ele><time>2026-04-19T16:05:00.052Z</time></trkpt><trkpt lat="42.9906117" lon="11.410245"><ele>244.0</ele><time>2026-04-19T16:05:01.052Z</time></trkpt><trkpt lat="42.9904501" lon="11.4102262"><ele>244.0</ele><time>2026-04-19T16:05:02.052Z</time></trkpt><trkpt lat="42.9903072" lon="11.4102173"><ele>244.0</ele><time>2026-04-19T16:05:03.053Z</time></trkpt><trkpt lat="42.9901557" lon="11.4102378"><ele>244.0</ele><time>2026-04-19T16:05:04.052Z</time></trkpt><trkpt lat="42.990008" lon="11.4102816"><ele>244.0</ele><time>2026-04-19T16:05:05.052Z</time></trkpt><trkpt lat="42.9898606" lon="11.4103375"><ele>244.0</ele><time>2026-04-19T16:05:06.052Z</time></trkpt><trkpt lat="42.9897107" lon="11.4103911"><ele>244.0</ele><time>2026-04-19T16:05:07.052Z</time></trkpt><trkpt lat="42.9895515" lon="11.4104265"><ele>244.0</ele><time>2026-04-19T16:05:08.053Z</time></trkpt><trkpt lat="42.9893835" lon="11.41045"><ele>244.0</ele><time>2026-04-19T16:05:09.053Z</time></trkpt><trkpt lat="42.9892182" lon="11.4104579"><ele>244.0</ele><time>2026-04-19T16:05:10.052Z</time></trkpt><trkpt lat="42.9890476" lon="11.4104595"><ele>244.0</ele><time>2026-04-19T16:05:11.053Z</time></trkpt><trkpt lat="42.9888739" lon="11.4104467"><ele>242.0</ele><time>2026-04-19T16:05:12.053Z</time></trkpt><trkpt lat="42.9886996" lon="11.4104272"><ele>240.0</ele><time>2026-04-19T16:05:13.052Z</time></trkpt><trkpt lat="42.9885269" lon="11.4103996"><ele>238.0</ele><time>2026-04-19T16:05:14.052Z</time></trkpt><trkpt lat="42.9883583" lon="11.4103673"><ele>236.66666666666666</ele><time>2026-04-19T16:05:15.052Z</time></trkpt><trkpt lat="42.9881871" lon="11.4103348"><ele>235.33333333333331</ele><time>2026-04-19T16:05:16.052Z</time></trkpt><trkpt lat="42.9880162" lon="11.4103036"><ele>234.0</ele><time>2026-04-19T16:05:17.052Z</time></trkpt><trkpt lat="42.9878418" lon="11.410272"><ele>234.0</ele><time>2026-04-19T16:05:18.052Z</time></trkpt><trkpt lat="42.9876636" lon="11.4102348"><ele>234.0</ele><time>2026-04-19T16:05:19.052Z</time></trkpt><trkpt lat="42.9874854" lon="11.4102017"><ele>234.0</ele><time>2026-04-19T16:05:20.053Z</time></trkpt><trkpt lat="42.9873104" lon="11.4101683"><ele>234.66666666666669</ele><time>2026-04-19T16:05:21.052Z</time></trkpt><trkpt lat="42.9871221" lon="11.4101283"><ele>235.33333333333334</ele><time>2026-04-19T16:05:22.052Z</time></trkpt><trkpt lat="42.9869276" lon="11.4100906"><ele>236.0</ele><time>2026-04-19T16:05:23.052Z</time></trkpt><trkpt lat="42.9867357" lon="11.4100447"><ele>234.66666666666669</ele><time>2026-04-19T16:05:24.052Z</time></trkpt><trkpt lat="42.9865457" lon="11.4099982"><ele>233.33333333333331</ele><time>2026-04-19T16:05:25.053Z</time></trkpt><trkpt lat="42.986365" lon="11.409948"><ele>232.0</ele><time>2026-04-19T16:05:26.052Z</time></trkpt><trkpt lat="42.9861962" lon="11.4098988"><ele>232.0</ele><time>2026-04-19T16:05:27.052Z</time></trkpt><trkpt lat="42.9860379" lon="11.4098375"><ele>232.0</ele><time>2026-04-19T16:05:28.052Z</time></trkpt><trkpt lat="42.9858894" lon="11.4097631"><ele>232.0</ele><time>2026-04-19T16:05:29.052Z</time></trkpt><trkpt lat="42.9857529" lon="11.4096848"><ele>229.75</ele><time>2026-04-19T16:05:30.052Z</time></trkpt><trkpt lat="42.9856263" lon="11.4096084"><ele>227.5</ele><time>2026-04-19T16:05:31.053Z</time></trkpt><trkpt lat="42.9855028" lon="11.4095409"><ele>225.25</ele><time>2026-04-19T16:05:32.053Z</time></trkpt><trkpt lat="42.9853774" lon="11.4094827"><ele>223.0</ele><time>2026-04-19T16:05:33.052Z</time></trkpt><trkpt lat="42.9852507" lon="11.4094327"><ele>223.0</ele><time>2026-04-19T16:05:34.052Z</time></trkpt><trkpt lat="42.9851262" lon="11.4093845"><ele>223.0</ele><time>2026-04-19T16:05:35.053Z</time></trkpt><trkpt lat="42.9849959" lon="11.4093362"><ele>223.0</ele><time>2026-04-19T16:05:36.052Z</time></trkpt><trkpt lat="42.9848677" lon="11.4092848"><ele>223.0</ele><time>2026-04-19T16:05:37.052Z</time></trkpt><trkpt lat="42.9847412" lon="11.4092292"><ele>222.5</ele><time>2026-04-19T16:05:38.053Z</time></trkpt><trkpt lat="42.9846189" lon="11.4091604"><ele>222.0</ele><time>2026-04-19T16:05:39.052Z</time></trkpt><trkpt lat="42.9844988" lon="11.4090803"><ele>221.5</ele><time>2026-04-19T16:05:40.052Z</time></trkpt><trkpt lat="42.9843752" lon="11.4089882"><ele>221.0</ele><time>2026-04-19T16:05:41.053Z</time></trkpt><trkpt lat="42.9842456" lon="11.4088862"><ele>218.0</ele><time>2026-04-19T16:05:42.052Z</time></trkpt><trkpt lat="42.9841242" lon="11.4087845"><ele>215.0</ele><time>2026-04-19T16:05:43.052Z</time></trkpt><trkpt lat="42.9840057" lon="11.4086897"><ele>212.0</ele><time>2026-04-19T16:05:44.053Z</time></trkpt><trkpt lat="42.9838843" lon="11.4085945"><ele>209.0</ele><time>2026-04-19T16:05:45.052Z</time></trkpt><trkpt lat="42.983758" lon="11.4084981"><ele>209.0</ele><time>2026-04-19T16:05:46.052Z</time></trkpt><trkpt lat="42.9836313" lon="11.4083975"><ele>209.0</ele><time>2026-04-19T16:05:47.052Z</time></trkpt><trkpt lat="42.9835072" lon="11.4082925"><ele>209.0</ele><time>2026-04-19T16:05:48.052Z</time></trkpt><trkpt lat="42.9833867" lon="11.4081837"><ele>209.0</ele><time>2026-04-19T16:05:49.052Z</time></trkpt><trkpt lat="42.9832675" lon="11.4080818"><ele>208.0</ele><time>2026-04-19T16:05:50.052Z</time></trkpt><trkpt lat="42.9831495" lon="11.4079889"><ele>207.0</ele><time>2026-04-19T16:05:51.053Z</time></trkpt><trkpt lat="42.9830356" lon="11.4078945"><ele>206.0</ele><time>2026-04-19T16:05:52.052Z</time></trkpt><trkpt lat="42.9829268" lon="11.4078066"><ele>205.0</ele><time>2026-04-19T16:05:53.052Z</time></trkpt><trkpt lat="42.9828221" lon="11.4077279"><ele>204.99999999999997</ele><time>2026-04-19T16:05:54.052Z</time></trkpt><trkpt lat="42.9827247" lon="11.4076485"><ele>205.0</ele><time>2026-04-19T16:05:55.053Z</time></trkpt><trkpt lat="42.9826367" lon="11.407578"><ele>205.0</ele><time>2026-04-19T16:05:56.052Z</time></trkpt><trkpt lat="42.982561" lon="11.4075249"><ele>205.0</ele><time>2026-04-19T16:05:57.053Z</time></trkpt><trkpt lat="42.9824925" lon="11.4075068"><ele>204.99999999999997</ele><time>2026-04-19T16:05:58.052Z</time></trkpt><trkpt lat="42.9824296" lon="11.4075242"><ele>205.0</ele><time>2026-04-19T16:05:59.052Z</time></trkpt><trkpt lat="42.982336" lon="11.4076465"><ele>205.2</ele><time>2026-04-19T16:06:01.052Z</time></trkpt><trkpt lat="42.9822976" lon="11.4077589"><ele>205.4</ele><time>2026-04-19T16:06:02.053Z</time></trkpt><trkpt lat="42.9822551" lon="11.407887"><ele>205.60000000000002</ele><time>2026-04-19T16:06:03.053Z</time></trkpt><trkpt lat="42.9822053" lon="11.4080274"><ele>205.8</ele><time>2026-04-19T16:06:04.053Z</time></trkpt><trkpt lat="42.9821497" lon="11.4081866"><ele>206.0</ele><time>2026-04-19T16:06:05.052Z</time></trkpt><trkpt lat="42.9820936" lon="11.4083377"><ele>207.0</ele><time>2026-04-19T16:06:06.053Z</time></trkpt><trkpt lat="42.9820258" lon="11.4084813"><ele>208.0</ele><time>2026-04-19T16:06:07.052Z</time></trkpt><trkpt lat="42.9819407" lon="11.4086128"><ele>209.0</ele><time>2026-04-19T16:06:08.052Z</time></trkpt><trkpt lat="42.98184" lon="11.4087259"><ele>210.0</ele><time>2026-04-19T16:06:09.052Z</time></trkpt><trkpt lat="42.9817316" lon="11.4088253"><ele>211.25</ele><time>2026-04-19T16:06:10.053Z</time></trkpt><trkpt lat="42.9816144" lon="11.4089062"><ele>212.5</ele><time>2026-04-19T16:06:11.052Z</time></trkpt><trkpt lat="42.981491" lon="11.4089627"><ele>213.75</ele><time>2026-04-19T16:06:12.052Z</time></trkpt><trkpt lat="42.9813671" lon="11.4089975"><ele>215.0</ele><time>2026-04-19T16:06:13.052Z</time></trkpt><trkpt lat="42.981239" lon="11.4090197"><ele>215.0</ele><time>2026-04-19T16:06:14.052Z</time></trkpt><trkpt lat="42.9811095" lon="11.4090419"><ele>215.0</ele><time>2026-04-19T16:06:15.053Z</time></trkpt><trkpt lat="42.9809808" lon="11.4090687"><ele>215.0</ele><time>2026-04-19T16:06:16.052Z</time></trkpt><trkpt lat="42.9808589" lon="11.4090921"><ele>215.0</ele><time>2026-04-19T16:06:17.052Z</time></trkpt><trkpt lat="42.980739" lon="11.4091182"><ele>215.4</ele><time>2026-04-19T16:06:18.052Z</time></trkpt><trkpt lat="42.9806259" lon="11.4091461"><ele>215.8</ele><time>2026-04-19T16:06:19.052Z</time></trkpt><trkpt lat="42.9805198" lon="11.409175"><ele>216.2</ele><time>2026-04-19T16:06:20.052Z</time></trkpt><trkpt lat="42.9804122" lon="11.4092063"><ele>216.6</ele><time>2026-04-19T16:06:21.052Z</time></trkpt><trkpt lat="42.9803058" lon="11.4092407"><ele>217.0</ele><time>2026-04-19T16:06:22.053Z</time></trkpt><trkpt lat="42.9801983" lon="11.409276"><ele>217.0</ele><time>2026-04-19T16:06:23.052Z</time></trkpt><trkpt lat="42.9800917" lon="11.4092961"><ele>217.0</ele><time>2026-04-19T16:06:24.053Z</time></trkpt><trkpt lat="42.9799797" lon="11.4092995"><ele>217.0</ele><time>2026-04-19T16:06:25.053Z</time></trkpt><trkpt lat="42.9798657" lon="11.4092858"><ele>217.0</ele><time>2026-04-19T16:06:26.053Z</time></trkpt><trkpt lat="42.9797527" lon="11.4092681"><ele>217.0</ele><time>2026-04-19T16:06:27.052Z</time></trkpt><trkpt lat="42.9796399" lon="11.409258"><ele>215.25</ele><time>2026-04-19T16:06:28.052Z</time></trkpt><trkpt lat="42.9795275" lon="11.4092437"><ele>213.5</ele><time>2026-04-19T16:06:29.052Z</time></trkpt><trkpt lat="42.9794116" lon="11.409241"><ele>211.75</ele><time>2026-04-19T16:06:30.053Z</time></trkpt><trkpt lat="42.9792972" lon="11.4092434"><ele>210.0</ele><time>2026-04-19T16:06:31.053Z</time></trkpt><trkpt lat="42.9791849" lon="11.4092632"><ele>207.5</ele><time>2026-04-19T16:06:32.052Z</time></trkpt><trkpt lat="42.9790723" lon="11.4093064"><ele>205.0</ele><time>2026-04-19T16:06:33.052Z</time></trkpt><trkpt lat="42.9789636" lon="11.4093524"><ele>202.5</ele><time>2026-04-19T16:06:34.052Z</time></trkpt><trkpt lat="42.9788581" lon="11.409401"><ele>200.0</ele><time>2026-04-19T16:06:35.053Z</time></trkpt><trkpt lat="42.9787508" lon="11.4094337"><ele>200.0</ele><time>2026-04-19T16:06:36.053Z</time></trkpt><trkpt lat="42.9786394" lon="11.4094343"><ele>200.0</ele><time>2026-04-19T16:06:37.052Z</time></trkpt><trkpt lat="42.9785366" lon="11.409416"><ele>200.0</ele><time>2026-04-19T16:06:38.052Z</time></trkpt><trkpt lat="42.97843" lon="11.4093864"><ele>200.0</ele><time>2026-04-19T16:06:39.052Z</time></trkpt><trkpt lat="42.9783182" lon="11.4093462"><ele>200.0</ele><time>2026-04-19T16:06:40.052Z</time></trkpt><trkpt lat="42.97821" lon="11.4092964"><ele>197.75</ele><time>2026-04-19T16:06:41.052Z</time></trkpt><trkpt lat="42.9781048" lon="11.4092437"><ele>195.5</ele><time>2026-04-19T16:06:42.052Z</time></trkpt><trkpt lat="42.9779961" lon="11.409197"><ele>193.25</ele><time>2026-04-19T16:06:43.052Z</time></trkpt><trkpt lat="42.9778857" lon="11.4091498"><ele>191.0</ele><time>2026-04-19T16:06:44.052Z</time></trkpt><trkpt lat="42.9777771" lon="11.4090984"><ele>191.0</ele><time>2026-04-19T16:06:45.052Z</time></trkpt><trkpt lat="42.9776691" lon="11.4090453"><ele>191.0</ele><time>2026-04-19T16:06:46.052Z</time></trkpt><trkpt lat="42.9775619" lon="11.4089938"><ele>191.0</ele><time>2026-04-19T16:06:47.052Z</time></trkpt><trkpt lat="42.9774598" lon="11.4089383"><ele>191.0</ele><time>2026-04-19T16:06:48.052Z</time></trkpt><trkpt lat="42.9773519" lon="11.4088793"><ele>187.5</ele><time>2026-04-19T16:06:49.052Z</time></trkpt><trkpt lat="42.9772456" lon="11.4088232"><ele>184.0</ele><time>2026-04-19T16:06:50.052Z</time></trkpt><trkpt lat="42.9771394" lon="11.4087655"><ele>180.5</ele><time>2026-04-19T16:06:51.052Z</time></trkpt><trkpt lat="42.977037" lon="11.4086982"><ele>177.0</ele><time>2026-04-19T16:06:52.052Z</time></trkpt><trkpt lat="42.9769352" lon="11.4086341"><ele>177.0</ele><time>2026-04-19T16:06:53.053Z</time></trkpt><trkpt lat="42.9768296" lon="11.4085811"><ele>177.0</ele><time>2026-04-19T16:06:54.053Z</time></trkpt><trkpt lat="42.9767245" lon="11.4085475"><ele>177.0</ele><time>2026-04-19T16:06:55.052Z</time></trkpt><trkpt lat="42.9766144" lon="11.4085341"><ele>177.0</ele><time>2026-04-19T16:06:56.052Z</time></trkpt><trkpt lat="42.9765179" lon="11.4085469"><ele>177.0</ele><time>2026-04-19T16:06:57.053Z</time></trkpt><trkpt lat="42.9764416" lon="11.4085978"><ele>176.66666666666666</ele><time>2026-04-19T16:06:58.052Z</time></trkpt><trkpt lat="42.9763841" lon="11.4086776"><ele>176.33333333333334</ele><time>2026-04-19T16:06:59.052Z</time></trkpt><trkpt lat="42.9763548" lon="11.4087825"><ele>176.0</ele><time>2026-04-19T16:07:00.053Z</time></trkpt><trkpt lat="42.9763371" lon="11.4089003"><ele>175.66666666666669</ele><time>2026-04-19T16:07:01.052Z</time></trkpt><trkpt lat="42.9763262" lon="11.4090185"><ele>175.33333333333334</ele><time>2026-04-19T16:07:02.052Z</time></trkpt><trkpt lat="42.976316" lon="11.4091449"><ele>175.0</ele><time>2026-04-19T16:07:03.052Z</time></trkpt><trkpt lat="42.9762809" lon="11.4092656"><ele>175.0</ele><time>2026-04-19T16:07:04.052Z</time></trkpt><trkpt lat="42.9762428" lon="11.4093873"><ele>175.0</ele><time>2026-04-19T16:07:05.052Z</time></trkpt><trkpt lat="42.9762025" lon="11.4094971"><ele>175.0</ele><time>2026-04-19T16:07:06.052Z</time></trkpt><trkpt lat="42.9761473" lon="11.409613"><ele>175.0</ele><time>2026-04-19T16:07:07.052Z</time></trkpt><trkpt lat="42.9760842" lon="11.4097265"><ele>175.0</ele><time>2026-04-19T16:07:08.053Z</time></trkpt><trkpt lat="42.9760079" lon="11.4098217"><ele>175.8</ele><time>2026-04-19T16:07:09.053Z</time></trkpt><trkpt lat="42.9759173" lon="11.4098954"><ele>176.6</ele><time>2026-04-19T16:07:10.052Z</time></trkpt><trkpt lat="42.9758195" lon="11.4099456"><ele>177.39999999999998</ele><time>2026-04-19T16:07:11.052Z</time></trkpt><trkpt lat="42.9757141" lon="11.4099931"><ele>178.2</ele><time>2026-04-19T16:07:12.052Z</time></trkpt><trkpt lat="42.9756142" lon="11.4100534"><ele>179.0</ele><time>2026-04-19T16:07:13.052Z</time></trkpt><trkpt lat="42.9755173" lon="11.4101205"><ele>176.6</ele><time>2026-04-19T16:07:14.052Z</time></trkpt><trkpt lat="42.9754157" lon="11.410186"><ele>174.2</ele><time>2026-04-19T16:07:15.052Z</time></trkpt><trkpt lat="42.9753259" lon="11.4102736"><ele>171.79999999999998</ele><time>2026-04-19T16:07:16.052Z</time></trkpt><trkpt lat="42.9752541" lon="11.4103798"><ele>169.39999999999998</ele><time>2026-04-19T16:07:17.052Z</time></trkpt><trkpt lat="42.9752028" lon="11.410506"><ele>167.0</ele><time>2026-04-19T16:07:18.053Z</time></trkpt><trkpt lat="42.9751628" lon="11.4106432"><ele>167.0</ele><time>2026-04-19T16:07:19.052Z</time></trkpt><trkpt lat="42.9751301" lon="11.4107826"><ele>167.0</ele><time>2026-04-19T16:07:20.052Z</time></trkpt><trkpt lat="42.9750878" lon="11.4109201"><ele>167.0</ele><time>2026-04-19T16:07:21.053Z</time></trkpt><trkpt lat="42.975021" lon="11.4110341"><ele>167.0</ele><time>2026-04-19T16:07:22.052Z</time></trkpt><trkpt lat="42.9749428" lon="11.4111374"><ele>167.0</ele><time>2026-04-19T16:07:23.052Z</time></trkpt><trkpt lat="42.9748649" lon="11.4112361"><ele>164.79999999999998</ele><time>2026-04-19T16:07:24.052Z</time></trkpt><trkpt lat="42.9747839" lon="11.411338"><ele>162.6</ele><time>2026-04-19T16:07:25.052Z</time></trkpt><trkpt lat="42.9747003" lon="11.4114399"><ele>160.39999999999998</ele><time>2026-04-19T16:07:26.052Z</time></trkpt><trkpt lat="42.974618" lon="11.4115459"><ele>158.2</ele><time>2026-04-19T16:07:27.052Z</time></trkpt><trkpt lat="42.974539" lon="11.4116479"><ele>156.0</ele><time>2026-04-19T16:07:28.052Z</time></trkpt><trkpt lat="42.9744587" lon="11.4117433"><ele>156.0</ele><time>2026-04-19T16:07:29.052Z</time></trkpt><trkpt lat="42.9743772" lon="11.4118445"><ele>156.0</ele><time>2026-04-19T16:07:30.052Z</time></trkpt><trkpt lat="42.974293" lon="11.4119485"><ele>156.0</ele><time>2026-04-19T16:07:31.052Z</time></trkpt><trkpt lat="42.9742113" lon="11.4120538"><ele>156.0</ele><time>2026-04-19T16:07:32.052Z</time></trkpt><trkpt lat="42.9741203" lon="11.4121651"><ele>153.5</ele><time>2026-04-19T16:07:33.052Z</time></trkpt><trkpt lat="42.9740298" lon="11.4122737"><ele>151.0</ele><time>2026-04-19T16:07:34.052Z</time></trkpt><trkpt lat="42.9739358" lon="11.4123873"><ele>148.5</ele><time>2026-04-19T16:07:35.052Z</time></trkpt><trkpt lat="42.9738447" lon="11.4125013"><ele>146.0</ele><time>2026-04-19T16:07:36.053Z</time></trkpt><trkpt lat="42.9737554" lon="11.4126155"><ele>146.0</ele><time>2026-04-19T16:07:37.052Z</time></trkpt><trkpt lat="42.9736594" lon="11.4127267"><ele>146.0</ele><time>2026-04-19T16:07:38.052Z</time></trkpt><trkpt lat="42.9735682" lon="11.4128388"><ele>146.0</ele><time>2026-04-19T16:07:39.052Z</time></trkpt><trkpt lat="42.9734774" lon="11.4129523"><ele>146.0</ele><time>2026-04-19T16:07:40.052Z</time></trkpt><trkpt lat="42.9733877" lon="11.4130614"><ele>143.75</ele><time>2026-04-19T16:07:41.053Z</time></trkpt><trkpt lat="42.9732956" lon="11.4131784"><ele>141.5</ele><time>2026-04-19T16:07:42.052Z</time></trkpt><trkpt lat="42.9732069" lon="11.4132947"><ele>139.25</ele><time>2026-04-19T16:07:43.052Z</time></trkpt><trkpt lat="42.9731148" lon="11.4134071"><ele>137.0</ele><time>2026-04-19T16:07:44.052Z</time></trkpt><trkpt lat="42.9730185" lon="11.4135205"><ele>137.0</ele><time>2026-04-19T16:07:45.052Z</time></trkpt><trkpt lat="42.9729262" lon="11.4136317"><ele>137.0</ele><time>2026-04-19T16:07:46.052Z</time></trkpt><trkpt lat="42.9728343" lon="11.4137533"><ele>137.0</ele><time>2026-04-19T16:07:47.053Z</time></trkpt><trkpt lat="42.9727395" lon="11.4138764"><ele>137.0</ele><time>2026-04-19T16:07:48.052Z</time></trkpt><trkpt lat="42.9726426" lon="11.4140045"><ele>135.0</ele><time>2026-04-19T16:07:49.052Z</time></trkpt><trkpt lat="42.9725523" lon="11.4141294"><ele>133.0</ele><time>2026-04-19T16:07:50.052Z</time></trkpt><trkpt lat="42.9724604" lon="11.4142502"><ele>131.0</ele><time>2026-04-19T16:07:51.052Z</time></trkpt><trkpt lat="42.9723735" lon="11.414373"><ele>129.0</ele><time>2026-04-19T16:07:52.052Z</time></trkpt><trkpt lat="42.972281" lon="11.4144839"><ele>129.0</ele><time>2026-04-19T16:07:53.052Z</time></trkpt><trkpt lat="42.9721808" lon="11.4146002"><ele>129.0</ele><time>2026-04-19T16:07:54.052Z</time></trkpt><trkpt lat="42.9720725" lon="11.4147056"><ele>129.0</ele><time>2026-04-19T16:07:55.052Z</time></trkpt><trkpt lat="42.9719524" lon="11.4148076"><ele>129.0</ele><time>2026-04-19T16:07:56.052Z</time></trkpt><trkpt lat="42.9718285" lon="11.4149099"><ele>126.66666666666666</ele><time>2026-04-19T16:07:57.052Z</time></trkpt><trkpt lat="42.9716955" lon="11.4150092"><ele>124.33333333333333</ele><time>2026-04-19T16:07:58.052Z</time></trkpt><trkpt lat="42.9715573" lon="11.4151031"><ele>122.0</ele><time>2026-04-19T16:07:59.053Z</time></trkpt><trkpt lat="42.9714097" lon="11.4151948"><ele>121.66666666666666</ele><time>2026-04-19T16:08:00.052Z</time></trkpt><trkpt lat="42.9712548" lon="11.4152867"><ele>121.33333333333334</ele><time>2026-04-19T16:08:01.052Z</time></trkpt><trkpt lat="42.9710925" lon="11.4153828"><ele>121.0</ele><time>2026-04-19T16:08:02.053Z</time></trkpt><trkpt lat="42.9709385" lon="11.415473"><ele>119.0</ele><time>2026-04-19T16:08:03.052Z</time></trkpt><trkpt lat="42.9707773" lon="11.4155646"><ele>117.0</ele><time>2026-04-19T16:08:04.052Z</time></trkpt><trkpt lat="42.970608" lon="11.4156613"><ele>115.0</ele><time>2026-04-19T16:08:05.052Z</time></trkpt><trkpt lat="42.9704276" lon="11.4157695"><ele>115.0</ele><time>2026-04-19T16:08:06.053Z</time></trkpt><trkpt lat="42.970241" lon="11.4158705"><ele>115.0</ele><time>2026-04-19T16:08:07.053Z</time></trkpt><trkpt lat="42.9700685" lon="11.415971"><ele>115.0</ele><time>2026-04-19T16:08:08.053Z</time></trkpt><trkpt lat="42.9698984" lon="11.4160676"><ele>114.33333333333334</ele><time>2026-04-19T16:08:09.052Z</time></trkpt><trkpt lat="42.969737" lon="11.4161557"><ele>113.66666666666666</ele><time>2026-04-19T16:08:10.052Z</time></trkpt><trkpt lat="42.969582" lon="11.4162343"><ele>113.0</ele><time>2026-04-19T16:08:11.053Z</time></trkpt><trkpt lat="42.9694369" lon="11.4163046"><ele>113.0</ele><time>2026-04-19T16:08:12.052Z</time></trkpt><trkpt lat="42.9693022" lon="11.4163805"><ele>113.0</ele><time>2026-04-19T16:08:13.052Z</time></trkpt><trkpt lat="42.9691787" lon="11.4164592"><ele>113.0</ele><time>2026-04-19T16:08:14.052Z</time></trkpt><trkpt lat="42.9690718" lon="11.4165407"><ele>113.0</ele><time>2026-04-19T16:08:15.052Z</time></trkpt><trkpt lat="42.9689744" lon="11.4166224"><ele>113.0</ele><time>2026-04-19T16:08:16.052Z</time></trkpt><trkpt lat="42.9688874" lon="11.4167065"><ele>113.00000000000001</ele><time>2026-04-19T16:08:17.052Z</time></trkpt><trkpt lat="42.968812" lon="11.4167986"><ele>113.00000000000001</ele><time>2026-04-19T16:08:18.053Z</time></trkpt><trkpt lat="42.9687577" lon="11.4169038"><ele>113.0</ele><time>2026-04-19T16:08:19.052Z</time></trkpt><trkpt lat="42.9687304" lon="11.4170307"><ele>113.0</ele><time>2026-04-19T16:08:20.053Z</time></trkpt><trkpt lat="42.968733" lon="11.417161"><ele>113.0</ele><time>2026-04-19T16:08:21.052Z</time></trkpt><trkpt lat="42.968766" lon="11.4173069"><ele>113.0</ele><time>2026-04-19T16:08:22.053Z</time></trkpt><trkpt lat="42.9688102" lon="11.4174659"><ele>113.0</ele><time>2026-04-19T16:08:23.052Z</time></trkpt><trkpt lat="42.9688545" lon="11.4176375"><ele>113.0</ele><time>2026-04-19T16:08:24.053Z</time></trkpt><trkpt lat="42.9688931" lon="11.4178014"><ele>113.0</ele><time>2026-04-19T16:08:25.053Z</time></trkpt><trkpt lat="42.9689142" lon="11.4179579"><ele>113.00000000000001</ele><time>2026-04-19T16:08:26.052Z</time></trkpt><trkpt lat="42.9689077" lon="11.4180883"><ele>113.00000000000001</ele><time>2026-04-19T16:08:27.053Z</time></trkpt><trkpt lat="42.9688704" lon="11.4182096"><ele>113.0</ele><time>2026-04-19T16:08:28.052Z</time></trkpt><trkpt lat="42.9688157" lon="11.4183138"><ele>113.0</ele><time>2026-04-19T16:08:29.052Z</time></trkpt><trkpt lat="42.9687366" lon="11.418407"><ele>116.5</ele><time>2026-04-19T16:08:30.053Z</time></trkpt><trkpt lat="42.9686497" lon="11.4184989"><ele>120.0</ele><time>2026-04-19T16:08:31.052Z</time></trkpt><trkpt lat="42.9685612" lon="11.4185996"><ele>123.5</ele><time>2026-04-19T16:08:32.052Z</time></trkpt><trkpt lat="42.9684778" lon="11.4187092"><ele>127.0</ele><time>2026-04-19T16:08:33.053Z</time></trkpt><trkpt lat="42.9684191" lon="11.4188409"><ele>129.25</ele><time>2026-04-19T16:08:34.053Z</time></trkpt><trkpt lat="42.9683741" lon="11.4189896"><ele>131.5</ele><time>2026-04-19T16:08:35.052Z</time></trkpt><trkpt lat="42.9683456" lon="11.419142"><ele>133.75</ele><time>2026-04-19T16:08:36.052Z</time></trkpt><trkpt lat="42.9683258" lon="11.4192968"><ele>136.0</ele><time>2026-04-19T16:08:37.053Z</time></trkpt><trkpt lat="42.9683104" lon="11.4194558"><ele>136.0</ele><time>2026-04-19T16:08:38.052Z</time></trkpt><trkpt lat="42.9683007" lon="11.4196006"><ele>136.0</ele><time>2026-04-19T16:08:39.052Z</time></trkpt><trkpt lat="42.9682991" lon="11.4197298"><ele>136.0</ele><time>2026-04-19T16:08:40.053Z</time></trkpt><trkpt lat="42.9683061" lon="11.4198588"><ele>136.0</ele><time>2026-04-19T16:08:41.053Z</time></trkpt><trkpt lat="42.9683226" lon="11.4199898"><ele>136.0</ele><time>2026-04-19T16:08:42.052Z</time></trkpt><trkpt lat="42.9683457" lon="11.4201376"><ele>136.5</ele><time>2026-04-19T16:08:43.052Z</time></trkpt><trkpt lat="42.9683756" lon="11.4202909"><ele>137.0</ele><time>2026-04-19T16:08:44.052Z</time></trkpt><trkpt lat="42.9684095" lon="11.420444"><ele>137.5</ele><time>2026-04-19T16:08:45.053Z</time></trkpt><trkpt lat="42.9684491" lon="11.4206049"><ele>138.0</ele><time>2026-04-19T16:08:46.052Z</time></trkpt><trkpt lat="42.9684845" lon="11.4207636"><ele>138.0</ele><time>2026-04-19T16:08:47.052Z</time></trkpt><trkpt lat="42.9685174" lon="11.4209262"><ele>138.0</ele><time>2026-04-19T16:08:48.052Z</time></trkpt><trkpt lat="42.9685515" lon="11.4210908"><ele>138.0</ele><time>2026-04-19T16:08:49.052Z</time></trkpt><trkpt lat="42.9685888" lon="11.4212539"><ele>138.0</ele><time>2026-04-19T16:08:50.052Z</time></trkpt><trkpt lat="42.9686245" lon="11.4214169"><ele>138.5</ele><time>2026-04-19T16:08:51.053Z</time></trkpt><trkpt lat="42.9686575" lon="11.4215841"><ele>139.0</ele><time>2026-04-19T16:08:52.052Z</time></trkpt><trkpt lat="42.9686968" lon="11.4217538"><ele>139.5</ele><time>2026-04-19T16:08:53.053Z</time></trkpt><trkpt lat="42.9687357" lon="11.4219256"><ele>140.0</ele><time>2026-04-19T16:08:54.053Z</time></trkpt><trkpt lat="42.9687689" lon="11.4220902"><ele>140.0</ele><time>2026-04-19T16:08:55.052Z</time></trkpt><trkpt lat="42.9687995" lon="11.4222577"><ele>140.0</ele><time>2026-04-19T16:08:56.052Z</time></trkpt><trkpt lat="42.9688221" lon="11.4224336"><ele>140.0</ele><time>2026-04-19T16:08:57.052Z</time></trkpt><trkpt lat="42.9688253" lon="11.4226068"><ele>140.0</ele><time>2026-04-19T16:08:58.052Z</time></trkpt><trkpt lat="42.9688186" lon="11.4227922"><ele>140.0</ele><time>2026-04-19T16:08:59.052Z</time></trkpt><trkpt lat="42.9688019" lon="11.4229786"><ele>140.0</ele><time>2026-04-19T16:09:00.052Z</time></trkpt><trkpt lat="42.9687828" lon="11.4231672"><ele>140.0</ele><time>2026-04-19T16:09:01.052Z</time></trkpt><trkpt lat="42.9687652" lon="11.4233575"><ele>140.0</ele><time>2026-04-19T16:09:02.052Z</time></trkpt><trkpt lat="42.9687442" lon="11.4235545"><ele>140.5</ele><time>2026-04-19T16:09:03.053Z</time></trkpt><trkpt lat="42.9687189" lon="11.4237442"><ele>141.0</ele><time>2026-04-19T16:09:04.052Z</time></trkpt><trkpt lat="42.9686812" lon="11.4239258"><ele>141.5</ele><time>2026-04-19T16:09:05.052Z</time></trkpt><trkpt lat="42.9686382" lon="11.4241051"><ele>142.0</ele><time>2026-04-19T16:09:06.052Z</time></trkpt><trkpt lat="42.9685862" lon="11.4242824"><ele>142.0</ele><time>2026-04-19T16:09:07.052Z</time></trkpt><trkpt lat="42.9685284" lon="11.4244465"><ele>142.0</ele><time>2026-04-19T16:09:08.052Z</time></trkpt><trkpt lat="42.9684661" lon="11.4246053"><ele>142.0</ele><time>2026-04-19T16:09:09.052Z</time></trkpt><trkpt lat="42.9684047" lon="11.4247747"><ele>142.0</ele><time>2026-04-19T16:09:10.052Z</time></trkpt><trkpt lat="42.9683453" lon="11.4249408"><ele>138.75</ele><time>2026-04-19T16:09:11.052Z</time></trkpt><trkpt lat="42.9682877" lon="11.4251043"><ele>135.5</ele><time>2026-04-19T16:09:12.052Z</time></trkpt><trkpt lat="42.9682324" lon="11.4252622"><ele>132.25</ele><time>2026-04-19T16:09:13.053Z</time></trkpt><trkpt lat="42.9681794" lon="11.4254207"><ele>129.0</ele><time>2026-04-19T16:09:14.052Z</time></trkpt><trkpt lat="42.9681256" lon="11.425568"><ele>128.5</ele><time>2026-04-19T16:09:15.053Z</time></trkpt><trkpt lat="42.9680758" lon="11.4257165"><ele>128.0</ele><time>2026-04-19T16:09:16.052Z</time></trkpt><trkpt lat="42.9680301" lon="11.425872"><ele>127.5</ele><time>2026-04-19T16:09:17.052Z</time></trkpt><trkpt lat="42.9679795" lon="11.4260291"><ele>127.0</ele><time>2026-04-19T16:09:18.052Z</time></trkpt><trkpt lat="42.9679254" lon="11.4261746"><ele>128.6</ele><time>2026-04-19T16:09:19.052Z</time></trkpt><trkpt lat="42.9678622" lon="11.4263126"><ele>130.2</ele><time>2026-04-19T16:09:20.052Z</time></trkpt><trkpt lat="42.9677907" lon="11.4264347"><ele>131.8</ele><time>2026-04-19T16:09:21.052Z</time></trkpt><trkpt lat="42.9677199" lon="11.4265375"><ele>133.4</ele><time>2026-04-19T16:09:22.052Z</time></trkpt><trkpt lat="42.9676569" lon="11.4266226"><ele>135.0</ele><time>2026-04-19T16:09:23.052Z</time></trkpt><trkpt lat="42.9676005" lon="11.4266921"><ele>132.6</ele><time>2026-04-19T16:09:24.052Z</time></trkpt><trkpt lat="42.967524" lon="11.4267969"><ele>130.2</ele><time>2026-04-19T16:09:26.052Z</time></trkpt><trkpt lat="42.9674778" lon="11.4268567"><ele>127.80000000000001</ele><time>2026-04-19T16:09:28.052Z</time></trkpt><trkpt lat="42.9674115" lon="11.426938"><ele>125.4</ele><time>2026-04-19T16:09:35.052Z</time></trkpt><trkpt lat="42.9673333" lon="11.4270659"><ele>123.0</ele><time>2026-04-19T16:09:37.052Z</time></trkpt><trkpt lat="42.9672812" lon="11.4271509"><ele>123.0</ele><time>2026-04-19T16:09:38.052Z</time></trkpt><trkpt lat="42.967228" lon="11.4272416"><ele>123.00000000000001</ele><time>2026-04-19T16:09:39.052Z</time></trkpt><trkpt lat="42.9671662" lon="11.4273445"><ele>123.00000000000001</ele><time>2026-04-19T16:09:40.052Z</time></trkpt><trkpt lat="42.9670999" lon="11.4274573"><ele>123.0</ele><time>2026-04-19T16:09:41.053Z</time></trkpt><trkpt lat="42.9670368" lon="11.427566"><ele>123.0</ele><time>2026-04-19T16:09:42.052Z</time></trkpt><trkpt lat="42.9669758" lon="11.4276726"><ele>123.0</ele><time>2026-04-19T16:09:43.052Z</time></trkpt><trkpt lat="42.9669172" lon="11.4277754"><ele>123.00000000000001</ele><time>2026-04-19T16:09:44.052Z</time></trkpt><trkpt lat="42.966858" lon="11.4278794"><ele>123.00000000000001</ele><time>2026-04-19T16:09:45.052Z</time></trkpt><trkpt lat="42.9667997" lon="11.4279815"><ele>123.0</ele><time>2026-04-19T16:09:46.052Z</time></trkpt><trkpt lat="42.9667435" lon="11.4280753"><ele>123.0</ele><time>2026-04-19T16:09:47.053Z</time></trkpt><trkpt lat="42.9666878" lon="11.4281705"><ele>121.66666666666667</ele><time>2026-04-19T16:09:48.052Z</time></trkpt><trkpt lat="42.9666268" lon="11.4282617"><ele>120.33333333333334</ele><time>2026-04-19T16:09:49.053Z</time></trkpt><trkpt lat="42.9665821" lon="11.4283464"><ele>119.0</ele><time>2026-04-19T16:09:50.052Z</time></trkpt><trkpt lat="42.9665453" lon="11.4284334"><ele>117.66666666666667</ele><time>2026-04-19T16:09:51.052Z</time></trkpt><trkpt lat="42.9665118" lon="11.4285249"><ele>116.33333333333334</ele><time>2026-04-19T16:09:52.052Z</time></trkpt><trkpt lat="42.9664865" lon="11.4286246"><ele>115.0</ele><time>2026-04-19T16:09:53.053Z</time></trkpt><trkpt lat="42.9664605" lon="11.4287404"><ele>115.0</ele><time>2026-04-19T16:09:54.052Z</time></trkpt><trkpt lat="42.9664362" lon="11.4288652"><ele>115.0</ele><time>2026-04-19T16:09:55.053Z</time></trkpt><trkpt lat="42.9664207" lon="11.4290043"><ele>115.0</ele><time>2026-04-19T16:09:56.053Z</time></trkpt><trkpt lat="42.9664069" lon="11.4291481"><ele>115.0</ele><time>2026-04-19T16:09:57.052Z</time></trkpt><trkpt lat="42.9663851" lon="11.4292802"><ele>115.0</ele><time>2026-04-19T16:09:58.052Z</time></trkpt><trkpt lat="42.9663691" lon="11.42941"><ele>115.00000000000001</ele><time>2026-04-19T16:09:59.052Z</time></trkpt><trkpt lat="42.9663533" lon="11.4295371"><ele>115.0</ele><time>2026-04-19T16:10:00.052Z</time></trkpt><trkpt lat="42.9663463" lon="11.4296588"><ele>115.0</ele><time>2026-04-19T16:10:01.053Z</time></trkpt><trkpt lat="42.9663516" lon="11.4297634"><ele>115.0</ele><time>2026-04-19T16:10:02.053Z</time></trkpt><trkpt lat="42.9663604" lon="11.429859"><ele>115.00000000000001</ele><time>2026-04-19T16:10:03.052Z</time></trkpt><trkpt lat="42.9663688" lon="11.4299598"><ele>115.0</ele><time>2026-04-19T16:10:04.052Z</time></trkpt><trkpt lat="42.9663778" lon="11.4300622"><ele>114.83333333333334</ele><time>2026-04-19T16:10:05.052Z</time></trkpt><trkpt lat="42.9663919" lon="11.4301704"><ele>114.66666666666667</ele><time>2026-04-19T16:10:06.052Z</time></trkpt><trkpt lat="42.9664035" lon="11.4302828"><ele>114.5</ele><time>2026-04-19T16:10:07.052Z</time></trkpt><trkpt lat="42.9664181" lon="11.4303936"><ele>114.33333333333334</ele><time>2026-04-19T16:10:08.052Z</time></trkpt><trkpt lat="42.9664281" lon="11.4304927"><ele>114.16666666666667</ele><time>2026-04-19T16:10:09.052Z</time></trkpt><trkpt lat="42.9664386" lon="11.430582"><ele>114.0</ele><time>2026-04-19T16:10:10.052Z</time></trkpt><trkpt lat="42.9664537" lon="11.4306744"><ele>114.0</ele><time>2026-04-19T16:10:11.052Z</time></trkpt><trkpt lat="42.9664741" lon="11.430784"><ele>114.0</ele><time>2026-04-19T16:10:12.053Z</time></trkpt><trkpt lat="42.9664951" lon="11.4309138"><ele>114.0</ele><time>2026-04-19T16:10:13.052Z</time></trkpt><trkpt lat="42.9665206" lon="11.4310475"><ele>114.0</ele><time>2026-04-19T16:10:14.052Z</time></trkpt><trkpt lat="42.9665428" lon="11.4311951"><ele>114.0</ele><time>2026-04-19T16:10:15.052Z</time></trkpt><trkpt lat="42.9665666" lon="11.4313541"><ele>113.5</ele><time>2026-04-19T16:10:16.052Z</time></trkpt><trkpt lat="42.9665838" lon="11.4315103"><ele>113.0</ele><time>2026-04-19T16:10:17.052Z</time></trkpt><trkpt lat="42.9665873" lon="11.4316764"><ele>112.5</ele><time>2026-04-19T16:10:18.052Z</time></trkpt><trkpt lat="42.9665786" lon="11.4318445"><ele>112.0</ele><time>2026-04-19T16:10:19.052Z</time></trkpt><trkpt lat="42.966561" lon="11.4320145"><ele>112.0</ele><time>2026-04-19T16:10:20.052Z</time></trkpt><trkpt lat="42.9665426" lon="11.4321981"><ele>112.0</ele><time>2026-04-19T16:10:21.052Z</time></trkpt><trkpt lat="42.9665246" lon="11.4323787"><ele>112.0</ele><time>2026-04-19T16:10:22.052Z</time></trkpt><trkpt lat="42.9665046" lon="11.4325655"><ele>112.0</ele><time>2026-04-19T16:10:23.053Z</time></trkpt><trkpt lat="42.9664867" lon="11.4327502"><ele>112.0</ele><time>2026-04-19T16:10:24.052Z</time></trkpt><trkpt lat="42.9664641" lon="11.4329414"><ele>112.0</ele><time>2026-04-19T16:10:25.052Z</time></trkpt><trkpt lat="42.9664484" lon="11.433131"><ele>112.0</ele><time>2026-04-19T16:10:26.052Z</time></trkpt><trkpt lat="42.966429" lon="11.433315"><ele>112.0</ele><time>2026-04-19T16:10:27.052Z</time></trkpt><trkpt lat="42.96641" lon="11.4334925"><ele>112.25</ele><time>2026-04-19T16:10:28.052Z</time></trkpt><trkpt lat="42.9663941" lon="11.4336653"><ele>112.5</ele><time>2026-04-19T16:10:29.053Z</time></trkpt><trkpt lat="42.9663834" lon="11.4338389"><ele>112.75</ele><time>2026-04-19T16:10:30.052Z</time></trkpt><trkpt lat="42.9663845" lon="11.43401"><ele>113.0</ele><time>2026-04-19T16:10:31.053Z</time></trkpt><trkpt lat="42.9663964" lon="11.4341636"><ele>113.60000000000001</ele><time>2026-04-19T16:10:32.052Z</time></trkpt><trkpt lat="42.9664158" lon="11.4343029"><ele>114.20000000000002</ele><time>2026-04-19T16:10:33.053Z</time></trkpt><trkpt lat="42.9664504" lon="11.4344398"><ele>114.8</ele><time>2026-04-19T16:10:34.052Z</time></trkpt><trkpt lat="42.9665022" lon="11.4345516"><ele>115.4</ele><time>2026-04-19T16:10:35.052Z</time></trkpt><trkpt lat="42.9665629" lon="11.4346521"><ele>116.0</ele><time>2026-04-19T16:10:36.053Z</time></trkpt><trkpt lat="42.9666368" lon="11.4347496"><ele>117.6</ele><time>2026-04-19T16:10:37.053Z</time></trkpt><trkpt lat="42.9667175" lon="11.4348365"><ele>119.19999999999999</ele><time>2026-04-19T16:10:38.052Z</time></trkpt><trkpt lat="42.9667984" lon="11.4349192"><ele>120.80000000000001</ele><time>2026-04-19T16:10:39.053Z</time></trkpt><trkpt lat="42.9668784" lon="11.4350276"><ele>122.4</ele><time>2026-04-19T16:10:40.052Z</time></trkpt><trkpt lat="42.9669468" lon="11.4351325"><ele>124.0</ele><time>2026-04-19T16:10:41.052Z</time></trkpt><trkpt lat="42.9670158" lon="11.435273"><ele>124.0</ele><time>2026-04-19T16:10:42.052Z</time></trkpt><trkpt lat="42.967055" lon="11.4354272"><ele>124.0</ele><time>2026-04-19T16:10:43.052Z</time></trkpt><trkpt lat="42.9671152" lon="11.4355745"><ele>124.0</ele><time>2026-04-19T16:10:44.052Z</time></trkpt><trkpt lat="42.9671859" lon="11.4357112"><ele>124.0</ele><time>2026-04-19T16:10:45.052Z</time></trkpt><trkpt lat="42.9672535" lon="11.4358374"><ele>123.0</ele><time>2026-04-19T16:10:46.052Z</time></trkpt><trkpt lat="42.967331" lon="11.4359509"><ele>122.0</ele><time>2026-04-19T16:10:47.052Z</time></trkpt><trkpt lat="42.9673932" lon="11.4360775"><ele>121.0</ele><time>2026-04-19T16:10:48.052Z</time></trkpt><trkpt lat="42.9674178" lon="11.4362243"><ele>120.0</ele><time>2026-04-19T16:10:49.053Z</time></trkpt><trkpt lat="42.9674309" lon="11.4363822"><ele>119.5</ele><time>2026-04-19T16:10:50.052Z</time></trkpt><trkpt lat="42.9674543" lon="11.4365414"><ele>119.0</ele><time>2026-04-19T16:10:51.052Z</time></trkpt><trkpt lat="42.9674815" lon="11.4367012"><ele>118.5</ele><time>2026-04-19T16:10:52.053Z</time></trkpt><trkpt lat="42.967508" lon="11.436851"><ele>118.0</ele><time>2026-04-19T16:10:53.052Z</time></trkpt><trkpt lat="42.9675362" lon="11.4369929"><ele>118.0</ele><time>2026-04-19T16:10:54.052Z</time></trkpt><trkpt lat="42.9675581" lon="11.4371315"><ele>118.00000000000001</ele><time>2026-04-19T16:10:55.052Z</time></trkpt><trkpt lat="42.9675642" lon="11.4372592"><ele>118.00000000000001</ele><time>2026-04-19T16:10:56.052Z</time></trkpt><trkpt lat="42.9675563" lon="11.4373938"><ele>118.0</ele><time>2026-04-19T16:10:57.052Z</time></trkpt><trkpt lat="42.9675435" lon="11.4375385"><ele>118.0</ele><time>2026-04-19T16:10:58.052Z</time></trkpt><trkpt lat="42.9675244" lon="11.437675"><ele>118.0</ele><time>2026-04-19T16:10:59.052Z</time></trkpt><trkpt lat="42.9675054" lon="11.4378191"><ele>118.00000000000001</ele><time>2026-04-19T16:11:00.052Z</time></trkpt><trkpt lat="42.9674945" lon="11.4379657"><ele>118.00000000000001</ele><time>2026-04-19T16:11:01.053Z</time></trkpt><trkpt lat="42.9674837" lon="11.4381068"><ele>118.0</ele><time>2026-04-19T16:11:02.052Z</time></trkpt><trkpt lat="42.9674765" lon="11.4382453"><ele>118.0</ele><time>2026-04-19T16:11:03.052Z</time></trkpt><trkpt lat="42.9674711" lon="11.4383807"><ele>118.0</ele><time>2026-04-19T16:11:04.052Z</time></trkpt><trkpt lat="42.9674718" lon="11.4385139"><ele>118.00000000000001</ele><time>2026-04-19T16:11:05.053Z</time></trkpt><trkpt lat="42.9674768" lon="11.4386485"><ele>118.00000000000001</ele><time>2026-04-19T16:11:06.052Z</time></trkpt><trkpt lat="42.9674797" lon="11.4387855"><ele>118.0</ele><time>2026-04-19T16:11:07.053Z</time></trkpt><trkpt lat="42.9674833" lon="11.4389241"><ele>118.0</ele><time>2026-04-19T16:11:08.052Z</time></trkpt><trkpt lat="42.9674844" lon="11.4390621"><ele>118.0</ele><time>2026-04-19T16:11:09.052Z</time></trkpt><trkpt lat="42.9674841" lon="11.439196"><ele>118.00000000000001</ele><time>2026-04-19T16:11:10.052Z</time></trkpt><trkpt lat="42.9674895" lon="11.4393415"><ele>118.00000000000001</ele><time>2026-04-19T16:11:11.052Z</time></trkpt><trkpt lat="42.9674734" lon="11.4394999"><ele>118.0</ele><time>2026-04-19T16:11:12.052Z</time></trkpt><trkpt lat="42.9674644" lon="11.4396457"><ele>118.0</ele><time>2026-04-19T16:11:13.052Z</time></trkpt><trkpt lat="42.9674456" lon="11.4397995"><ele>118.0</ele><time>2026-04-19T16:11:14.052Z</time></trkpt><trkpt lat="42.9674283" lon="11.4399537"><ele>118.00000000000001</ele><time>2026-04-19T16:11:15.052Z</time></trkpt><trkpt lat="42.9674125" lon="11.4401023"><ele>118.00000000000001</ele><time>2026-04-19T16:11:16.052Z</time></trkpt><trkpt lat="42.9674053" lon="11.4402408"><ele>118.0</ele><time>2026-04-19T16:11:17.053Z</time></trkpt><trkpt lat="42.9673967" lon="11.4403723"><ele>118.0</ele><time>2026-04-19T16:11:18.052Z</time></trkpt><trkpt lat="42.9673989" lon="11.4404862"><ele>117.83333333333334</ele><time>2026-04-19T16:11:19.052Z</time></trkpt><trkpt lat="42.967406" lon="11.4405887"><ele>117.66666666666667</ele><time>2026-04-19T16:11:20.052Z</time></trkpt><trkpt lat="42.9674179" lon="11.4406914"><ele>117.5</ele><time>2026-04-19T16:11:21.052Z</time></trkpt><trkpt lat="42.9674314" lon="11.4407988"><ele>117.33333333333334</ele><time>2026-04-19T16:11:22.052Z</time></trkpt><trkpt lat="42.967443" lon="11.4409122"><ele>117.16666666666667</ele><time>2026-04-19T16:11:23.052Z</time></trkpt><trkpt lat="42.9674445" lon="11.4410251"><ele>117.0</ele><time>2026-04-19T16:11:24.052Z</time></trkpt><trkpt lat="42.9674369" lon="11.441146"><ele>117.0</ele><time>2026-04-19T16:11:25.052Z</time></trkpt><trkpt lat="42.9674056" lon="11.4412618"><ele>116.99999999999999</ele><time>2026-04-19T16:11:26.052Z</time></trkpt><trkpt lat="42.9673698" lon="11.4413853"><ele>116.99999999999999</ele><time>2026-04-19T16:11:27.053Z</time></trkpt><trkpt lat="42.9673221" lon="11.4415081"><ele>117.0</ele><time>2026-04-19T16:11:28.052Z</time></trkpt><trkpt lat="42.9672783" lon="11.4416426"><ele>117.0</ele><time>2026-04-19T16:11:29.052Z</time></trkpt><trkpt lat="42.9672421" lon="11.4417852"><ele>118.0</ele><time>2026-04-19T16:11:30.052Z</time></trkpt><trkpt lat="42.9672155" lon="11.4419391"><ele>119.0</ele><time>2026-04-19T16:11:31.052Z</time></trkpt><trkpt lat="42.9671886" lon="11.4421063"><ele>120.0</ele><time>2026-04-19T16:11:32.052Z</time></trkpt><trkpt lat="42.9671626" lon="11.4422789"><ele>121.0</ele><time>2026-04-19T16:11:33.052Z</time></trkpt><trkpt lat="42.9671408" lon="11.4424586"><ele>122.25</ele><time>2026-04-19T16:11:34.053Z</time></trkpt><trkpt lat="42.9671197" lon="11.4426377"><ele>123.5</ele><time>2026-04-19T16:11:35.053Z</time></trkpt><trkpt lat="42.9671013" lon="11.4428146"><ele>124.75</ele><time>2026-04-19T16:11:36.052Z</time></trkpt><trkpt lat="42.9670821" lon="11.4429933"><ele>126.0</ele><time>2026-04-19T16:11:37.052Z</time></trkpt><trkpt lat="42.9670579" lon="11.4431616"><ele>126.5</ele><time>2026-04-19T16:11:38.052Z</time></trkpt><trkpt lat="42.9670447" lon="11.44333"><ele>127.0</ele><time>2026-04-19T16:11:39.052Z</time></trkpt><trkpt lat="42.9670268" lon="11.4434921"><ele>127.5</ele><time>2026-04-19T16:11:40.052Z</time></trkpt><trkpt lat="42.9670054" lon="11.4436567"><ele>128.0</ele><time>2026-04-19T16:11:41.052Z</time></trkpt><trkpt lat="42.9669893" lon="11.4438079"><ele>126.99999999999999</ele><time>2026-04-19T16:11:42.052Z</time></trkpt><trkpt lat="42.9669744" lon="11.4439454"><ele>126.0</ele><time>2026-04-19T16:11:43.053Z</time></trkpt><trkpt lat="42.9669611" lon="11.4440745"><ele>125.0</ele><time>2026-04-19T16:11:44.052Z</time></trkpt><trkpt lat="42.9669473" lon="11.4441846"><ele>124.0</ele><time>2026-04-19T16:11:45.053Z</time></trkpt><trkpt lat="42.9669381" lon="11.4442859"><ele>122.99999999999999</ele><time>2026-04-19T16:11:46.053Z</time></trkpt><trkpt lat="42.9669257" lon="11.4443829"><ele>122.0</ele><time>2026-04-19T16:11:47.052Z</time></trkpt><trkpt lat="42.9669184" lon="11.4444828"><ele>121.99999999999999</ele><time>2026-04-19T16:11:48.052Z</time></trkpt><trkpt lat="42.9669213" lon="11.4445818"><ele>122.0</ele><time>2026-04-19T16:11:49.052Z</time></trkpt><trkpt lat="42.9669379" lon="11.4446815"><ele>122.0</ele><time>2026-04-19T16:11:50.052Z</time></trkpt><trkpt lat="42.9669729" lon="11.4447806"><ele>122.0</ele><time>2026-04-19T16:11:51.052Z</time></trkpt><trkpt lat="42.9670216" lon="11.4448765"><ele>121.99999999999999</ele><time>2026-04-19T16:11:52.052Z</time></trkpt><trkpt lat="42.967085" lon="11.444953"><ele>122.0</ele><time>2026-04-19T16:11:53.052Z</time></trkpt><trkpt lat="42.9671618" lon="11.4449998"><ele>122.49999999999999</ele><time>2026-04-19T16:11:54.052Z</time></trkpt><trkpt lat="42.9672394" lon="11.445034"><ele>123.0</ele><time>2026-04-19T16:11:55.053Z</time></trkpt><trkpt lat="42.9673304" lon="11.4450338"><ele>123.5</ele><time>2026-04-19T16:11:56.053Z</time></trkpt><trkpt lat="42.9674148" lon="11.4450014"><ele>124.0</ele><time>2026-04-19T16:11:57.052Z</time></trkpt><trkpt lat="42.9674981" lon="11.4449717"><ele>124.49999999999999</ele><time>2026-04-19T16:11:58.052Z</time></trkpt><trkpt lat="42.9675837" lon="11.4449383"><ele>125.0</ele><time>2026-04-19T16:11:59.053Z</time></trkpt><trkpt lat="42.9676665" lon="11.4449385"><ele>124.99999999999999</ele><time>2026-04-19T16:12:00.053Z</time></trkpt><trkpt lat="42.9677452" lon="11.4449644"><ele>125.0</ele><time>2026-04-19T16:12:01.052Z</time></trkpt><trkpt lat="42.9678168" lon="11.4450157"><ele>125.0</ele><time>2026-04-19T16:12:02.052Z</time></trkpt><trkpt lat="42.9678642" lon="11.4450804"><ele>125.0</ele><time>2026-04-19T16:12:03.052Z</time></trkpt><trkpt lat="42.9679051" lon="11.4451651"><ele>124.99999999999999</ele><time>2026-04-19T16:12:04.052Z</time></trkpt><trkpt lat="42.9679378" lon="11.4452734"><ele>125.0</ele><time>2026-04-19T16:12:05.053Z</time></trkpt><trkpt lat="42.9679927" lon="11.4453679"><ele>125.0</ele><time>2026-04-19T16:12:06.053Z</time></trkpt><trkpt lat="42.9680633" lon="11.4454434"><ele>125.0</ele><time>2026-04-19T16:12:07.052Z</time></trkpt><trkpt lat="42.9681484" lon="11.4454896"><ele>125.0</ele><time>2026-04-19T16:12:08.053Z</time></trkpt><trkpt lat="42.9682361" lon="11.4455074"><ele>125.0</ele><time>2026-04-19T16:12:09.052Z</time></trkpt><trkpt lat="42.96833" lon="11.4455034"><ele>125.0</ele><time>2026-04-19T16:12:10.052Z</time></trkpt><trkpt lat="42.9684185" lon="11.4454978"><ele>125.99999999999999</ele><time>2026-04-19T16:12:11.052Z</time></trkpt><trkpt lat="42.9685036" lon="11.4455198"><ele>127.0</ele><time>2026-04-19T16:12:12.052Z</time></trkpt><trkpt lat="42.9685761" lon="11.4455549"><ele>128.0</ele><time>2026-04-19T16:12:13.052Z</time></trkpt><trkpt lat="42.968639" lon="11.4456283"><ele>129.0</ele><time>2026-04-19T16:12:14.052Z</time></trkpt><trkpt lat="42.9686775" lon="11.4457052"><ele>130.0</ele><time>2026-04-19T16:12:15.052Z</time></trkpt><trkpt lat="42.9687191" lon="11.4458226"><ele>131.0</ele><time>2026-04-19T16:12:16.052Z</time></trkpt><trkpt lat="42.9687493" lon="11.4459382"><ele>131.0</ele><time>2026-04-19T16:12:17.053Z</time></trkpt><trkpt lat="42.9687956" lon="11.4460639"><ele>131.0</ele><time>2026-04-19T16:12:18.053Z</time></trkpt><trkpt lat="42.968811" lon="11.4461944"><ele>131.0</ele><time>2026-04-19T16:12:19.052Z</time></trkpt><trkpt lat="42.9688472" lon="11.44631"><ele>131.0</ele><time>2026-04-19T16:12:20.052Z</time></trkpt><trkpt lat="42.9688876" lon="11.4464313"><ele>131.0</ele><time>2026-04-19T16:12:21.052Z</time></trkpt><trkpt lat="42.9689512" lon="11.4465226"><ele>132.2</ele><time>2026-04-19T16:12:22.052Z</time></trkpt><trkpt lat="42.9690224" lon="11.4466006"><ele>133.39999999999998</ele><time>2026-04-19T16:12:23.052Z</time></trkpt><trkpt lat="42.9690954" lon="11.4466718"><ele>134.6</ele><time>2026-04-19T16:12:24.053Z</time></trkpt><trkpt lat="42.9691908" lon="11.4467269"><ele>135.79999999999998</ele><time>2026-04-19T16:12:25.053Z</time></trkpt><trkpt lat="42.9692739" lon="11.4467801"><ele>137.0</ele><time>2026-04-19T16:12:26.052Z</time></trkpt><trkpt lat="42.9693429" lon="11.4468311"><ele>137.0</ele><time>2026-04-19T16:12:27.052Z</time></trkpt><trkpt lat="42.9694046" lon="11.4469058"><ele>137.0</ele><time>2026-04-19T16:12:28.053Z</time></trkpt><trkpt lat="42.9694519" lon="11.4470003"><ele>137.0</ele><time>2026-04-19T16:12:29.052Z</time></trkpt><trkpt lat="42.9694784" lon="11.4471117"><ele>137.0</ele><time>2026-04-19T16:12:30.052Z</time></trkpt><trkpt lat="42.9694954" lon="11.4472414"><ele>137.0</ele><time>2026-04-19T16:12:31.052Z</time></trkpt><trkpt lat="42.9695074" lon="11.44739"><ele>139.79999999999998</ele><time>2026-04-19T16:12:32.053Z</time></trkpt><trkpt lat="42.9695076" lon="11.4475196"><ele>142.6</ele><time>2026-04-19T16:12:33.052Z</time></trkpt><trkpt lat="42.9695429" lon="11.4476512"><ele>145.39999999999998</ele><time>2026-04-19T16:12:34.052Z</time></trkpt><trkpt lat="42.9695899" lon="11.4477718"><ele>148.2</ele><time>2026-04-19T16:12:35.052Z</time></trkpt><trkpt lat="42.9696529" lon="11.4478792"><ele>151.0</ele><time>2026-04-19T16:12:36.053Z</time></trkpt><trkpt lat="42.9697336" lon="11.4479885"><ele>151.75</ele><time>2026-04-19T16:12:37.052Z</time></trkpt><trkpt lat="42.9698265" lon="11.4480677"><ele>152.5</ele><time>2026-04-19T16:12:38.052Z</time></trkpt><trkpt lat="42.9699234" lon="11.4481554"><ele>153.25</ele><time>2026-04-19T16:12:39.052Z</time></trkpt><trkpt lat="42.9700291" lon="11.4482505"><ele>154.0</ele><time>2026-04-19T16:12:40.052Z</time></trkpt><trkpt lat="42.9701266" lon="11.4483298"><ele>155.5</ele><time>2026-04-19T16:12:41.052Z</time></trkpt><trkpt lat="42.9702441" lon="11.4484093"><ele>157.0</ele><time>2026-04-19T16:12:42.053Z</time></trkpt><trkpt lat="42.9703551" lon="11.4484951"><ele>158.5</ele><time>2026-04-19T16:12:43.052Z</time></trkpt><trkpt lat="42.9704668" lon="11.4485954"><ele>160.0</ele><time>2026-04-19T16:12:44.052Z</time></trkpt><trkpt lat="42.9705724" lon="11.4486952"><ele>159.75</ele><time>2026-04-19T16:12:45.052Z</time></trkpt><trkpt lat="42.9706772" lon="11.4487996"><ele>159.5</ele><time>2026-04-19T16:12:46.052Z</time></trkpt><trkpt lat="42.9707846" lon="11.4489009"><ele>159.25</ele><time>2026-04-19T16:12:47.052Z</time></trkpt><trkpt lat="42.9708934" lon="11.449004"><ele>159.0</ele><time>2026-04-19T16:12:48.052Z</time></trkpt><trkpt lat="42.9710026" lon="11.4491076"><ele>160.75</ele><time>2026-04-19T16:12:49.053Z</time></trkpt><trkpt lat="42.9711124" lon="11.4492082"><ele>162.5</ele><time>2026-04-19T16:12:50.052Z</time></trkpt><trkpt lat="42.9712316" lon="11.4492989"><ele>164.25</ele><time>2026-04-19T16:12:51.052Z</time></trkpt><trkpt lat="42.9713526" lon="11.4493808"><ele>166.0</ele><time>2026-04-19T16:12:52.052Z</time></trkpt><trkpt lat="42.9714769" lon="11.4494623"><ele>166.0</ele><time>2026-04-19T16:12:53.052Z</time></trkpt><trkpt lat="42.9716045" lon="11.4495461"><ele>166.0</ele><time>2026-04-19T16:12:54.052Z</time></trkpt><trkpt lat="42.9717291" lon="11.4496297"><ele>166.0</ele><time>2026-04-19T16:12:55.052Z</time></trkpt><trkpt lat="42.9718617" lon="11.4497268"><ele>166.0</ele><time>2026-04-19T16:12:56.052Z</time></trkpt><trkpt lat="42.9719854" lon="11.4498186"><ele>167.75</ele><time>2026-04-19T16:12:57.052Z</time></trkpt><trkpt lat="42.9721123" lon="11.4499127"><ele>169.5</ele><time>2026-04-19T16:12:58.052Z</time></trkpt><trkpt lat="42.9722383" lon="11.4500009"><ele>171.25</ele><time>2026-04-19T16:12:59.052Z</time></trkpt><trkpt lat="42.9723627" lon="11.4500772"><ele>173.0</ele><time>2026-04-19T16:13:00.052Z</time></trkpt><trkpt lat="42.9724833" lon="11.4501308"><ele>175.2</ele><time>2026-04-19T16:13:01.053Z</time></trkpt><trkpt lat="42.9726052" lon="11.4501543"><ele>177.4</ele><time>2026-04-19T16:13:02.052Z</time></trkpt><trkpt lat="42.97271" lon="11.4501554"><ele>179.6</ele><time>2026-04-19T16:13:03.052Z</time></trkpt><trkpt lat="42.9728008" lon="11.4501522"><ele>181.79999999999998</ele><time>2026-04-19T16:13:04.052Z</time></trkpt><trkpt lat="42.9728942" lon="11.4501643"><ele>184.0</ele><time>2026-04-19T16:13:05.052Z</time></trkpt><trkpt lat="42.9729768" lon="11.4502098"><ele>184.0</ele><time>2026-04-19T16:13:06.052Z</time></trkpt><trkpt lat="42.9730374" lon="11.4502746"><ele>184.0</ele><time>2026-04-19T16:13:07.052Z</time></trkpt><trkpt lat="42.9730741" lon="11.45036"><ele>184.0</ele><time>2026-04-19T16:13:08.053Z</time></trkpt><trkpt lat="42.9730858" lon="11.4504614"><ele>184.0</ele><time>2026-04-19T16:13:09.052Z</time></trkpt><trkpt lat="42.9730844" lon="11.4505823"><ele>184.0</ele><time>2026-04-19T16:13:10.052Z</time></trkpt><trkpt lat="42.9730792" lon="11.4507166"><ele>184.0</ele><time>2026-04-19T16:13:11.052Z</time></trkpt><trkpt lat="42.9730792" lon="11.4508402"><ele>184.5</ele><time>2026-04-19T16:13:12.052Z</time></trkpt><trkpt lat="42.9730836" lon="11.4509687"><ele>185.0</ele><time>2026-04-19T16:13:13.052Z</time></trkpt><trkpt lat="42.973099" lon="11.4510847"><ele>185.5</ele><time>2026-04-19T16:13:14.052Z</time></trkpt><trkpt lat="42.9731301" lon="11.4511949"><ele>186.0</ele><time>2026-04-19T16:13:15.052Z</time></trkpt><trkpt lat="42.9731822" lon="11.4512737"><ele>186.5</ele><time>2026-04-19T16:13:16.052Z</time></trkpt><trkpt lat="42.9732425" lon="11.4513228"><ele>187.0</ele><time>2026-04-19T16:13:17.052Z</time></trkpt><trkpt lat="42.9733123" lon="11.4513422"><ele>189.0</ele><time>2026-04-19T16:13:18.052Z</time></trkpt><trkpt lat="42.9733784" lon="11.4513319"><ele>191.0</ele><time>2026-04-19T16:13:19.052Z</time></trkpt><trkpt lat="42.9734475" lon="11.4512837"><ele>193.0</ele><time>2026-04-19T16:13:20.052Z</time></trkpt><trkpt lat="42.9735026" lon="11.4512231"><ele>195.0</ele><time>2026-04-19T16:13:21.052Z</time></trkpt><trkpt lat="42.9735378" lon="11.451114"><ele>196.99999999999997</ele><time>2026-04-19T16:13:22.052Z</time></trkpt><trkpt lat="42.9735723" lon="11.4509967"><ele>199.0</ele><time>2026-04-19T16:13:23.052Z</time></trkpt><trkpt lat="42.9736104" lon="11.450872"><ele>199.39999999999998</ele><time>2026-04-19T16:13:24.052Z</time></trkpt><trkpt lat="42.9736715" lon="11.4507434"><ele>199.8</ele><time>2026-04-19T16:13:25.052Z</time></trkpt><trkpt lat="42.9737477" lon="11.4506167"><ele>200.2</ele><time>2026-04-19T16:13:26.052Z</time></trkpt><trkpt lat="42.9738305" lon="11.4505094"><ele>200.60000000000002</ele><time>2026-04-19T16:13:27.052Z</time></trkpt><trkpt lat="42.973907" lon="11.4504321"><ele>201.0</ele><time>2026-04-19T16:13:28.053Z</time></trkpt><trkpt lat="42.9739942" lon="11.4503806"><ele>200.57142857142856</ele><time>2026-04-19T16:13:29.052Z</time></trkpt><trkpt lat="42.9740723" lon="11.4503662"><ele>200.14285714285717</ele><time>2026-04-19T16:13:30.053Z</time></trkpt><trkpt lat="42.9741387" lon="11.4503769"><ele>199.71428571428572</ele><time>2026-04-19T16:13:31.052Z</time></trkpt><trkpt lat="42.9742036" lon="11.4504109"><ele>199.28571428571428</ele><time>2026-04-19T16:13:32.052Z</time></trkpt><trkpt lat="42.9742656" lon="11.4504635"><ele>198.85714285714283</ele><time>2026-04-19T16:13:33.052Z</time></trkpt><trkpt lat="42.9743308" lon="11.4505151"><ele>198.42857142857144</ele><time>2026-04-19T16:13:34.052Z</time></trkpt><trkpt lat="42.9744074" lon="11.4505409"><ele>198.0</ele><time>2026-04-19T16:13:35.053Z</time></trkpt><trkpt lat="42.9744973" lon="11.4505532"><ele>200.0</ele><time>2026-04-19T16:13:36.052Z</time></trkpt><trkpt lat="42.9745957" lon="11.4505524"><ele>202.0</ele><time>2026-04-19T16:13:37.052Z</time></trkpt><trkpt lat="42.9747" lon="11.4505577"><ele>204.0</ele><time>2026-04-19T16:13:38.053Z</time></trkpt><trkpt lat="42.9748046" lon="11.4505607"><ele>206.0</ele><time>2026-04-19T16:13:39.052Z</time></trkpt><trkpt lat="42.9749104" lon="11.4505771"><ele>208.0</ele><time>2026-04-19T16:13:40.053Z</time></trkpt><trkpt lat="42.9750071" lon="11.4506007"><ele>208.25</ele><time>2026-04-19T16:13:41.052Z</time></trkpt><trkpt lat="42.9751102" lon="11.4506381"><ele>208.5</ele><time>2026-04-19T16:13:42.052Z</time></trkpt><trkpt lat="42.9752174" lon="11.4506742"><ele>208.75</ele><time>2026-04-19T16:13:43.052Z</time></trkpt><trkpt lat="42.9753317" lon="11.4507214"><ele>209.0</ele><time>2026-04-19T16:13:44.052Z</time></trkpt><trkpt lat="42.9754443" lon="11.4507671"><ele>209.0</ele><time>2026-04-19T16:13:45.052Z</time></trkpt><trkpt lat="42.9755662" lon="11.4508178"><ele>209.0</ele><time>2026-04-19T16:13:46.052Z</time></trkpt><trkpt lat="42.9756822" lon="11.4508689"><ele>209.0</ele><time>2026-04-19T16:13:47.052Z</time></trkpt><trkpt lat="42.9758022" lon="11.4509237"><ele>209.0</ele><time>2026-04-19T16:13:48.052Z</time></trkpt><trkpt lat="42.9759231" lon="11.4509755"><ele>209.75</ele><time>2026-04-19T16:13:49.052Z</time></trkpt><trkpt lat="42.9760499" lon="11.4510345"><ele>210.5</ele><time>2026-04-19T16:13:50.052Z</time></trkpt><trkpt lat="42.9761768" lon="11.4510914"><ele>211.25</ele><time>2026-04-19T16:13:51.052Z</time></trkpt><trkpt lat="42.9763045" lon="11.4511473"><ele>212.0</ele><time>2026-04-19T16:13:52.052Z</time></trkpt><trkpt lat="42.9764307" lon="11.4512055"><ele>212.0</ele><time>2026-04-19T16:13:53.053Z</time></trkpt><trkpt lat="42.9765587" lon="11.4512681"><ele>212.0</ele><time>2026-04-19T16:13:54.053Z</time></trkpt><trkpt lat="42.9766812" lon="11.4513259"><ele>212.0</ele><time>2026-04-19T16:13:55.053Z</time></trkpt><trkpt lat="42.9768061" lon="11.4513888"><ele>212.0</ele><time>2026-04-19T16:13:56.053Z</time></trkpt><trkpt lat="42.9769291" lon="11.4514552"><ele>213.0</ele><time>2026-04-19T16:13:57.052Z</time></trkpt><trkpt lat="42.9770511" lon="11.4515284"><ele>214.0</ele><time>2026-04-19T16:13:58.052Z</time></trkpt><trkpt lat="42.9771732" lon="11.4515995"><ele>215.0</ele><time>2026-04-19T16:13:59.053Z</time></trkpt><trkpt lat="42.9772943" lon="11.451672"><ele>216.0</ele><time>2026-04-19T16:14:00.052Z</time></trkpt><trkpt lat="42.9774168" lon="11.4517478"><ele>216.5</ele><time>2026-04-19T16:14:01.053Z</time></trkpt><trkpt lat="42.9775399" lon="11.4518225"><ele>217.0</ele><time>2026-04-19T16:14:02.052Z</time></trkpt><trkpt lat="42.9776612" lon="11.4518929"><ele>217.5</ele><time>2026-04-19T16:14:03.052Z</time></trkpt><trkpt lat="42.977783" lon="11.4519612"><ele>218.0</ele><time>2026-04-19T16:14:04.052Z</time></trkpt><trkpt lat="42.9779044" lon="11.4520336"><ele>218.0</ele><time>2026-04-19T16:14:05.053Z</time></trkpt><trkpt lat="42.9780258" lon="11.4521076"><ele>218.0</ele><time>2026-04-19T16:14:06.053Z</time></trkpt><trkpt lat="42.978146" lon="11.4521792"><ele>218.0</ele><time>2026-04-19T16:14:07.053Z</time></trkpt><trkpt lat="42.9782675" lon="11.4522489"><ele>218.0</ele><time>2026-04-19T16:14:08.053Z</time></trkpt><trkpt lat="42.9783897" lon="11.4523211"><ele>218.5</ele><time>2026-04-19T16:14:09.052Z</time></trkpt><trkpt lat="42.9785111" lon="11.4523948"><ele>219.0</ele><time>2026-04-19T16:14:10.052Z</time></trkpt><trkpt lat="42.9786241" lon="11.4524726"><ele>219.5</ele><time>2026-04-19T16:14:11.052Z</time></trkpt><trkpt lat="42.9787383" lon="11.4525443"><ele>220.0</ele><time>2026-04-19T16:14:12.053Z</time></trkpt><trkpt lat="42.97885" lon="11.452629"><ele>220.0</ele><time>2026-04-19T16:14:13.053Z</time></trkpt><trkpt lat="42.9789553" lon="11.4527226"><ele>220.0</ele><time>2026-04-19T16:14:14.052Z</time></trkpt><trkpt lat="42.9790569" lon="11.452822"><ele>220.0</ele><time>2026-04-19T16:14:15.052Z</time></trkpt><trkpt lat="42.9791606" lon="11.4529294"><ele>220.0</ele><time>2026-04-19T16:14:16.052Z</time></trkpt><trkpt lat="42.9792546" lon="11.4530304"><ele>219.0</ele><time>2026-04-19T16:14:17.052Z</time></trkpt><trkpt lat="42.9793426" lon="11.4531381"><ele>218.0</ele><time>2026-04-19T16:14:18.052Z</time></trkpt><trkpt lat="42.9794233" lon="11.4532531"><ele>217.0</ele><time>2026-04-19T16:14:19.052Z</time></trkpt><trkpt lat="42.9795038" lon="11.4533769"><ele>216.0</ele><time>2026-04-19T16:14:20.052Z</time></trkpt><trkpt lat="42.9795783" lon="11.4535189"><ele>216.0</ele><time>2026-04-19T16:14:21.052Z</time></trkpt><trkpt lat="42.9796606" lon="11.4536664"><ele>216.0</ele><time>2026-04-19T16:14:22.053Z</time></trkpt><trkpt lat="42.9797443" lon="11.4538102"><ele>216.0</ele><time>2026-04-19T16:14:23.052Z</time></trkpt><trkpt lat="42.9798231" lon="11.4539567"><ele>216.0</ele><time>2026-04-19T16:14:24.052Z</time></trkpt><trkpt lat="42.9798998" lon="11.4541151"><ele>216.25</ele><time>2026-04-19T16:14:25.052Z</time></trkpt><trkpt lat="42.9799785" lon="11.4542744"><ele>216.5</ele><time>2026-04-19T16:14:26.052Z</time></trkpt><trkpt lat="42.9800546" lon="11.454449"><ele>216.75</ele><time>2026-04-19T16:14:27.052Z</time></trkpt><trkpt lat="42.9801263" lon="11.4546186"><ele>217.0</ele><time>2026-04-19T16:14:28.052Z</time></trkpt><trkpt lat="42.9801979" lon="11.4547903"><ele>216.25</ele><time>2026-04-19T16:14:29.053Z</time></trkpt><trkpt lat="42.9802769" lon="11.4549581"><ele>215.5</ele><time>2026-04-19T16:14:30.053Z</time></trkpt><trkpt lat="42.9803541" lon="11.4551151"><ele>214.75</ele><time>2026-04-19T16:14:31.052Z</time></trkpt><trkpt lat="42.9804325" lon="11.4552635"><ele>214.0</ele><time>2026-04-19T16:14:32.053Z</time></trkpt><trkpt lat="42.9805162" lon="11.4554145"><ele>213.25</ele><time>2026-04-19T16:14:33.052Z</time></trkpt><trkpt lat="42.9805986" lon="11.4555593"><ele>212.5</ele><time>2026-04-19T16:14:34.052Z</time></trkpt><trkpt lat="42.9806818" lon="11.4557"><ele>211.75</ele><time>2026-04-19T16:14:35.052Z</time></trkpt><trkpt lat="42.9807677" lon="11.4558395"><ele>211.0</ele><time>2026-04-19T16:14:36.052Z</time></trkpt><trkpt lat="42.980861" lon="11.4559752"><ele>211.0</ele><time>2026-04-19T16:14:37.053Z</time></trkpt><trkpt lat="42.9809614" lon="11.4561045"><ele>211.0</ele><time>2026-04-19T16:14:38.052Z</time></trkpt><trkpt lat="42.9810676" lon="11.456236"><ele>211.0</ele><time>2026-04-19T16:14:39.052Z</time></trkpt><trkpt lat="42.9811749" lon="11.4563674"><ele>211.0</ele><time>2026-04-19T16:14:40.052Z</time></trkpt><trkpt lat="42.9812809" lon="11.4565037"><ele>211.75</ele><time>2026-04-19T16:14:41.052Z</time></trkpt><trkpt lat="42.9813867" lon="11.4566427"><ele>212.5</ele><time>2026-04-19T16:14:42.052Z</time></trkpt><trkpt lat="42.9814921" lon="11.4567843"><ele>213.25</ele><time>2026-04-19T16:14:43.052Z</time></trkpt><trkpt lat="42.9815972" lon="11.4569289"><ele>214.0</ele><time>2026-04-19T16:14:44.053Z</time></trkpt><trkpt lat="42.9817039" lon="11.4570735"><ele>216.75</ele><time>2026-04-19T16:14:45.053Z</time></trkpt><trkpt lat="42.9818093" lon="11.4572167"><ele>219.5</ele><time>2026-04-19T16:14:46.052Z</time></trkpt><trkpt lat="42.9819027" lon="11.4573399"><ele>222.25</ele><time>2026-04-19T16:14:47.052Z</time></trkpt><trkpt lat="42.9819964" lon="11.4574515"><ele>225.0</ele><time>2026-04-19T16:14:48.052Z</time></trkpt><trkpt lat="42.9820926" lon="11.4575444"><ele>225.0</ele><time>2026-04-19T16:14:49.053Z</time></trkpt><trkpt lat="42.9821812" lon="11.4576211"><ele>225.0</ele><time>2026-04-19T16:14:50.052Z</time></trkpt><trkpt lat="42.9822727" lon="11.4576764"><ele>225.0</ele><time>2026-04-19T16:14:51.052Z</time></trkpt><trkpt lat="42.9823676" lon="11.4577164"><ele>225.0</ele><time>2026-04-19T16:14:52.052Z</time></trkpt><trkpt lat="42.9824681" lon="11.457755"><ele>225.0</ele><time>2026-04-19T16:14:53.053Z</time></trkpt><trkpt lat="42.9825802" lon="11.4578056"><ele>225.5</ele><time>2026-04-19T16:14:54.053Z</time></trkpt><trkpt lat="42.982695" lon="11.4578545"><ele>226.0</ele><time>2026-04-19T16:14:55.052Z</time></trkpt><trkpt lat="42.9828193" lon="11.4578904"><ele>226.5</ele><time>2026-04-19T16:14:56.052Z</time></trkpt><trkpt lat="42.9829473" lon="11.4579091"><ele>227.0</ele><time>2026-04-19T16:14:57.052Z</time></trkpt><trkpt lat="42.983081" lon="11.4579279"><ele>227.0</ele><time>2026-04-19T16:14:58.052Z</time></trkpt><trkpt lat="42.983221" lon="11.4579484"><ele>227.0</ele><time>2026-04-19T16:14:59.052Z</time></trkpt><trkpt lat="42.9833592" lon="11.4579747"><ele>227.0</ele><time>2026-04-19T16:15:00.052Z</time></trkpt><trkpt lat="42.9834966" lon="11.4580038"><ele>227.0</ele><time>2026-04-19T16:15:01.052Z</time></trkpt><trkpt lat="42.9836325" lon="11.4580366"><ele>231.0</ele><time>2026-04-19T16:15:02.052Z</time></trkpt><trkpt lat="42.9837648" lon="11.4580646"><ele>235.0</ele><time>2026-04-19T16:15:03.053Z</time></trkpt><trkpt lat="42.983896" lon="11.4580914"><ele>239.0</ele><time>2026-04-19T16:15:04.052Z</time></trkpt><trkpt lat="42.9840276" lon="11.458123"><ele>243.0</ele><time>2026-04-19T16:15:05.052Z</time></trkpt><trkpt lat="42.9841587" lon="11.4581495"><ele>245.25</ele><time>2026-04-19T16:15:06.053Z</time></trkpt><trkpt lat="42.9842925" lon="11.4581788"><ele>247.5</ele><time>2026-04-19T16:15:07.052Z</time></trkpt><trkpt lat="42.9844294" lon="11.458212"><ele>249.75</ele><time>2026-04-19T16:15:08.053Z</time></trkpt><trkpt lat="42.9845618" lon="11.4582457"><ele>252.0</ele><time>2026-04-19T16:15:09.052Z</time></trkpt><trkpt lat="42.9846934" lon="11.4582778"><ele>252.0</ele><time>2026-04-19T16:15:10.052Z</time></trkpt><trkpt lat="42.9848312" lon="11.4583056"><ele>252.0</ele><time>2026-04-19T16:15:11.052Z</time></trkpt><trkpt lat="42.9849643" lon="11.4583278"><ele>252.0</ele><time>2026-04-19T16:15:12.052Z</time></trkpt><trkpt lat="42.9850971" lon="11.4583439"><ele>252.0</ele><time>2026-04-19T16:15:13.052Z</time></trkpt><trkpt lat="42.9852326" lon="11.4583631"><ele>254.6</ele><time>2026-04-19T16:15:14.053Z</time></trkpt><trkpt lat="42.9853567" lon="11.4583808"><ele>257.2</ele><time>2026-04-19T16:15:15.052Z</time></trkpt><trkpt lat="42.9854652" lon="11.4583831"><ele>259.8</ele><time>2026-04-19T16:15:16.053Z</time></trkpt><trkpt lat="42.9855569" lon="11.4583671"><ele>262.4</ele><time>2026-04-19T16:15:17.052Z</time></trkpt><trkpt lat="42.9856391" lon="11.4583477"><ele>265.0</ele><time>2026-04-19T16:15:18.052Z</time></trkpt><trkpt lat="42.9857178" lon="11.4583121"><ele>265.0</ele><time>2026-04-19T16:15:19.053Z</time></trkpt><trkpt lat="42.9858106" lon="11.4582934"><ele>265.0</ele><time>2026-04-19T16:15:20.053Z</time></trkpt><trkpt lat="42.9858998" lon="11.4582717"><ele>265.0</ele><time>2026-04-19T16:15:21.052Z</time></trkpt><trkpt lat="42.9859864" lon="11.458244"><ele>265.0</ele><time>2026-04-19T16:15:22.052Z</time></trkpt><trkpt lat="42.9860771" lon="11.458226"><ele>265.0</ele><time>2026-04-19T16:15:23.052Z</time></trkpt><trkpt lat="42.9861737" lon="11.4582169"><ele>268.0</ele><time>2026-04-19T16:15:24.052Z</time></trkpt><trkpt lat="42.9862745" lon="11.4582241"><ele>271.0</ele><time>2026-04-19T16:15:25.052Z</time></trkpt><trkpt lat="42.9863761" lon="11.4582284"><ele>274.0</ele><time>2026-04-19T16:15:26.053Z</time></trkpt><trkpt lat="42.9864881" lon="11.4582394"><ele>277.0</ele><time>2026-04-19T16:15:27.052Z</time></trkpt><trkpt lat="42.9866039" lon="11.4582446"><ele>280.0</ele><time>2026-04-19T16:15:28.052Z</time></trkpt><trkpt lat="42.9867197" lon="11.4582483"><ele>280.4</ele><time>2026-04-19T16:15:29.052Z</time></trkpt><trkpt lat="42.9868277" lon="11.458248"><ele>280.8</ele><time>2026-04-19T16:15:30.053Z</time></trkpt><trkpt lat="42.9869406" lon="11.4582521"><ele>281.2</ele><time>2026-04-19T16:15:31.052Z</time></trkpt><trkpt lat="42.9870526" lon="11.4582631"><ele>281.6</ele><time>2026-04-19T16:15:32.053Z</time></trkpt><trkpt lat="42.9871615" lon="11.4582977"><ele>282.0</ele><time>2026-04-19T16:15:33.052Z</time></trkpt><trkpt lat="42.9872535" lon="11.4583431"><ele>282.0</ele><time>2026-04-19T16:15:34.052Z</time></trkpt><trkpt lat="42.9873284" lon="11.458402"><ele>282.0</ele><time>2026-04-19T16:15:35.052Z</time></trkpt><trkpt lat="42.987386" lon="11.4584724"><ele>282.0</ele><time>2026-04-19T16:15:36.053Z</time></trkpt><trkpt lat="42.9874228" lon="11.4585478"><ele>282.0</ele><time>2026-04-19T16:15:37.053Z</time></trkpt><trkpt lat="42.9874604" lon="11.4586374"><ele>282.0</ele><time>2026-04-19T16:15:38.052Z</time></trkpt><trkpt lat="42.9875072" lon="11.4587298"><ele>282.0</ele><time>2026-04-19T16:15:39.053Z</time></trkpt><trkpt lat="42.9875602" lon="11.4587854"><ele>286.1666666666667</ele><time>2026-04-19T16:15:40.052Z</time></trkpt><trkpt lat="42.9876195" lon="11.4588203"><ele>290.3333333333333</ele><time>2026-04-19T16:15:41.052Z</time></trkpt><trkpt lat="42.9876822" lon="11.4588394"><ele>294.5</ele><time>2026-04-19T16:15:42.052Z</time></trkpt><trkpt lat="42.987809" lon="11.4588572"><ele>298.66666666666663</ele><time>2026-04-19T16:15:44.052Z</time></trkpt><trkpt lat="42.9878744" lon="11.458876"><ele>302.8333333333333</ele><time>2026-04-19T16:15:45.052Z</time></trkpt><trkpt lat="42.9879808" lon="11.45892"><ele>307.0</ele><time>2026-04-19T16:15:47.053Z</time></trkpt><trkpt lat="42.9880359" lon="11.4589843"><ele>307.0</ele><time>2026-04-19T16:15:49.052Z</time></trkpt><trkpt lat="42.9880097" lon="11.4590896"><ele>307.0</ele><time>2026-04-19T16:15:52.052Z</time></trkpt><trkpt lat="42.9879224" lon="11.4590929"><ele>307.0</ele><time>2026-04-19T16:15:54.052Z</time></trkpt><trkpt lat="42.9878589" lon="11.4591005"><ele>307.0</ele><time>2026-04-19T16:15:55.052Z</time></trkpt><trkpt lat="42.9877415" lon="11.4591492"><ele>307.0</ele><time>2026-04-19T16:15:57.053Z</time></trkpt><trkpt lat="42.9876793" lon="11.4591965"><ele>307.0</ele><time>2026-04-19T16:15:58.052Z</time></trkpt><trkpt lat="42.9876114" lon="11.4592523"><ele>307.0</ele><time>2026-04-19T16:15:59.052Z</time></trkpt><trkpt lat="42.9875431" lon="11.4593074"><ele>307.0</ele><time>2026-04-19T16:16:00.052Z</time></trkpt><trkpt lat="42.987478" lon="11.4593653"><ele>307.0</ele><time>2026-04-19T16:16:01.052Z</time></trkpt><trkpt lat="42.9874129" lon="11.4594275"><ele>307.0</ele><time>2026-04-19T16:16:02.052Z</time></trkpt><trkpt lat="42.9873491" lon="11.459494"><ele>307.0</ele><time>2026-04-19T16:16:03.052Z</time></trkpt><trkpt lat="42.9872872" lon="11.459569"><ele>307.0</ele><time>2026-04-19T16:16:04.052Z</time></trkpt><trkpt lat="42.9872243" lon="11.459657"><ele>308.5</ele><time>2026-04-19T16:16:05.052Z</time></trkpt><trkpt lat="42.9871671" lon="11.4597499"><ele>310.0</ele><time>2026-04-19T16:16:06.052Z</time></trkpt><trkpt lat="42.9871127" lon="11.4598494"><ele>311.5</ele><time>2026-04-19T16:16:07.052Z</time></trkpt><trkpt lat="42.9870743" lon="11.4599483"><ele>313.0</ele><time>2026-04-19T16:16:08.053Z</time></trkpt><trkpt lat="42.9870454" lon="11.460055"><ele>314.5</ele><time>2026-04-19T16:16:09.052Z</time></trkpt><trkpt lat="42.9870301" lon="11.4601507"><ele>316.0</ele><time>2026-04-19T16:16:10.052Z</time></trkpt><trkpt lat="42.9870113" lon="11.4602875"><ele>316.0</ele><time>2026-04-19T16:16:12.052Z</time></trkpt><trkpt lat="42.987042" lon="11.4603671"><ele>316.0</ele><time>2026-04-19T16:16:14.052Z</time></trkpt><trkpt lat="42.9871055" lon="11.4603329"><ele>316.0</ele><time>2026-04-19T16:16:16.052Z</time></trkpt><trkpt lat="42.987179" lon="11.460221"><ele>316.0</ele><time>2026-04-19T16:16:18.052Z</time></trkpt><trkpt lat="42.9872811" lon="11.4601325"><ele>316.0</ele><time>2026-04-19T16:16:20.053Z</time></trkpt><trkpt lat="42.987349" lon="11.4600875"><ele>316.0</ele><time>2026-04-19T16:16:21.052Z</time></trkpt><trkpt lat="42.9874241" lon="11.4600513"><ele>317.6</ele><time>2026-04-19T16:16:22.052Z</time></trkpt><trkpt lat="42.9875105" lon="11.4600248"><ele>319.20000000000005</ele><time>2026-04-19T16:16:23.053Z</time></trkpt><trkpt lat="42.987602" lon="11.4600119"><ele>320.79999999999995</ele><time>2026-04-19T16:16:24.053Z</time></trkpt><trkpt lat="42.9876961" lon="11.4600194"><ele>322.4</ele><time>2026-04-19T16:16:25.052Z</time></trkpt><trkpt lat="42.9877939" lon="11.460038"><ele>324.0</ele><time>2026-04-19T16:16:26.052Z</time></trkpt><trkpt lat="42.9878825" lon="11.4600655"><ele>324.0</ele><time>2026-04-19T16:16:27.052Z</time></trkpt><trkpt lat="42.9879746" lon="11.4600944"><ele>324.0</ele><time>2026-04-19T16:16:28.053Z</time></trkpt><trkpt lat="42.9880776" lon="11.4601298"><ele>324.0</ele><time>2026-04-19T16:16:29.052Z</time></trkpt><trkpt lat="42.9881832" lon="11.4601664"><ele>324.0</ele><time>2026-04-19T16:16:30.052Z</time></trkpt><trkpt lat="42.9882909" lon="11.4602076"><ele>324.0</ele><time>2026-04-19T16:16:31.052Z</time></trkpt><trkpt lat="42.9884025" lon="11.4602513"><ele>325.25</ele><time>2026-04-19T16:16:32.053Z</time></trkpt><trkpt lat="42.9885129" lon="11.4602958"><ele>326.5</ele><time>2026-04-19T16:16:33.052Z</time></trkpt><trkpt lat="42.9886255" lon="11.4603636"><ele>327.75</ele><time>2026-04-19T16:16:34.052Z</time></trkpt><trkpt lat="42.9887336" lon="11.4604424"><ele>329.0</ele><time>2026-04-19T16:16:35.052Z</time></trkpt><trkpt lat="42.988839" lon="11.4605395"><ele>330.75</ele><time>2026-04-19T16:16:36.053Z</time></trkpt><trkpt lat="42.988928" lon="11.4606348"><ele>332.5</ele><time>2026-04-19T16:16:37.052Z</time></trkpt><trkpt lat="42.9890176" lon="11.4607292"><ele>334.25</ele><time>2026-04-19T16:16:38.052Z</time></trkpt><trkpt lat="42.9891152" lon="11.4608108"><ele>336.0</ele><time>2026-04-19T16:16:39.052Z</time></trkpt><trkpt lat="42.9892158" lon="11.460871"><ele>337.25</ele><time>2026-04-19T16:16:40.052Z</time></trkpt><trkpt lat="42.9893242" lon="11.4609134"><ele>338.5</ele><time>2026-04-19T16:16:41.053Z</time></trkpt><trkpt lat="42.9894356" lon="11.4609316"><ele>339.75</ele><time>2026-04-19T16:16:42.053Z</time></trkpt><trkpt lat="42.9895561" lon="11.4609386"><ele>341.0</ele><time>2026-04-19T16:16:43.052Z</time></trkpt><trkpt lat="42.9896789" lon="11.4609321"><ele>341.0</ele><time>2026-04-19T16:16:44.052Z</time></trkpt><trkpt lat="42.9898115" lon="11.4609348"><ele>341.0</ele><time>2026-04-19T16:16:45.052Z</time></trkpt><trkpt lat="42.9899367" lon="11.460937"><ele>341.0</ele><time>2026-04-19T16:16:46.052Z</time></trkpt><trkpt lat="42.9900454" lon="11.4609415"><ele>341.0</ele><time>2026-04-19T16:16:47.052Z</time></trkpt><trkpt lat="42.9901462" lon="11.460957"><ele>343.5</ele><time>2026-04-19T16:16:48.052Z</time></trkpt><trkpt lat="42.9902319" lon="11.4609848"><ele>346.0</ele><time>2026-04-19T16:16:49.052Z</time></trkpt><trkpt lat="42.9902995" lon="11.4610248"><ele>348.5</ele><time>2026-04-19T16:16:50.053Z</time></trkpt><trkpt lat="42.9903602" lon="11.4610752"><ele>351.0</ele><time>2026-04-19T16:16:51.052Z</time></trkpt><trkpt lat="42.99042" lon="11.461133"><ele>353.5</ele><time>2026-04-19T16:16:52.053Z</time></trkpt><trkpt lat="42.9904821" lon="11.461199"><ele>356.0</ele><time>2026-04-19T16:16:53.053Z</time></trkpt><trkpt lat="42.9905514" lon="11.4612665"><ele>354.99999999999994</ele><time>2026-04-19T16:16:54.052Z</time></trkpt><trkpt lat="42.9906245" lon="11.4613153"><ele>354.0</ele><time>2026-04-19T16:16:55.053Z</time></trkpt><trkpt lat="42.9906926" lon="11.4613383"><ele>353.0</ele><time>2026-04-19T16:16:56.052Z</time></trkpt><trkpt lat="42.9907557" lon="11.4613398"><ele>352.0</ele><time>2026-04-19T16:16:57.052Z</time></trkpt><trkpt lat="42.990818" lon="11.4613119"><ele>351.0</ele><time>2026-04-19T16:16:58.052Z</time></trkpt><trkpt lat="42.9908765" lon="11.4612642"><ele>349.99999999999994</ele><time>2026-04-19T16:16:59.053Z</time></trkpt><trkpt lat="42.9909224" lon="11.4611889"><ele>349.0</ele><time>2026-04-19T16:17:00.053Z</time></trkpt><trkpt lat="42.9909475" lon="11.4611075"><ele>352.1428571428571</ele><time>2026-04-19T16:17:01.053Z</time></trkpt><trkpt lat="42.9909595" lon="11.4610181"><ele>355.2857142857143</ele><time>2026-04-19T16:17:02.052Z</time></trkpt><trkpt lat="42.9909778" lon="11.4609292"><ele>358.42857142857144</ele><time>2026-04-19T16:17:03.052Z</time></trkpt><trkpt lat="42.9910164" lon="11.4608445"><ele>361.57142857142856</ele><time>2026-04-19T16:17:04.053Z</time></trkpt><trkpt lat="42.991072" lon="11.4607802"><ele>364.7142857142857</ele><time>2026-04-19T16:17:05.053Z</time></trkpt><trkpt lat="42.991135" lon="11.4607286"><ele>367.85714285714283</ele><time>2026-04-19T16:17:06.053Z</time></trkpt><trkpt lat="42.9912052" lon="11.4606973"><ele>371.0</ele><time>2026-04-19T16:17:07.053Z</time></trkpt><trkpt lat="42.9912812" lon="11.4606788"><ele>371.0</ele><time>2026-04-19T16:17:08.052Z</time></trkpt><trkpt lat="42.9913591" lon="11.4606716"><ele>371.0</ele><time>2026-04-19T16:17:09.052Z</time></trkpt><trkpt lat="42.9914369" lon="11.4606879"><ele>371.0</ele><time>2026-04-19T16:17:10.052Z</time></trkpt><trkpt lat="42.9915161" lon="11.4607128"><ele>371.0</ele><time>2026-04-19T16:17:11.052Z</time></trkpt><trkpt lat="42.991586" lon="11.4607208"><ele>371.0</ele><time>2026-04-19T16:17:12.053Z</time></trkpt><trkpt lat="42.9917048" lon="11.460665"><ele>371.0</ele><time>2026-04-19T16:17:14.053Z</time></trkpt><trkpt lat="42.9917563" lon="11.4605335"><ele>375.1666666666667</ele><time>2026-04-19T16:17:16.052Z</time></trkpt><trkpt lat="42.991755" lon="11.4603674"><ele>379.33333333333337</ele><time>2026-04-19T16:17:18.052Z</time></trkpt><trkpt lat="42.9917663" lon="11.4602694"><ele>383.5</ele><time>2026-04-19T16:17:19.052Z</time></trkpt><trkpt lat="42.9917891" lon="11.4601588"><ele>387.6666666666667</ele><time>2026-04-19T16:17:20.052Z</time></trkpt><trkpt lat="42.9918227" lon="11.4600544"><ele>391.8333333333333</ele><time>2026-04-19T16:17:21.053Z</time></trkpt><trkpt lat="42.9918615" lon="11.4599503"><ele>396.0</ele><time>2026-04-19T16:17:22.053Z</time></trkpt><trkpt lat="42.9919017" lon="11.4598514"><ele>396.0</ele><time>2026-04-19T16:17:23.053Z</time></trkpt><trkpt lat="42.9919482" lon="11.4597626"><ele>396.0</ele><time>2026-04-19T16:17:24.052Z</time></trkpt><trkpt lat="42.9920036" lon="11.4596825"><ele>396.0</ele><time>2026-04-19T16:17:25.052Z</time></trkpt><trkpt lat="42.9920636" lon="11.4596101"><ele>396.0</ele><time>2026-04-19T16:17:26.053Z</time></trkpt><trkpt lat="42.9921327" lon="11.4595403"><ele>396.0</ele><time>2026-04-19T16:17:27.052Z</time></trkpt><trkpt lat="42.9922099" lon="11.4594763"><ele>396.0</ele><time>2026-04-19T16:17:28.052Z</time></trkpt><trkpt lat="42.9922879" lon="11.4594184"><ele>396.5</ele><time>2026-04-19T16:17:29.052Z</time></trkpt><trkpt lat="42.9923604" lon="11.4593743"><ele>397.0</ele><time>2026-04-19T16:17:30.053Z</time></trkpt><trkpt lat="42.9924254" lon="11.4593335"><ele>397.5</ele><time>2026-04-19T16:17:31.052Z</time></trkpt><trkpt lat="42.9925289" lon="11.4592799"><ele>398.0</ele><time>2026-04-19T16:17:33.052Z</time></trkpt><trkpt lat="42.9926178" lon="11.4592501"><ele>398.5</ele><time>2026-04-19T16:17:35.052Z</time></trkpt><trkpt lat="42.9926965" lon="11.4592277"><ele>399.0</ele><time>2026-04-19T16:17:37.052Z</time></trkpt><trkpt lat="42.9927701" lon="11.4592025"><ele>399.0</ele><time>2026-04-19T16:17:39.052Z</time></trkpt><trkpt lat="42.992845" lon="11.4591605"><ele>399.0</ele><time>2026-04-19T16:17:41.052Z</time></trkpt><trkpt lat="42.9929394" lon="11.4591168"><ele>399.0</ele><time>2026-04-19T16:17:43.052Z</time></trkpt><trkpt lat="42.9930612" lon="11.4590779"><ele>399.0</ele><time>2026-04-19T16:17:45.047Z</time></trkpt><trkpt lat="42.9931334" lon="11.4590571"><ele>399.0</ele><time>2026-04-19T16:17:46.047Z</time></trkpt><trkpt lat="42.9932103" lon="11.4590422"><ele>399.0</ele><time>2026-04-19T16:17:47.048Z</time></trkpt><trkpt lat="42.9932857" lon="11.4590147"><ele>399.0</ele><time>2026-04-19T16:17:48.049Z</time></trkpt><trkpt lat="42.9934035" lon="11.4589739"><ele>399.0</ele><time>2026-04-19T16:17:50.048Z</time></trkpt><trkpt lat="42.9935207" lon="11.4589316"><ele>399.0</ele><time>2026-04-19T16:17:52.049Z</time></trkpt><trkpt lat="42.9936271" lon="11.4588796"><ele>399.0</ele><time>2026-04-19T16:17:54.049Z</time></trkpt><trkpt lat="42.9936967" lon="11.4588479"><ele>400.6666666666667</ele><time>2026-04-19T16:17:56.048Z</time></trkpt><trkpt lat="42.9937609" lon="11.4588128"><ele>402.33333333333337</ele><time>2026-04-19T16:17:59.049Z</time></trkpt><trkpt lat="42.9938213" lon="11.4587859"><ele>404.0</ele><time>2026-04-19T16:18:01.049Z</time></trkpt><trkpt lat="42.9939079" lon="11.4587531"><ele>405.6666666666667</ele><time>2026-04-19T16:18:03.048Z</time></trkpt><trkpt lat="42.9940118" lon="11.4587083"><ele>407.33333333333337</ele><time>2026-04-19T16:18:05.048Z</time></trkpt><trkpt lat="42.9941125" lon="11.4586645"><ele>409.0</ele><time>2026-04-19T16:18:07.048Z</time></trkpt><trkpt lat="42.9942117" lon="11.4586097"><ele>405.33333333333337</ele><time>2026-04-19T16:18:09.048Z</time></trkpt><trkpt lat="42.9943208" lon="11.4585566"><ele>401.6666666666667</ele><time>2026-04-19T16:18:11.048Z</time></trkpt><trkpt lat="42.9943859" lon="11.4585188"><ele>398.0</ele><time>2026-04-19T16:18:12.048Z</time></trkpt><trkpt lat="42.994446" lon="11.4584885"><ele>394.33333333333337</ele><time>2026-04-19T16:18:13.048Z</time></trkpt><trkpt lat="42.9945092" lon="11.4584672"><ele>390.6666666666667</ele><time>2026-04-19T16:18:14.048Z</time></trkpt><trkpt lat="42.9946402" lon="11.458454"><ele>387.0</ele><time>2026-04-19T16:18:16.048Z</time></trkpt><trkpt lat="42.9947158" lon="11.4584635"><ele>387.0</ele><time>2026-04-19T16:18:17.048Z</time></trkpt><trkpt lat="42.9947969" lon="11.4584891"><ele>387.0</ele><time>2026-04-19T16:18:18.048Z</time></trkpt><trkpt lat="42.9948711" lon="11.4585233"><ele>387.0</ele><time>2026-04-19T16:18:19.048Z</time></trkpt><trkpt lat="42.9949688" lon="11.4585853"><ele>387.0</ele><time>2026-04-19T16:18:21.049Z</time></trkpt><trkpt lat="42.9950357" lon="11.458636"><ele>387.0</ele><time>2026-04-19T16:18:23.048Z</time></trkpt><trkpt lat="42.9951005" lon="11.4586738"><ele>387.0</ele><time>2026-04-19T16:18:26.048Z</time></trkpt><trkpt lat="42.995148" lon="11.4587497"><ele>387.8333333333333</ele><time>2026-04-19T16:18:28.048Z</time></trkpt><trkpt lat="42.9952069" lon="11.4588932"><ele>388.66666666666663</ele><time>2026-04-19T16:18:30.048Z</time></trkpt><trkpt lat="42.9952415" lon="11.4589759"><ele>389.5</ele><time>2026-04-19T16:18:31.048Z</time></trkpt><trkpt lat="42.9952735" lon="11.4590614"><ele>390.3333333333333</ele><time>2026-04-19T16:18:32.048Z</time></trkpt><trkpt lat="42.9953093" lon="11.4591475"><ele>391.16666666666663</ele><time>2026-04-19T16:18:33.048Z</time></trkpt><trkpt lat="42.9953393" lon="11.4592418"><ele>392.0</ele><time>2026-04-19T16:18:34.049Z</time></trkpt><trkpt lat="42.9953764" lon="11.4593351"><ele>391.99999999999994</ele><time>2026-04-19T16:18:35.048Z</time></trkpt><trkpt lat="42.995415" lon="11.4594206"><ele>392.0</ele><time>2026-04-19T16:18:36.049Z</time></trkpt><trkpt lat="42.9954489" lon="11.4595126"><ele>392.0</ele><time>2026-04-19T16:18:37.049Z</time></trkpt><trkpt lat="42.9954851" lon="11.4596158"><ele>392.0</ele><time>2026-04-19T16:18:38.048Z</time></trkpt><trkpt lat="42.9955193" lon="11.4597174"><ele>391.99999999999994</ele><time>2026-04-19T16:18:39.048Z</time></trkpt><trkpt lat="42.9955499" lon="11.4598155"><ele>392.0</ele><time>2026-04-19T16:18:40.048Z</time></trkpt><trkpt lat="42.9955786" lon="11.4599155"><ele>394.49999999999994</ele><time>2026-04-19T16:18:41.048Z</time></trkpt><trkpt lat="42.9956044" lon="11.4600154"><ele>397.0</ele><time>2026-04-19T16:18:42.049Z</time></trkpt><trkpt lat="42.9956241" lon="11.4601177"><ele>399.5</ele><time>2026-04-19T16:18:43.048Z</time></trkpt><trkpt lat="42.9956375" lon="11.4602186"><ele>402.0</ele><time>2026-04-19T16:18:44.048Z</time></trkpt><trkpt lat="42.9956516" lon="11.4603126"><ele>404.49999999999994</ele><time>2026-04-19T16:18:45.048Z</time></trkpt><trkpt lat="42.9956605" lon="11.4604516"><ele>407.0</ele><time>2026-04-19T16:18:47.049Z</time></trkpt><trkpt lat="42.9956916" lon="11.4605479"><ele>407.8333333333333</ele><time>2026-04-19T16:18:50.048Z</time></trkpt><trkpt lat="42.9957557" lon="11.4605781"><ele>408.66666666666663</ele><time>2026-04-19T16:18:52.048Z</time></trkpt><trkpt lat="42.9958576" lon="11.4605457"><ele>409.5</ele><time>2026-04-19T16:18:54.048Z</time></trkpt><trkpt lat="42.9959178" lon="11.4605158"><ele>410.33333333333337</ele><time>2026-04-19T16:18:55.048Z</time></trkpt><trkpt lat="42.9959919" lon="11.4604745"><ele>411.1666666666667</ele><time>2026-04-19T16:18:56.048Z</time></trkpt><trkpt lat="42.9960637" lon="11.4604372"><ele>412.0</ele><time>2026-04-19T16:18:57.048Z</time></trkpt><trkpt lat="42.9961371" lon="11.460401"><ele>412.0</ele><time>2026-04-19T16:18:58.048Z</time></trkpt><trkpt lat="42.9962119" lon="11.4603407"><ele>412.0</ele><time>2026-04-19T16:18:59.048Z</time></trkpt><trkpt lat="42.9962861" lon="11.4602513"><ele>412.0</ele><time>2026-04-19T16:19:00.048Z</time></trkpt><trkpt lat="42.9963502" lon="11.4601498"><ele>412.0</ele><time>2026-04-19T16:19:01.049Z</time></trkpt><trkpt lat="42.9964079" lon="11.4600352"><ele>412.0</ele><time>2026-04-19T16:19:02.048Z</time></trkpt><trkpt lat="42.9964625" lon="11.4599186"><ele>412.0</ele><time>2026-04-19T16:19:03.048Z</time></trkpt><trkpt lat="42.9965182" lon="11.459812"><ele>412.0</ele><time>2026-04-19T16:19:04.048Z</time></trkpt><trkpt lat="42.9965806" lon="11.4597087"><ele>412.0</ele><time>2026-04-19T16:19:05.048Z</time></trkpt><trkpt lat="42.9966401" lon="11.4596043"><ele>412.0</ele><time>2026-04-19T16:19:06.049Z</time></trkpt><trkpt lat="42.9967019" lon="11.459503"><ele>412.0</ele><time>2026-04-19T16:19:07.049Z</time></trkpt><trkpt lat="42.9967547" lon="11.4593962"><ele>413.1666666666667</ele><time>2026-04-19T16:19:08.048Z</time></trkpt><trkpt lat="42.9968031" lon="11.4592985"><ele>414.33333333333337</ele><time>2026-04-19T16:19:09.048Z</time></trkpt><trkpt lat="42.9968465" lon="11.4592031"><ele>415.5</ele><time>2026-04-19T16:19:10.048Z</time></trkpt><trkpt lat="42.9968846" lon="11.459107"><ele>416.66666666666663</ele><time>2026-04-19T16:19:11.048Z</time></trkpt><trkpt lat="42.9969183" lon="11.4590152"><ele>417.8333333333333</ele><time>2026-04-19T16:19:12.049Z</time></trkpt><trkpt lat="42.9969464" lon="11.4589321"><ele>419.0</ele><time>2026-04-19T16:19:13.048Z</time></trkpt><trkpt lat="42.996972" lon="11.4588507"><ele>418.4</ele><time>2026-04-19T16:19:14.049Z</time></trkpt><trkpt lat="42.9970458" lon="11.458726"><ele>417.79999999999995</ele><time>2026-04-19T16:19:16.048Z</time></trkpt><trkpt lat="42.9971054" lon="11.4586876"><ele>417.20000000000005</ele><time>2026-04-19T16:19:17.048Z</time></trkpt><trkpt lat="42.9971833" lon="11.4586787"><ele>416.6</ele><time>2026-04-19T16:19:18.048Z</time></trkpt><trkpt lat="42.9972752" lon="11.4586771"><ele>416.0</ele><time>2026-04-19T16:19:19.049Z</time></trkpt><trkpt lat="42.9973789" lon="11.4586551"><ele>416.0</ele><time>2026-04-19T16:19:20.048Z</time></trkpt><trkpt lat="42.9974742" lon="11.4586153"><ele>416.0</ele><time>2026-04-19T16:19:21.049Z</time></trkpt><trkpt lat="42.9975789" lon="11.4585618"><ele>416.0</ele><time>2026-04-19T16:19:22.048Z</time></trkpt><trkpt lat="42.9976883" lon="11.4584952"><ele>416.0</ele><time>2026-04-19T16:19:23.048Z</time></trkpt><trkpt lat="42.9978049" lon="11.4584201"><ele>417.0</ele><time>2026-04-19T16:19:24.049Z</time></trkpt><trkpt lat="42.9979303" lon="11.458341"><ele>418.0</ele><time>2026-04-19T16:19:25.049Z</time></trkpt><trkpt lat="42.9980606" lon="11.4582571"><ele>419.0</ele><time>2026-04-19T16:19:26.048Z</time></trkpt><trkpt lat="42.9981807" lon="11.458183"><ele>420.0</ele><time>2026-04-19T16:19:27.048Z</time></trkpt><trkpt lat="42.998305" lon="11.4581099"><ele>420.25</ele><time>2026-04-19T16:19:28.048Z</time></trkpt><trkpt lat="42.9984333" lon="11.4580443"><ele>420.5</ele><time>2026-04-19T16:19:29.048Z</time></trkpt><trkpt lat="42.9985647" lon="11.4579927"><ele>420.75</ele><time>2026-04-19T16:19:30.049Z</time></trkpt><trkpt lat="42.9987068" lon="11.4579559"><ele>421.0</ele><time>2026-04-19T16:19:31.048Z</time></trkpt><trkpt lat="42.9988467" lon="11.4579288"><ele>421.0</ele><time>2026-04-19T16:19:32.049Z</time></trkpt><trkpt lat="42.9989909" lon="11.457897"><ele>421.0</ele><time>2026-04-19T16:19:33.048Z</time></trkpt><trkpt lat="42.9991399" lon="11.4578671"><ele>421.0</ele><time>2026-04-19T16:19:34.048Z</time></trkpt><trkpt lat="42.9992789" lon="11.4578361"><ele>421.0</ele><time>2026-04-19T16:19:35.048Z</time></trkpt><trkpt lat="42.9994208" lon="11.4578136"><ele>421.0</ele><time>2026-04-19T16:19:36.048Z</time></trkpt><trkpt lat="42.9995601" lon="11.4577952"><ele>421.0</ele><time>2026-04-19T16:19:37.048Z</time></trkpt><trkpt lat="42.999703" lon="11.4577839"><ele>421.0</ele><time>2026-04-19T16:19:38.049Z</time></trkpt><trkpt lat="42.9998457" lon="11.4577802"><ele>421.0</ele><time>2026-04-19T16:19:39.048Z</time></trkpt><trkpt lat="42.9999886" lon="11.4577796"><ele>421.0</ele><time>2026-04-19T16:19:40.048Z</time></trkpt><trkpt lat="43.0001257" lon="11.4577815"><ele>421.0</ele><time>2026-04-19T16:19:41.048Z</time></trkpt><trkpt lat="43.0002579" lon="11.4577843"><ele>421.0</ele><time>2026-04-19T16:19:42.049Z</time></trkpt><trkpt lat="43.0003956" lon="11.4577875"><ele>421.0</ele><time>2026-04-19T16:19:43.049Z</time></trkpt><trkpt lat="43.0005332" lon="11.457805"><ele>421.0</ele><time>2026-04-19T16:19:44.049Z</time></trkpt><trkpt lat="43.0006657" lon="11.4578515"><ele>421.0</ele><time>2026-04-19T16:19:45.049Z</time></trkpt><trkpt lat="43.0007999" lon="11.4579142"><ele>421.0</ele><time>2026-04-19T16:19:46.049Z</time></trkpt><trkpt lat="43.000933" lon="11.4580044"><ele>421.0</ele><time>2026-04-19T16:19:47.048Z</time></trkpt><trkpt lat="43.00106" lon="11.4581023"><ele>423.25</ele><time>2026-04-19T16:19:48.048Z</time></trkpt><trkpt lat="43.0011836" lon="11.4582058"><ele>425.5</ele><time>2026-04-19T16:19:49.049Z</time></trkpt><trkpt lat="43.0013043" lon="11.4583091"><ele>427.75</ele><time>2026-04-19T16:19:50.048Z</time></trkpt><trkpt lat="43.0014241" lon="11.4584118"><ele>430.0</ele><time>2026-04-19T16:19:51.048Z</time></trkpt><trkpt lat="43.0015407" lon="11.4585107"><ele>430.0</ele><time>2026-04-19T16:19:52.049Z</time></trkpt><trkpt lat="43.0016595" lon="11.4586092"><ele>430.0</ele><time>2026-04-19T16:19:53.048Z</time></trkpt><trkpt lat="43.001766" lon="11.4587043"><ele>430.0</ele><time>2026-04-19T16:19:54.048Z</time></trkpt><trkpt lat="43.0018711" lon="11.4587998"><ele>430.0</ele><time>2026-04-19T16:19:55.048Z</time></trkpt><trkpt lat="43.001977" lon="11.4588934"><ele>431.5</ele><time>2026-04-19T16:19:56.049Z</time></trkpt><trkpt lat="43.0020713" lon="11.4589936"><ele>433.0</ele><time>2026-04-19T16:19:57.049Z</time></trkpt><trkpt lat="43.0021625" lon="11.4591031"><ele>434.5</ele><time>2026-04-19T16:19:58.048Z</time></trkpt><trkpt lat="43.0022553" lon="11.4592119"><ele>436.0</ele><time>2026-04-19T16:19:59.048Z</time></trkpt><trkpt lat="43.0023437" lon="11.459337"><ele>436.0</ele><time>2026-04-19T16:20:00.049Z</time></trkpt><trkpt lat="43.0024296" lon="11.4594698"><ele>436.0</ele><time>2026-04-19T16:20:01.048Z</time></trkpt><trkpt lat="43.0025105" lon="11.4596118"><ele>436.0</ele><time>2026-04-19T16:20:02.048Z</time></trkpt><trkpt lat="43.0025892" lon="11.4597556"><ele>436.0</ele><time>2026-04-19T16:20:03.048Z</time></trkpt><trkpt lat="43.0026629" lon="11.4599052"><ele>435.0</ele><time>2026-04-19T16:20:04.048Z</time></trkpt><trkpt lat="43.0027403" lon="11.4600627"><ele>434.0</ele><time>2026-04-19T16:20:05.048Z</time></trkpt><trkpt lat="43.0028039" lon="11.4602269"><ele>433.0</ele><time>2026-04-19T16:20:06.048Z</time></trkpt><trkpt lat="43.0028587" lon="11.4603992"><ele>432.0</ele><time>2026-04-19T16:20:07.048Z</time></trkpt><trkpt lat="43.002904" lon="11.4605837"><ele>432.0</ele><time>2026-04-19T16:20:08.048Z</time></trkpt><trkpt lat="43.0029393" lon="11.4607544"><ele>432.0</ele><time>2026-04-19T16:20:09.048Z</time></trkpt><trkpt lat="43.0029657" lon="11.4609385"><ele>432.0</ele><time>2026-04-19T16:20:10.049Z</time></trkpt><trkpt lat="43.0029853" lon="11.461123"><ele>432.0</ele><time>2026-04-19T16:20:11.048Z</time></trkpt><trkpt lat="43.002996" lon="11.4613101"><ele>431.0</ele><time>2026-04-19T16:20:12.048Z</time></trkpt><trkpt lat="43.0029966" lon="11.4615"><ele>430.0</ele><time>2026-04-19T16:20:13.048Z</time></trkpt><trkpt lat="43.0029974" lon="11.4617006"><ele>429.0</ele><time>2026-04-19T16:20:14.048Z</time></trkpt><trkpt lat="43.0030025" lon="11.4618869"><ele>428.0</ele><time>2026-04-19T16:20:15.048Z</time></trkpt><trkpt lat="43.0030152" lon="11.4620711"><ele>427.75</ele><time>2026-04-19T16:20:16.049Z</time></trkpt><trkpt lat="43.0030406" lon="11.4622503"><ele>427.5</ele><time>2026-04-19T16:20:17.048Z</time></trkpt><trkpt lat="43.0030903" lon="11.4624218"><ele>427.25</ele><time>2026-04-19T16:20:18.049Z</time></trkpt><trkpt lat="43.0031584" lon="11.4625735"><ele>427.0</ele><time>2026-04-19T16:20:19.048Z</time></trkpt><trkpt lat="43.0032381" lon="11.4627095"><ele>427.0</ele><time>2026-04-19T16:20:20.048Z</time></trkpt><trkpt lat="43.0033245" lon="11.4628135"><ele>427.00000000000006</ele><time>2026-04-19T16:20:21.048Z</time></trkpt><trkpt lat="43.0034128" lon="11.4629074"><ele>427.00000000000006</ele><time>2026-04-19T16:20:22.048Z</time></trkpt><trkpt lat="43.0035061" lon="11.462977"><ele>427.0</ele><time>2026-04-19T16:20:23.048Z</time></trkpt><trkpt lat="43.0035985" lon="11.4630307"><ele>427.0</ele><time>2026-04-19T16:20:24.049Z</time></trkpt><trkpt lat="43.0036902" lon="11.4630643"><ele>425.33333333333337</ele><time>2026-04-19T16:20:25.049Z</time></trkpt><trkpt lat="43.0037838" lon="11.4630842"><ele>423.6666666666667</ele><time>2026-04-19T16:20:26.048Z</time></trkpt><trkpt lat="43.0038689" lon="11.4630869"><ele>422.0</ele><time>2026-04-19T16:20:27.048Z</time></trkpt><trkpt lat="43.0039554" lon="11.4630792"><ele>420.33333333333337</ele><time>2026-04-19T16:20:28.048Z</time></trkpt><trkpt lat="43.0040361" lon="11.4630671"><ele>418.6666666666667</ele><time>2026-04-19T16:20:29.048Z</time></trkpt><trkpt lat="43.0041104" lon="11.4630438"><ele>417.0</ele><time>2026-04-19T16:20:30.048Z</time></trkpt><trkpt lat="43.0041836" lon="11.4630082"><ele>417.0</ele><time>2026-04-19T16:20:31.048Z</time></trkpt><trkpt lat="43.0042556" lon="11.4629717"><ele>417.0</ele><time>2026-04-19T16:20:32.048Z</time></trkpt><trkpt lat="43.0043323" lon="11.4629296"><ele>417.0</ele><time>2026-04-19T16:20:33.049Z</time></trkpt><trkpt lat="43.0044171" lon="11.4628848"><ele>417.0</ele><time>2026-04-19T16:20:34.048Z</time></trkpt><trkpt lat="43.0045072" lon="11.4628384"><ele>417.0</ele><time>2026-04-19T16:20:35.048Z</time></trkpt><trkpt lat="43.0045955" lon="11.4627894"><ele>417.0</ele><time>2026-04-19T16:20:36.048Z</time></trkpt><trkpt lat="43.0046902" lon="11.4627369"><ele>417.0</ele><time>2026-04-19T16:20:37.049Z</time></trkpt><trkpt lat="43.0047858" lon="11.4626875"><ele>417.0</ele><time>2026-04-19T16:20:38.048Z</time></trkpt><trkpt lat="43.0048894" lon="11.4626299"><ele>417.0</ele><time>2026-04-19T16:20:39.048Z</time></trkpt><trkpt lat="43.0050014" lon="11.4625697"><ele>417.0</ele><time>2026-04-19T16:20:40.048Z</time></trkpt><trkpt lat="43.0051244" lon="11.4625055"><ele>419.25</ele><time>2026-04-19T16:20:41.048Z</time></trkpt><trkpt lat="43.0052529" lon="11.4624356"><ele>421.5</ele><time>2026-04-19T16:20:42.049Z</time></trkpt><trkpt lat="43.0053717" lon="11.4623713"><ele>423.75</ele><time>2026-04-19T16:20:43.048Z</time></trkpt><trkpt lat="43.0055043" lon="11.4622993"><ele>426.0</ele><time>2026-04-19T16:20:44.048Z</time></trkpt><trkpt lat="43.0056404" lon="11.4622281"><ele>426.0</ele><time>2026-04-19T16:20:45.049Z</time></trkpt><trkpt lat="43.0057818" lon="11.4621539"><ele>426.0</ele><time>2026-04-19T16:20:46.049Z</time></trkpt><trkpt lat="43.0059285" lon="11.4620723"><ele>426.0</ele><time>2026-04-19T16:20:47.048Z</time></trkpt><trkpt lat="43.0060771" lon="11.4619877"><ele>427.66666666666663</ele><time>2026-04-19T16:20:48.049Z</time></trkpt><trkpt lat="43.006235" lon="11.4619025"><ele>429.3333333333333</ele><time>2026-04-19T16:20:49.049Z</time></trkpt><trkpt lat="43.0063999" lon="11.4618189"><ele>431.0</ele><time>2026-04-19T16:20:50.048Z</time></trkpt><trkpt lat="43.0065478" lon="11.4617423"><ele>433.75</ele><time>2026-04-19T16:20:51.048Z</time></trkpt><trkpt lat="43.0066849" lon="11.4616724"><ele>436.5</ele><time>2026-04-19T16:20:52.049Z</time></trkpt><trkpt lat="43.0068238" lon="11.4616161"><ele>439.25</ele><time>2026-04-19T16:20:53.048Z</time></trkpt><trkpt lat="43.0069617" lon="11.4615859"><ele>442.0</ele><time>2026-04-19T16:20:54.048Z</time></trkpt><trkpt lat="43.0071008" lon="11.4615958"><ele>442.0</ele><time>2026-04-19T16:20:55.049Z</time></trkpt><trkpt lat="43.0072334" lon="11.461644"><ele>442.0</ele><time>2026-04-19T16:20:56.048Z</time></trkpt><trkpt lat="43.0073553" lon="11.4617325"><ele>442.0</ele><time>2026-04-19T16:20:57.048Z</time></trkpt><trkpt lat="43.0074577" lon="11.4618556"><ele>442.0</ele><time>2026-04-19T16:20:58.049Z</time></trkpt><trkpt lat="43.0075394" lon="11.4620091"><ele>445.0</ele><time>2026-04-19T16:20:59.048Z</time></trkpt><trkpt lat="43.0075913" lon="11.462188"><ele>448.0</ele><time>2026-04-19T16:21:00.048Z</time></trkpt><trkpt lat="43.0076132" lon="11.4623764"><ele>451.0</ele><time>2026-04-19T16:21:01.048Z</time></trkpt><trkpt lat="43.0076022" lon="11.4625696"><ele>454.0</ele><time>2026-04-19T16:21:02.048Z</time></trkpt><trkpt lat="43.0075578" lon="11.4627524"><ele>454.0</ele><time>2026-04-19T16:21:03.048Z</time></trkpt><trkpt lat="43.0074973" lon="11.4629348"><ele>454.0</ele><time>2026-04-19T16:21:04.048Z</time></trkpt><trkpt lat="43.0074282" lon="11.4631271"><ele>454.0</ele><time>2026-04-19T16:21:05.049Z</time></trkpt><trkpt lat="43.0073663" lon="11.4633259"><ele>453.6666666666667</ele><time>2026-04-19T16:21:06.048Z</time></trkpt><trkpt lat="43.007313" lon="11.4635382"><ele>453.33333333333337</ele><time>2026-04-19T16:21:07.048Z</time></trkpt><trkpt lat="43.0072741" lon="11.4637382"><ele>453.0</ele><time>2026-04-19T16:21:08.048Z</time></trkpt><trkpt lat="43.0072501" lon="11.4639524"><ele>454.0</ele><time>2026-04-19T16:21:09.048Z</time></trkpt><trkpt lat="43.0072442" lon="11.4641736"><ele>455.0</ele><time>2026-04-19T16:21:10.048Z</time></trkpt><trkpt lat="43.0072549" lon="11.4643936"><ele>456.0</ele><time>2026-04-19T16:21:11.048Z</time></trkpt><trkpt lat="43.0072761" lon="11.4646131"><ele>457.0</ele><time>2026-04-19T16:21:12.049Z</time></trkpt><trkpt lat="43.0072982" lon="11.4648423"><ele>458.0</ele><time>2026-04-19T16:21:13.048Z</time></trkpt><trkpt lat="43.0073252" lon="11.4650729"><ele>459.0</ele><time>2026-04-19T16:21:14.048Z</time></trkpt><trkpt lat="43.0073583" lon="11.4653061"><ele>459.66666666666663</ele><time>2026-04-19T16:21:15.048Z</time></trkpt><trkpt lat="43.0073876" lon="11.4655416"><ele>460.3333333333333</ele><time>2026-04-19T16:21:16.049Z</time></trkpt><trkpt lat="43.0074243" lon="11.46578"><ele>461.0</ele><time>2026-04-19T16:21:17.049Z</time></trkpt><trkpt lat="43.0074733" lon="11.4660161"><ele>464.0</ele><time>2026-04-19T16:21:18.048Z</time></trkpt><trkpt lat="43.0075252" lon="11.4662539"><ele>467.0</ele><time>2026-04-19T16:21:19.048Z</time></trkpt><trkpt lat="43.0075757" lon="11.4664933"><ele>470.0</ele><time>2026-04-19T16:21:20.048Z</time></trkpt><trkpt lat="43.0076272" lon="11.4667373"><ele>471.3333333333333</ele><time>2026-04-19T16:21:21.049Z</time></trkpt><trkpt lat="43.0076795" lon="11.4669828"><ele>472.66666666666663</ele><time>2026-04-19T16:21:22.048Z</time></trkpt><trkpt lat="43.0077316" lon="11.4672324"><ele>474.0</ele><time>2026-04-19T16:21:23.048Z</time></trkpt><trkpt lat="43.0077843" lon="11.4674794"><ele>474.0</ele><time>2026-04-19T16:21:24.048Z</time></trkpt><trkpt lat="43.0078341" lon="11.4677179"><ele>474.0</ele><time>2026-04-19T16:21:25.048Z</time></trkpt><trkpt lat="43.007889" lon="11.4679657"><ele>474.0</ele><time>2026-04-19T16:21:26.048Z</time></trkpt><trkpt lat="43.0079422" lon="11.4682133"><ele>473.66666666666663</ele><time>2026-04-19T16:21:27.048Z</time></trkpt><trkpt lat="43.0079949" lon="11.4684652"><ele>473.3333333333333</ele><time>2026-04-19T16:21:28.048Z</time></trkpt><trkpt lat="43.0080452" lon="11.4687187"><ele>473.0</ele><time>2026-04-19T16:21:29.048Z</time></trkpt><trkpt lat="43.008096" lon="11.4689709"><ele>472.3333333333333</ele><time>2026-04-19T16:21:30.049Z</time></trkpt><trkpt lat="43.0081493" lon="11.4692241"><ele>471.66666666666663</ele><time>2026-04-19T16:21:31.048Z</time></trkpt><trkpt lat="43.0082034" lon="11.4694773"><ele>471.0</ele><time>2026-04-19T16:21:32.048Z</time></trkpt><trkpt lat="43.0082533" lon="11.4697285"><ele>471.0</ele><time>2026-04-19T16:21:33.048Z</time></trkpt><trkpt lat="43.008303" lon="11.4699762"><ele>471.0</ele><time>2026-04-19T16:21:34.048Z</time></trkpt><trkpt lat="43.0083546" lon="11.4702202"><ele>471.0</ele><time>2026-04-19T16:21:35.048Z</time></trkpt><trkpt lat="43.0084139" lon="11.4704608"><ele>473.66666666666663</ele><time>2026-04-19T16:21:36.048Z</time></trkpt><trkpt lat="43.0084838" lon="11.4706931"><ele>476.3333333333333</ele><time>2026-04-19T16:21:37.048Z</time></trkpt><trkpt lat="43.0085634" lon="11.4709185"><ele>479.0</ele><time>2026-04-19T16:21:38.049Z</time></trkpt><trkpt lat="43.0086558" lon="11.4711336"><ele>479.0</ele><time>2026-04-19T16:21:39.048Z</time></trkpt><trkpt lat="43.0087661" lon="11.4713372"><ele>479.0</ele><time>2026-04-19T16:21:40.049Z</time></trkpt><trkpt lat="43.0088804" lon="11.4715285"><ele>479.0</ele><time>2026-04-19T16:21:41.048Z</time></trkpt><trkpt lat="43.0089947" lon="11.4717162"><ele>479.0</ele><time>2026-04-19T16:21:42.049Z</time></trkpt><trkpt lat="43.0091103" lon="11.4719032"><ele>479.0</ele><time>2026-04-19T16:21:43.049Z</time></trkpt><trkpt lat="43.0092285" lon="11.4720916"><ele>479.0</ele><time>2026-04-19T16:21:44.049Z</time></trkpt><trkpt lat="43.0093431" lon="11.4722767"><ele>478.0</ele><time>2026-04-19T16:21:45.048Z</time></trkpt><trkpt lat="43.0094519" lon="11.4724635"><ele>477.0</ele><time>2026-04-19T16:21:46.048Z</time></trkpt><trkpt lat="43.0095325" lon="11.4726411"><ele>476.0</ele><time>2026-04-19T16:21:47.048Z</time></trkpt><trkpt lat="43.0095929" lon="11.4728321"><ele>474.66666666666663</ele><time>2026-04-19T16:21:48.048Z</time></trkpt><trkpt lat="43.0096367" lon="11.4730351"><ele>473.33333333333337</ele><time>2026-04-19T16:21:49.048Z</time></trkpt><trkpt lat="43.0096449" lon="11.4732465"><ele>472.0</ele><time>2026-04-19T16:21:50.048Z</time></trkpt><trkpt lat="43.0096305" lon="11.4734676"><ele>472.0</ele><time>2026-04-19T16:21:51.049Z</time></trkpt><trkpt lat="43.0096042" lon="11.4736956"><ele>472.0</ele><time>2026-04-19T16:21:52.049Z</time></trkpt><trkpt lat="43.0095696" lon="11.4739225"><ele>472.0</ele><time>2026-04-19T16:21:53.048Z</time></trkpt><trkpt lat="43.0095292" lon="11.4741461"><ele>474.33333333333337</ele><time>2026-04-19T16:21:54.048Z</time></trkpt><trkpt lat="43.0094915" lon="11.4743744"><ele>476.66666666666663</ele><time>2026-04-19T16:21:55.048Z</time></trkpt><trkpt lat="43.0094551" lon="11.4745998"><ele>479.0</ele><time>2026-04-19T16:21:56.048Z</time></trkpt><trkpt lat="43.0094245" lon="11.4748266"><ele>481.3333333333333</ele><time>2026-04-19T16:21:57.048Z</time></trkpt><trkpt lat="43.0094006" lon="11.4750508"><ele>483.66666666666663</ele><time>2026-04-19T16:21:58.048Z</time></trkpt><trkpt lat="43.0093903" lon="11.4752807"><ele>486.0</ele><time>2026-04-19T16:21:59.048Z</time></trkpt><trkpt lat="43.0093936" lon="11.475514"><ele>488.0</ele><time>2026-04-19T16:22:00.049Z</time></trkpt><trkpt lat="43.0093975" lon="11.4757517"><ele>490.0</ele><time>2026-04-19T16:22:01.048Z</time></trkpt><trkpt lat="43.0094076" lon="11.4759868"><ele>492.0</ele><time>2026-04-19T16:22:02.048Z</time></trkpt><trkpt lat="43.0094384" lon="11.476218"><ele>493.33333333333337</ele><time>2026-04-19T16:22:03.048Z</time></trkpt><trkpt lat="43.0094939" lon="11.4764421"><ele>494.6666666666667</ele><time>2026-04-19T16:22:04.049Z</time></trkpt><trkpt lat="43.0095657" lon="11.4766545"><ele>496.0</ele><time>2026-04-19T16:22:05.049Z</time></trkpt><trkpt lat="43.0096622" lon="11.4768483"><ele>496.0</ele><time>2026-04-19T16:22:06.048Z</time></trkpt><trkpt lat="43.0097786" lon="11.4770308"><ele>496.0</ele><time>2026-04-19T16:22:07.048Z</time></trkpt><trkpt lat="43.0099063" lon="11.4772104"><ele>496.0</ele><time>2026-04-19T16:22:08.048Z</time></trkpt><trkpt lat="43.0100395" lon="11.4773852"><ele>499.33333333333337</ele><time>2026-04-19T16:22:09.049Z</time></trkpt><trkpt lat="43.0101683" lon="11.4775564"><ele>502.66666666666663</ele><time>2026-04-19T16:22:10.048Z</time></trkpt><trkpt lat="43.0103014" lon="11.4777267"><ele>506.0</ele><time>2026-04-19T16:22:11.049Z</time></trkpt><trkpt lat="43.0104274" lon="11.4778993"><ele>506.66666666666663</ele><time>2026-04-19T16:22:12.048Z</time></trkpt><trkpt lat="43.0105457" lon="11.4780835"><ele>507.33333333333337</ele><time>2026-04-19T16:22:13.048Z</time></trkpt><trkpt lat="43.0106483" lon="11.4782816"><ele>508.0</ele><time>2026-04-19T16:22:14.048Z</time></trkpt><trkpt lat="43.010739" lon="11.4784953"><ele>508.0</ele><time>2026-04-19T16:22:15.048Z</time></trkpt><trkpt lat="43.0108093" lon="11.4787154"><ele>508.0</ele><time>2026-04-19T16:22:16.048Z</time></trkpt><trkpt lat="43.0108648" lon="11.4789425"><ele>508.0</ele><time>2026-04-19T16:22:17.048Z</time></trkpt><trkpt lat="43.0109128" lon="11.4791796"><ele>512.3333333333334</ele><time>2026-04-19T16:22:18.049Z</time></trkpt><trkpt lat="43.0109565" lon="11.4794114"><ele>516.6666666666666</ele><time>2026-04-19T16:22:19.049Z</time></trkpt><trkpt lat="43.0110005" lon="11.4796558"><ele>521.0</ele><time>2026-04-19T16:22:20.049Z</time></trkpt><trkpt lat="43.0110485" lon="11.4799012"><ele>522.6666666666666</ele><time>2026-04-19T16:22:21.048Z</time></trkpt><trkpt lat="43.0111023" lon="11.4801483"><ele>524.3333333333334</ele><time>2026-04-19T16:22:22.048Z</time></trkpt><trkpt lat="43.0111604" lon="11.4803962"><ele>526.0</ele><time>2026-04-19T16:22:23.048Z</time></trkpt><trkpt lat="43.0112247" lon="11.4806414"><ele>528.0</ele><time>2026-04-19T16:22:24.049Z</time></trkpt><trkpt lat="43.0112915" lon="11.4808913"><ele>530.0</ele><time>2026-04-19T16:22:25.049Z</time></trkpt><trkpt lat="43.0113539" lon="11.4811353"><ele>532.0</ele><time>2026-04-19T16:22:26.048Z</time></trkpt><trkpt lat="43.0114199" lon="11.4813847"><ele>533.3333333333334</ele><time>2026-04-19T16:22:27.048Z</time></trkpt><trkpt lat="43.0114856" lon="11.481636"><ele>534.6666666666666</ele><time>2026-04-19T16:22:28.049Z</time></trkpt><trkpt lat="43.0115521" lon="11.4818836"><ele>536.0</ele><time>2026-04-19T16:22:29.048Z</time></trkpt><trkpt lat="43.0116153" lon="11.4821326"><ele>539.0</ele><time>2026-04-19T16:22:30.048Z</time></trkpt><trkpt lat="43.0116778" lon="11.482372"><ele>542.0</ele><time>2026-04-19T16:22:31.048Z</time></trkpt><trkpt lat="43.0117359" lon="11.4825968"><ele>545.0</ele><time>2026-04-19T16:22:32.048Z</time></trkpt><trkpt lat="43.0117887" lon="11.4828094"><ele>547.3333333333333</ele><time>2026-04-19T16:22:33.048Z</time></trkpt><trkpt lat="43.0118644" lon="11.4830103"><ele>549.6666666666666</ele><time>2026-04-19T16:22:34.049Z</time></trkpt><trkpt lat="43.0119666" lon="11.4831903"><ele>552.0</ele><time>2026-04-19T16:22:35.049Z</time></trkpt><trkpt lat="43.0121022" lon="11.4833427"><ele>552.0</ele><time>2026-04-19T16:22:36.048Z</time></trkpt><trkpt lat="43.0122566" lon="11.4834812"><ele>552.0</ele><time>2026-04-19T16:22:37.049Z</time></trkpt><trkpt lat="43.0124282" lon="11.4836192"><ele>552.0</ele><time>2026-04-19T16:22:38.048Z</time></trkpt><trkpt lat="43.0126017" lon="11.4837605"><ele>552.0</ele><time>2026-04-19T16:22:39.048Z</time></trkpt><trkpt lat="43.0127781" lon="11.483904"><ele>552.0</ele><time>2026-04-19T16:22:40.048Z</time></trkpt><trkpt lat="43.0129539" lon="11.4840461"><ele>552.0</ele><time>2026-04-19T16:22:41.048Z</time></trkpt><trkpt lat="43.0131231" lon="11.4841814"><ele>552.0</ele><time>2026-04-19T16:22:42.048Z</time></trkpt><trkpt lat="43.0132851" lon="11.4843096"><ele>552.0</ele><time>2026-04-19T16:22:43.048Z</time></trkpt><trkpt lat="43.0134432" lon="11.4844312"><ele>552.0</ele><time>2026-04-19T16:22:44.048Z</time></trkpt><trkpt lat="43.0136019" lon="11.4845525"><ele>552.3333333333334</ele><time>2026-04-19T16:22:45.048Z</time></trkpt><trkpt lat="43.0137633" lon="11.48465"><ele>552.6666666666667</ele><time>2026-04-19T16:22:46.048Z</time></trkpt><trkpt lat="43.0139291" lon="11.4847164"><ele>553.0</ele><time>2026-04-19T16:22:47.049Z</time></trkpt><trkpt lat="43.0140948" lon="11.4847544"><ele>551.6666666666667</ele><time>2026-04-19T16:22:48.048Z</time></trkpt><trkpt lat="43.014272" lon="11.4847714"><ele>550.3333333333334</ele><time>2026-04-19T16:22:49.048Z</time></trkpt><trkpt lat="43.0144503" lon="11.48475"><ele>549.0</ele><time>2026-04-19T16:22:50.048Z</time></trkpt><trkpt lat="43.0146232" lon="11.4846976"><ele>549.0</ele><time>2026-04-19T16:22:51.048Z</time></trkpt><trkpt lat="43.0147975" lon="11.4846227"><ele>549.0</ele><time>2026-04-19T16:22:52.048Z</time></trkpt><trkpt lat="43.0149649" lon="11.4845174"><ele>549.0</ele><time>2026-04-19T16:22:53.049Z</time></trkpt><trkpt lat="43.0151325" lon="11.4844055"><ele>551.0</ele><time>2026-04-19T16:22:54.049Z</time></trkpt><trkpt lat="43.0153026" lon="11.4842906"><ele>553.0</ele><time>2026-04-19T16:22:55.048Z</time></trkpt><trkpt lat="43.0154734" lon="11.484174"><ele>555.0</ele><time>2026-04-19T16:22:56.048Z</time></trkpt><trkpt lat="43.0156447" lon="11.4840576"><ele>555.0</ele><time>2026-04-19T16:22:57.048Z</time></trkpt><trkpt lat="43.0158158" lon="11.4839465"><ele>555.0</ele><time>2026-04-19T16:22:58.048Z</time></trkpt><trkpt lat="43.0159887" lon="11.4838268"><ele>555.0</ele><time>2026-04-19T16:22:59.048Z</time></trkpt><trkpt lat="43.0161576" lon="11.483703"><ele>556.0</ele><time>2026-04-19T16:23:00.048Z</time></trkpt><trkpt lat="43.0163299" lon="11.4835842"><ele>557.0</ele><time>2026-04-19T16:23:01.049Z</time></trkpt><trkpt lat="43.0165004" lon="11.4834642"><ele>558.0</ele><time>2026-04-19T16:23:02.048Z</time></trkpt><trkpt lat="43.0166759" lon="11.4833537"><ele>558.0</ele><time>2026-04-19T16:23:03.048Z</time></trkpt><trkpt lat="43.016849" lon="11.4832516"><ele>558.0</ele><time>2026-04-19T16:23:04.048Z</time></trkpt><trkpt lat="43.0170282" lon="11.483185"><ele>558.0</ele><time>2026-04-19T16:23:05.048Z</time></trkpt><trkpt lat="43.0172063" lon="11.4831377"><ele>558.0</ele><time>2026-04-19T16:23:06.049Z</time></trkpt><trkpt lat="43.0173906" lon="11.4831229"><ele>558.0</ele><time>2026-04-19T16:23:07.048Z</time></trkpt><trkpt lat="43.0175703" lon="11.4831398"><ele>558.0</ele><time>2026-04-19T16:23:08.048Z</time></trkpt><trkpt lat="43.0177469" lon="11.4831918"><ele>560.3333333333334</ele><time>2026-04-19T16:23:09.048Z</time></trkpt><trkpt lat="43.0179205" lon="11.4832661"><ele>562.6666666666667</ele><time>2026-04-19T16:23:10.048Z</time></trkpt><trkpt lat="43.0180995" lon="11.483355"><ele>565.0</ele><time>2026-04-19T16:23:11.048Z</time></trkpt><trkpt lat="43.0182784" lon="11.4834441"><ele>567.6666666666667</ele><time>2026-04-19T16:23:12.048Z</time></trkpt><trkpt lat="43.0184582" lon="11.4835418"><ele>570.3333333333334</ele><time>2026-04-19T16:23:13.048Z</time></trkpt><trkpt lat="43.0186354" lon="11.4836376"><ele>573.0</ele><time>2026-04-19T16:23:14.048Z</time></trkpt><trkpt lat="43.0188198" lon="11.4837346"><ele>573.0</ele><time>2026-04-19T16:23:15.048Z</time></trkpt><trkpt lat="43.0190039" lon="11.4838311"><ele>573.0</ele><time>2026-04-19T16:23:16.048Z</time></trkpt><trkpt lat="43.0191922" lon="11.4839163"><ele>573.0</ele><time>2026-04-19T16:23:17.048Z</time></trkpt><trkpt lat="43.0193826" lon="11.4839569"><ele>575.3333333333334</ele><time>2026-04-19T16:23:18.048Z</time></trkpt><trkpt lat="43.0195803" lon="11.4839513"><ele>577.6666666666667</ele><time>2026-04-19T16:23:19.048Z</time></trkpt><trkpt lat="43.0197746" lon="11.4839145"><ele>580.0</ele><time>2026-04-19T16:23:20.048Z</time></trkpt><trkpt lat="43.0199666" lon="11.4838552"><ele>580.6666666666667</ele><time>2026-04-19T16:23:21.048Z</time></trkpt><trkpt lat="43.0201576" lon="11.4837882"><ele>581.3333333333334</ele><time>2026-04-19T16:23:22.048Z</time></trkpt><trkpt lat="43.020348" lon="11.4837284"><ele>582.0</ele><time>2026-04-19T16:23:23.049Z</time></trkpt><trkpt lat="43.020541" lon="11.4836686"><ele>582.0</ele><time>2026-04-19T16:23:24.048Z</time></trkpt><trkpt lat="43.0207328" lon="11.4836187"><ele>582.0</ele><time>2026-04-19T16:23:25.048Z</time></trkpt><trkpt lat="43.0209268" lon="11.4835873"><ele>582.0</ele><time>2026-04-19T16:23:26.048Z</time></trkpt><trkpt lat="43.0211203" lon="11.4835693"><ele>583.3333333333334</ele><time>2026-04-19T16:23:27.049Z</time></trkpt><trkpt lat="43.0213192" lon="11.4835582"><ele>584.6666666666667</ele><time>2026-04-19T16:23:28.048Z</time></trkpt><trkpt lat="43.0215146" lon="11.4835433"><ele>586.0</ele><time>2026-04-19T16:23:29.048Z</time></trkpt><trkpt lat="43.0217127" lon="11.4835314"><ele>587.3333333333334</ele><time>2026-04-19T16:23:30.048Z</time></trkpt><trkpt lat="43.0219074" lon="11.4835211"><ele>588.6666666666666</ele><time>2026-04-19T16:23:31.048Z</time></trkpt><trkpt lat="43.0221016" lon="11.4835123"><ele>590.0</ele><time>2026-04-19T16:23:32.048Z</time></trkpt><trkpt lat="43.0222949" lon="11.4835021"><ele>592.3333333333333</ele><time>2026-04-19T16:23:33.048Z</time></trkpt><trkpt lat="43.0224938" lon="11.4834932"><ele>594.6666666666666</ele><time>2026-04-19T16:23:34.048Z</time></trkpt><trkpt lat="43.0226963" lon="11.483487"><ele>597.0</ele><time>2026-04-19T16:23:35.048Z</time></trkpt><trkpt lat="43.0228969" lon="11.4834769"><ele>597.0</ele><time>2026-04-19T16:23:36.049Z</time></trkpt><trkpt lat="43.0230829" lon="11.4834686"><ele>597.0</ele><time>2026-04-19T16:23:37.048Z</time></trkpt><trkpt lat="43.0232632" lon="11.4834506"><ele>597.0</ele><time>2026-04-19T16:23:38.049Z</time></trkpt><trkpt lat="43.0234485" lon="11.4834112"><ele>599.0</ele><time>2026-04-19T16:23:39.048Z</time></trkpt><trkpt lat="43.0236251" lon="11.4833485"><ele>601.0</ele><time>2026-04-19T16:23:40.048Z</time></trkpt><trkpt lat="43.0237893" lon="11.4832813"><ele>603.0</ele><time>2026-04-19T16:23:41.048Z</time></trkpt><trkpt lat="43.0239462" lon="11.4832036"><ele>603.0</ele><time>2026-04-19T16:23:42.048Z</time></trkpt><trkpt lat="43.024104" lon="11.4831338"><ele>603.0</ele><time>2026-04-19T16:23:43.048Z</time></trkpt><trkpt lat="43.02425" lon="11.4830553"><ele>603.0</ele><time>2026-04-19T16:23:44.048Z</time></trkpt><trkpt lat="43.0243848" lon="11.482967"><ele>603.3333333333334</ele><time>2026-04-19T16:23:45.048Z</time></trkpt><trkpt lat="43.0245161" lon="11.4828544"><ele>603.6666666666667</ele><time>2026-04-19T16:23:46.048Z</time></trkpt><trkpt lat="43.0246397" lon="11.4827263"><ele>604.0</ele><time>2026-04-19T16:23:47.048Z</time></trkpt><trkpt lat="43.0247645" lon="11.4825859"><ele>604.0</ele><time>2026-04-19T16:23:48.049Z</time></trkpt><trkpt lat="43.0248891" lon="11.4824411"><ele>604.0</ele><time>2026-04-19T16:23:49.048Z</time></trkpt><trkpt lat="43.0250183" lon="11.4823017"><ele>604.0</ele><time>2026-04-19T16:23:50.049Z</time></trkpt><trkpt lat="43.0251441" lon="11.4821609"><ele>606.6666666666667</ele><time>2026-04-19T16:23:51.049Z</time></trkpt><trkpt lat="43.0252701" lon="11.4820252"><ele>609.3333333333334</ele><time>2026-04-19T16:23:52.048Z</time></trkpt><trkpt lat="43.025396" lon="11.4819034"><ele>612.0</ele><time>2026-04-19T16:23:53.048Z</time></trkpt><trkpt lat="43.0255339" lon="11.4817931"><ele>612.0</ele><time>2026-04-19T16:23:54.048Z</time></trkpt><trkpt lat="43.0256856" lon="11.4817058"><ele>612.0</ele><time>2026-04-19T16:23:55.049Z</time></trkpt><trkpt lat="43.0258457" lon="11.4816431"><ele>612.0</ele><time>2026-04-19T16:23:56.048Z</time></trkpt><trkpt lat="43.0260175" lon="11.4816031"><ele>611.3333333333334</ele><time>2026-04-19T16:23:57.048Z</time></trkpt><trkpt lat="43.0261926" lon="11.4815766"><ele>610.6666666666667</ele><time>2026-04-19T16:23:58.048Z</time></trkpt><trkpt lat="43.0263775" lon="11.4815453"><ele>610.0</ele><time>2026-04-19T16:23:59.049Z</time></trkpt><trkpt lat="43.0265709" lon="11.4815114"><ele>609.3333333333334</ele><time>2026-04-19T16:24:00.048Z</time></trkpt><trkpt lat="43.0267712" lon="11.4814785"><ele>608.6666666666666</ele><time>2026-04-19T16:24:01.048Z</time></trkpt><trkpt lat="43.0269896" lon="11.4814527"><ele>608.0</ele><time>2026-04-19T16:24:02.048Z</time></trkpt><trkpt lat="43.0272155" lon="11.4814234"><ele>608.0</ele><time>2026-04-19T16:24:03.048Z</time></trkpt><trkpt lat="43.0274604" lon="11.4814002"><ele>608.0</ele><time>2026-04-19T16:24:04.049Z</time></trkpt><trkpt lat="43.0277197" lon="11.481374"><ele>608.5</ele><time>2026-04-19T16:24:05.048Z</time></trkpt><trkpt lat="43.027987" lon="11.4813496"><ele>609.0</ele><time>2026-04-19T16:24:06.048Z</time></trkpt><trkpt lat="43.0282643" lon="11.4813255"><ele>607.0</ele><time>2026-04-19T16:24:07.048Z</time></trkpt><trkpt lat="43.0285521" lon="11.4812966"><ele>605.0</ele><time>2026-04-19T16:24:08.048Z</time></trkpt><trkpt lat="43.0288488" lon="11.4812645"><ele>605.0</ele><time>2026-04-19T16:24:09.048Z</time></trkpt><trkpt lat="43.0291389" lon="11.4812387"><ele>605.0</ele><time>2026-04-19T16:24:10.048Z</time></trkpt><trkpt lat="43.0294204" lon="11.4812189"><ele>608.5</ele><time>2026-04-19T16:24:11.049Z</time></trkpt><trkpt lat="43.0296867" lon="11.4812016"><ele>612.0</ele><time>2026-04-19T16:24:12.048Z</time></trkpt><trkpt lat="43.0299407" lon="11.4811859"><ele>615.0</ele><time>2026-04-19T16:24:13.048Z</time></trkpt><trkpt lat="43.0301857" lon="11.4811733"><ele>618.0</ele><time>2026-04-19T16:24:14.049Z</time></trkpt><trkpt lat="43.030422" lon="11.4811628"><ele>618.0</ele><time>2026-04-19T16:24:15.048Z</time></trkpt><trkpt lat="43.0306491" lon="11.4811563"><ele>618.0</ele><time>2026-04-19T16:24:16.048Z</time></trkpt><trkpt lat="43.030879" lon="11.4811519"><ele>618.0</ele><time>2026-04-19T16:24:17.048Z</time></trkpt><trkpt lat="43.031102" lon="11.4811451"><ele>618.0</ele><time>2026-04-19T16:24:18.048Z</time></trkpt><trkpt lat="43.0313243" lon="11.4811406"><ele>618.0</ele><time>2026-04-19T16:24:19.048Z</time></trkpt><trkpt lat="43.0315379" lon="11.4811342"><ele>619.6666666666666</ele><time>2026-04-19T16:24:20.048Z</time></trkpt><trkpt lat="43.03174" lon="11.4811351"><ele>621.3333333333333</ele><time>2026-04-19T16:24:21.049Z</time></trkpt><trkpt lat="43.0319283" lon="11.4811304"><ele>623.0</ele><time>2026-04-19T16:24:22.048Z</time></trkpt><trkpt lat="43.0321124" lon="11.4811292"><ele>623.0</ele><time>2026-04-19T16:24:23.049Z</time></trkpt><trkpt lat="43.0322935" lon="11.4811225"><ele>623.0</ele><time>2026-04-19T16:24:24.049Z</time></trkpt><trkpt lat="43.0324788" lon="11.4810995"><ele>623.0</ele><time>2026-04-19T16:24:25.049Z</time></trkpt><trkpt lat="43.0326623" lon="11.4810601"><ele>623.3333333333333</ele><time>2026-04-19T16:24:26.048Z</time></trkpt><trkpt lat="43.0328423" lon="11.4809932"><ele>623.6666666666666</ele><time>2026-04-19T16:24:27.049Z</time></trkpt><trkpt lat="43.033021" lon="11.4809302"><ele>624.0</ele><time>2026-04-19T16:24:28.049Z</time></trkpt><trkpt lat="43.033191" lon="11.4808675"><ele>627.0</ele><time>2026-04-19T16:24:29.048Z</time></trkpt><trkpt lat="43.0333546" lon="11.4808139"><ele>630.0</ele><time>2026-04-19T16:24:30.048Z</time></trkpt><trkpt lat="43.0335073" lon="11.4807619"><ele>633.0</ele><time>2026-04-19T16:24:31.049Z</time></trkpt><trkpt lat="43.0336508" lon="11.4807078"><ele>633.0</ele><time>2026-04-19T16:24:32.048Z</time></trkpt><trkpt lat="43.033791" lon="11.48066"><ele>633.0</ele><time>2026-04-19T16:24:33.048Z</time></trkpt><trkpt lat="43.0339292" lon="11.4806159"><ele>633.0</ele><time>2026-04-19T16:24:34.048Z</time></trkpt><trkpt lat="43.0340621" lon="11.4805686"><ele>633.0</ele><time>2026-04-19T16:24:35.048Z</time></trkpt><trkpt lat="43.0341936" lon="11.4805148"><ele>633.0</ele><time>2026-04-19T16:24:36.048Z</time></trkpt><trkpt lat="43.0343234" lon="11.4804391"><ele>633.0</ele><time>2026-04-19T16:24:37.049Z</time></trkpt><trkpt lat="43.0344383" lon="11.4803247"><ele>633.0</ele><time>2026-04-19T16:24:38.048Z</time></trkpt><trkpt lat="43.0345419" lon="11.4801747"><ele>633.0</ele><time>2026-04-19T16:24:39.048Z</time></trkpt><trkpt lat="43.0346341" lon="11.4799983"><ele>633.0</ele><time>2026-04-19T16:24:40.048Z</time></trkpt><trkpt lat="43.0347215" lon="11.4798098"><ele>633.0</ele><time>2026-04-19T16:24:41.048Z</time></trkpt><trkpt lat="43.0348083" lon="11.4796261"><ele>633.0</ele><time>2026-04-19T16:24:42.048Z</time></trkpt><trkpt lat="43.034908" lon="11.4794663"><ele>628.3333333333334</ele><time>2026-04-19T16:24:43.048Z</time></trkpt><trkpt lat="43.0350279" lon="11.4793223"><ele>623.6666666666667</ele><time>2026-04-19T16:24:44.048Z</time></trkpt><trkpt lat="43.0351674" lon="11.4792079"><ele>619.0</ele><time>2026-04-19T16:24:45.049Z</time></trkpt><trkpt lat="43.0353215" lon="11.4791295"><ele>619.0</ele><time>2026-04-19T16:24:46.049Z</time></trkpt><trkpt lat="43.0354909" lon="11.4790978"><ele>619.0</ele><time>2026-04-19T16:24:47.048Z</time></trkpt><trkpt lat="43.0356615" lon="11.4791087"><ele>619.0</ele><time>2026-04-19T16:24:48.049Z</time></trkpt><trkpt lat="43.0358313" lon="11.47917"><ele>616.0</ele><time>2026-04-19T16:24:49.048Z</time></trkpt><trkpt lat="43.0359894" lon="11.4792647"><ele>613.0</ele><time>2026-04-19T16:24:50.049Z</time></trkpt><trkpt lat="43.0361415" lon="11.479365"><ele>610.0</ele><time>2026-04-19T16:24:51.048Z</time></trkpt><trkpt lat="43.0362934" lon="11.4794657"><ele>610.0</ele><time>2026-04-19T16:24:52.048Z</time></trkpt><trkpt lat="43.0364397" lon="11.4795593"><ele>610.0</ele><time>2026-04-19T16:24:53.048Z</time></trkpt><trkpt lat="43.0365841" lon="11.4796557"><ele>610.0</ele><time>2026-04-19T16:24:54.049Z</time></trkpt><trkpt lat="43.036725" lon="11.4797492"><ele>607.0</ele><time>2026-04-19T16:24:55.048Z</time></trkpt><trkpt lat="43.0368622" lon="11.4798405"><ele>604.0</ele><time>2026-04-19T16:24:56.049Z</time></trkpt><trkpt lat="43.0369966" lon="11.4799348"><ele>601.0</ele><time>2026-04-19T16:24:57.048Z</time></trkpt><trkpt lat="43.0371323" lon="11.4800341"><ele>601.0</ele><time>2026-04-19T16:24:58.048Z</time></trkpt><trkpt lat="43.0372755" lon="11.4801465"><ele>601.0</ele><time>2026-04-19T16:24:59.048Z</time></trkpt><trkpt lat="43.0374242" lon="11.4802708"><ele>601.0</ele><time>2026-04-19T16:25:00.048Z</time></trkpt><trkpt lat="43.037574" lon="11.4804066"><ele>598.0</ele><time>2026-04-19T16:25:01.048Z</time></trkpt><trkpt lat="43.0377311" lon="11.4805445"><ele>595.0</ele><time>2026-04-19T16:25:02.049Z</time></trkpt><trkpt lat="43.0378901" lon="11.4806822"><ele>592.0</ele><time>2026-04-19T16:25:03.048Z</time></trkpt><trkpt lat="43.0380542" lon="11.4808249"><ele>592.0</ele><time>2026-04-19T16:25:04.048Z</time></trkpt><trkpt lat="43.0382155" lon="11.4809676"><ele>592.0</ele><time>2026-04-19T16:25:05.049Z</time></trkpt><trkpt lat="43.0383809" lon="11.4811123"><ele>592.0</ele><time>2026-04-19T16:25:06.048Z</time></trkpt><trkpt lat="43.0385471" lon="11.4812574"><ele>591.0</ele><time>2026-04-19T16:25:07.048Z</time></trkpt><trkpt lat="43.0387158" lon="11.4814073"><ele>590.0</ele><time>2026-04-19T16:25:08.048Z</time></trkpt><trkpt lat="43.038883" lon="11.4815567"><ele>589.0</ele><time>2026-04-19T16:25:09.049Z</time></trkpt><trkpt lat="43.0390521" lon="11.4817063"><ele>591.3333333333334</ele><time>2026-04-19T16:25:10.048Z</time></trkpt><trkpt lat="43.0392158" lon="11.481851"><ele>593.6666666666666</ele><time>2026-04-19T16:25:11.048Z</time></trkpt><trkpt lat="43.0393789" lon="11.4819894"><ele>596.0</ele><time>2026-04-19T16:25:12.049Z</time></trkpt><trkpt lat="43.0395419" lon="11.4821303"><ele>599.0</ele><time>2026-04-19T16:25:13.048Z</time></trkpt><trkpt lat="43.0397024" lon="11.482268"><ele>602.0</ele><time>2026-04-19T16:25:14.049Z</time></trkpt><trkpt lat="43.0398593" lon="11.4824047"><ele>605.0</ele><time>2026-04-19T16:25:15.048Z</time></trkpt><trkpt lat="43.0400161" lon="11.4825348"><ele>606.6666666666666</ele><time>2026-04-19T16:25:16.048Z</time></trkpt><trkpt lat="43.0401782" lon="11.482659"><ele>608.3333333333334</ele><time>2026-04-19T16:25:17.049Z</time></trkpt><trkpt lat="43.0403477" lon="11.4827632"><ele>610.0</ele><time>2026-04-19T16:25:18.048Z</time></trkpt><trkpt lat="43.0405222" lon="11.4828462"><ele>610.0</ele><time>2026-04-19T16:25:19.049Z</time></trkpt><trkpt lat="43.0407059" lon="11.4829147"><ele>610.0</ele><time>2026-04-19T16:25:20.048Z</time></trkpt><trkpt lat="43.0408886" lon="11.482973"><ele>610.0</ele><time>2026-04-19T16:25:21.048Z</time></trkpt><trkpt lat="43.0410778" lon="11.4830286"><ele>610.6666666666667</ele><time>2026-04-19T16:25:22.049Z</time></trkpt><trkpt lat="43.0412647" lon="11.4830844"><ele>611.3333333333334</ele><time>2026-04-19T16:25:23.049Z</time></trkpt><trkpt lat="43.0414497" lon="11.4831379"><ele>612.0</ele><time>2026-04-19T16:25:24.048Z</time></trkpt><trkpt lat="43.0416325" lon="11.4831901"><ele>612.0</ele><time>2026-04-19T16:25:25.048Z</time></trkpt><trkpt lat="43.0418165" lon="11.4832456"><ele>612.0</ele><time>2026-04-19T16:25:26.048Z</time></trkpt><trkpt lat="43.0420034" lon="11.4832973"><ele>612.0</ele><time>2026-04-19T16:25:27.048Z</time></trkpt><trkpt lat="43.0421785" lon="11.4833491"><ele>612.0</ele><time>2026-04-19T16:25:28.048Z</time></trkpt><trkpt lat="43.0423424" lon="11.4833912"><ele>612.0</ele><time>2026-04-19T16:25:29.048Z</time></trkpt><trkpt lat="43.0425034" lon="11.4834402"><ele>612.0</ele><time>2026-04-19T16:25:30.048Z</time></trkpt><trkpt lat="43.0426597" lon="11.4834822"><ele>612.25</ele><time>2026-04-19T16:25:31.048Z</time></trkpt><trkpt lat="43.0428044" lon="11.483528"><ele>612.5</ele><time>2026-04-19T16:25:32.048Z</time></trkpt><trkpt lat="43.042938" lon="11.4835696"><ele>612.75</ele><time>2026-04-19T16:25:33.048Z</time></trkpt><trkpt lat="43.0430697" lon="11.4836067"><ele>613.0</ele><time>2026-04-19T16:25:34.049Z</time></trkpt><trkpt lat="43.043193" lon="11.4836447"><ele>613.5</ele><time>2026-04-19T16:25:35.049Z</time></trkpt><trkpt lat="43.0433139" lon="11.4836842"><ele>614.0</ele><time>2026-04-19T16:25:36.048Z</time></trkpt><trkpt lat="43.0434404" lon="11.4837285"><ele>614.5</ele><time>2026-04-19T16:25:37.048Z</time></trkpt><trkpt lat="43.0435643" lon="11.4837885"><ele>615.0</ele><time>2026-04-19T16:25:38.048Z</time></trkpt><trkpt lat="43.0436911" lon="11.4838721"><ele>614.0</ele><time>2026-04-19T16:25:39.049Z</time></trkpt><trkpt lat="43.0438096" lon="11.483972"><ele>613.0</ele><time>2026-04-19T16:25:40.048Z</time></trkpt><trkpt lat="43.0439296" lon="11.4840869"><ele>612.0</ele><time>2026-04-19T16:25:41.048Z</time></trkpt><trkpt lat="43.0440436" lon="11.484201"><ele>611.0</ele><time>2026-04-19T16:25:42.048Z</time></trkpt><trkpt lat="43.0441488" lon="11.4843101"><ele>611.0</ele><time>2026-04-19T16:25:43.048Z</time></trkpt><trkpt lat="43.0442481" lon="11.4844139"><ele>611.0</ele><time>2026-04-19T16:25:44.048Z</time></trkpt><trkpt lat="43.044335" lon="11.4845136"><ele>611.0</ele><time>2026-04-19T16:25:45.049Z</time></trkpt><trkpt lat="43.0444102" lon="11.4846229"><ele>611.0</ele><time>2026-04-19T16:25:46.048Z</time></trkpt><trkpt lat="43.0444772" lon="11.4847472"><ele>611.25</ele><time>2026-04-19T16:25:47.048Z</time></trkpt><trkpt lat="43.0445271" lon="11.4848841"><ele>611.5</ele><time>2026-04-19T16:25:48.049Z</time></trkpt><trkpt lat="43.0445724" lon="11.4850314"><ele>611.75</ele><time>2026-04-19T16:25:49.049Z</time></trkpt><trkpt lat="43.0446194" lon="11.4851911"><ele>612.0</ele><time>2026-04-19T16:25:50.048Z</time></trkpt><trkpt lat="43.0446668" lon="11.485359"><ele>612.5</ele><time>2026-04-19T16:25:51.048Z</time></trkpt><trkpt lat="43.044719" lon="11.4855349"><ele>613.0</ele><time>2026-04-19T16:25:52.049Z</time></trkpt><trkpt lat="43.0447711" lon="11.4857198"><ele>613.5</ele><time>2026-04-19T16:25:53.048Z</time></trkpt><trkpt lat="43.0448219" lon="11.4859057"><ele>614.0</ele><time>2026-04-19T16:25:54.048Z</time></trkpt><trkpt lat="43.0448755" lon="11.4860915"><ele>614.25</ele><time>2026-04-19T16:25:55.048Z</time></trkpt><trkpt lat="43.0449262" lon="11.486271"><ele>614.5</ele><time>2026-04-19T16:25:56.048Z</time></trkpt><trkpt lat="43.0449754" lon="11.4864352"><ele>614.75</ele><time>2026-04-19T16:25:57.049Z</time></trkpt><trkpt lat="43.0450222" lon="11.4865944"><ele>615.0</ele><time>2026-04-19T16:25:58.048Z</time></trkpt><trkpt lat="43.0450693" lon="11.4867358"><ele>615.0</ele><time>2026-04-19T16:25:59.049Z</time></trkpt><trkpt lat="43.0451387" lon="11.4868598"><ele>615.0</ele><time>2026-04-19T16:26:00.048Z</time></trkpt><trkpt lat="43.0452254" lon="11.4869549"><ele>615.0</ele><time>2026-04-19T16:26:01.048Z</time></trkpt><trkpt lat="43.0453137" lon="11.4870457"><ele>615.0</ele><time>2026-04-19T16:26:02.048Z</time></trkpt><trkpt lat="43.0454325" lon="11.4870479"><ele>615.0</ele><time>2026-04-19T16:26:03.048Z</time></trkpt><trkpt lat="43.0455443" lon="11.4870625"><ele>615.0</ele><time>2026-04-19T16:26:04.048Z</time></trkpt><trkpt lat="43.0456587" lon="11.487074"><ele>615.0</ele><time>2026-04-19T16:26:05.048Z</time></trkpt><trkpt lat="43.0457787" lon="11.4870935"><ele>615.0</ele><time>2026-04-19T16:26:06.048Z</time></trkpt><trkpt lat="43.0458871" lon="11.4871673"><ele>614.5</ele><time>2026-04-19T16:26:07.048Z</time></trkpt><trkpt lat="43.0459759" lon="11.4872608"><ele>614.0</ele><time>2026-04-19T16:26:08.049Z</time></trkpt><trkpt lat="43.0460706" lon="11.4873561"><ele>613.5</ele><time>2026-04-19T16:26:09.048Z</time></trkpt><trkpt lat="43.0461499" lon="11.4874769"><ele>613.0</ele><time>2026-04-19T16:26:10.048Z</time></trkpt><trkpt lat="43.0461833" lon="11.4876905"><ele>613.0</ele><time>2026-04-19T16:26:11.048Z</time></trkpt><trkpt lat="43.0462312" lon="11.487856"><ele>613.0</ele><time>2026-04-19T16:26:12.048Z</time></trkpt><trkpt lat="43.0462674" lon="11.4880383"><ele>613.0</ele><time>2026-04-19T16:26:13.049Z</time></trkpt><trkpt lat="43.0463012" lon="11.4882269"><ele>613.0</ele><time>2026-04-19T16:26:14.048Z</time></trkpt><trkpt lat="43.046344" lon="11.4884323"><ele>610.25</ele><time>2026-04-19T16:26:15.048Z</time></trkpt><trkpt lat="43.0463727" lon="11.4886096"><ele>607.5</ele><time>2026-04-19T16:26:16.048Z</time></trkpt><trkpt lat="43.0464178" lon="11.488785"><ele>604.75</ele><time>2026-04-19T16:26:17.049Z</time></trkpt><trkpt lat="43.0464565" lon="11.4889468"><ele>602.0</ele><time>2026-04-19T16:26:18.049Z</time></trkpt><trkpt lat="43.0465084" lon="11.4891008"><ele>600.0</ele><time>2026-04-19T16:26:19.048Z</time></trkpt><trkpt lat="43.0465805" lon="11.4892431"><ele>598.0</ele><time>2026-04-19T16:26:20.048Z</time></trkpt><trkpt lat="43.0466679" lon="11.4893622"><ele>596.0</ele><time>2026-04-19T16:26:21.048Z</time></trkpt><trkpt lat="43.0467749" lon="11.4894517"><ele>594.0</ele><time>2026-04-19T16:26:22.048Z</time></trkpt><trkpt lat="43.0468922" lon="11.4895101"><ele>594.75</ele><time>2026-04-19T16:26:23.048Z</time></trkpt><trkpt lat="43.0470174" lon="11.4895287"><ele>595.5</ele><time>2026-04-19T16:26:24.049Z</time></trkpt><trkpt lat="43.0471421" lon="11.4895359"><ele>596.25</ele><time>2026-04-19T16:26:25.048Z</time></trkpt><trkpt lat="43.0472674" lon="11.4895608"><ele>597.0</ele><time>2026-04-19T16:26:26.048Z</time></trkpt><trkpt lat="43.0473812" lon="11.4896167"><ele>598.5</ele><time>2026-04-19T16:26:27.048Z</time></trkpt><trkpt lat="43.0474935" lon="11.4897092"><ele>600.0</ele><time>2026-04-19T16:26:28.049Z</time></trkpt><trkpt lat="43.0475945" lon="11.4898056"><ele>601.5</ele><time>2026-04-19T16:26:29.048Z</time></trkpt><trkpt lat="43.0476896" lon="11.4899059"><ele>603.0</ele><time>2026-04-19T16:26:30.048Z</time></trkpt><trkpt lat="43.0477918" lon="11.489997"><ele>603.0</ele><time>2026-04-19T16:26:31.048Z</time></trkpt><trkpt lat="43.047908" lon="11.4900513"><ele>603.0</ele><time>2026-04-19T16:26:32.048Z</time></trkpt><trkpt lat="43.0480294" lon="11.4900605"><ele>603.0</ele><time>2026-04-19T16:26:33.048Z</time></trkpt><trkpt lat="43.0481436" lon="11.4900404"><ele>603.0</ele><time>2026-04-19T16:26:34.048Z</time></trkpt><trkpt lat="43.0482634" lon="11.4900099"><ele>603.0</ele><time>2026-04-19T16:26:35.048Z</time></trkpt><trkpt lat="43.0483728" lon="11.489984"><ele>603.0</ele><time>2026-04-19T16:26:36.048Z</time></trkpt><trkpt lat="43.0484865" lon="11.4899574"><ele>603.0</ele><time>2026-04-19T16:26:37.049Z</time></trkpt><trkpt lat="43.0485989" lon="11.4899405"><ele>603.0</ele><time>2026-04-19T16:26:38.048Z</time></trkpt><trkpt lat="43.0487129" lon="11.4899426"><ele>603.0</ele><time>2026-04-19T16:26:39.048Z</time></trkpt><trkpt lat="43.0487964" lon="11.4900576"><ele>603.0</ele><time>2026-04-19T16:26:40.048Z</time></trkpt><trkpt lat="43.0488666" lon="11.4901841"><ele>603.0</ele><time>2026-04-19T16:26:41.049Z</time></trkpt><trkpt lat="43.0489195" lon="11.4903327"><ele>603.0</ele><time>2026-04-19T16:26:42.048Z</time></trkpt><trkpt lat="43.0489635" lon="11.4904819"><ele>601.0</ele><time>2026-04-19T16:26:43.049Z</time></trkpt><trkpt lat="43.0490025" lon="11.4906414"><ele>599.0</ele><time>2026-04-19T16:26:44.049Z</time></trkpt><trkpt lat="43.0490451" lon="11.4907868"><ele>597.0</ele><time>2026-04-19T16:26:45.048Z</time></trkpt><trkpt lat="43.0491052" lon="11.490905"><ele>595.0</ele><time>2026-04-19T16:26:46.048Z</time></trkpt><trkpt lat="43.0491891" lon="11.4909981"><ele>595.0</ele><time>2026-04-19T16:26:47.048Z</time></trkpt><trkpt lat="43.0492905" lon="11.4910307"><ele>595.0</ele><time>2026-04-19T16:26:48.048Z</time></trkpt><trkpt lat="43.0493981" lon="11.4910229"><ele>595.0</ele><time>2026-04-19T16:26:49.048Z</time></trkpt><trkpt lat="43.0495106" lon="11.4910028"><ele>595.0</ele><time>2026-04-19T16:26:50.049Z</time></trkpt><trkpt lat="43.0496329" lon="11.4909817"><ele>595.0</ele><time>2026-04-19T16:26:51.049Z</time></trkpt><trkpt lat="43.0497524" lon="11.4909778"><ele>595.0</ele><time>2026-04-19T16:26:52.048Z</time></trkpt><trkpt lat="43.0498613" lon="11.4909934"><ele>595.0</ele><time>2026-04-19T16:26:53.049Z</time></trkpt><trkpt lat="43.0499703" lon="11.4909911"><ele>595.0</ele><time>2026-04-19T16:26:54.048Z</time></trkpt><trkpt lat="43.0500792" lon="11.4909654"><ele>595.0</ele><time>2026-04-19T16:26:55.048Z</time></trkpt><trkpt lat="43.0501804" lon="11.4909065"><ele>595.0</ele><time>2026-04-19T16:26:56.048Z</time></trkpt><trkpt lat="43.0502636" lon="11.4908003"><ele>595.5</ele><time>2026-04-19T16:26:57.048Z</time></trkpt><trkpt lat="43.0503302" lon="11.490664"><ele>596.0</ele><time>2026-04-19T16:26:58.048Z</time></trkpt><trkpt lat="43.0503978" lon="11.4905227"><ele>596.5</ele><time>2026-04-19T16:26:59.048Z</time></trkpt><trkpt lat="43.0504655" lon="11.4903815"><ele>597.0</ele><time>2026-04-19T16:27:00.048Z</time></trkpt><trkpt lat="43.050532" lon="11.490242"><ele>600.5</ele><time>2026-04-19T16:27:01.048Z</time></trkpt><trkpt lat="43.0506024" lon="11.4901058"><ele>604.0</ele><time>2026-04-19T16:27:02.048Z</time></trkpt><trkpt lat="43.0506611" lon="11.4899716"><ele>607.5</ele><time>2026-04-19T16:27:03.048Z</time></trkpt><trkpt lat="43.0507193" lon="11.4898416"><ele>611.0</ele><time>2026-04-19T16:27:04.048Z</time></trkpt><trkpt lat="43.0507803" lon="11.4897149"><ele>609.2</ele><time>2026-04-19T16:27:05.049Z</time></trkpt><trkpt lat="43.0508505" lon="11.4896074"><ele>607.4000000000001</ele><time>2026-04-19T16:27:06.048Z</time></trkpt><trkpt lat="43.0509455" lon="11.4895389"><ele>605.6</ele><time>2026-04-19T16:27:07.049Z</time></trkpt><trkpt lat="43.0510465" lon="11.4895129"><ele>603.8000000000001</ele><time>2026-04-19T16:27:08.049Z</time></trkpt><trkpt lat="43.0511358" lon="11.4894789"><ele>602.0</ele><time>2026-04-19T16:27:09.048Z</time></trkpt><trkpt lat="43.0512254" lon="11.489613"><ele>598.75</ele><time>2026-04-19T16:27:10.049Z</time></trkpt><trkpt lat="43.0512924" lon="11.4897269"><ele>595.5</ele><time>2026-04-19T16:27:11.048Z</time></trkpt><trkpt lat="43.0513513" lon="11.4898722"><ele>592.25</ele><time>2026-04-19T16:27:12.048Z</time></trkpt><trkpt lat="43.0514177" lon="11.4900278"><ele>589.0</ele><time>2026-04-19T16:27:13.048Z</time></trkpt><trkpt lat="43.051482" lon="11.4901779"><ele>589.0</ele><time>2026-04-19T16:27:14.049Z</time></trkpt><trkpt lat="43.0515419" lon="11.4903254"><ele>589.0</ele><time>2026-04-19T16:27:15.048Z</time></trkpt><trkpt lat="43.0516126" lon="11.4904625"><ele>589.0</ele><time>2026-04-19T16:27:16.048Z</time></trkpt><trkpt lat="43.0516952" lon="11.4905832"><ele>589.0</ele><time>2026-04-19T16:27:17.048Z</time></trkpt><trkpt lat="43.0517879" lon="11.4906891"><ele>585.0</ele><time>2026-04-19T16:27:18.049Z</time></trkpt><trkpt lat="43.0518807" lon="11.4907837"><ele>581.0</ele><time>2026-04-19T16:27:19.049Z</time></trkpt><trkpt lat="43.0519768" lon="11.4908715"><ele>577.0</ele><time>2026-04-19T16:27:20.048Z</time></trkpt><trkpt lat="43.0520823" lon="11.4909353"><ele>573.0</ele><time>2026-04-19T16:27:21.048Z</time></trkpt><trkpt lat="43.0521933" lon="11.4909696"><ele>573.0</ele><time>2026-04-19T16:27:22.048Z</time></trkpt><trkpt lat="43.0523076" lon="11.4909732"><ele>573.0</ele><time>2026-04-19T16:27:23.049Z</time></trkpt><trkpt lat="43.0524237" lon="11.4909428"><ele>573.0</ele><time>2026-04-19T16:27:24.048Z</time></trkpt><trkpt lat="43.0525371" lon="11.4908904"><ele>573.0</ele><time>2026-04-19T16:27:25.049Z</time></trkpt><trkpt lat="43.0526467" lon="11.4908308"><ele>574.0</ele><time>2026-04-19T16:27:26.048Z</time></trkpt><trkpt lat="43.0527547" lon="11.4907662"><ele>575.0</ele><time>2026-04-19T16:27:27.048Z</time></trkpt><trkpt lat="43.0528596" lon="11.4906993"><ele>576.0</ele><time>2026-04-19T16:27:28.049Z</time></trkpt><trkpt lat="43.0529519" lon="11.4906182"><ele>577.0</ele><time>2026-04-19T16:27:29.048Z</time></trkpt><trkpt lat="43.0530321" lon="11.4905066"><ele>580.5</ele><time>2026-04-19T16:27:30.048Z</time></trkpt><trkpt lat="43.053095" lon="11.490373"><ele>584.0</ele><time>2026-04-19T16:27:31.049Z</time></trkpt><trkpt lat="43.0531421" lon="11.4902333"><ele>587.5</ele><time>2026-04-19T16:27:32.048Z</time></trkpt><trkpt lat="43.053178" lon="11.4900928"><ele>591.0</ele><time>2026-04-19T16:27:33.048Z</time></trkpt><trkpt lat="43.0532103" lon="11.4899433"><ele>591.0</ele><time>2026-04-19T16:27:34.049Z</time></trkpt><trkpt lat="43.0532369" lon="11.4897911"><ele>591.0</ele><time>2026-04-19T16:27:35.048Z</time></trkpt><trkpt lat="43.0532651" lon="11.4896385"><ele>591.0</ele><time>2026-04-19T16:27:36.048Z</time></trkpt><trkpt lat="43.0532975" lon="11.489489"><ele>591.0</ele><time>2026-04-19T16:27:37.049Z</time></trkpt><trkpt lat="43.0533318" lon="11.4893399"><ele>586.6</ele><time>2026-04-19T16:27:38.048Z</time></trkpt><trkpt lat="43.0533653" lon="11.4892016"><ele>582.2</ele><time>2026-04-19T16:27:39.048Z</time></trkpt><trkpt lat="43.0534197" lon="11.4890751"><ele>577.8</ele><time>2026-04-19T16:27:40.048Z</time></trkpt><trkpt lat="43.053501" lon="11.4889865"><ele>573.4</ele><time>2026-04-19T16:27:41.048Z</time></trkpt><trkpt lat="43.0535976" lon="11.4889199"><ele>569.0</ele><time>2026-04-19T16:27:42.048Z</time></trkpt><trkpt lat="43.0536982" lon="11.4888745"><ele>569.0</ele><time>2026-04-19T16:27:43.048Z</time></trkpt><trkpt lat="43.0537991" lon="11.488833"><ele>569.0</ele><time>2026-04-19T16:27:44.049Z</time></trkpt><trkpt lat="43.0538969" lon="11.4887973"><ele>569.0</ele><time>2026-04-19T16:27:45.049Z</time></trkpt><trkpt lat="43.0539982" lon="11.4887654"><ele>569.0</ele><time>2026-04-19T16:27:46.048Z</time></trkpt><trkpt lat="43.054097" lon="11.4887318"><ele>569.0</ele><time>2026-04-19T16:27:47.048Z</time></trkpt><trkpt lat="43.0541937" lon="11.4887023"><ele>568.2</ele><time>2026-04-19T16:27:48.049Z</time></trkpt><trkpt lat="43.0542927" lon="11.4886776"><ele>567.4</ele><time>2026-04-19T16:27:49.049Z</time></trkpt><trkpt lat="43.0543943" lon="11.4886744"><ele>566.6</ele><time>2026-04-19T16:27:50.049Z</time></trkpt><trkpt lat="43.0544939" lon="11.4886885"><ele>565.8</ele><time>2026-04-19T16:27:51.048Z</time></trkpt><trkpt lat="43.054585" lon="11.4887174"><ele>565.0</ele><time>2026-04-19T16:27:52.048Z</time></trkpt><trkpt lat="43.0546679" lon="11.4887524"><ele>563.3333333333334</ele><time>2026-04-19T16:27:53.049Z</time></trkpt><trkpt lat="43.0547475" lon="11.4887871"><ele>561.6666666666667</ele><time>2026-04-19T16:27:54.048Z</time></trkpt><trkpt lat="43.0548193" lon="11.4888347"><ele>560.0</ele><time>2026-04-19T16:27:55.049Z</time></trkpt><trkpt lat="43.0548788" lon="11.4888849"><ele>558.3333333333334</ele><time>2026-04-19T16:27:56.048Z</time></trkpt><trkpt lat="43.054934" lon="11.4889312"><ele>556.6666666666666</ele><time>2026-04-19T16:27:57.048Z</time></trkpt><trkpt lat="43.055031" lon="11.4890366"><ele>555.0</ele><time>2026-04-19T16:27:59.048Z</time></trkpt><trkpt lat="43.0550878" lon="11.4890805"><ele>554.6666666666666</ele><time>2026-04-19T16:28:00.049Z</time></trkpt><trkpt lat="43.0551503" lon="11.4890946"><ele>554.3333333333334</ele><time>2026-04-19T16:28:01.048Z</time></trkpt><trkpt lat="43.0552772" lon="11.4890752"><ele>554.0</ele><time>2026-04-19T16:28:03.048Z</time></trkpt><trkpt lat="43.0553472" lon="11.4890503"><ele>553.6666666666667</ele><time>2026-04-19T16:28:04.049Z</time></trkpt><trkpt lat="43.0554192" lon="11.4890235"><ele>553.3333333333334</ele><time>2026-04-19T16:28:05.048Z</time></trkpt><trkpt lat="43.0554881" lon="11.4889912"><ele>553.0</ele><time>2026-04-19T16:28:06.048Z</time></trkpt><trkpt lat="43.0555596" lon="11.4889629"><ele>553.0</ele><time>2026-04-19T16:28:07.048Z</time></trkpt><trkpt lat="43.0556349" lon="11.4889443"><ele>553.0</ele><time>2026-04-19T16:28:08.049Z</time></trkpt><trkpt lat="43.0557056" lon="11.4889487"><ele>553.0</ele><time>2026-04-19T16:28:09.049Z</time></trkpt><trkpt lat="43.055775" lon="11.4889669"><ele>553.0</ele><time>2026-04-19T16:28:10.048Z</time></trkpt><trkpt lat="43.0558511" lon="11.4889945"><ele>553.0</ele><time>2026-04-19T16:28:11.048Z</time></trkpt><trkpt lat="43.055921" lon="11.4890279"><ele>553.0</ele><time>2026-04-19T16:28:12.048Z</time></trkpt><trkpt lat="43.0559938" lon="11.4890426"><ele>553.0</ele><time>2026-04-19T16:28:13.049Z</time></trkpt><trkpt lat="43.0560719" lon="11.4890344"><ele>552.3333333333334</ele><time>2026-04-19T16:28:14.048Z</time></trkpt><trkpt lat="43.0561489" lon="11.4890117"><ele>551.6666666666667</ele><time>2026-04-19T16:28:15.048Z</time></trkpt><trkpt lat="43.0562268" lon="11.4889874"><ele>551.0</ele><time>2026-04-19T16:28:16.048Z</time></trkpt><trkpt lat="43.0563007" lon="11.4889627"><ele>550.3333333333334</ele><time>2026-04-19T16:28:17.048Z</time></trkpt><trkpt lat="43.0563738" lon="11.4889352"><ele>549.6666666666666</ele><time>2026-04-19T16:28:18.049Z</time></trkpt><trkpt lat="43.0564478" lon="11.4889092"><ele>549.0</ele><time>2026-04-19T16:28:19.048Z</time></trkpt><trkpt lat="43.0565171" lon="11.4888771"><ele>549.0</ele><time>2026-04-19T16:28:20.048Z</time></trkpt><trkpt lat="43.056581" lon="11.4888392"><ele>549.0</ele><time>2026-04-19T16:28:21.048Z</time></trkpt><trkpt lat="43.0566531" lon="11.4888082"><ele>549.0</ele><time>2026-04-19T16:28:22.048Z</time></trkpt><trkpt lat="43.0567134" lon="11.488773"><ele>549.0</ele><time>2026-04-19T16:28:23.048Z</time></trkpt><trkpt lat="43.0567731" lon="11.4887282"><ele>549.0</ele><time>2026-04-19T16:28:24.048Z</time></trkpt><trkpt lat="43.0568578" lon="11.4886257"><ele>549.0</ele><time>2026-04-19T16:28:26.049Z</time></trkpt><trkpt lat="43.0569233" lon="11.4885223"><ele>546.8333333333334</ele><time>2026-04-19T16:28:28.048Z</time></trkpt><trkpt lat="43.0569799" lon="11.4884571"><ele>544.6666666666666</ele><time>2026-04-19T16:28:31.048Z</time></trkpt><trkpt lat="43.0569951" lon="11.4883617"><ele>542.5</ele><time>2026-04-19T16:30:28.048Z</time></trkpt><trkpt lat="43.0570507" lon="11.4882459"><ele>540.3333333333333</ele><time>2026-04-19T16:30:30.048Z</time></trkpt><trkpt lat="43.0571173" lon="11.4881085"><ele>538.1666666666666</ele><time>2026-04-19T16:30:32.047Z</time></trkpt><trkpt lat="43.0571532" lon="11.4880368"><ele>536.0</ele><time>2026-04-19T16:30:33.049Z</time></trkpt><trkpt lat="43.0571881" lon="11.4879628"><ele>533.6</ele><time>2026-04-19T16:30:34.048Z</time></trkpt><trkpt lat="43.0572583" lon="11.4878231"><ele>531.2</ele><time>2026-04-19T16:30:36.05Z</time></trkpt><trkpt lat="43.0573233" lon="11.4877001"><ele>528.8</ele><time>2026-04-19T16:30:38.049Z</time></trkpt><trkpt lat="43.0573747" lon="11.4876285"><ele>526.4</ele><time>2026-04-19T16:30:40.047Z</time></trkpt><trkpt lat="43.0573059" lon="11.4876725"><ele>524.0</ele><time>2026-04-19T16:30:48.049Z</time></trkpt><trkpt lat="43.0572324" lon="11.4878064"><ele>524.0</ele><time>2026-04-19T16:30:50.047Z</time></trkpt><trkpt lat="43.0571879" lon="11.4878919"><ele>524.0</ele><time>2026-04-19T16:30:51.053Z</time></trkpt><trkpt lat="43.0571511" lon="11.4879952"><ele>524.0</ele><time>2026-04-19T16:30:52.05Z</time></trkpt><trkpt lat="43.0571075" lon="11.4880952"><ele>524.0</ele><time>2026-04-19T16:30:53.049Z</time></trkpt><trkpt lat="43.0570636" lon="11.4881963"><ele>524.0</ele><time>2026-04-19T16:30:54.049Z</time></trkpt><trkpt lat="43.0570129" lon="11.4882936"><ele>524.0</ele><time>2026-04-19T16:30:55.048Z</time></trkpt><trkpt lat="43.056966" lon="11.4883965"><ele>526.4</ele><time>2026-04-19T16:30:56.048Z</time></trkpt><trkpt lat="43.0569137" lon="11.488495"><ele>528.8</ele><time>2026-04-19T16:30:57.048Z</time></trkpt><trkpt lat="43.0568554" lon="11.4885959"><ele>531.2</ele><time>2026-04-19T16:30:58.049Z</time></trkpt><trkpt lat="43.0567918" lon="11.4886769"><ele>533.6</ele><time>2026-04-19T16:30:59.048Z</time></trkpt><trkpt lat="43.056715" lon="11.4887377"><ele>536.0</ele><time>2026-04-19T16:31:00.047Z</time></trkpt><trkpt lat="43.0566356" lon="11.4887985"><ele>538.6</ele><time>2026-04-19T16:31:01.048Z</time></trkpt><trkpt lat="43.056553" lon="11.4888416"><ele>541.2</ele><time>2026-04-19T16:31:02.048Z</time></trkpt><trkpt lat="43.056464" lon="11.4888776"><ele>543.8</ele><time>2026-04-19T16:31:03.048Z</time></trkpt><trkpt lat="43.056374" lon="11.4889127"><ele>546.4</ele><time>2026-04-19T16:31:04.047Z</time></trkpt><trkpt lat="43.0562833" lon="11.48895"><ele>549.0</ele><time>2026-04-19T16:31:05.048Z</time></trkpt><trkpt lat="43.0561924" lon="11.4889855"><ele>549.0</ele><time>2026-04-19T16:31:06.047Z</time></trkpt><trkpt lat="43.0561038" lon="11.4890104"><ele>549.0</ele><time>2026-04-19T16:31:07.047Z</time></trkpt><trkpt lat="43.0560161" lon="11.489016"><ele>549.0</ele><time>2026-04-19T16:31:08.048Z</time></trkpt><trkpt lat="43.0559308" lon="11.4889906"><ele>549.0</ele><time>2026-04-19T16:31:09.049Z</time></trkpt><trkpt lat="43.0558421" lon="11.4889614"><ele>549.0</ele><time>2026-04-19T16:31:10.048Z</time></trkpt><trkpt lat="43.0557516" lon="11.488935"><ele>549.0</ele><time>2026-04-19T16:31:11.048Z</time></trkpt><trkpt lat="43.0556638" lon="11.4889191"><ele>549.6666666666666</ele><time>2026-04-19T16:31:12.048Z</time></trkpt><trkpt lat="43.0555856" lon="11.4889248"><ele>550.3333333333334</ele><time>2026-04-19T16:31:13.047Z</time></trkpt><trkpt lat="43.055511" lon="11.4889395"><ele>551.0</ele><time>2026-04-19T16:31:14.047Z</time></trkpt><trkpt lat="43.0554437" lon="11.4889578"><ele>551.6666666666667</ele><time>2026-04-19T16:31:15.049Z</time></trkpt><trkpt lat="43.0553312" lon="11.4889778"><ele>552.3333333333334</ele><time>2026-04-19T16:31:17.047Z</time></trkpt><trkpt lat="43.0552472" lon="11.4889785"><ele>553.0</ele><time>2026-04-19T16:31:19.048Z</time></trkpt><trkpt lat="43.0551512" lon="11.4889718"><ele>553.0</ele><time>2026-04-19T16:31:21.048Z</time></trkpt><trkpt lat="43.0550537" lon="11.4889664"><ele>553.0</ele><time>2026-04-19T16:31:23.049Z</time></trkpt><trkpt lat="43.0549678" lon="11.4889358"><ele>553.0</ele><time>2026-04-19T16:31:25.049Z</time></trkpt><trkpt lat="43.0548854" lon="11.4888383"><ele>553.0</ele><time>2026-04-19T16:31:27.049Z</time></trkpt><trkpt lat="43.0548101" lon="11.4887375"><ele>553.0</ele><time>2026-04-19T16:31:29.051Z</time></trkpt><trkpt lat="43.0547442" lon="11.4886552"><ele>553.0</ele><time>2026-04-19T16:31:31.988Z</time></trkpt><trkpt lat="43.0547162" lon="11.488733"><ele>553.0</ele><time>2026-04-19T16:32:30.047Z</time></trkpt><trkpt lat="43.054771" lon="11.488818"><ele>553.0</ele><time>2026-04-19T16:32:32.047Z</time></trkpt><trkpt lat="43.0548406" lon="11.4888779"><ele>553.0</ele><time>2026-04-19T16:32:34.048Z</time></trkpt><trkpt lat="43.0549134" lon="11.4889374"><ele>553.0</ele><time>2026-04-19T16:32:36.047Z</time></trkpt><trkpt lat="43.0549684" lon="11.4890118"><ele>553.0</ele><time>2026-04-19T16:32:39.047Z</time></trkpt><trkpt lat="43.0549407" lon="11.4891052"><ele>553.4</ele><time>2026-04-19T16:32:42.046Z</time></trkpt><trkpt lat="43.0548695" lon="11.4891178"><ele>553.8</ele><time>2026-04-19T16:32:44.048Z</time></trkpt><trkpt lat="43.0547759" lon="11.4891255"><ele>554.2</ele><time>2026-04-19T16:32:46.049Z</time></trkpt><trkpt lat="43.054672" lon="11.4891315"><ele>554.6</ele><time>2026-04-19T16:32:48.049Z</time></trkpt><trkpt lat="43.0545679" lon="11.4891424"><ele>555.0</ele><time>2026-04-19T16:32:50.049Z</time></trkpt><trkpt lat="43.054457" lon="11.489149"><ele>555.0</ele><time>2026-04-19T16:32:52.049Z</time></trkpt><trkpt lat="43.0543419" lon="11.4891557"><ele>555.0</ele><time>2026-04-19T16:32:54.051Z</time></trkpt><trkpt lat="43.0542135" lon="11.4891708"><ele>555.0</ele><time>2026-04-19T16:32:56.05Z</time></trkpt><trkpt lat="43.054137" lon="11.4891815"><ele>555.0</ele><time>2026-04-19T16:32:57.047Z</time></trkpt><trkpt lat="43.0540599" lon="11.4892044"><ele>555.0</ele><time>2026-04-19T16:32:58.05Z</time></trkpt><trkpt lat="43.0539844" lon="11.4892366"><ele>556.6666666666666</ele><time>2026-04-19T16:32:59.049Z</time></trkpt><trkpt lat="43.0539183" lon="11.4892804"><ele>558.3333333333334</ele><time>2026-04-19T16:33:00.049Z</time></trkpt><trkpt lat="43.0538583" lon="11.4893436"><ele>560.0</ele><time>2026-04-19T16:33:01.048Z</time></trkpt><trkpt lat="43.0538121" lon="11.4894264"><ele>561.6666666666667</ele><time>2026-04-19T16:33:02.049Z</time></trkpt><trkpt lat="43.0537763" lon="11.4895321"><ele>563.3333333333334</ele><time>2026-04-19T16:33:03.048Z</time></trkpt><trkpt lat="43.0537611" lon="11.4896427"><ele>565.0</ele><time>2026-04-19T16:33:04.053Z</time></trkpt><trkpt lat="43.0537522" lon="11.4897485"><ele>565.0</ele><time>2026-04-19T16:33:05.047Z</time></trkpt><trkpt lat="43.0537434" lon="11.4898591"><ele>565.0</ele><time>2026-04-19T16:33:06.048Z</time></trkpt><trkpt lat="43.0537433" lon="11.4899766"><ele>565.0</ele><time>2026-04-19T16:33:07.048Z</time></trkpt><trkpt lat="43.0537415" lon="11.4900959"><ele>565.0</ele><time>2026-04-19T16:33:08.049Z</time></trkpt><trkpt lat="43.0537389" lon="11.490219"><ele>565.0</ele><time>2026-04-19T16:33:09.049Z</time></trkpt><trkpt lat="43.0537347" lon="11.4903519"><ele>565.0</ele><time>2026-04-19T16:33:10.049Z</time></trkpt><trkpt lat="43.0537286" lon="11.4905052"><ele>564.5</ele><time>2026-04-19T16:33:11.049Z</time></trkpt><trkpt lat="43.0537228" lon="11.4906805"><ele>564.0</ele><time>2026-04-19T16:33:12.047Z</time></trkpt><trkpt lat="43.053714" lon="11.4908558"><ele>563.5</ele><time>2026-04-19T16:33:13.05Z</time></trkpt><trkpt lat="43.0537115" lon="11.4910128"><ele>563.0</ele><time>2026-04-19T16:33:14.05Z</time></trkpt><trkpt lat="43.0537045" lon="11.4911664"><ele>560.8333333333333</ele><time>2026-04-19T16:33:15.05Z</time></trkpt><trkpt lat="43.0537038" lon="11.4913074"><ele>558.6666666666666</ele><time>2026-04-19T16:33:16.047Z</time></trkpt><trkpt lat="43.053698" lon="11.491436"><ele>556.5</ele><time>2026-04-19T16:33:17.046Z</time></trkpt><trkpt lat="43.0536924" lon="11.4915556"><ele>554.3333333333334</ele><time>2026-04-19T16:33:18.048Z</time></trkpt><trkpt lat="43.0536868" lon="11.4916675"><ele>552.1666666666667</ele><time>2026-04-19T16:33:19.05Z</time></trkpt><trkpt lat="43.0536683" lon="11.4917559"><ele>550.0</ele><time>2026-04-19T16:33:20.048Z</time></trkpt><trkpt lat="43.0536305" lon="11.4918455"><ele>550.0</ele><time>2026-04-19T16:33:21.051Z</time></trkpt><trkpt lat="43.0535789" lon="11.4919152"><ele>550.0</ele><time>2026-04-19T16:33:22.049Z</time></trkpt><trkpt lat="43.0535085" lon="11.4919508"><ele>550.0</ele><time>2026-04-19T16:33:23.049Z</time></trkpt><trkpt lat="43.0534331" lon="11.4919492"><ele>550.0</ele><time>2026-04-19T16:33:24.05Z</time></trkpt><trkpt lat="43.0533473" lon="11.4919294"><ele>550.0</ele><time>2026-04-19T16:33:25.047Z</time></trkpt><trkpt lat="43.0532546" lon="11.4919003"><ele>550.0</ele><time>2026-04-19T16:33:26.046Z</time></trkpt><trkpt lat="43.0531548" lon="11.4918543"><ele>551.1666666666667</ele><time>2026-04-19T16:33:27.047Z</time></trkpt><trkpt lat="43.0530609" lon="11.491802"><ele>552.3333333333334</ele><time>2026-04-19T16:33:28.048Z</time></trkpt><trkpt lat="43.0529809" lon="11.4917497"><ele>553.5</ele><time>2026-04-19T16:33:29.051Z</time></trkpt><trkpt lat="43.0529171" lon="11.4917032"><ele>554.6666666666666</ele><time>2026-04-19T16:33:30.05Z</time></trkpt><trkpt lat="43.0528342" lon="11.4916627"><ele>555.8333333333333</ele><time>2026-04-19T16:33:32.05Z</time></trkpt><trkpt lat="43.0527783" lon="11.4917189"><ele>557.0</ele><time>2026-04-19T16:33:35.049Z</time></trkpt><trkpt lat="43.0528722" lon="11.4917958"><ele>557.0</ele><time>2026-04-19T16:33:38.048Z</time></trkpt><trkpt lat="43.0529458" lon="11.4918204"><ele>557.0</ele><time>2026-04-19T16:33:39.048Z</time></trkpt><trkpt lat="43.0530117" lon="11.4918472"><ele>557.0</ele><time>2026-04-19T16:33:40.048Z</time></trkpt><trkpt lat="43.053092" lon="11.4918776"><ele>557.0</ele><time>2026-04-19T16:33:41.05Z</time></trkpt><trkpt lat="43.0531875" lon="11.4919321"><ele>557.0</ele><time>2026-04-19T16:33:42.049Z</time></trkpt><trkpt lat="43.0532753" lon="11.4919685"><ele>557.0</ele><time>2026-04-19T16:33:43.049Z</time></trkpt><trkpt lat="43.0533743" lon="11.4919959"><ele>555.6</ele><time>2026-04-19T16:33:44.048Z</time></trkpt><trkpt lat="43.0534806" lon="11.4920072"><ele>554.2</ele><time>2026-04-19T16:33:45.049Z</time></trkpt><trkpt lat="43.0535734" lon="11.4919783"><ele>552.8</ele><time>2026-04-19T16:33:46.05Z</time></trkpt><trkpt lat="43.0536399" lon="11.4918999"><ele>551.4</ele><time>2026-04-19T16:33:47.048Z</time></trkpt><trkpt lat="43.0536933" lon="11.4917966"><ele>550.0</ele><time>2026-04-19T16:33:48.048Z</time></trkpt><trkpt lat="43.0537194" lon="11.4916621"><ele>550.0</ele><time>2026-04-19T16:33:49.049Z</time></trkpt><trkpt lat="43.0537324" lon="11.4915109"><ele>550.0</ele><time>2026-04-19T16:33:50.05Z</time></trkpt><trkpt lat="43.0537447" lon="11.49136"><ele>550.0</ele><time>2026-04-19T16:33:51.047Z</time></trkpt><trkpt lat="43.0537442" lon="11.4912062"><ele>550.0</ele><time>2026-04-19T16:33:52.049Z</time></trkpt><trkpt lat="43.0537415" lon="11.4910476"><ele>553.25</ele><time>2026-04-19T16:33:53.05Z</time></trkpt><trkpt lat="43.0537477" lon="11.4908906"><ele>556.5</ele><time>2026-04-19T16:33:54.049Z</time></trkpt><trkpt lat="43.0537508" lon="11.4907304"><ele>559.75</ele><time>2026-04-19T16:33:55.049Z</time></trkpt><trkpt lat="43.0537536" lon="11.4905609"><ele>563.0</ele><time>2026-04-19T16:33:56.049Z</time></trkpt><trkpt lat="43.0537587" lon="11.4903877"><ele>563.5</ele><time>2026-04-19T16:33:57.05Z</time></trkpt><trkpt lat="43.0537602" lon="11.4901899"><ele>564.0</ele><time>2026-04-19T16:33:58.051Z</time></trkpt><trkpt lat="43.0537674" lon="11.4900196"><ele>564.5</ele><time>2026-04-19T16:33:59.05Z</time></trkpt><trkpt lat="43.0537705" lon="11.4898548"><ele>565.0</ele><time>2026-04-19T16:34:00.048Z</time></trkpt><trkpt lat="43.053782" lon="11.4897101"><ele>565.8</ele><time>2026-04-19T16:34:01.055Z</time></trkpt><trkpt lat="43.0537977" lon="11.4895752"><ele>566.6</ele><time>2026-04-19T16:34:02.05Z</time></trkpt><trkpt lat="43.0538227" lon="11.4894418"><ele>567.4</ele><time>2026-04-19T16:34:03.048Z</time></trkpt><trkpt lat="43.0538852" lon="11.4893619"><ele>568.2</ele><time>2026-04-19T16:34:04.048Z</time></trkpt><trkpt lat="43.0539613" lon="11.489283"><ele>569.0</ele><time>2026-04-19T16:34:05.047Z</time></trkpt><trkpt lat="43.0540528" lon="11.4892424"><ele>566.2</ele><time>2026-04-19T16:34:06.058Z</time></trkpt><trkpt lat="43.0541534" lon="11.4892163"><ele>563.4</ele><time>2026-04-19T16:34:07.047Z</time></trkpt><trkpt lat="43.0542548" lon="11.4891987"><ele>560.6</ele><time>2026-04-19T16:34:08.048Z</time></trkpt><trkpt lat="43.0543713" lon="11.4891833"><ele>557.8</ele><time>2026-04-19T16:34:09.047Z</time></trkpt><trkpt lat="43.0544831" lon="11.4891765"><ele>555.0</ele><time>2026-04-19T16:34:10.048Z</time></trkpt><trkpt lat="43.0545888" lon="11.4891682"><ele>555.0</ele><time>2026-04-19T16:34:11.046Z</time></trkpt><trkpt lat="43.0546889" lon="11.4891589"><ele>555.0</ele><time>2026-04-19T16:34:12.063Z</time></trkpt><trkpt lat="43.0547795" lon="11.489152"><ele>555.0</ele><time>2026-04-19T16:34:13.047Z</time></trkpt><trkpt lat="43.054857" lon="11.4891417"><ele>555.0</ele><time>2026-04-19T16:34:14.047Z</time></trkpt><trkpt lat="43.0549638" lon="11.4891235"><ele>555.0</ele><time>2026-04-19T16:34:16.05Z</time></trkpt><trkpt lat="43.0550268" lon="11.4891673"><ele>555.0</ele><time>2026-04-19T16:34:19.05Z</time></trkpt><trkpt lat="43.0549318" lon="11.4892229"><ele>555.0</ele><time>2026-04-19T16:34:22.048Z</time></trkpt><trkpt lat="43.0548616" lon="11.4892191"><ele>555.0</ele><time>2026-04-19T16:34:23.048Z</time></trkpt><trkpt lat="43.054786" lon="11.4892203"><ele>555.0</ele><time>2026-04-19T16:34:24.048Z</time></trkpt><trkpt lat="43.0546908" lon="11.4892267"><ele>555.0</ele><time>2026-04-19T16:34:25.048Z</time></trkpt><trkpt lat="43.0545909" lon="11.4892384"><ele>555.0</ele><time>2026-04-19T16:34:26.046Z</time></trkpt><trkpt lat="43.0544827" lon="11.4892498"><ele>555.0</ele><time>2026-04-19T16:34:27.047Z</time></trkpt><trkpt lat="43.0543814" lon="11.4892672"><ele>555.0</ele><time>2026-04-19T16:34:28.049Z</time></trkpt><trkpt lat="43.0542872" lon="11.4893119"><ele>555.0</ele><time>2026-04-19T16:34:29.05Z</time></trkpt><trkpt lat="43.0542067" lon="11.4893866"><ele>555.0</ele><time>2026-04-19T16:34:30.048Z</time></trkpt><trkpt lat="43.0541524" lon="11.489489"><ele>555.0</ele><time>2026-04-19T16:34:31.047Z</time></trkpt><trkpt lat="43.0541239" lon="11.4896036"><ele>553.2</ele><time>2026-04-19T16:34:32.048Z</time></trkpt><trkpt lat="43.0541201" lon="11.489726"><ele>551.4</ele><time>2026-04-19T16:34:33.048Z</time></trkpt><trkpt lat="43.0541452" lon="11.4898462"><ele>549.6</ele><time>2026-04-19T16:34:34.049Z</time></trkpt><trkpt lat="43.0541997" lon="11.4899675"><ele>547.8</ele><time>2026-04-19T16:34:35.047Z</time></trkpt><trkpt lat="43.0542813" lon="11.4900649"><ele>546.0</ele><time>2026-04-19T16:34:36.048Z</time></trkpt><trkpt lat="43.0543726" lon="11.4901624"><ele>546.0</ele><time>2026-04-19T16:34:37.048Z</time></trkpt><trkpt lat="43.0544802" lon="11.4902627"><ele>546.0</ele><time>2026-04-19T16:34:38.049Z</time></trkpt><trkpt lat="43.0545791" lon="11.4903734"><ele>546.0</ele><time>2026-04-19T16:34:39.046Z</time></trkpt><trkpt lat="43.0546727" lon="11.4904937"><ele>546.0</ele><time>2026-04-19T16:34:40.048Z</time></trkpt><trkpt lat="43.0547675" lon="11.4906065"><ele>544.0</ele><time>2026-04-19T16:34:41.046Z</time></trkpt><trkpt lat="43.0548561" lon="11.4907336"><ele>542.0</ele><time>2026-04-19T16:34:42.048Z</time></trkpt><trkpt lat="43.0549395" lon="11.4908681"><ele>540.0</ele><time>2026-04-19T16:34:43.048Z</time></trkpt><trkpt lat="43.0550142" lon="11.4910027"><ele>538.0</ele><time>2026-04-19T16:34:44.048Z</time></trkpt><trkpt lat="43.0550844" lon="11.4911346"><ele>533.8</ele><time>2026-04-19T16:34:45.049Z</time></trkpt><trkpt lat="43.0551416" lon="11.4912842"><ele>529.5999999999999</ele><time>2026-04-19T16:34:46.049Z</time></trkpt><trkpt lat="43.0552001" lon="11.4914014"><ele>525.4000000000001</ele><time>2026-04-19T16:34:47.047Z</time></trkpt><trkpt lat="43.0552663" lon="11.4915328"><ele>521.2</ele><time>2026-04-19T16:34:48.047Z</time></trkpt><trkpt lat="43.0553262" lon="11.4916388"><ele>517.0</ele><time>2026-04-19T16:34:49.047Z</time></trkpt><trkpt lat="43.0553798" lon="11.4917214"><ele>517.0</ele><time>2026-04-19T16:34:50.047Z</time></trkpt><trkpt lat="43.0554392" lon="11.4918439"><ele>517.0</ele><time>2026-04-19T16:34:52.047Z</time></trkpt><trkpt lat="43.055399" lon="11.491916"><ele>517.0</ele><time>2026-04-19T16:34:54.05Z</time></trkpt><trkpt lat="43.0553389" lon="11.491845"><ele>517.0</ele><time>2026-04-19T16:34:56.049Z</time></trkpt><trkpt lat="43.0552895" lon="11.4917588"><ele>517.0</ele><time>2026-04-19T16:34:57.048Z</time></trkpt><trkpt lat="43.0552274" lon="11.4916724"><ele>517.0</ele><time>2026-04-19T16:34:58.048Z</time></trkpt><trkpt lat="43.0551638" lon="11.491585"><ele>517.0</ele><time>2026-04-19T16:34:59.049Z</time></trkpt><trkpt lat="43.0550926" lon="11.4914897"><ele>517.0</ele><time>2026-04-19T16:35:00.049Z</time></trkpt><trkpt lat="43.0550163" lon="11.4913742"><ele>517.0</ele><time>2026-04-19T16:35:01.047Z</time></trkpt><trkpt lat="43.0549436" lon="11.4912599"><ele>517.0</ele><time>2026-04-19T16:35:02.048Z</time></trkpt><trkpt lat="43.0548723" lon="11.4911454"><ele>517.0</ele><time>2026-04-19T16:35:03.053Z</time></trkpt><trkpt lat="43.0548008" lon="11.491047"><ele>520.5</ele><time>2026-04-19T16:35:04.055Z</time></trkpt><trkpt lat="43.0547251" lon="11.4909695"><ele>524.0</ele><time>2026-04-19T16:35:05.05Z</time></trkpt><trkpt lat="43.0546372" lon="11.4909413"><ele>527.5</ele><time>2026-04-19T16:35:06.05Z</time></trkpt><trkpt lat="43.0545519" lon="11.4909512"><ele>531.0</ele><time>2026-04-19T16:35:07.049Z</time></trkpt><trkpt lat="43.0544685" lon="11.4909906"><ele>534.5</ele><time>2026-04-19T16:35:08.048Z</time></trkpt><trkpt lat="43.0544041" lon="11.4910706"><ele>538.0</ele><time>2026-04-19T16:35:09.048Z</time></trkpt><trkpt lat="43.0543581" lon="11.4911832"><ele>537.6</ele><time>2026-04-19T16:35:10.048Z</time></trkpt><trkpt lat="43.0543525" lon="11.4913151"><ele>537.1999999999999</ele><time>2026-04-19T16:35:11.048Z</time></trkpt><trkpt lat="43.0543623" lon="11.4914623"><ele>536.8</ele><time>2026-04-19T16:35:12.048Z</time></trkpt><trkpt lat="43.0543808" lon="11.4916131"><ele>536.4</ele><time>2026-04-19T16:35:13.047Z</time></trkpt><trkpt lat="43.054401" lon="11.4917642"><ele>536.0</ele><time>2026-04-19T16:35:14.047Z</time></trkpt><trkpt lat="43.0544133" lon="11.4919289"><ele>533.0</ele><time>2026-04-19T16:35:15.048Z</time></trkpt><trkpt lat="43.054427" lon="11.4921068"><ele>530.0</ele><time>2026-04-19T16:35:16.048Z</time></trkpt><trkpt lat="43.0544361" lon="11.4922904"><ele>527.0</ele><time>2026-04-19T16:35:17.048Z</time></trkpt><trkpt lat="43.0544386" lon="11.4924724"><ele>524.0</ele><time>2026-04-19T16:35:18.049Z</time></trkpt><trkpt lat="43.0544154" lon="11.4926454"><ele>524.0</ele><time>2026-04-19T16:35:19.059Z</time></trkpt><trkpt lat="43.0543839" lon="11.4928234"><ele>524.0</ele><time>2026-04-19T16:35:20.048Z</time></trkpt><trkpt lat="43.0543374" lon="11.4929977"><ele>524.0</ele><time>2026-04-19T16:35:21.049Z</time></trkpt><trkpt lat="43.0542707" lon="11.4931549"><ele>524.0</ele><time>2026-04-19T16:35:22.048Z</time></trkpt><trkpt lat="43.0541855" lon="11.4932892"><ele>521.5</ele><time>2026-04-19T16:35:23.047Z</time></trkpt><trkpt lat="43.0540918" lon="11.4934066"><ele>519.0</ele><time>2026-04-19T16:35:24.048Z</time></trkpt><trkpt lat="43.0539895" lon="11.4935052"><ele>516.5</ele><time>2026-04-19T16:35:25.048Z</time></trkpt><trkpt lat="43.0538781" lon="11.4935966"><ele>514.0</ele><time>2026-04-19T16:35:26.049Z</time></trkpt><trkpt lat="43.053771" lon="11.4937145"><ele>512.5</ele><time>2026-04-19T16:35:27.051Z</time></trkpt><trkpt lat="43.0536731" lon="11.4938518"><ele>511.0</ele><time>2026-04-19T16:35:28.053Z</time></trkpt><trkpt lat="43.0535918" lon="11.4940101"><ele>509.5</ele><time>2026-04-19T16:35:29.049Z</time></trkpt><trkpt lat="43.0535256" lon="11.4941804"><ele>508.0</ele><time>2026-04-19T16:35:30.048Z</time></trkpt><trkpt lat="43.0534887" lon="11.4943659"><ele>508.0</ele><time>2026-04-19T16:35:31.049Z</time></trkpt><trkpt lat="43.0534741" lon="11.4945602"><ele>508.0</ele><time>2026-04-19T16:35:32.05Z</time></trkpt><trkpt lat="43.0534786" lon="11.4947521"><ele>508.0</ele><time>2026-04-19T16:35:33.048Z</time></trkpt><trkpt lat="43.0534876" lon="11.4949479"><ele>508.0</ele><time>2026-04-19T16:35:34.053Z</time></trkpt><trkpt lat="43.053501" lon="11.495141"><ele>507.25</ele><time>2026-04-19T16:35:35.051Z</time></trkpt><trkpt lat="43.0535161" lon="11.4953356"><ele>506.5</ele><time>2026-04-19T16:35:36.05Z</time></trkpt><trkpt lat="43.0535254" lon="11.4955264"><ele>505.75</ele><time>2026-04-19T16:35:37.051Z</time></trkpt><trkpt lat="43.0535263" lon="11.4957311"><ele>505.0</ele><time>2026-04-19T16:35:38.051Z</time></trkpt><trkpt lat="43.0535202" lon="11.4959454"><ele>504.6666666666667</ele><time>2026-04-19T16:35:39.052Z</time></trkpt><trkpt lat="43.0535071" lon="11.4961575"><ele>504.33333333333337</ele><time>2026-04-19T16:35:40.048Z</time></trkpt><trkpt lat="43.0534897" lon="11.4963535"><ele>504.0</ele><time>2026-04-19T16:35:41.047Z</time></trkpt><trkpt lat="43.0534648" lon="11.4965571"><ele>502.75</ele><time>2026-04-19T16:35:42.048Z</time></trkpt><trkpt lat="43.0534369" lon="11.4967543"><ele>501.5</ele><time>2026-04-19T16:35:43.05Z</time></trkpt><trkpt lat="43.0534064" lon="11.4969409"><ele>500.25</ele><time>2026-04-19T16:35:44.047Z</time></trkpt><trkpt lat="43.0533649" lon="11.4971202"><ele>499.0</ele><time>2026-04-19T16:35:45.048Z</time></trkpt><trkpt lat="43.0533191" lon="11.4972987"><ele>499.25</ele><time>2026-04-19T16:35:46.047Z</time></trkpt><trkpt lat="43.0532634" lon="11.4974738"><ele>499.5</ele><time>2026-04-19T16:35:47.047Z</time></trkpt><trkpt lat="43.0531872" lon="11.4976458"><ele>499.75</ele><time>2026-04-19T16:35:48.048Z</time></trkpt><trkpt lat="43.0531153" lon="11.4978289"><ele>500.0</ele><time>2026-04-19T16:35:49.05Z</time></trkpt><trkpt lat="43.0530296" lon="11.498018"><ele>500.0</ele><time>2026-04-19T16:35:50.048Z</time></trkpt><trkpt lat="43.0529417" lon="11.4982177"><ele>500.0</ele><time>2026-04-19T16:35:51.048Z</time></trkpt><trkpt lat="43.0528551" lon="11.4984047"><ele>500.0</ele><time>2026-04-19T16:35:52.049Z</time></trkpt><trkpt lat="43.0527713" lon="11.4985935"><ele>496.66666666666663</ele><time>2026-04-19T16:35:53.049Z</time></trkpt><trkpt lat="43.0526894" lon="11.49878"><ele>493.33333333333337</ele><time>2026-04-19T16:35:54.048Z</time></trkpt><trkpt lat="43.0526137" lon="11.4989711"><ele>490.0</ele><time>2026-04-19T16:35:55.046Z</time></trkpt><trkpt lat="43.0525371" lon="11.4991613"><ele>490.0</ele><time>2026-04-19T16:35:56.046Z</time></trkpt><trkpt lat="43.0524616" lon="11.499344"><ele>490.0</ele><time>2026-04-19T16:35:57.047Z</time></trkpt><trkpt lat="43.0523866" lon="11.4995283"><ele>490.0</ele><time>2026-04-19T16:35:58.047Z</time></trkpt><trkpt lat="43.0523106" lon="11.4997124"><ele>487.25</ele><time>2026-04-19T16:35:59.048Z</time></trkpt><trkpt lat="43.0522407" lon="11.499899"><ele>484.5</ele><time>2026-04-19T16:36:00.046Z</time></trkpt><trkpt lat="43.0521738" lon="11.500067"><ele>481.75</ele><time>2026-04-19T16:36:01.05Z</time></trkpt><trkpt lat="43.0521049" lon="11.500235"><ele>479.0</ele><time>2026-04-19T16:36:02.048Z</time></trkpt><trkpt lat="43.0520418" lon="11.5003969"><ele>477.75</ele><time>2026-04-19T16:36:03.05Z</time></trkpt><trkpt lat="43.0519852" lon="11.500565"><ele>476.5</ele><time>2026-04-19T16:36:04.049Z</time></trkpt><trkpt lat="43.0519452" lon="11.5007423"><ele>475.25</ele><time>2026-04-19T16:36:05.051Z</time></trkpt><trkpt lat="43.0519229" lon="11.5009276"><ele>474.0</ele><time>2026-04-19T16:36:06.049Z</time></trkpt><trkpt lat="43.0519215" lon="11.501121"><ele>472.75</ele><time>2026-04-19T16:36:07.048Z</time></trkpt><trkpt lat="43.0519248" lon="11.5013098"><ele>471.5</ele><time>2026-04-19T16:36:08.048Z</time></trkpt><trkpt lat="43.0519291" lon="11.5015015"><ele>470.25</ele><time>2026-04-19T16:36:09.048Z</time></trkpt><trkpt lat="43.051937" lon="11.501693"><ele>469.0</ele><time>2026-04-19T16:36:10.047Z</time></trkpt><trkpt lat="43.0519149" lon="11.5020686"><ele>468.25</ele><time>2026-04-19T16:36:12.054Z</time></trkpt><trkpt lat="43.0518755" lon="11.5022424"><ele>467.5</ele><time>2026-04-19T16:36:13.048Z</time></trkpt><trkpt lat="43.0518252" lon="11.5024052"><ele>466.75</ele><time>2026-04-19T16:36:14.048Z</time></trkpt><trkpt lat="43.0517789" lon="11.5025704"><ele>466.0</ele><time>2026-04-19T16:36:15.049Z</time></trkpt><trkpt lat="43.051744" lon="11.5027215"><ele>466.0</ele><time>2026-04-19T16:36:16.049Z</time></trkpt><trkpt lat="43.0517223" lon="11.5028788"><ele>466.0</ele><time>2026-04-19T16:36:17.047Z</time></trkpt><trkpt lat="43.0517205" lon="11.5030307"><ele>466.0</ele><time>2026-04-19T16:36:18.049Z</time></trkpt><trkpt lat="43.0517459" lon="11.5031804"><ele>466.0</ele><time>2026-04-19T16:36:19.049Z</time></trkpt><trkpt lat="43.0517807" lon="11.5033293"><ele>465.5</ele><time>2026-04-19T16:36:20.051Z</time></trkpt><trkpt lat="43.0518484" lon="11.5034814"><ele>465.0</ele><time>2026-04-19T16:36:21.051Z</time></trkpt><trkpt lat="43.0519091" lon="11.5036241"><ele>464.5</ele><time>2026-04-19T16:36:22.051Z</time></trkpt><trkpt lat="43.0519684" lon="11.5037543"><ele>464.0</ele><time>2026-04-19T16:36:23.049Z</time></trkpt><trkpt lat="43.052029" lon="11.5038762"><ele>462.4</ele><time>2026-04-19T16:36:24.049Z</time></trkpt><trkpt lat="43.0520686" lon="11.5039816"><ele>460.79999999999995</ele><time>2026-04-19T16:36:25.049Z</time></trkpt><trkpt lat="43.0521137" lon="11.5040913"><ele>459.20000000000005</ele><time>2026-04-19T16:36:26.048Z</time></trkpt><trkpt lat="43.0521527" lon="11.5041974"><ele>457.6</ele><time>2026-04-19T16:36:27.047Z</time></trkpt><trkpt lat="43.0521916" lon="11.5043093"><ele>456.0</ele><time>2026-04-19T16:36:28.049Z</time></trkpt><trkpt lat="43.0522295" lon="11.5044317"><ele>456.0</ele><time>2026-04-19T16:36:29.049Z</time></trkpt><trkpt lat="43.0522557" lon="11.5045503"><ele>456.0</ele><time>2026-04-19T16:36:30.05Z</time></trkpt><trkpt lat="43.0522719" lon="11.5046674"><ele>456.0</ele><time>2026-04-19T16:36:31.05Z</time></trkpt><trkpt lat="43.0522736" lon="11.5047756"><ele>456.0</ele><time>2026-04-19T16:36:32.049Z</time></trkpt><trkpt lat="43.0522708" lon="11.5048708"><ele>456.0</ele><time>2026-04-19T16:36:33.051Z</time></trkpt><trkpt lat="43.0522955" lon="11.5050175"><ele>456.0</ele><time>2026-04-19T16:36:35.05Z</time></trkpt><trkpt lat="43.0523819" lon="11.5050508"><ele>456.0</ele><time>2026-04-19T16:36:37.053Z</time></trkpt><trkpt lat="43.0524314" lon="11.5049723"><ele>456.0</ele><time>2026-04-19T16:36:39.05Z</time></trkpt><trkpt lat="43.0524066" lon="11.5048364"><ele>456.0</ele><time>2026-04-19T16:36:41.053Z</time></trkpt><trkpt lat="43.0523844" lon="11.5046814"><ele>456.0</ele><time>2026-04-19T16:36:43.048Z</time></trkpt><trkpt lat="43.0523798" lon="11.5045948"><ele>456.0</ele><time>2026-04-19T16:36:44.048Z</time></trkpt><trkpt lat="43.0523717" lon="11.5044334"><ele>456.0</ele><time>2026-04-19T16:36:46.051Z</time></trkpt><trkpt lat="43.0523788" lon="11.5043095"><ele>456.0</ele><time>2026-04-19T16:36:48.049Z</time></trkpt><trkpt lat="43.0523774" lon="11.5042208"><ele>456.0</ele><time>2026-04-19T16:36:51.048Z</time></trkpt><trkpt lat="43.0523558" lon="11.504308"><ele>456.0</ele><time>2026-04-19T16:37:19.047Z</time></trkpt></trkseg></trk></gpx>